<?xml version="1.0" encoding="UTF-8" standalone="no" ?>
<gpx xmlns="http://www.topografix.com/GPX/1/1" xmlns:xsi="http://www.w3.org/2001/XMLSchema-instance" xsi:schemaLocation="http://www.topografix.com/GPX/1/1 http://www.topografix.com/GPX/1/1/gpx.xsd" version="1.1" creator="VisuGPX - https://www.visugpx.com">
  <metadata>
    <name>Running sur glace</name>
    <desc><![CDATA[Petite sortie à pied au milieu du blanc]]></desc>
  </metadata>
  <trk>
    <name><![CDATA[Rue de la Seigneurie d'Héricourt]]></name>
    <trkseg>
      <trkpt lat="47.51854" lon="6.77505">
        <ele>387</ele>
        <time>2014-12-30T08:33:39Z</time>
      </trkpt>
      <trkpt lat="47.51851" lon="6.775">
        <ele>386</ele>
        <time>2014-12-30T08:33:52Z</time>
      </trkpt>
      <trkpt lat="47.51851" lon="6.77499">
        <ele>386</ele>
        <time>2014-12-30T08:33:53Z</time>
      </trkpt>
      <trkpt lat="47.51853" lon="6.77495">
        <ele>386</ele>
        <time>2014-12-30T08:34:12Z</time>
      </trkpt>
      <trkpt lat="47.51854" lon="6.77493">
        <ele>386</ele>
        <time>2014-12-30T08:34:13Z</time>
      </trkpt>
      <trkpt lat="47.51849" lon="6.77495">
        <ele>386</ele>
        <time>2014-12-30T08:34:49Z</time>
      </trkpt>
      <trkpt lat="47.51849" lon="6.77495">
        <ele>386</ele>
        <time>2014-12-30T08:34:50Z</time>
      </trkpt>
      <trkpt lat="47.51849" lon="6.77502">
        <ele>387</ele>
        <time>2014-12-30T08:34:55Z</time>
      </trkpt>
      <trkpt lat="47.51849" lon="6.77503">
        <ele>387</ele>
        <time>2014-12-30T08:34:56Z</time>
      </trkpt>
      <trkpt lat="47.51847" lon="6.77509">
        <ele>387</ele>
        <time>2014-12-30T08:35:13Z</time>
      </trkpt>
      <trkpt lat="47.51847" lon="6.7751">
        <ele>387</ele>
        <time>2014-12-30T08:35:14Z</time>
      </trkpt>
      <trkpt lat="47.51846" lon="6.77511">
        <ele>387</ele>
        <time>2014-12-30T08:35:26Z</time>
      </trkpt>
      <trkpt lat="47.51838" lon="6.77512">
        <ele>387</ele>
        <time>2014-12-30T08:35:34Z</time>
      </trkpt>
      <trkpt lat="47.51835" lon="6.77509">
        <ele>387</ele>
        <time>2014-12-30T08:35:41Z</time>
      </trkpt>
      <trkpt lat="47.51835" lon="6.77506">
        <ele>387</ele>
        <time>2014-12-30T08:35:42Z</time>
      </trkpt>
      <trkpt lat="47.51834" lon="6.77502">
        <ele>387</ele>
        <time>2014-12-30T08:35:43Z</time>
      </trkpt>
      <trkpt lat="47.51834" lon="6.77498">
        <ele>386</ele>
        <time>2014-12-30T08:35:44Z</time>
      </trkpt>
      <trkpt lat="47.51834" lon="6.77492">
        <ele>386</ele>
        <time>2014-12-30T08:35:45Z</time>
      </trkpt>
      <trkpt lat="47.51834" lon="6.77488">
        <ele>386</ele>
        <time>2014-12-30T08:35:46Z</time>
      </trkpt>
      <trkpt lat="47.51834" lon="6.77483">
        <ele>386</ele>
        <time>2014-12-30T08:35:48Z</time>
      </trkpt>
      <trkpt lat="47.51833" lon="6.7748">
        <ele>386</ele>
        <time>2014-12-30T08:35:49Z</time>
      </trkpt>
      <trkpt lat="47.51832" lon="6.77474">
        <ele>386</ele>
        <time>2014-12-30T08:35:51Z</time>
      </trkpt>
      <trkpt lat="47.51832" lon="6.77472">
        <ele>386</ele>
        <time>2014-12-30T08:35:52Z</time>
      </trkpt>
      <trkpt lat="47.51833" lon="6.77467">
        <ele>386</ele>
        <time>2014-12-30T08:35:54Z</time>
      </trkpt>
      <trkpt lat="47.51833" lon="6.77464">
        <ele>386</ele>
        <time>2014-12-30T08:35:55Z</time>
      </trkpt>
      <trkpt lat="47.51834" lon="6.77458">
        <ele>386</ele>
        <time>2014-12-30T08:35:57Z</time>
      </trkpt>
      <trkpt lat="47.51835" lon="6.77456">
        <ele>386</ele>
        <time>2014-12-30T08:35:58Z</time>
      </trkpt>
      <trkpt lat="47.51835" lon="6.77453">
        <ele>386</ele>
        <time>2014-12-30T08:35:59Z</time>
      </trkpt>
      <trkpt lat="47.51835" lon="6.77449">
        <ele>386</ele>
        <time>2014-12-30T08:36:00Z</time>
      </trkpt>
      <trkpt lat="47.51835" lon="6.77445">
        <ele>386</ele>
        <time>2014-12-30T08:36:01Z</time>
      </trkpt>
      <trkpt lat="47.51835" lon="6.77438">
        <ele>386</ele>
        <time>2014-12-30T08:36:02Z</time>
      </trkpt>
      <trkpt lat="47.51836" lon="6.77434">
        <ele>386</ele>
        <time>2014-12-30T08:36:03Z</time>
      </trkpt>
      <trkpt lat="47.51837" lon="6.7743">
        <ele>386</ele>
        <time>2014-12-30T08:36:04Z</time>
      </trkpt>
      <trkpt lat="47.51839" lon="6.77424">
        <ele>386</ele>
        <time>2014-12-30T08:36:06Z</time>
      </trkpt>
      <trkpt lat="47.5184" lon="6.77421">
        <ele>386</ele>
        <time>2014-12-30T08:36:07Z</time>
      </trkpt>
      <trkpt lat="47.51841" lon="6.77418">
        <ele>386</ele>
        <time>2014-12-30T08:36:08Z</time>
      </trkpt>
      <trkpt lat="47.51842" lon="6.77414">
        <ele>385</ele>
        <time>2014-12-30T08:36:09Z</time>
      </trkpt>
      <trkpt lat="47.51843" lon="6.77411">
        <ele>385</ele>
        <time>2014-12-30T08:36:10Z</time>
      </trkpt>
      <trkpt lat="47.51845" lon="6.77407">
        <ele>385</ele>
        <time>2014-12-30T08:36:11Z</time>
      </trkpt>
      <trkpt lat="47.51846" lon="6.77403">
        <ele>385</ele>
        <time>2014-12-30T08:36:12Z</time>
      </trkpt>
      <trkpt lat="47.51847" lon="6.77399">
        <ele>385</ele>
        <time>2014-12-30T08:36:13Z</time>
      </trkpt>
      <trkpt lat="47.51848" lon="6.77396">
        <ele>385</ele>
        <time>2014-12-30T08:36:14Z</time>
      </trkpt>
      <trkpt lat="47.51849" lon="6.77392">
        <ele>385</ele>
        <time>2014-12-30T08:36:15Z</time>
      </trkpt>
      <trkpt lat="47.5185" lon="6.77389">
        <ele>385</ele>
        <time>2014-12-30T08:36:16Z</time>
      </trkpt>
      <trkpt lat="47.51851" lon="6.77386">
        <ele>385</ele>
        <time>2014-12-30T08:36:16Z</time>
      </trkpt>
      <trkpt lat="47.51852" lon="6.77382">
        <ele>385</ele>
        <time>2014-12-30T08:36:18Z</time>
      </trkpt>
      <trkpt lat="47.51853" lon="6.77378">
        <ele>385</ele>
        <time>2014-12-30T08:36:19Z</time>
      </trkpt>
      <trkpt lat="47.51854" lon="6.77375">
        <ele>385</ele>
        <time>2014-12-30T08:36:20Z</time>
      </trkpt>
      <trkpt lat="47.51856" lon="6.77371">
        <ele>385</ele>
        <time>2014-12-30T08:36:21Z</time>
      </trkpt>
      <trkpt lat="47.51857" lon="6.77368">
        <ele>384</ele>
        <time>2014-12-30T08:36:22Z</time>
      </trkpt>
      <trkpt lat="47.51859" lon="6.77364">
        <ele>384</ele>
        <time>2014-12-30T08:36:23Z</time>
      </trkpt>
      <trkpt lat="47.5186" lon="6.77362">
        <ele>384</ele>
        <time>2014-12-30T08:36:24Z</time>
      </trkpt>
      <trkpt lat="47.51862" lon="6.7736">
        <ele>384</ele>
        <time>2014-12-30T08:36:25Z</time>
      </trkpt>
      <trkpt lat="47.51864" lon="6.77358">
        <ele>384</ele>
        <time>2014-12-30T08:36:26Z</time>
      </trkpt>
      <trkpt lat="47.51874" lon="6.77338">
        <ele>384</ele>
        <time>2014-12-30T08:36:34Z</time>
      </trkpt>
      <trkpt lat="47.51875" lon="6.77335">
        <ele>384</ele>
        <time>2014-12-30T08:36:35Z</time>
      </trkpt>
      <trkpt lat="47.51876" lon="6.77331">
        <ele>383</ele>
        <time>2014-12-30T08:36:36Z</time>
      </trkpt>
      <trkpt lat="47.51878" lon="6.77326">
        <ele>383</ele>
        <time>2014-12-30T08:36:37Z</time>
      </trkpt>
      <trkpt lat="47.51879" lon="6.77322">
        <ele>383</ele>
        <time>2014-12-30T08:36:38Z</time>
      </trkpt>
      <trkpt lat="47.5188" lon="6.77319">
        <ele>383</ele>
        <time>2014-12-30T08:36:39Z</time>
      </trkpt>
      <trkpt lat="47.51881" lon="6.77315">
        <ele>382</ele>
        <time>2014-12-30T08:36:40Z</time>
      </trkpt>
      <trkpt lat="47.51882" lon="6.77312">
        <ele>382</ele>
        <time>2014-12-30T08:36:41Z</time>
      </trkpt>
      <trkpt lat="47.51882" lon="6.77309">
        <ele>382</ele>
        <time>2014-12-30T08:36:42Z</time>
      </trkpt>
      <trkpt lat="47.51884" lon="6.77305">
        <ele>382</ele>
        <time>2014-12-30T08:36:43Z</time>
      </trkpt>
      <trkpt lat="47.51884" lon="6.77302">
        <ele>382</ele>
        <time>2014-12-30T08:36:44Z</time>
      </trkpt>
      <trkpt lat="47.51885" lon="6.77298">
        <ele>382</ele>
        <time>2014-12-30T08:36:45Z</time>
      </trkpt>
      <trkpt lat="47.51885" lon="6.77295">
        <ele>382</ele>
        <time>2014-12-30T08:36:46Z</time>
      </trkpt>
      <trkpt lat="47.51886" lon="6.77291">
        <ele>382</ele>
        <time>2014-12-30T08:36:47Z</time>
      </trkpt>
      <trkpt lat="47.51887" lon="6.77287">
        <ele>382</ele>
        <time>2014-12-30T08:36:48Z</time>
      </trkpt>
      <trkpt lat="47.51888" lon="6.77283">
        <ele>382</ele>
        <time>2014-12-30T08:36:49Z</time>
      </trkpt>
      <trkpt lat="47.51888" lon="6.77279">
        <ele>382</ele>
        <time>2014-12-30T08:36:50Z</time>
      </trkpt>
      <trkpt lat="47.51889" lon="6.77275">
        <ele>382</ele>
        <time>2014-12-30T08:36:51Z</time>
      </trkpt>
      <trkpt lat="47.5189" lon="6.77271">
        <ele>381</ele>
        <time>2014-12-30T08:36:52Z</time>
      </trkpt>
      <trkpt lat="47.5189" lon="6.77267">
        <ele>381</ele>
        <time>2014-12-30T08:36:53Z</time>
      </trkpt>
      <trkpt lat="47.5189" lon="6.77264">
        <ele>381</ele>
        <time>2014-12-30T08:36:54Z</time>
      </trkpt>
      <trkpt lat="47.51889" lon="6.7726">
        <ele>381</ele>
        <time>2014-12-30T08:36:55Z</time>
      </trkpt>
      <trkpt lat="47.51887" lon="6.77258">
        <ele>381</ele>
        <time>2014-12-30T08:36:56Z</time>
      </trkpt>
      <trkpt lat="47.51885" lon="6.77255">
        <ele>381</ele>
        <time>2014-12-30T08:36:57Z</time>
      </trkpt>
      <trkpt lat="47.51882" lon="6.77253">
        <ele>381</ele>
        <time>2014-12-30T08:36:58Z</time>
      </trkpt>
      <trkpt lat="47.51879" lon="6.77251">
        <ele>382</ele>
        <time>2014-12-30T08:36:59Z</time>
      </trkpt>
      <trkpt lat="47.51877" lon="6.7725">
        <ele>380</ele>
        <time>2014-12-30T08:37:00Z</time>
      </trkpt>
      <trkpt lat="47.51875" lon="6.77248">
        <ele>380</ele>
        <time>2014-12-30T08:37:01Z</time>
      </trkpt>
      <trkpt lat="47.51872" lon="6.77246">
        <ele>380</ele>
        <time>2014-12-30T08:37:02Z</time>
      </trkpt>
      <trkpt lat="47.5187" lon="6.77243">
        <ele>380</ele>
        <time>2014-12-30T08:37:03Z</time>
      </trkpt>
      <trkpt lat="47.51868" lon="6.77241">
        <ele>380</ele>
        <time>2014-12-30T08:37:04Z</time>
      </trkpt>
      <trkpt lat="47.51865" lon="6.77238">
        <ele>380</ele>
        <time>2014-12-30T08:37:05Z</time>
      </trkpt>
      <trkpt lat="47.51862" lon="6.77235">
        <ele>380</ele>
        <time>2014-12-30T08:37:06Z</time>
      </trkpt>
      <trkpt lat="47.51859" lon="6.77232">
        <ele>380</ele>
        <time>2014-12-30T08:37:07Z</time>
      </trkpt>
      <trkpt lat="47.51857" lon="6.7723">
        <ele>380</ele>
        <time>2014-12-30T08:37:08Z</time>
      </trkpt>
      <trkpt lat="47.51855" lon="6.77228">
        <ele>380</ele>
        <time>2014-12-30T08:37:09Z</time>
      </trkpt>
      <trkpt lat="47.51853" lon="6.77226">
        <ele>380</ele>
        <time>2014-12-30T08:37:10Z</time>
      </trkpt>
      <trkpt lat="47.5185" lon="6.77222">
        <ele>380</ele>
        <time>2014-12-30T08:37:12Z</time>
      </trkpt>
      <trkpt lat="47.51849" lon="6.77221">
        <ele>380</ele>
        <time>2014-12-30T08:37:13Z</time>
      </trkpt>
      <trkpt lat="47.51846" lon="6.77217">
        <ele>380</ele>
        <time>2014-12-30T08:37:15Z</time>
      </trkpt>
      <trkpt lat="47.51845" lon="6.77215">
        <ele>380</ele>
        <time>2014-12-30T08:37:16Z</time>
      </trkpt>
      <trkpt lat="47.51841" lon="6.77212">
        <ele>380</ele>
        <time>2014-12-30T08:37:18Z</time>
      </trkpt>
      <trkpt lat="47.51839" lon="6.7721">
        <ele>380</ele>
        <time>2014-12-30T08:37:19Z</time>
      </trkpt>
      <trkpt lat="47.51837" lon="6.77208">
        <ele>379</ele>
        <time>2014-12-30T08:37:20Z</time>
      </trkpt>
      <trkpt lat="47.51836" lon="6.77204">
        <ele>379</ele>
        <time>2014-12-30T08:37:21Z</time>
      </trkpt>
      <trkpt lat="47.51836" lon="6.77201">
        <ele>379</ele>
        <time>2014-12-30T08:37:22Z</time>
      </trkpt>
      <trkpt lat="47.51836" lon="6.77197">
        <ele>378</ele>
        <time>2014-12-30T08:37:23Z</time>
      </trkpt>
      <trkpt lat="47.51838" lon="6.77194">
        <ele>378</ele>
        <time>2014-12-30T08:37:24Z</time>
      </trkpt>
      <trkpt lat="47.51839" lon="6.77192">
        <ele>378</ele>
        <time>2014-12-30T08:37:25Z</time>
      </trkpt>
      <trkpt lat="47.51841" lon="6.7719">
        <ele>378</ele>
        <time>2014-12-30T08:37:26Z</time>
      </trkpt>
      <trkpt lat="47.51844" lon="6.77183">
        <ele>378</ele>
        <time>2014-12-30T08:37:29Z</time>
      </trkpt>
      <trkpt lat="47.51847" lon="6.77179">
        <ele>378</ele>
        <time>2014-12-30T08:37:31Z</time>
      </trkpt>
      <trkpt lat="47.51848" lon="6.77178">
        <ele>378</ele>
        <time>2014-12-30T08:37:32Z</time>
      </trkpt>
      <trkpt lat="47.51851" lon="6.77173">
        <ele>378</ele>
        <time>2014-12-30T08:37:34Z</time>
      </trkpt>
      <trkpt lat="47.51852" lon="6.7717">
        <ele>378</ele>
        <time>2014-12-30T08:37:35Z</time>
      </trkpt>
      <trkpt lat="47.51854" lon="6.77168">
        <ele>378</ele>
        <time>2014-12-30T08:37:36Z</time>
      </trkpt>
      <trkpt lat="47.51856" lon="6.77164">
        <ele>377</ele>
        <time>2014-12-30T08:37:37Z</time>
      </trkpt>
      <trkpt lat="47.51857" lon="6.77161">
        <ele>376</ele>
        <time>2014-12-30T08:37:38Z</time>
      </trkpt>
      <trkpt lat="47.51859" lon="6.77159">
        <ele>376</ele>
        <time>2014-12-30T08:37:39Z</time>
      </trkpt>
      <trkpt lat="47.51861" lon="6.77156">
        <ele>376</ele>
        <time>2014-12-30T08:37:40Z</time>
      </trkpt>
      <trkpt lat="47.51863" lon="6.77153">
        <ele>376</ele>
        <time>2014-12-30T08:37:41Z</time>
      </trkpt>
      <trkpt lat="47.51865" lon="6.7715">
        <ele>376</ele>
        <time>2014-12-30T08:37:42Z</time>
      </trkpt>
      <trkpt lat="47.51867" lon="6.77147">
        <ele>375</ele>
        <time>2014-12-30T08:37:43Z</time>
      </trkpt>
      <trkpt lat="47.51869" lon="6.77145">
        <ele>375</ele>
        <time>2014-12-30T08:37:44Z</time>
      </trkpt>
      <trkpt lat="47.51871" lon="6.77142">
        <ele>375</ele>
        <time>2014-12-30T08:37:45Z</time>
      </trkpt>
      <trkpt lat="47.51872" lon="6.77138">
        <ele>375</ele>
        <time>2014-12-30T08:37:46Z</time>
      </trkpt>
      <trkpt lat="47.51874" lon="6.77135">
        <ele>375</ele>
        <time>2014-12-30T08:37:47Z</time>
      </trkpt>
      <trkpt lat="47.51875" lon="6.77131">
        <ele>375</ele>
        <time>2014-12-30T08:37:48Z</time>
      </trkpt>
      <trkpt lat="47.51876" lon="6.77128">
        <ele>375</ele>
        <time>2014-12-30T08:37:49Z</time>
      </trkpt>
      <trkpt lat="47.51878" lon="6.77125">
        <ele>374</ele>
        <time>2014-12-30T08:37:50Z</time>
      </trkpt>
      <trkpt lat="47.5188" lon="6.77124">
        <ele>374</ele>
        <time>2014-12-30T08:37:51Z</time>
      </trkpt>
      <trkpt lat="47.51882" lon="6.77122">
        <ele>374</ele>
        <time>2014-12-30T08:37:52Z</time>
      </trkpt>
      <trkpt lat="47.51884" lon="6.77119">
        <ele>374</ele>
        <time>2014-12-30T08:37:53Z</time>
      </trkpt>
      <trkpt lat="47.51885" lon="6.77116">
        <ele>374</ele>
        <time>2014-12-30T08:37:54Z</time>
      </trkpt>
      <trkpt lat="47.51887" lon="6.77113">
        <ele>374</ele>
        <time>2014-12-30T08:37:55Z</time>
      </trkpt>
      <trkpt lat="47.51889" lon="6.7711">
        <ele>374</ele>
        <time>2014-12-30T08:37:56Z</time>
      </trkpt>
      <trkpt lat="47.5189" lon="6.77107">
        <ele>374</ele>
        <time>2014-12-30T08:37:57Z</time>
      </trkpt>
      <trkpt lat="47.51892" lon="6.77104">
        <ele>374</ele>
        <time>2014-12-30T08:37:58Z</time>
      </trkpt>
      <trkpt lat="47.51893" lon="6.77101">
        <ele>373</ele>
        <time>2014-12-30T08:37:59Z</time>
      </trkpt>
      <trkpt lat="47.51895" lon="6.77097">
        <ele>373</ele>
        <time>2014-12-30T08:38:01Z</time>
      </trkpt>
      <trkpt lat="47.51896" lon="6.77095">
        <ele>373</ele>
        <time>2014-12-30T08:38:02Z</time>
      </trkpt>
      <trkpt lat="47.51895" lon="6.77089">
        <ele>373</ele>
        <time>2014-12-30T08:38:05Z</time>
      </trkpt>
      <trkpt lat="47.51894" lon="6.77088">
        <ele>373</ele>
        <time>2014-12-30T08:38:06Z</time>
      </trkpt>
      <trkpt lat="47.51893" lon="6.77086">
        <ele>373</ele>
        <time>2014-12-30T08:38:07Z</time>
      </trkpt>
      <trkpt lat="47.51891" lon="6.77084">
        <ele>373</ele>
        <time>2014-12-30T08:38:08Z</time>
      </trkpt>
      <trkpt lat="47.51889" lon="6.77081">
        <ele>372</ele>
        <time>2014-12-30T08:38:09Z</time>
      </trkpt>
      <trkpt lat="47.51886" lon="6.77078">
        <ele>372</ele>
        <time>2014-12-30T08:38:10Z</time>
      </trkpt>
      <trkpt lat="47.51883" lon="6.77076">
        <ele>372</ele>
        <time>2014-12-30T08:38:11Z</time>
      </trkpt>
      <trkpt lat="47.5188" lon="6.77073">
        <ele>372</ele>
        <time>2014-12-30T08:38:12Z</time>
      </trkpt>
      <trkpt lat="47.51877" lon="6.7707">
        <ele>372</ele>
        <time>2014-12-30T08:38:13Z</time>
      </trkpt>
      <trkpt lat="47.51874" lon="6.77068">
        <ele>372</ele>
        <time>2014-12-30T08:38:14Z</time>
      </trkpt>
      <trkpt lat="47.51872" lon="6.77066">
        <ele>372</ele>
        <time>2014-12-30T08:38:15Z</time>
      </trkpt>
      <trkpt lat="47.51869" lon="6.77064">
        <ele>372</ele>
        <time>2014-12-30T08:38:16Z</time>
      </trkpt>
      <trkpt lat="47.51867" lon="6.77061">
        <ele>372</ele>
        <time>2014-12-30T08:38:17Z</time>
      </trkpt>
      <trkpt lat="47.51866" lon="6.77059">
        <ele>372</ele>
        <time>2014-12-30T08:38:18Z</time>
      </trkpt>
      <trkpt lat="47.51862" lon="6.77056">
        <ele>372</ele>
        <time>2014-12-30T08:38:20Z</time>
      </trkpt>
      <trkpt lat="47.5186" lon="6.77055">
        <ele>372</ele>
        <time>2014-12-30T08:38:21Z</time>
      </trkpt>
      <trkpt lat="47.51857" lon="6.77052">
        <ele>371</ele>
        <time>2014-12-30T08:38:23Z</time>
      </trkpt>
      <trkpt lat="47.51855" lon="6.7705">
        <ele>371</ele>
        <time>2014-12-30T08:38:24Z</time>
      </trkpt>
      <trkpt lat="47.51851" lon="6.77046">
        <ele>371</ele>
        <time>2014-12-30T08:38:27Z</time>
      </trkpt>
      <trkpt lat="47.51839" lon="6.7704">
        <ele>371</ele>
        <time>2014-12-30T08:38:35Z</time>
      </trkpt>
      <trkpt lat="47.51835" lon="6.77038">
        <ele>371</ele>
        <time>2014-12-30T08:38:37Z</time>
      </trkpt>
      <trkpt lat="47.51833" lon="6.77036">
        <ele>371</ele>
        <time>2014-12-30T08:38:38Z</time>
      </trkpt>
      <trkpt lat="47.51829" lon="6.77034">
        <ele>371</ele>
        <time>2014-12-30T08:38:40Z</time>
      </trkpt>
      <trkpt lat="47.51827" lon="6.77033">
        <ele>371</ele>
        <time>2014-12-30T08:38:41Z</time>
      </trkpt>
      <trkpt lat="47.51825" lon="6.77029">
        <ele>371</ele>
        <time>2014-12-30T08:38:43Z</time>
      </trkpt>
      <trkpt lat="47.51825" lon="6.77026">
        <ele>370</ele>
        <time>2014-12-30T08:38:44Z</time>
      </trkpt>
      <trkpt lat="47.51825" lon="6.7702">
        <ele>370</ele>
        <time>2014-12-30T08:38:46Z</time>
      </trkpt>
      <trkpt lat="47.51826" lon="6.77018">
        <ele>370</ele>
        <time>2014-12-30T08:38:47Z</time>
      </trkpt>
      <trkpt lat="47.51827" lon="6.77014">
        <ele>370</ele>
        <time>2014-12-30T08:38:48Z</time>
      </trkpt>
      <trkpt lat="47.51828" lon="6.77011">
        <ele>370</ele>
        <time>2014-12-30T08:38:49Z</time>
      </trkpt>
      <trkpt lat="47.51829" lon="6.77008">
        <ele>370</ele>
        <time>2014-12-30T08:38:50Z</time>
      </trkpt>
      <trkpt lat="47.51829" lon="6.77004">
        <ele>370</ele>
        <time>2014-12-30T08:38:51Z</time>
      </trkpt>
      <trkpt lat="47.5183" lon="6.77">
        <ele>370</ele>
        <time>2014-12-30T08:38:52Z</time>
      </trkpt>
      <trkpt lat="47.5183" lon="6.76996">
        <ele>370</ele>
        <time>2014-12-30T08:38:53Z</time>
      </trkpt>
      <trkpt lat="47.5183" lon="6.76992">
        <ele>370</ele>
        <time>2014-12-30T08:38:54Z</time>
      </trkpt>
      <trkpt lat="47.5183" lon="6.76989">
        <ele>370</ele>
        <time>2014-12-30T08:38:55Z</time>
      </trkpt>
      <trkpt lat="47.51831" lon="6.76986">
        <ele>370</ele>
        <time>2014-12-30T08:38:56Z</time>
      </trkpt>
      <trkpt lat="47.51831" lon="6.76982">
        <ele>370</ele>
        <time>2014-12-30T08:38:57Z</time>
      </trkpt>
      <trkpt lat="47.51831" lon="6.76978">
        <ele>370</ele>
        <time>2014-12-30T08:38:58Z</time>
      </trkpt>
      <trkpt lat="47.51832" lon="6.76974">
        <ele>370</ele>
        <time>2014-12-30T08:38:59Z</time>
      </trkpt>
      <trkpt lat="47.51832" lon="6.7697">
        <ele>370</ele>
        <time>2014-12-30T08:39:00Z</time>
      </trkpt>
      <trkpt lat="47.51833" lon="6.76967">
        <ele>370</ele>
        <time>2014-12-30T08:39:01Z</time>
      </trkpt>
      <trkpt lat="47.51833" lon="6.76964">
        <ele>370</ele>
        <time>2014-12-30T08:39:02Z</time>
      </trkpt>
      <trkpt lat="47.51834" lon="6.7696">
        <ele>370</ele>
        <time>2014-12-30T08:39:03Z</time>
      </trkpt>
      <trkpt lat="47.51834" lon="6.76956">
        <ele>370</ele>
        <time>2014-12-30T08:39:04Z</time>
      </trkpt>
      <trkpt lat="47.51835" lon="6.76952">
        <ele>370</ele>
        <time>2014-12-30T08:39:05Z</time>
      </trkpt>
      <trkpt lat="47.51835" lon="6.76948">
        <ele>370</ele>
        <time>2014-12-30T08:39:06Z</time>
      </trkpt>
      <trkpt lat="47.51835" lon="6.76944">
        <ele>370</ele>
        <time>2014-12-30T08:39:07Z</time>
      </trkpt>
      <trkpt lat="47.51836" lon="6.7694">
        <ele>370</ele>
        <time>2014-12-30T08:39:08Z</time>
      </trkpt>
      <trkpt lat="47.51836" lon="6.76937">
        <ele>370</ele>
        <time>2014-12-30T08:39:09Z</time>
      </trkpt>
      <trkpt lat="47.51836" lon="6.7693">
        <ele>370</ele>
        <time>2014-12-30T08:39:11Z</time>
      </trkpt>
      <trkpt lat="47.51836" lon="6.76927">
        <ele>370</ele>
        <time>2014-12-30T08:39:12Z</time>
      </trkpt>
      <trkpt lat="47.51836" lon="6.76923">
        <ele>370</ele>
        <time>2014-12-30T08:39:13Z</time>
      </trkpt>
      <trkpt lat="47.51836" lon="6.76919">
        <ele>370</ele>
        <time>2014-12-30T08:39:14Z</time>
      </trkpt>
      <trkpt lat="47.51835" lon="6.76914">
        <ele>370</ele>
        <time>2014-12-30T08:39:15Z</time>
      </trkpt>
      <trkpt lat="47.51836" lon="6.7691">
        <ele>370</ele>
        <time>2014-12-30T08:39:16Z</time>
      </trkpt>
      <trkpt lat="47.51835" lon="6.76907">
        <ele>370</ele>
        <time>2014-12-30T08:39:17Z</time>
      </trkpt>
      <trkpt lat="47.51835" lon="6.76903">
        <ele>370</ele>
        <time>2014-12-30T08:39:18Z</time>
      </trkpt>
      <trkpt lat="47.51837" lon="6.76898">
        <ele>370</ele>
        <time>2014-12-30T08:39:20Z</time>
      </trkpt>
      <trkpt lat="47.51837" lon="6.76895">
        <ele>370</ele>
        <time>2014-12-30T08:39:21Z</time>
      </trkpt>
      <trkpt lat="47.51838" lon="6.76889">
        <ele>370</ele>
        <time>2014-12-30T08:39:24Z</time>
      </trkpt>
      <trkpt lat="47.51838" lon="6.76887">
        <ele>370</ele>
        <time>2014-12-30T08:39:25Z</time>
      </trkpt>
      <trkpt lat="47.51839" lon="6.76884">
        <ele>370</ele>
        <time>2014-12-30T08:39:26Z</time>
      </trkpt>
      <trkpt lat="47.51848" lon="6.7686">
        <ele>370</ele>
        <time>2014-12-30T08:39:34Z</time>
      </trkpt>
      <trkpt lat="47.51848" lon="6.76855">
        <ele>370</ele>
        <time>2014-12-30T08:39:36Z</time>
      </trkpt>
      <trkpt lat="47.51849" lon="6.76853">
        <ele>370</ele>
        <time>2014-12-30T08:39:37Z</time>
      </trkpt>
      <trkpt lat="47.51849" lon="6.76847">
        <ele>371</ele>
        <time>2014-12-30T08:39:39Z</time>
      </trkpt>
      <trkpt lat="47.5185" lon="6.76845">
        <ele>371</ele>
        <time>2014-12-30T08:39:40Z</time>
      </trkpt>
      <trkpt lat="47.5185" lon="6.76841">
        <ele>371</ele>
        <time>2014-12-30T08:39:41Z</time>
      </trkpt>
      <trkpt lat="47.51851" lon="6.76838">
        <ele>371</ele>
        <time>2014-12-30T08:39:42Z</time>
      </trkpt>
      <trkpt lat="47.51851" lon="6.76834">
        <ele>371</ele>
        <time>2014-12-30T08:39:43Z</time>
      </trkpt>
      <trkpt lat="47.51852" lon="6.7683">
        <ele>371</ele>
        <time>2014-12-30T08:39:44Z</time>
      </trkpt>
      <trkpt lat="47.51852" lon="6.76827">
        <ele>371</ele>
        <time>2014-12-30T08:39:45Z</time>
      </trkpt>
      <trkpt lat="47.51852" lon="6.76823">
        <ele>371</ele>
        <time>2014-12-30T08:39:46Z</time>
      </trkpt>
      <trkpt lat="47.51853" lon="6.76817">
        <ele>371</ele>
        <time>2014-12-30T08:39:48Z</time>
      </trkpt>
      <trkpt lat="47.51854" lon="6.76815">
        <ele>371</ele>
        <time>2014-12-30T08:39:49Z</time>
      </trkpt>
      <trkpt lat="47.51855" lon="6.76809">
        <ele>371</ele>
        <time>2014-12-30T08:39:51Z</time>
      </trkpt>
      <trkpt lat="47.51855" lon="6.76807">
        <ele>371</ele>
        <time>2014-12-30T08:39:52Z</time>
      </trkpt>
      <trkpt lat="47.51856" lon="6.76803">
        <ele>371</ele>
        <time>2014-12-30T08:39:53Z</time>
      </trkpt>
      <trkpt lat="47.51856" lon="6.76799">
        <ele>371</ele>
        <time>2014-12-30T08:39:54Z</time>
      </trkpt>
      <trkpt lat="47.51857" lon="6.76796">
        <ele>371</ele>
        <time>2014-12-30T08:39:55Z</time>
      </trkpt>
      <trkpt lat="47.51857" lon="6.76793">
        <ele>371</ele>
        <time>2014-12-30T08:39:56Z</time>
      </trkpt>
      <trkpt lat="47.51859" lon="6.76786">
        <ele>371</ele>
        <time>2014-12-30T08:39:58Z</time>
      </trkpt>
      <trkpt lat="47.51859" lon="6.76783">
        <ele>371</ele>
        <time>2014-12-30T08:39:59Z</time>
      </trkpt>
      <trkpt lat="47.5186" lon="6.76779">
        <ele>371</ele>
        <time>2014-12-30T08:40:00Z</time>
      </trkpt>
      <trkpt lat="47.5186" lon="6.76775">
        <ele>371</ele>
        <time>2014-12-30T08:40:01Z</time>
      </trkpt>
      <trkpt lat="47.51861" lon="6.76772">
        <ele>371</ele>
        <time>2014-12-30T08:40:02Z</time>
      </trkpt>
      <trkpt lat="47.51861" lon="6.76768">
        <ele>371</ele>
        <time>2014-12-30T08:40:03Z</time>
      </trkpt>
      <trkpt lat="47.51862" lon="6.76764">
        <ele>371</ele>
        <time>2014-12-30T08:40:04Z</time>
      </trkpt>
      <trkpt lat="47.51862" lon="6.76759">
        <ele>371</ele>
        <time>2014-12-30T08:40:05Z</time>
      </trkpt>
      <trkpt lat="47.51863" lon="6.76756">
        <ele>371</ele>
        <time>2014-12-30T08:40:06Z</time>
      </trkpt>
      <trkpt lat="47.51863" lon="6.76752">
        <ele>371</ele>
        <time>2014-12-30T08:40:07Z</time>
      </trkpt>
      <trkpt lat="47.51863" lon="6.76749">
        <ele>372</ele>
        <time>2014-12-30T08:40:08Z</time>
      </trkpt>
      <trkpt lat="47.51864" lon="6.76745">
        <ele>372</ele>
        <time>2014-12-30T08:40:09Z</time>
      </trkpt>
      <trkpt lat="47.51864" lon="6.76742">
        <ele>372</ele>
        <time>2014-12-30T08:40:10Z</time>
      </trkpt>
      <trkpt lat="47.51865" lon="6.76738">
        <ele>372</ele>
        <time>2014-12-30T08:40:11Z</time>
      </trkpt>
      <trkpt lat="47.51865" lon="6.76734">
        <ele>372</ele>
        <time>2014-12-30T08:40:12Z</time>
      </trkpt>
      <trkpt lat="47.51866" lon="6.76731">
        <ele>372</ele>
        <time>2014-12-30T08:40:13Z</time>
      </trkpt>
      <trkpt lat="47.51867" lon="6.76727">
        <ele>372</ele>
        <time>2014-12-30T08:40:14Z</time>
      </trkpt>
      <trkpt lat="47.51867" lon="6.76724">
        <ele>372</ele>
        <time>2014-12-30T08:40:15Z</time>
      </trkpt>
      <trkpt lat="47.51868" lon="6.7672">
        <ele>372</ele>
        <time>2014-12-30T08:40:16Z</time>
      </trkpt>
      <trkpt lat="47.51868" lon="6.76717">
        <ele>372</ele>
        <time>2014-12-30T08:40:17Z</time>
      </trkpt>
      <trkpt lat="47.51869" lon="6.76713">
        <ele>372</ele>
        <time>2014-12-30T08:40:18Z</time>
      </trkpt>
      <trkpt lat="47.51869" lon="6.7671">
        <ele>372</ele>
        <time>2014-12-30T08:40:19Z</time>
      </trkpt>
      <trkpt lat="47.5187" lon="6.76706">
        <ele>372</ele>
        <time>2014-12-30T08:40:20Z</time>
      </trkpt>
      <trkpt lat="47.51871" lon="6.76703">
        <ele>372</ele>
        <time>2014-12-30T08:40:21Z</time>
      </trkpt>
      <trkpt lat="47.51872" lon="6.76697">
        <ele>372</ele>
        <time>2014-12-30T08:40:23Z</time>
      </trkpt>
      <trkpt lat="47.51872" lon="6.76693">
        <ele>372</ele>
        <time>2014-12-30T08:40:24Z</time>
      </trkpt>
      <trkpt lat="47.51873" lon="6.7669">
        <ele>372</ele>
        <time>2014-12-30T08:40:25Z</time>
      </trkpt>
      <trkpt lat="47.51874" lon="6.76687">
        <ele>373</ele>
        <time>2014-12-30T08:40:26Z</time>
      </trkpt>
      <trkpt lat="47.51876" lon="6.76679">
        <ele>373</ele>
        <time>2014-12-30T08:40:29Z</time>
      </trkpt>
      <trkpt lat="47.51876" lon="6.76676">
        <ele>373</ele>
        <time>2014-12-30T08:40:30Z</time>
      </trkpt>
      <trkpt lat="47.51877" lon="6.76672">
        <ele>373</ele>
        <time>2014-12-30T08:40:30Z</time>
      </trkpt>
      <trkpt lat="47.51877" lon="6.76668">
        <ele>373</ele>
        <time>2014-12-30T08:40:32Z</time>
      </trkpt>
      <trkpt lat="47.51877" lon="6.76665">
        <ele>373</ele>
        <time>2014-12-30T08:40:32Z</time>
      </trkpt>
      <trkpt lat="47.51878" lon="6.7666">
        <ele>373</ele>
        <time>2014-12-30T08:40:34Z</time>
      </trkpt>
      <trkpt lat="47.51878" lon="6.76656">
        <ele>373</ele>
        <time>2014-12-30T08:40:35Z</time>
      </trkpt>
      <trkpt lat="47.51879" lon="6.76652">
        <ele>374</ele>
        <time>2014-12-30T08:40:36Z</time>
      </trkpt>
      <trkpt lat="47.51879" lon="6.76648">
        <ele>374</ele>
        <time>2014-12-30T08:40:37Z</time>
      </trkpt>
      <trkpt lat="47.5188" lon="6.76644">
        <ele>374</ele>
        <time>2014-12-30T08:40:38Z</time>
      </trkpt>
      <trkpt lat="47.5188" lon="6.7664">
        <ele>374</ele>
        <time>2014-12-30T08:40:39Z</time>
      </trkpt>
      <trkpt lat="47.51881" lon="6.76637">
        <ele>374</ele>
        <time>2014-12-30T08:40:40Z</time>
      </trkpt>
      <trkpt lat="47.51882" lon="6.76629">
        <ele>374</ele>
        <time>2014-12-30T08:40:41Z</time>
      </trkpt>
      <trkpt lat="47.51884" lon="6.76625">
        <ele>374</ele>
        <time>2014-12-30T08:40:42Z</time>
      </trkpt>
      <trkpt lat="47.51884" lon="6.76622">
        <ele>374</ele>
        <time>2014-12-30T08:40:43Z</time>
      </trkpt>
      <trkpt lat="47.51885" lon="6.76618">
        <ele>374</ele>
        <time>2014-12-30T08:40:44Z</time>
      </trkpt>
      <trkpt lat="47.51886" lon="6.76615">
        <ele>374</ele>
        <time>2014-12-30T08:40:45Z</time>
      </trkpt>
      <trkpt lat="47.51887" lon="6.76611">
        <ele>374</ele>
        <time>2014-12-30T08:40:46Z</time>
      </trkpt>
      <trkpt lat="47.51888" lon="6.76606">
        <ele>375</ele>
        <time>2014-12-30T08:40:47Z</time>
      </trkpt>
      <trkpt lat="47.51889" lon="6.76603">
        <ele>375</ele>
        <time>2014-12-30T08:40:48Z</time>
      </trkpt>
      <trkpt lat="47.5189" lon="6.76599">
        <ele>375</ele>
        <time>2014-12-30T08:40:49Z</time>
      </trkpt>
      <trkpt lat="47.51891" lon="6.76596">
        <ele>375</ele>
        <time>2014-12-30T08:40:50Z</time>
      </trkpt>
      <trkpt lat="47.51892" lon="6.76593">
        <ele>375</ele>
        <time>2014-12-30T08:40:51Z</time>
      </trkpt>
      <trkpt lat="47.51892" lon="6.76589">
        <ele>375</ele>
        <time>2014-12-30T08:40:52Z</time>
      </trkpt>
      <trkpt lat="47.51893" lon="6.76586">
        <ele>375</ele>
        <time>2014-12-30T08:40:53Z</time>
      </trkpt>
      <trkpt lat="47.51895" lon="6.7658">
        <ele>376</ele>
        <time>2014-12-30T08:40:55Z</time>
      </trkpt>
      <trkpt lat="47.51896" lon="6.76577">
        <ele>376</ele>
        <time>2014-12-30T08:40:56Z</time>
      </trkpt>
      <trkpt lat="47.51898" lon="6.76571">
        <ele>376</ele>
        <time>2014-12-30T08:40:58Z</time>
      </trkpt>
      <trkpt lat="47.51899" lon="6.76569">
        <ele>376</ele>
        <time>2014-12-30T08:40:59Z</time>
      </trkpt>
      <trkpt lat="47.51902" lon="6.76565">
        <ele>376</ele>
        <time>2014-12-30T08:41:01Z</time>
      </trkpt>
      <trkpt lat="47.51903" lon="6.76563">
        <ele>376</ele>
        <time>2014-12-30T08:41:02Z</time>
      </trkpt>
      <trkpt lat="47.51904" lon="6.76558">
        <ele>376</ele>
        <time>2014-12-30T08:41:04Z</time>
      </trkpt>
      <trkpt lat="47.51905" lon="6.76556">
        <ele>377</ele>
        <time>2014-12-30T08:41:05Z</time>
      </trkpt>
      <trkpt lat="47.51906" lon="6.76552">
        <ele>377</ele>
        <time>2014-12-30T08:41:06Z</time>
      </trkpt>
      <trkpt lat="47.51907" lon="6.7655">
        <ele>377</ele>
        <time>2014-12-30T08:41:07Z</time>
      </trkpt>
      <trkpt lat="47.51909" lon="6.76544">
        <ele>377</ele>
        <time>2014-12-30T08:41:09Z</time>
      </trkpt>
      <trkpt lat="47.5191" lon="6.76542">
        <ele>377</ele>
        <time>2014-12-30T08:41:10Z</time>
      </trkpt>
      <trkpt lat="47.51912" lon="6.76536">
        <ele>377</ele>
        <time>2014-12-30T08:41:12Z</time>
      </trkpt>
      <trkpt lat="47.51913" lon="6.76533">
        <ele>377</ele>
        <time>2014-12-30T08:41:13Z</time>
      </trkpt>
      <trkpt lat="47.51914" lon="6.7653">
        <ele>378</ele>
        <time>2014-12-30T08:41:14Z</time>
      </trkpt>
      <trkpt lat="47.51915" lon="6.76527">
        <ele>378</ele>
        <time>2014-12-30T08:41:15Z</time>
      </trkpt>
      <trkpt lat="47.51916" lon="6.76523">
        <ele>378</ele>
        <time>2014-12-30T08:41:16Z</time>
      </trkpt>
      <trkpt lat="47.51917" lon="6.76519">
        <ele>379</ele>
        <time>2014-12-30T08:41:17Z</time>
      </trkpt>
      <trkpt lat="47.51918" lon="6.76515">
        <ele>379</ele>
        <time>2014-12-30T08:41:18Z</time>
      </trkpt>
      <trkpt lat="47.51918" lon="6.76511">
        <ele>379</ele>
        <time>2014-12-30T08:41:19Z</time>
      </trkpt>
      <trkpt lat="47.5192" lon="6.76505">
        <ele>379</ele>
        <time>2014-12-30T08:41:21Z</time>
      </trkpt>
      <trkpt lat="47.51921" lon="6.76502">
        <ele>379</ele>
        <time>2014-12-30T08:41:22Z</time>
      </trkpt>
      <trkpt lat="47.51923" lon="6.76495">
        <ele>379</ele>
        <time>2014-12-30T08:41:23Z</time>
      </trkpt>
      <trkpt lat="47.51926" lon="6.76491">
        <ele>379</ele>
        <time>2014-12-30T08:41:25Z</time>
      </trkpt>
      <trkpt lat="47.51927" lon="6.76486">
        <ele>379</ele>
        <time>2014-12-30T08:41:26Z</time>
      </trkpt>
      <trkpt lat="47.51932" lon="6.76471">
        <ele>380</ele>
        <time>2014-12-30T08:41:34Z</time>
      </trkpt>
      <trkpt lat="47.51934" lon="6.76466">
        <ele>381</ele>
        <time>2014-12-30T08:41:36Z</time>
      </trkpt>
      <trkpt lat="47.51935" lon="6.76464">
        <ele>381</ele>
        <time>2014-12-30T08:41:37Z</time>
      </trkpt>
      <trkpt lat="47.51937" lon="6.7646">
        <ele>381</ele>
        <time>2014-12-30T08:41:39Z</time>
      </trkpt>
      <trkpt lat="47.51938" lon="6.76458">
        <ele>381</ele>
        <time>2014-12-30T08:41:40Z</time>
      </trkpt>
      <trkpt lat="47.5194" lon="6.76454">
        <ele>382</ele>
        <time>2014-12-30T08:41:42Z</time>
      </trkpt>
      <trkpt lat="47.51941" lon="6.76451">
        <ele>382</ele>
        <time>2014-12-30T08:41:43Z</time>
      </trkpt>
      <trkpt lat="47.51943" lon="6.76447">
        <ele>382</ele>
        <time>2014-12-30T08:41:45Z</time>
      </trkpt>
      <trkpt lat="47.51944" lon="6.76445">
        <ele>382</ele>
        <time>2014-12-30T08:41:46Z</time>
      </trkpt>
      <trkpt lat="47.51947" lon="6.76443">
        <ele>382</ele>
        <time>2014-12-30T08:41:48Z</time>
      </trkpt>
      <trkpt lat="47.51948" lon="6.7644">
        <ele>382</ele>
        <time>2014-12-30T08:41:49Z</time>
      </trkpt>
      <trkpt lat="47.51949" lon="6.76437">
        <ele>382</ele>
        <time>2014-12-30T08:41:50Z</time>
      </trkpt>
      <trkpt lat="47.5195" lon="6.76434">
        <ele>382</ele>
        <time>2014-12-30T08:41:51Z</time>
      </trkpt>
      <trkpt lat="47.51951" lon="6.76431">
        <ele>383</ele>
        <time>2014-12-30T08:41:52Z</time>
      </trkpt>
      <trkpt lat="47.51952" lon="6.76428">
        <ele>383</ele>
        <time>2014-12-30T08:41:53Z</time>
      </trkpt>
      <trkpt lat="47.51954" lon="6.76423">
        <ele>383</ele>
        <time>2014-12-30T08:41:55Z</time>
      </trkpt>
      <trkpt lat="47.51956" lon="6.7642">
        <ele>383</ele>
        <time>2014-12-30T08:41:56Z</time>
      </trkpt>
      <trkpt lat="47.51957" lon="6.76415">
        <ele>386</ele>
        <time>2014-12-30T08:41:58Z</time>
      </trkpt>
      <trkpt lat="47.51957" lon="6.76413">
        <ele>386</ele>
        <time>2014-12-30T08:41:59Z</time>
      </trkpt>
      <trkpt lat="47.51959" lon="6.76408">
        <ele>386</ele>
        <time>2014-12-30T08:42:01Z</time>
      </trkpt>
      <trkpt lat="47.5196" lon="6.76406">
        <ele>386</ele>
        <time>2014-12-30T08:42:02Z</time>
      </trkpt>
      <trkpt lat="47.51962" lon="6.76402">
        <ele>386</ele>
        <time>2014-12-30T08:42:04Z</time>
      </trkpt>
      <trkpt lat="47.51963" lon="6.764">
        <ele>386</ele>
        <time>2014-12-30T08:42:05Z</time>
      </trkpt>
      <trkpt lat="47.51965" lon="6.76395">
        <ele>387</ele>
        <time>2014-12-30T08:42:07Z</time>
      </trkpt>
      <trkpt lat="47.51966" lon="6.76393">
        <ele>387</ele>
        <time>2014-12-30T08:42:08Z</time>
      </trkpt>
      <trkpt lat="47.51967" lon="6.76387">
        <ele>387</ele>
        <time>2014-12-30T08:42:10Z</time>
      </trkpt>
      <trkpt lat="47.51968" lon="6.76384">
        <ele>387</ele>
        <time>2014-12-30T08:42:11Z</time>
      </trkpt>
      <trkpt lat="47.51966" lon="6.76379">
        <ele>388</ele>
        <time>2014-12-30T08:42:13Z</time>
      </trkpt>
      <trkpt lat="47.51965" lon="6.76377">
        <ele>388</ele>
        <time>2014-12-30T08:42:14Z</time>
      </trkpt>
      <trkpt lat="47.51962" lon="6.76376">
        <ele>388</ele>
        <time>2014-12-30T08:42:16Z</time>
      </trkpt>
      <trkpt lat="47.5196" lon="6.76375">
        <ele>388</ele>
        <time>2014-12-30T08:42:17Z</time>
      </trkpt>
      <trkpt lat="47.51957" lon="6.76374">
        <ele>388</ele>
        <time>2014-12-30T08:42:19Z</time>
      </trkpt>
      <trkpt lat="47.51956" lon="6.76373">
        <ele>388</ele>
        <time>2014-12-30T08:42:20Z</time>
      </trkpt>
      <trkpt lat="47.51951" lon="6.76373">
        <ele>388</ele>
        <time>2014-12-30T08:42:22Z</time>
      </trkpt>
      <trkpt lat="47.51949" lon="6.76372">
        <ele>388</ele>
        <time>2014-12-30T08:42:23Z</time>
      </trkpt>
      <trkpt lat="47.51946" lon="6.76371">
        <ele>388</ele>
        <time>2014-12-30T08:42:25Z</time>
      </trkpt>
      <trkpt lat="47.51944" lon="6.7637">
        <ele>388</ele>
        <time>2014-12-30T08:42:26Z</time>
      </trkpt>
      <trkpt lat="47.51939" lon="6.7637">
        <ele>388</ele>
        <time>2014-12-30T08:42:29Z</time>
      </trkpt>
      <trkpt lat="47.51934" lon="6.7637">
        <ele>389</ele>
        <time>2014-12-30T08:42:31Z</time>
      </trkpt>
      <trkpt lat="47.51932" lon="6.7637">
        <ele>389</ele>
        <time>2014-12-30T08:42:31Z</time>
      </trkpt>
      <trkpt lat="47.5193" lon="6.76369">
        <ele>389</ele>
        <time>2014-12-30T08:42:33Z</time>
      </trkpt>
      <trkpt lat="47.51927" lon="6.76369">
        <ele>389</ele>
        <time>2014-12-30T08:42:34Z</time>
      </trkpt>
      <trkpt lat="47.51923" lon="6.76369">
        <ele>389</ele>
        <time>2014-12-30T08:42:36Z</time>
      </trkpt>
      <trkpt lat="47.51922" lon="6.7637">
        <ele>389</ele>
        <time>2014-12-30T08:42:37Z</time>
      </trkpt>
      <trkpt lat="47.51918" lon="6.76372">
        <ele>389</ele>
        <time>2014-12-30T08:42:39Z</time>
      </trkpt>
      <trkpt lat="47.51916" lon="6.76371">
        <ele>389</ele>
        <time>2014-12-30T08:42:40Z</time>
      </trkpt>
      <trkpt lat="47.51912" lon="6.76369">
        <ele>389</ele>
        <time>2014-12-30T08:42:42Z</time>
      </trkpt>
      <trkpt lat="47.51909" lon="6.76369">
        <ele>389</ele>
        <time>2014-12-30T08:42:43Z</time>
      </trkpt>
      <trkpt lat="47.51905" lon="6.76369">
        <ele>389</ele>
        <time>2014-12-30T08:42:45Z</time>
      </trkpt>
      <trkpt lat="47.51903" lon="6.7637">
        <ele>389</ele>
        <time>2014-12-30T08:42:46Z</time>
      </trkpt>
      <trkpt lat="47.519" lon="6.76371">
        <ele>389</ele>
        <time>2014-12-30T08:42:48Z</time>
      </trkpt>
      <trkpt lat="47.51899" lon="6.76371">
        <ele>388</ele>
        <time>2014-12-30T08:42:49Z</time>
      </trkpt>
      <trkpt lat="47.51895" lon="6.76372">
        <ele>388</ele>
        <time>2014-12-30T08:42:51Z</time>
      </trkpt>
      <trkpt lat="47.51893" lon="6.76372">
        <ele>388</ele>
        <time>2014-12-30T08:42:52Z</time>
      </trkpt>
      <trkpt lat="47.5189" lon="6.76371">
        <ele>388</ele>
        <time>2014-12-30T08:42:53Z</time>
      </trkpt>
      <trkpt lat="47.51888" lon="6.76371">
        <ele>388</ele>
        <time>2014-12-30T08:42:54Z</time>
      </trkpt>
      <trkpt lat="47.51886" lon="6.7637">
        <ele>388</ele>
        <time>2014-12-30T08:42:55Z</time>
      </trkpt>
      <trkpt lat="47.51883" lon="6.7637">
        <ele>388</ele>
        <time>2014-12-30T08:42:56Z</time>
      </trkpt>
      <trkpt lat="47.51881" lon="6.7637">
        <ele>388</ele>
        <time>2014-12-30T08:42:57Z</time>
      </trkpt>
      <trkpt lat="47.51879" lon="6.76369">
        <ele>388</ele>
        <time>2014-12-30T08:42:58Z</time>
      </trkpt>
      <trkpt lat="47.51876" lon="6.76369">
        <ele>388</ele>
        <time>2014-12-30T08:42:59Z</time>
      </trkpt>
      <trkpt lat="47.51873" lon="6.76369">
        <ele>388</ele>
        <time>2014-12-30T08:43:00Z</time>
      </trkpt>
      <trkpt lat="47.51869" lon="6.76369">
        <ele>388</ele>
        <time>2014-12-30T08:43:02Z</time>
      </trkpt>
      <trkpt lat="47.51867" lon="6.7637">
        <ele>388</ele>
        <time>2014-12-30T08:43:03Z</time>
      </trkpt>
      <trkpt lat="47.51863" lon="6.76371">
        <ele>388</ele>
        <time>2014-12-30T08:43:05Z</time>
      </trkpt>
      <trkpt lat="47.51861" lon="6.76372">
        <ele>388</ele>
        <time>2014-12-30T08:43:06Z</time>
      </trkpt>
      <trkpt lat="47.51858" lon="6.76375">
        <ele>387</ele>
        <time>2014-12-30T08:43:08Z</time>
      </trkpt>
      <trkpt lat="47.51856" lon="6.76376">
        <ele>387</ele>
        <time>2014-12-30T08:43:09Z</time>
      </trkpt>
      <trkpt lat="47.51852" lon="6.76377">
        <ele>387</ele>
        <time>2014-12-30T08:43:11Z</time>
      </trkpt>
      <trkpt lat="47.5185" lon="6.76376">
        <ele>387</ele>
        <time>2014-12-30T08:43:12Z</time>
      </trkpt>
      <trkpt lat="47.51848" lon="6.76376">
        <ele>387</ele>
        <time>2014-12-30T08:43:13Z</time>
      </trkpt>
      <trkpt lat="47.51845" lon="6.76375">
        <ele>387</ele>
        <time>2014-12-30T08:43:14Z</time>
      </trkpt>
      <trkpt lat="47.51842" lon="6.76373">
        <ele>388</ele>
        <time>2014-12-30T08:43:15Z</time>
      </trkpt>
      <trkpt lat="47.5184" lon="6.76372">
        <ele>388</ele>
        <time>2014-12-30T08:43:16Z</time>
      </trkpt>
      <trkpt lat="47.51835" lon="6.76371">
        <ele>388</ele>
        <time>2014-12-30T08:43:18Z</time>
      </trkpt>
      <trkpt lat="47.51834" lon="6.76371">
        <ele>388</ele>
        <time>2014-12-30T08:43:19Z</time>
      </trkpt>
      <trkpt lat="47.5183" lon="6.76369">
        <ele>389</ele>
        <time>2014-12-30T08:43:21Z</time>
      </trkpt>
      <trkpt lat="47.51828" lon="6.76368">
        <ele>389</ele>
        <time>2014-12-30T08:43:22Z</time>
      </trkpt>
      <trkpt lat="47.51824" lon="6.76366">
        <ele>389</ele>
        <time>2014-12-30T08:43:24Z</time>
      </trkpt>
      <trkpt lat="47.51822" lon="6.76365">
        <ele>389</ele>
        <time>2014-12-30T08:43:25Z</time>
      </trkpt>
      <trkpt lat="47.51818" lon="6.76364">
        <ele>390</ele>
        <time>2014-12-30T08:43:27Z</time>
      </trkpt>
      <trkpt lat="47.51812" lon="6.76362">
        <ele>390</ele>
        <time>2014-12-30T08:43:30Z</time>
      </trkpt>
      <trkpt lat="47.51808" lon="6.76361">
        <ele>390</ele>
        <time>2014-12-30T08:43:32Z</time>
      </trkpt>
      <trkpt lat="47.51806" lon="6.7636">
        <ele>390</ele>
        <time>2014-12-30T08:43:33Z</time>
      </trkpt>
      <trkpt lat="47.51804" lon="6.7636">
        <ele>390</ele>
        <time>2014-12-30T08:43:34Z</time>
      </trkpt>
      <trkpt lat="47.51801" lon="6.76359">
        <ele>390</ele>
        <time>2014-12-30T08:43:35Z</time>
      </trkpt>
      <trkpt lat="47.51799" lon="6.76358">
        <ele>390</ele>
        <time>2014-12-30T08:43:36Z</time>
      </trkpt>
      <trkpt lat="47.51796" lon="6.76357">
        <ele>390</ele>
        <time>2014-12-30T08:43:37Z</time>
      </trkpt>
      <trkpt lat="47.51792" lon="6.76356">
        <ele>390</ele>
        <time>2014-12-30T08:43:39Z</time>
      </trkpt>
      <trkpt lat="47.5179" lon="6.76355">
        <ele>390</ele>
        <time>2014-12-30T08:43:40Z</time>
      </trkpt>
      <trkpt lat="47.51786" lon="6.76353">
        <ele>391</ele>
        <time>2014-12-30T08:43:42Z</time>
      </trkpt>
      <trkpt lat="47.51784" lon="6.76352">
        <ele>391</ele>
        <time>2014-12-30T08:43:43Z</time>
      </trkpt>
      <trkpt lat="47.51783" lon="6.76346">
        <ele>391</ele>
        <time>2014-12-30T08:43:46Z</time>
      </trkpt>
      <trkpt lat="47.51783" lon="6.76344">
        <ele>391</ele>
        <time>2014-12-30T08:43:47Z</time>
      </trkpt>
      <trkpt lat="47.51782" lon="6.76339">
        <ele>391</ele>
        <time>2014-12-30T08:43:49Z</time>
      </trkpt>
      <trkpt lat="47.51782" lon="6.76336">
        <ele>392</ele>
        <time>2014-12-30T08:43:50Z</time>
      </trkpt>
      <trkpt lat="47.51782" lon="6.7633">
        <ele>394</ele>
        <time>2014-12-30T08:43:52Z</time>
      </trkpt>
      <trkpt lat="47.51782" lon="6.76327">
        <ele>394</ele>
        <time>2014-12-30T08:43:53Z</time>
      </trkpt>
      <trkpt lat="47.51784" lon="6.76322">
        <ele>395</ele>
        <time>2014-12-30T08:43:55Z</time>
      </trkpt>
      <trkpt lat="47.51785" lon="6.76319">
        <ele>395</ele>
        <time>2014-12-30T08:43:56Z</time>
      </trkpt>
      <trkpt lat="47.51785" lon="6.76315">
        <ele>395</ele>
        <time>2014-12-30T08:43:57Z</time>
      </trkpt>
      <trkpt lat="47.51785" lon="6.76311">
        <ele>395</ele>
        <time>2014-12-30T08:43:58Z</time>
      </trkpt>
      <trkpt lat="47.51785" lon="6.76308">
        <ele>395</ele>
        <time>2014-12-30T08:43:59Z</time>
      </trkpt>
      <trkpt lat="47.51784" lon="6.76305">
        <ele>395</ele>
        <time>2014-12-30T08:44:00Z</time>
      </trkpt>
      <trkpt lat="47.51782" lon="6.76302">
        <ele>395</ele>
        <time>2014-12-30T08:44:01Z</time>
      </trkpt>
      <trkpt lat="47.5178" lon="6.763">
        <ele>395</ele>
        <time>2014-12-30T08:44:02Z</time>
      </trkpt>
      <trkpt lat="47.51777" lon="6.76298">
        <ele>396</ele>
        <time>2014-12-30T08:44:03Z</time>
      </trkpt>
      <trkpt lat="47.51775" lon="6.76298">
        <ele>396</ele>
        <time>2014-12-30T08:44:04Z</time>
      </trkpt>
      <trkpt lat="47.51771" lon="6.76299">
        <ele>396</ele>
        <time>2014-12-30T08:44:06Z</time>
      </trkpt>
      <trkpt lat="47.51769" lon="6.763">
        <ele>396</ele>
        <time>2014-12-30T08:44:07Z</time>
      </trkpt>
      <trkpt lat="47.51767" lon="6.763">
        <ele>396</ele>
        <time>2014-12-30T08:44:08Z</time>
      </trkpt>
      <trkpt lat="47.51764" lon="6.76301">
        <ele>395</ele>
        <time>2014-12-30T08:44:09Z</time>
      </trkpt>
      <trkpt lat="47.51762" lon="6.763">
        <ele>395</ele>
        <time>2014-12-30T08:44:10Z</time>
      </trkpt>
      <trkpt lat="47.51759" lon="6.763">
        <ele>396</ele>
        <time>2014-12-30T08:44:11Z</time>
      </trkpt>
      <trkpt lat="47.51755" lon="6.76299">
        <ele>396</ele>
        <time>2014-12-30T08:44:13Z</time>
      </trkpt>
      <trkpt lat="47.51753" lon="6.76299">
        <ele>396</ele>
        <time>2014-12-30T08:44:14Z</time>
      </trkpt>
      <trkpt lat="47.5175" lon="6.76302">
        <ele>395</ele>
        <time>2014-12-30T08:44:16Z</time>
      </trkpt>
      <trkpt lat="47.51749" lon="6.76303">
        <ele>396</ele>
        <time>2014-12-30T08:44:17Z</time>
      </trkpt>
      <trkpt lat="47.51746" lon="6.76305">
        <ele>395</ele>
        <time>2014-12-30T08:44:19Z</time>
      </trkpt>
      <trkpt lat="47.51743" lon="6.76306">
        <ele>396</ele>
        <time>2014-12-30T08:44:20Z</time>
      </trkpt>
      <trkpt lat="47.51739" lon="6.76307">
        <ele>396</ele>
        <time>2014-12-30T08:44:22Z</time>
      </trkpt>
      <trkpt lat="47.51737" lon="6.76307">
        <ele>396</ele>
        <time>2014-12-30T08:44:23Z</time>
      </trkpt>
      <trkpt lat="47.51733" lon="6.76311">
        <ele>396</ele>
        <time>2014-12-30T08:44:25Z</time>
      </trkpt>
      <trkpt lat="47.51732" lon="6.76312">
        <ele>396</ele>
        <time>2014-12-30T08:44:26Z</time>
      </trkpt>
      <trkpt lat="47.51724" lon="6.76323">
        <ele>396</ele>
        <time>2014-12-30T08:44:34Z</time>
      </trkpt>
      <trkpt lat="47.51721" lon="6.76322">
        <ele>396</ele>
        <time>2014-12-30T08:44:36Z</time>
      </trkpt>
      <trkpt lat="47.51719" lon="6.76322">
        <ele>397</ele>
        <time>2014-12-30T08:44:37Z</time>
      </trkpt>
      <trkpt lat="47.51716" lon="6.76325">
        <ele>397</ele>
        <time>2014-12-30T08:44:39Z</time>
      </trkpt>
      <trkpt lat="47.51715" lon="6.76327">
        <ele>397</ele>
        <time>2014-12-30T08:44:40Z</time>
      </trkpt>
      <trkpt lat="47.51713" lon="6.76332">
        <ele>397</ele>
        <time>2014-12-30T08:44:43Z</time>
      </trkpt>
      <trkpt lat="47.5171" lon="6.76332">
        <ele>397</ele>
        <time>2014-12-30T08:44:44Z</time>
      </trkpt>
      <trkpt lat="47.51708" lon="6.76332">
        <ele>398</ele>
        <time>2014-12-30T08:44:45Z</time>
      </trkpt>
      <trkpt lat="47.51705" lon="6.76332">
        <ele>398</ele>
        <time>2014-12-30T08:44:46Z</time>
      </trkpt>
      <trkpt lat="47.51702" lon="6.76331">
        <ele>398</ele>
        <time>2014-12-30T08:44:47Z</time>
      </trkpt>
      <trkpt lat="47.517" lon="6.76331">
        <ele>398</ele>
        <time>2014-12-30T08:44:48Z</time>
      </trkpt>
      <trkpt lat="47.51696" lon="6.76333">
        <ele>398</ele>
        <time>2014-12-30T08:44:51Z</time>
      </trkpt>
      <trkpt lat="47.51695" lon="6.76334">
        <ele>396</ele>
        <time>2014-12-30T08:44:52Z</time>
      </trkpt>
      <trkpt lat="47.51692" lon="6.76337">
        <ele>396</ele>
        <time>2014-12-30T08:44:55Z</time>
      </trkpt>
      <trkpt lat="47.5169" lon="6.76338">
        <ele>396</ele>
        <time>2014-12-30T08:44:56Z</time>
      </trkpt>
      <trkpt lat="47.51687" lon="6.7634">
        <ele>396</ele>
        <time>2014-12-30T08:45:00Z</time>
      </trkpt>
      <trkpt lat="47.51686" lon="6.76341">
        <ele>396</ele>
        <time>2014-12-30T08:45:01Z</time>
      </trkpt>
      <trkpt lat="47.51684" lon="6.76342">
        <ele>397</ele>
        <time>2014-12-30T08:45:03Z</time>
      </trkpt>
      <trkpt lat="47.51682" lon="6.76342">
        <ele>397</ele>
        <time>2014-12-30T08:45:04Z</time>
      </trkpt>
      <trkpt lat="47.51679" lon="6.76342">
        <ele>397</ele>
        <time>2014-12-30T08:45:05Z</time>
      </trkpt>
      <trkpt lat="47.51677" lon="6.76343">
        <ele>397</ele>
        <time>2014-12-30T08:45:06Z</time>
      </trkpt>
      <trkpt lat="47.51675" lon="6.76343">
        <ele>397</ele>
        <time>2014-12-30T08:45:07Z</time>
      </trkpt>
      <trkpt lat="47.51673" lon="6.76344">
        <ele>397</ele>
        <time>2014-12-30T08:45:08Z</time>
      </trkpt>
      <trkpt lat="47.5167" lon="6.76348">
        <ele>397</ele>
        <time>2014-12-30T08:45:10Z</time>
      </trkpt>
      <trkpt lat="47.51669" lon="6.7635">
        <ele>397</ele>
        <time>2014-12-30T08:45:11Z</time>
      </trkpt>
      <trkpt lat="47.51665" lon="6.76352">
        <ele>397</ele>
        <time>2014-12-30T08:45:13Z</time>
      </trkpt>
      <trkpt lat="47.51664" lon="6.76352">
        <ele>397</ele>
        <time>2014-12-30T08:45:14Z</time>
      </trkpt>
      <trkpt lat="47.51659" lon="6.76352">
        <ele>397</ele>
        <time>2014-12-30T08:45:16Z</time>
      </trkpt>
      <trkpt lat="47.51658" lon="6.76352">
        <ele>397</ele>
        <time>2014-12-30T08:45:17Z</time>
      </trkpt>
      <trkpt lat="47.51655" lon="6.76351">
        <ele>397</ele>
        <time>2014-12-30T08:45:18Z</time>
      </trkpt>
      <trkpt lat="47.51653" lon="6.76352">
        <ele>396</ele>
        <time>2014-12-30T08:45:19Z</time>
      </trkpt>
      <trkpt lat="47.51649" lon="6.76352">
        <ele>396</ele>
        <time>2014-12-30T08:45:21Z</time>
      </trkpt>
      <trkpt lat="47.51647" lon="6.76352">
        <ele>396</ele>
        <time>2014-12-30T08:45:22Z</time>
      </trkpt>
      <trkpt lat="47.51645" lon="6.76352">
        <ele>396</ele>
        <time>2014-12-30T08:45:23Z</time>
      </trkpt>
      <trkpt lat="47.51643" lon="6.76351">
        <ele>395</ele>
        <time>2014-12-30T08:45:24Z</time>
      </trkpt>
      <trkpt lat="47.5164" lon="6.76351">
        <ele>395</ele>
        <time>2014-12-30T08:45:25Z</time>
      </trkpt>
      <trkpt lat="47.51638" lon="6.7635">
        <ele>395</ele>
        <time>2014-12-30T08:45:26Z</time>
      </trkpt>
      <trkpt lat="47.51636" lon="6.76349">
        <ele>395</ele>
        <time>2014-12-30T08:45:27Z</time>
      </trkpt>
      <trkpt lat="47.51621" lon="6.76352">
        <ele>393</ele>
        <time>2014-12-30T08:45:35Z</time>
      </trkpt>
      <trkpt lat="47.51618" lon="6.76353">
        <ele>393</ele>
        <time>2014-12-30T08:45:36Z</time>
      </trkpt>
      <trkpt lat="47.51616" lon="6.76353">
        <ele>392</ele>
        <time>2014-12-30T08:45:37Z</time>
      </trkpt>
      <trkpt lat="47.51613" lon="6.76352">
        <ele>392</ele>
        <time>2014-12-30T08:45:38Z</time>
      </trkpt>
      <trkpt lat="47.51611" lon="6.76351">
        <ele>392</ele>
        <time>2014-12-30T08:45:39Z</time>
      </trkpt>
      <trkpt lat="47.51609" lon="6.7635">
        <ele>392</ele>
        <time>2014-12-30T08:45:40Z</time>
      </trkpt>
      <trkpt lat="47.51606" lon="6.76349">
        <ele>392</ele>
        <time>2014-12-30T08:45:41Z</time>
      </trkpt>
      <trkpt lat="47.51602" lon="6.76348">
        <ele>392</ele>
        <time>2014-12-30T08:45:43Z</time>
      </trkpt>
      <trkpt lat="47.516" lon="6.76347">
        <ele>392</ele>
        <time>2014-12-30T08:45:44Z</time>
      </trkpt>
      <trkpt lat="47.51596" lon="6.76348">
        <ele>392</ele>
        <time>2014-12-30T08:45:46Z</time>
      </trkpt>
      <trkpt lat="47.51595" lon="6.76349">
        <ele>392</ele>
        <time>2014-12-30T08:45:47Z</time>
      </trkpt>
      <trkpt lat="47.51591" lon="6.7635">
        <ele>391</ele>
        <time>2014-12-30T08:45:49Z</time>
      </trkpt>
      <trkpt lat="47.51588" lon="6.76351">
        <ele>391</ele>
        <time>2014-12-30T08:45:50Z</time>
      </trkpt>
      <trkpt lat="47.51584" lon="6.76353">
        <ele>391</ele>
        <time>2014-12-30T08:45:52Z</time>
      </trkpt>
      <trkpt lat="47.51583" lon="6.76354">
        <ele>391</ele>
        <time>2014-12-30T08:45:53Z</time>
      </trkpt>
      <trkpt lat="47.51579" lon="6.76357">
        <ele>391</ele>
        <time>2014-12-30T08:45:55Z</time>
      </trkpt>
      <trkpt lat="47.51578" lon="6.76357">
        <ele>390</ele>
        <time>2014-12-30T08:45:56Z</time>
      </trkpt>
      <trkpt lat="47.51574" lon="6.76357">
        <ele>390</ele>
        <time>2014-12-30T08:45:58Z</time>
      </trkpt>
      <trkpt lat="47.51572" lon="6.76356">
        <ele>390</ele>
        <time>2014-12-30T08:45:59Z</time>
      </trkpt>
      <trkpt lat="47.51568" lon="6.76355">
        <ele>390</ele>
        <time>2014-12-30T08:46:01Z</time>
      </trkpt>
      <trkpt lat="47.51565" lon="6.76356">
        <ele>390</ele>
        <time>2014-12-30T08:46:02Z</time>
      </trkpt>
      <trkpt lat="47.51563" lon="6.76356">
        <ele>389</ele>
        <time>2014-12-30T08:46:03Z</time>
      </trkpt>
      <trkpt lat="47.5156" lon="6.76356">
        <ele>389</ele>
        <time>2014-12-30T08:46:04Z</time>
      </trkpt>
      <trkpt lat="47.51556" lon="6.76358">
        <ele>388</ele>
        <time>2014-12-30T08:46:06Z</time>
      </trkpt>
      <trkpt lat="47.51554" lon="6.76358">
        <ele>388</ele>
        <time>2014-12-30T08:46:07Z</time>
      </trkpt>
      <trkpt lat="47.5155" lon="6.76359">
        <ele>388</ele>
        <time>2014-12-30T08:46:09Z</time>
      </trkpt>
      <trkpt lat="47.51548" lon="6.7636">
        <ele>387</ele>
        <time>2014-12-30T08:46:10Z</time>
      </trkpt>
      <trkpt lat="47.51546" lon="6.76361">
        <ele>387</ele>
        <time>2014-12-30T08:46:11Z</time>
      </trkpt>
      <trkpt lat="47.51544" lon="6.76363">
        <ele>387</ele>
        <time>2014-12-30T08:46:12Z</time>
      </trkpt>
      <trkpt lat="47.51541" lon="6.76367">
        <ele>386</ele>
        <time>2014-12-30T08:46:14Z</time>
      </trkpt>
      <trkpt lat="47.51539" lon="6.76369">
        <ele>386</ele>
        <time>2014-12-30T08:46:15Z</time>
      </trkpt>
      <trkpt lat="47.51536" lon="6.76372">
        <ele>385</ele>
        <time>2014-12-30T08:46:17Z</time>
      </trkpt>
      <trkpt lat="47.51534" lon="6.76373">
        <ele>385</ele>
        <time>2014-12-30T08:46:18Z</time>
      </trkpt>
      <trkpt lat="47.51531" lon="6.76377">
        <ele>385</ele>
        <time>2014-12-30T08:46:20Z</time>
      </trkpt>
      <trkpt lat="47.5153" lon="6.76379">
        <ele>384</ele>
        <time>2014-12-30T08:46:21Z</time>
      </trkpt>
      <trkpt lat="47.51526" lon="6.76382">
        <ele>384</ele>
        <time>2014-12-30T08:46:23Z</time>
      </trkpt>
      <trkpt lat="47.51525" lon="6.76383">
        <ele>383</ele>
        <time>2014-12-30T08:46:24Z</time>
      </trkpt>
      <trkpt lat="47.51521" lon="6.76384">
        <ele>383</ele>
        <time>2014-12-30T08:46:26Z</time>
      </trkpt>
      <trkpt lat="47.51519" lon="6.76385">
        <ele>383</ele>
        <time>2014-12-30T08:46:27Z</time>
      </trkpt>
      <trkpt lat="47.51504" lon="6.7639">
        <ele>381</ele>
        <time>2014-12-30T08:46:35Z</time>
      </trkpt>
      <trkpt lat="47.515" lon="6.76391">
        <ele>381</ele>
        <time>2014-12-30T08:46:37Z</time>
      </trkpt>
      <trkpt lat="47.51498" lon="6.76391">
        <ele>380</ele>
        <time>2014-12-30T08:46:38Z</time>
      </trkpt>
      <trkpt lat="47.51495" lon="6.76392">
        <ele>380</ele>
        <time>2014-12-30T08:46:40Z</time>
      </trkpt>
      <trkpt lat="47.51493" lon="6.76391">
        <ele>380</ele>
        <time>2014-12-30T08:46:41Z</time>
      </trkpt>
      <trkpt lat="47.5149" lon="6.76389">
        <ele>380</ele>
        <time>2014-12-30T08:46:43Z</time>
      </trkpt>
      <trkpt lat="47.51488" lon="6.76388">
        <ele>380</ele>
        <time>2014-12-30T08:46:44Z</time>
      </trkpt>
      <trkpt lat="47.51484" lon="6.76387">
        <ele>380</ele>
        <time>2014-12-30T08:46:46Z</time>
      </trkpt>
      <trkpt lat="47.51482" lon="6.76387">
        <ele>380</ele>
        <time>2014-12-30T08:46:47Z</time>
      </trkpt>
      <trkpt lat="47.51479" lon="6.76388">
        <ele>380</ele>
        <time>2014-12-30T08:46:49Z</time>
      </trkpt>
      <trkpt lat="47.51477" lon="6.76389">
        <ele>380</ele>
        <time>2014-12-30T08:46:50Z</time>
      </trkpt>
      <trkpt lat="47.51475" lon="6.7639">
        <ele>379</ele>
        <time>2014-12-30T08:46:51Z</time>
      </trkpt>
      <trkpt lat="47.51472" lon="6.76391">
        <ele>379</ele>
        <time>2014-12-30T08:46:52Z</time>
      </trkpt>
      <trkpt lat="47.5147" lon="6.76392">
        <ele>379</ele>
        <time>2014-12-30T08:46:53Z</time>
      </trkpt>
      <trkpt lat="47.51468" lon="6.76392">
        <ele>379</ele>
        <time>2014-12-30T08:46:54Z</time>
      </trkpt>
      <trkpt lat="47.51464" lon="6.76393">
        <ele>378</ele>
        <time>2014-12-30T08:46:56Z</time>
      </trkpt>
      <trkpt lat="47.51463" lon="6.76394">
        <ele>378</ele>
        <time>2014-12-30T08:46:57Z</time>
      </trkpt>
      <trkpt lat="47.51459" lon="6.76397">
        <ele>378</ele>
        <time>2014-12-30T08:46:59Z</time>
      </trkpt>
      <trkpt lat="47.51457" lon="6.76398">
        <ele>377</ele>
        <time>2014-12-30T08:47:00Z</time>
      </trkpt>
      <trkpt lat="47.51452" lon="6.764">
        <ele>376</ele>
        <time>2014-12-30T08:47:03Z</time>
      </trkpt>
      <trkpt lat="47.51451" lon="6.764">
        <ele>376</ele>
        <time>2014-12-30T08:47:04Z</time>
      </trkpt>
      <trkpt lat="47.51448" lon="6.76401">
        <ele>376</ele>
        <time>2014-12-30T08:47:05Z</time>
      </trkpt>
      <trkpt lat="47.51445" lon="6.76402">
        <ele>375</ele>
        <time>2014-12-30T08:47:06Z</time>
      </trkpt>
      <trkpt lat="47.51442" lon="6.76403">
        <ele>374</ele>
        <time>2014-12-30T08:47:07Z</time>
      </trkpt>
      <trkpt lat="47.51439" lon="6.76403">
        <ele>374</ele>
        <time>2014-12-30T08:47:08Z</time>
      </trkpt>
      <trkpt lat="47.51437" lon="6.76405">
        <ele>373</ele>
        <time>2014-12-30T08:47:09Z</time>
      </trkpt>
      <trkpt lat="47.51434" lon="6.76407">
        <ele>373</ele>
        <time>2014-12-30T08:47:10Z</time>
      </trkpt>
      <trkpt lat="47.51432" lon="6.76409">
        <ele>372</ele>
        <time>2014-12-30T08:47:11Z</time>
      </trkpt>
      <trkpt lat="47.5143" lon="6.76411">
        <ele>372</ele>
        <time>2014-12-30T08:47:12Z</time>
      </trkpt>
      <trkpt lat="47.51428" lon="6.76413">
        <ele>371</ele>
        <time>2014-12-30T08:47:13Z</time>
      </trkpt>
      <trkpt lat="47.51425" lon="6.76415">
        <ele>371</ele>
        <time>2014-12-30T08:47:14Z</time>
      </trkpt>
      <trkpt lat="47.51423" lon="6.76417">
        <ele>371</ele>
        <time>2014-12-30T08:47:15Z</time>
      </trkpt>
      <trkpt lat="47.5142" lon="6.76419">
        <ele>371</ele>
        <time>2014-12-30T08:47:16Z</time>
      </trkpt>
      <trkpt lat="47.51417" lon="6.76422">
        <ele>371</ele>
        <time>2014-12-30T08:47:17Z</time>
      </trkpt>
      <trkpt lat="47.51415" lon="6.76424">
        <ele>370</ele>
        <time>2014-12-30T08:47:18Z</time>
      </trkpt>
      <trkpt lat="47.51412" lon="6.76427">
        <ele>370</ele>
        <time>2014-12-30T08:47:19Z</time>
      </trkpt>
      <trkpt lat="47.5141" lon="6.76428">
        <ele>370</ele>
        <time>2014-12-30T08:47:20Z</time>
      </trkpt>
      <trkpt lat="47.51406" lon="6.76429">
        <ele>370</ele>
        <time>2014-12-30T08:47:22Z</time>
      </trkpt>
      <trkpt lat="47.51405" lon="6.76429">
        <ele>370</ele>
        <time>2014-12-30T08:47:23Z</time>
      </trkpt>
      <trkpt lat="47.514" lon="6.7643">
        <ele>370</ele>
        <time>2014-12-30T08:47:25Z</time>
      </trkpt>
      <trkpt lat="47.51398" lon="6.76431">
        <ele>369</ele>
        <time>2014-12-30T08:47:26Z</time>
      </trkpt>
      <trkpt lat="47.51392" lon="6.76433">
        <ele>369</ele>
        <time>2014-12-30T08:47:29Z</time>
      </trkpt>
      <trkpt lat="47.51389" lon="6.76433">
        <ele>368</ele>
        <time>2014-12-30T08:47:30Z</time>
      </trkpt>
      <trkpt lat="47.51386" lon="6.76434">
        <ele>368</ele>
        <time>2014-12-30T08:47:31Z</time>
      </trkpt>
      <trkpt lat="47.51383" lon="6.76434">
        <ele>367</ele>
        <time>2014-12-30T08:47:32Z</time>
      </trkpt>
      <trkpt lat="47.51381" lon="6.76434">
        <ele>367</ele>
        <time>2014-12-30T08:47:33Z</time>
      </trkpt>
      <trkpt lat="47.51376" lon="6.76435">
        <ele>366</ele>
        <time>2014-12-30T08:47:35Z</time>
      </trkpt>
      <trkpt lat="47.51374" lon="6.76436">
        <ele>366</ele>
        <time>2014-12-30T08:47:36Z</time>
      </trkpt>
      <trkpt lat="47.5137" lon="6.76436">
        <ele>365</ele>
        <time>2014-12-30T08:47:38Z</time>
      </trkpt>
      <trkpt lat="47.51368" lon="6.76435">
        <ele>365</ele>
        <time>2014-12-30T08:47:39Z</time>
      </trkpt>
      <trkpt lat="47.51364" lon="6.76432">
        <ele>364</ele>
        <time>2014-12-30T08:47:41Z</time>
      </trkpt>
      <trkpt lat="47.51362" lon="6.7643">
        <ele>364</ele>
        <time>2014-12-30T08:47:42Z</time>
      </trkpt>
      <trkpt lat="47.51359" lon="6.76426">
        <ele>363</ele>
        <time>2014-12-30T08:47:44Z</time>
      </trkpt>
      <trkpt lat="47.51357" lon="6.76424">
        <ele>363</ele>
        <time>2014-12-30T08:47:45Z</time>
      </trkpt>
      <trkpt lat="47.51354" lon="6.7642">
        <ele>363</ele>
        <time>2014-12-30T08:47:47Z</time>
      </trkpt>
      <trkpt lat="47.51353" lon="6.76418">
        <ele>362</ele>
        <time>2014-12-30T08:47:48Z</time>
      </trkpt>
      <trkpt lat="47.51351" lon="6.76413">
        <ele>363</ele>
        <time>2014-12-30T08:47:50Z</time>
      </trkpt>
      <trkpt lat="47.51351" lon="6.76411">
        <ele>363</ele>
        <time>2014-12-30T08:47:51Z</time>
      </trkpt>
      <trkpt lat="47.5135" lon="6.76407">
        <ele>363</ele>
        <time>2014-12-30T08:47:53Z</time>
      </trkpt>
      <trkpt lat="47.51349" lon="6.76405">
        <ele>363</ele>
        <time>2014-12-30T08:47:54Z</time>
      </trkpt>
      <trkpt lat="47.51346" lon="6.76401">
        <ele>363</ele>
        <time>2014-12-30T08:47:56Z</time>
      </trkpt>
      <trkpt lat="47.51345" lon="6.76398">
        <ele>363</ele>
        <time>2014-12-30T08:47:57Z</time>
      </trkpt>
      <trkpt lat="47.51344" lon="6.76394">
        <ele>363</ele>
        <time>2014-12-30T08:47:59Z</time>
      </trkpt>
      <trkpt lat="47.51342" lon="6.76392">
        <ele>364</ele>
        <time>2014-12-30T08:48:00Z</time>
      </trkpt>
      <trkpt lat="47.51339" lon="6.76387">
        <ele>364</ele>
        <time>2014-12-30T08:48:02Z</time>
      </trkpt>
      <trkpt lat="47.51338" lon="6.76385">
        <ele>364</ele>
        <time>2014-12-30T08:48:03Z</time>
      </trkpt>
      <trkpt lat="47.51337" lon="6.76382">
        <ele>365</ele>
        <time>2014-12-30T08:48:04Z</time>
      </trkpt>
      <trkpt lat="47.51336" lon="6.76379">
        <ele>365</ele>
        <time>2014-12-30T08:48:05Z</time>
      </trkpt>
      <trkpt lat="47.51333" lon="6.76373">
        <ele>365</ele>
        <time>2014-12-30T08:48:07Z</time>
      </trkpt>
      <trkpt lat="47.51332" lon="6.7637">
        <ele>365</ele>
        <time>2014-12-30T08:48:08Z</time>
      </trkpt>
      <trkpt lat="47.5133" lon="6.76365">
        <ele>366</ele>
        <time>2014-12-30T08:48:10Z</time>
      </trkpt>
      <trkpt lat="47.51329" lon="6.76363">
        <ele>366</ele>
        <time>2014-12-30T08:48:11Z</time>
      </trkpt>
      <trkpt lat="47.51327" lon="6.76358">
        <ele>366</ele>
        <time>2014-12-30T08:48:13Z</time>
      </trkpt>
      <trkpt lat="47.51326" lon="6.76355">
        <ele>366</ele>
        <time>2014-12-30T08:48:14Z</time>
      </trkpt>
      <trkpt lat="47.51325" lon="6.76352">
        <ele>367</ele>
        <time>2014-12-30T08:48:15Z</time>
      </trkpt>
      <trkpt lat="47.51323" lon="6.7635">
        <ele>367</ele>
        <time>2014-12-30T08:48:16Z</time>
      </trkpt>
      <trkpt lat="47.51321" lon="6.76345">
        <ele>367</ele>
        <time>2014-12-30T08:48:18Z</time>
      </trkpt>
      <trkpt lat="47.51319" lon="6.76343">
        <ele>367</ele>
        <time>2014-12-30T08:48:19Z</time>
      </trkpt>
      <trkpt lat="47.51317" lon="6.76339">
        <ele>367</ele>
        <time>2014-12-30T08:48:21Z</time>
      </trkpt>
      <trkpt lat="47.51316" lon="6.76336">
        <ele>367</ele>
        <time>2014-12-30T08:48:22Z</time>
      </trkpt>
      <trkpt lat="47.51314" lon="6.76331">
        <ele>367</ele>
        <time>2014-12-30T08:48:24Z</time>
      </trkpt>
      <trkpt lat="47.51313" lon="6.76328">
        <ele>367</ele>
        <time>2014-12-30T08:48:25Z</time>
      </trkpt>
      <trkpt lat="47.51311" lon="6.76325">
        <ele>367</ele>
        <time>2014-12-30T08:48:26Z</time>
      </trkpt>
      <trkpt lat="47.51304" lon="6.76302">
        <ele>367</ele>
        <time>2014-12-30T08:48:34Z</time>
      </trkpt>
      <trkpt lat="47.51306" lon="6.76297">
        <ele>368</ele>
        <time>2014-12-30T08:48:37Z</time>
      </trkpt>
      <trkpt lat="47.51306" lon="6.76294">
        <ele>368</ele>
        <time>2014-12-30T08:48:38Z</time>
      </trkpt>
      <trkpt lat="47.51306" lon="6.76289">
        <ele>368</ele>
        <time>2014-12-30T08:48:40Z</time>
      </trkpt>
      <trkpt lat="47.51305" lon="6.76287">
        <ele>368</ele>
        <time>2014-12-30T08:48:41Z</time>
      </trkpt>
      <trkpt lat="47.51303" lon="6.76281">
        <ele>368</ele>
        <time>2014-12-30T08:48:43Z</time>
      </trkpt>
      <trkpt lat="47.51302" lon="6.76279">
        <ele>368</ele>
        <time>2014-12-30T08:48:44Z</time>
      </trkpt>
      <trkpt lat="47.513" lon="6.76273">
        <ele>368</ele>
        <time>2014-12-30T08:48:46Z</time>
      </trkpt>
      <trkpt lat="47.51299" lon="6.7627">
        <ele>367</ele>
        <time>2014-12-30T08:48:47Z</time>
      </trkpt>
      <trkpt lat="47.51297" lon="6.76267">
        <ele>367</ele>
        <time>2014-12-30T08:48:48Z</time>
      </trkpt>
      <trkpt lat="47.51296" lon="6.76265">
        <ele>367</ele>
        <time>2014-12-30T08:48:49Z</time>
      </trkpt>
      <trkpt lat="47.51294" lon="6.76262">
        <ele>366</ele>
        <time>2014-12-30T08:48:50Z</time>
      </trkpt>
      <trkpt lat="47.51293" lon="6.76259">
        <ele>366</ele>
        <time>2014-12-30T08:48:51Z</time>
      </trkpt>
      <trkpt lat="47.51292" lon="6.76256">
        <ele>366</ele>
        <time>2014-12-30T08:48:52Z</time>
      </trkpt>
      <trkpt lat="47.5129" lon="6.76254">
        <ele>365</ele>
        <time>2014-12-30T08:48:53Z</time>
      </trkpt>
      <trkpt lat="47.51288" lon="6.76249">
        <ele>365</ele>
        <time>2014-12-30T08:48:55Z</time>
      </trkpt>
      <trkpt lat="47.51287" lon="6.76246">
        <ele>365</ele>
        <time>2014-12-30T08:48:56Z</time>
      </trkpt>
      <trkpt lat="47.51285" lon="6.76242">
        <ele>364</ele>
        <time>2014-12-30T08:48:58Z</time>
      </trkpt>
      <trkpt lat="47.51283" lon="6.76239">
        <ele>364</ele>
        <time>2014-12-30T08:48:59Z</time>
      </trkpt>
      <trkpt lat="47.51282" lon="6.76236">
        <ele>364</ele>
        <time>2014-12-30T08:49:00Z</time>
      </trkpt>
      <trkpt lat="47.51282" lon="6.76233">
        <ele>363</ele>
        <time>2014-12-30T08:49:01Z</time>
      </trkpt>
      <trkpt lat="47.5128" lon="6.76226">
        <ele>363</ele>
        <time>2014-12-30T08:49:03Z</time>
      </trkpt>
      <trkpt lat="47.5128" lon="6.76224">
        <ele>363</ele>
        <time>2014-12-30T08:49:04Z</time>
      </trkpt>
      <trkpt lat="47.51278" lon="6.76221">
        <ele>363</ele>
        <time>2014-12-30T08:49:05Z</time>
      </trkpt>
      <trkpt lat="47.51277" lon="6.76218">
        <ele>363</ele>
        <time>2014-12-30T08:49:06Z</time>
      </trkpt>
      <trkpt lat="47.51275" lon="6.76215">
        <ele>362</ele>
        <time>2014-12-30T08:49:07Z</time>
      </trkpt>
      <trkpt lat="47.51273" lon="6.76212">
        <ele>362</ele>
        <time>2014-12-30T08:49:08Z</time>
      </trkpt>
      <trkpt lat="47.51272" lon="6.76208">
        <ele>362</ele>
        <time>2014-12-30T08:49:09Z</time>
      </trkpt>
      <trkpt lat="47.5127" lon="6.76205">
        <ele>362</ele>
        <time>2014-12-30T08:49:10Z</time>
      </trkpt>
      <trkpt lat="47.51269" lon="6.76202">
        <ele>362</ele>
        <time>2014-12-30T08:49:11Z</time>
      </trkpt>
      <trkpt lat="47.51268" lon="6.76199">
        <ele>362</ele>
        <time>2014-12-30T08:49:12Z</time>
      </trkpt>
      <trkpt lat="47.51267" lon="6.76194">
        <ele>361</ele>
        <time>2014-12-30T08:49:14Z</time>
      </trkpt>
      <trkpt lat="47.51267" lon="6.76191">
        <ele>361</ele>
        <time>2014-12-30T08:49:15Z</time>
      </trkpt>
      <trkpt lat="47.51265" lon="6.76186">
        <ele>361</ele>
        <time>2014-12-30T08:49:17Z</time>
      </trkpt>
      <trkpt lat="47.51265" lon="6.76184">
        <ele>361</ele>
        <time>2014-12-30T08:49:18Z</time>
      </trkpt>
      <trkpt lat="47.51264" lon="6.76179">
        <ele>360</ele>
        <time>2014-12-30T08:49:20Z</time>
      </trkpt>
      <trkpt lat="47.51264" lon="6.76176">
        <ele>360</ele>
        <time>2014-12-30T08:49:21Z</time>
      </trkpt>
      <trkpt lat="47.51264" lon="6.7617">
        <ele>360</ele>
        <time>2014-12-30T08:49:23Z</time>
      </trkpt>
      <trkpt lat="47.51263" lon="6.76167">
        <ele>360</ele>
        <time>2014-12-30T08:49:24Z</time>
      </trkpt>
      <trkpt lat="47.51263" lon="6.76163">
        <ele>360</ele>
        <time>2014-12-30T08:49:25Z</time>
      </trkpt>
      <trkpt lat="47.51262" lon="6.76159">
        <ele>360</ele>
        <time>2014-12-30T08:49:26Z</time>
      </trkpt>
      <trkpt lat="47.51259" lon="6.76151">
        <ele>361</ele>
        <time>2014-12-30T08:49:29Z</time>
      </trkpt>
      <trkpt lat="47.5126" lon="6.76145">
        <ele>361</ele>
        <time>2014-12-30T08:49:31Z</time>
      </trkpt>
      <trkpt lat="47.5126" lon="6.76142">
        <ele>361</ele>
        <time>2014-12-30T08:49:32Z</time>
      </trkpt>
      <trkpt lat="47.51261" lon="6.76136">
        <ele>362</ele>
        <time>2014-12-30T08:49:35Z</time>
      </trkpt>
      <trkpt lat="47.51261" lon="6.76134">
        <ele>362</ele>
        <time>2014-12-30T08:49:36Z</time>
      </trkpt>
      <trkpt lat="47.5126" lon="6.76128">
        <ele>363</ele>
        <time>2014-12-30T08:49:38Z</time>
      </trkpt>
      <trkpt lat="47.5126" lon="6.76124">
        <ele>363</ele>
        <time>2014-12-30T08:49:39Z</time>
      </trkpt>
      <trkpt lat="47.5126" lon="6.7612">
        <ele>363</ele>
        <time>2014-12-30T08:49:40Z</time>
      </trkpt>
      <trkpt lat="47.51259" lon="6.76116">
        <ele>363</ele>
        <time>2014-12-30T08:49:41Z</time>
      </trkpt>
      <trkpt lat="47.51258" lon="6.76112">
        <ele>363</ele>
        <time>2014-12-30T08:49:42Z</time>
      </trkpt>
      <trkpt lat="47.51257" lon="6.76108">
        <ele>362</ele>
        <time>2014-12-30T08:49:43Z</time>
      </trkpt>
      <trkpt lat="47.51257" lon="6.76105">
        <ele>362</ele>
        <time>2014-12-30T08:49:44Z</time>
      </trkpt>
      <trkpt lat="47.51256" lon="6.76101">
        <ele>362</ele>
        <time>2014-12-30T08:49:45Z</time>
      </trkpt>
      <trkpt lat="47.51256" lon="6.76097">
        <ele>362</ele>
        <time>2014-12-30T08:49:46Z</time>
      </trkpt>
      <trkpt lat="47.51255" lon="6.76094">
        <ele>362</ele>
        <time>2014-12-30T08:49:47Z</time>
      </trkpt>
      <trkpt lat="47.51255" lon="6.7609">
        <ele>362</ele>
        <time>2014-12-30T08:49:48Z</time>
      </trkpt>
      <trkpt lat="47.51254" lon="6.76087">
        <ele>362</ele>
        <time>2014-12-30T08:49:49Z</time>
      </trkpt>
      <trkpt lat="47.51253" lon="6.76083">
        <ele>362</ele>
        <time>2014-12-30T08:49:50Z</time>
      </trkpt>
      <trkpt lat="47.51252" lon="6.7608">
        <ele>362</ele>
        <time>2014-12-30T08:49:51Z</time>
      </trkpt>
      <trkpt lat="47.51252" lon="6.76076">
        <ele>362</ele>
        <time>2014-12-30T08:49:52Z</time>
      </trkpt>
      <trkpt lat="47.51251" lon="6.76073">
        <ele>362</ele>
        <time>2014-12-30T08:49:53Z</time>
      </trkpt>
      <trkpt lat="47.51251" lon="6.76069">
        <ele>362</ele>
        <time>2014-12-30T08:49:54Z</time>
      </trkpt>
      <trkpt lat="47.51251" lon="6.76066">
        <ele>362</ele>
        <time>2014-12-30T08:49:55Z</time>
      </trkpt>
      <trkpt lat="47.51252" lon="6.7606">
        <ele>363</ele>
        <time>2014-12-30T08:49:57Z</time>
      </trkpt>
      <trkpt lat="47.51252" lon="6.76058">
        <ele>363</ele>
        <time>2014-12-30T08:49:58Z</time>
      </trkpt>
      <trkpt lat="47.51251" lon="6.76051">
        <ele>364</ele>
        <time>2014-12-30T08:50:01Z</time>
      </trkpt>
      <trkpt lat="47.5125" lon="6.76049">
        <ele>364</ele>
        <time>2014-12-30T08:50:02Z</time>
      </trkpt>
      <trkpt lat="47.5125" lon="6.76043">
        <ele>363</ele>
        <time>2014-12-30T08:50:04Z</time>
      </trkpt>
      <trkpt lat="47.51249" lon="6.7604">
        <ele>363</ele>
        <time>2014-12-30T08:50:05Z</time>
      </trkpt>
      <trkpt lat="47.51248" lon="6.76035">
        <ele>363</ele>
        <time>2014-12-30T08:50:07Z</time>
      </trkpt>
      <trkpt lat="47.51247" lon="6.76033">
        <ele>363</ele>
        <time>2014-12-30T08:50:08Z</time>
      </trkpt>
      <trkpt lat="47.51247" lon="6.76029">
        <ele>364</ele>
        <time>2014-12-30T08:50:09Z</time>
      </trkpt>
      <trkpt lat="47.51246" lon="6.76026">
        <ele>364</ele>
        <time>2014-12-30T08:50:10Z</time>
      </trkpt>
      <trkpt lat="47.51245" lon="6.76023">
        <ele>364</ele>
        <time>2014-12-30T08:50:11Z</time>
      </trkpt>
      <trkpt lat="47.51244" lon="6.7602">
        <ele>364</ele>
        <time>2014-12-30T08:50:12Z</time>
      </trkpt>
      <trkpt lat="47.51242" lon="6.76014">
        <ele>364</ele>
        <time>2014-12-30T08:50:14Z</time>
      </trkpt>
      <trkpt lat="47.51242" lon="6.76012">
        <ele>364</ele>
        <time>2014-12-30T08:50:15Z</time>
      </trkpt>
      <trkpt lat="47.51241" lon="6.76007">
        <ele>364</ele>
        <time>2014-12-30T08:50:17Z</time>
      </trkpt>
      <trkpt lat="47.5124" lon="6.76004">
        <ele>364</ele>
        <time>2014-12-30T08:50:18Z</time>
      </trkpt>
      <trkpt lat="47.51238" lon="6.75999">
        <ele>364</ele>
        <time>2014-12-30T08:50:21Z</time>
      </trkpt>
      <trkpt lat="47.51237" lon="6.75996">
        <ele>364</ele>
        <time>2014-12-30T08:50:22Z</time>
      </trkpt>
      <trkpt lat="47.51236" lon="6.7599">
        <ele>364</ele>
        <time>2014-12-30T08:50:24Z</time>
      </trkpt>
      <trkpt lat="47.51235" lon="6.75987">
        <ele>364</ele>
        <time>2014-12-30T08:50:25Z</time>
      </trkpt>
      <trkpt lat="47.51234" lon="6.75984">
        <ele>364</ele>
        <time>2014-12-30T08:50:26Z</time>
      </trkpt>
      <trkpt lat="47.51227" lon="6.75962">
        <ele>365</ele>
        <time>2014-12-30T08:50:33Z</time>
      </trkpt>
      <trkpt lat="47.51226" lon="6.75958">
        <ele>365</ele>
        <time>2014-12-30T08:50:35Z</time>
      </trkpt>
      <trkpt lat="47.51225" lon="6.75955">
        <ele>365</ele>
        <time>2014-12-30T08:50:36Z</time>
      </trkpt>
      <trkpt lat="47.51225" lon="6.75952">
        <ele>365</ele>
        <time>2014-12-30T08:50:37Z</time>
      </trkpt>
      <trkpt lat="47.51225" lon="6.75948">
        <ele>365</ele>
        <time>2014-12-30T08:50:38Z</time>
      </trkpt>
      <trkpt lat="47.51225" lon="6.75942">
        <ele>365</ele>
        <time>2014-12-30T08:50:40Z</time>
      </trkpt>
      <trkpt lat="47.51224" lon="6.75939">
        <ele>365</ele>
        <time>2014-12-30T08:50:41Z</time>
      </trkpt>
      <trkpt lat="47.51224" lon="6.75933">
        <ele>366</ele>
        <time>2014-12-30T08:50:43Z</time>
      </trkpt>
      <trkpt lat="47.51223" lon="6.7593">
        <ele>366</ele>
        <time>2014-12-30T08:50:44Z</time>
      </trkpt>
      <trkpt lat="47.51222" lon="6.75925">
        <ele>366</ele>
        <time>2014-12-30T08:50:46Z</time>
      </trkpt>
      <trkpt lat="47.51221" lon="6.75922">
        <ele>365</ele>
        <time>2014-12-30T08:50:47Z</time>
      </trkpt>
      <trkpt lat="47.5122" lon="6.75919">
        <ele>365</ele>
        <time>2014-12-30T08:50:48Z</time>
      </trkpt>
      <trkpt lat="47.5122" lon="6.75915">
        <ele>365</ele>
        <time>2014-12-30T08:50:49Z</time>
      </trkpt>
      <trkpt lat="47.51219" lon="6.75912">
        <ele>365</ele>
        <time>2014-12-30T08:50:50Z</time>
      </trkpt>
      <trkpt lat="47.51218" lon="6.75908">
        <ele>365</ele>
        <time>2014-12-30T08:50:51Z</time>
      </trkpt>
      <trkpt lat="47.51217" lon="6.75904">
        <ele>365</ele>
        <time>2014-12-30T08:50:52Z</time>
      </trkpt>
      <trkpt lat="47.51216" lon="6.759">
        <ele>365</ele>
        <time>2014-12-30T08:50:53Z</time>
      </trkpt>
      <trkpt lat="47.51215" lon="6.75895">
        <ele>365</ele>
        <time>2014-12-30T08:50:55Z</time>
      </trkpt>
      <trkpt lat="47.51214" lon="6.75892">
        <ele>365</ele>
        <time>2014-12-30T08:50:56Z</time>
      </trkpt>
      <trkpt lat="47.51213" lon="6.75886">
        <ele>365</ele>
        <time>2014-12-30T08:50:58Z</time>
      </trkpt>
      <trkpt lat="47.51213" lon="6.75883">
        <ele>365</ele>
        <time>2014-12-30T08:50:59Z</time>
      </trkpt>
      <trkpt lat="47.51212" lon="6.75877">
        <ele>365</ele>
        <time>2014-12-30T08:51:01Z</time>
      </trkpt>
      <trkpt lat="47.51212" lon="6.75873">
        <ele>365</ele>
        <time>2014-12-30T08:51:02Z</time>
      </trkpt>
      <trkpt lat="47.51211" lon="6.75867">
        <ele>365</ele>
        <time>2014-12-30T08:51:04Z</time>
      </trkpt>
      <trkpt lat="47.51211" lon="6.75864">
        <ele>365</ele>
        <time>2014-12-30T08:51:05Z</time>
      </trkpt>
      <trkpt lat="47.5121" lon="6.75859">
        <ele>365</ele>
        <time>2014-12-30T08:51:07Z</time>
      </trkpt>
      <trkpt lat="47.51209" lon="6.75855">
        <ele>364</ele>
        <time>2014-12-30T08:51:08Z</time>
      </trkpt>
      <trkpt lat="47.51208" lon="6.75849">
        <ele>364</ele>
        <time>2014-12-30T08:51:10Z</time>
      </trkpt>
      <trkpt lat="47.51207" lon="6.75847">
        <ele>364</ele>
        <time>2014-12-30T08:51:11Z</time>
      </trkpt>
      <trkpt lat="47.51206" lon="6.75842">
        <ele>364</ele>
        <time>2014-12-30T08:51:13Z</time>
      </trkpt>
      <trkpt lat="47.51205" lon="6.7584">
        <ele>364</ele>
        <time>2014-12-30T08:51:14Z</time>
      </trkpt>
      <trkpt lat="47.51203" lon="6.75834">
        <ele>363</ele>
        <time>2014-12-30T08:51:16Z</time>
      </trkpt>
      <trkpt lat="47.51202" lon="6.75831">
        <ele>363</ele>
        <time>2014-12-30T08:51:17Z</time>
      </trkpt>
      <trkpt lat="47.51201" lon="6.75828">
        <ele>363</ele>
        <time>2014-12-30T08:51:18Z</time>
      </trkpt>
      <trkpt lat="47.512" lon="6.75825">
        <ele>363</ele>
        <time>2014-12-30T08:51:19Z</time>
      </trkpt>
      <trkpt lat="47.51198" lon="6.75821">
        <ele>363</ele>
        <time>2014-12-30T08:51:20Z</time>
      </trkpt>
      <trkpt lat="47.51197" lon="6.75818">
        <ele>362</ele>
        <time>2014-12-30T08:51:21Z</time>
      </trkpt>
      <trkpt lat="47.51196" lon="6.75815">
        <ele>362</ele>
        <time>2014-12-30T08:51:22Z</time>
      </trkpt>
      <trkpt lat="47.51195" lon="6.75812">
        <ele>362</ele>
        <time>2014-12-30T08:51:23Z</time>
      </trkpt>
      <trkpt lat="47.51194" lon="6.75809">
        <ele>362</ele>
        <time>2014-12-30T08:51:24Z</time>
      </trkpt>
      <trkpt lat="47.51193" lon="6.75806">
        <ele>362</ele>
        <time>2014-12-30T08:51:25Z</time>
      </trkpt>
      <trkpt lat="47.51191" lon="6.75802">
        <ele>361</ele>
        <time>2014-12-30T08:51:26Z</time>
      </trkpt>
      <trkpt lat="47.51187" lon="6.75793">
        <ele>361</ele>
        <time>2014-12-30T08:51:29Z</time>
      </trkpt>
      <trkpt lat="47.51185" lon="6.75787">
        <ele>361</ele>
        <time>2014-12-30T08:51:31Z</time>
      </trkpt>
      <trkpt lat="47.51185" lon="6.75785">
        <ele>361</ele>
        <time>2014-12-30T08:51:32Z</time>
      </trkpt>
      <trkpt lat="47.51184" lon="6.75779">
        <ele>360</ele>
        <time>2014-12-30T08:51:35Z</time>
      </trkpt>
      <trkpt lat="47.51184" lon="6.75776">
        <ele>360</ele>
        <time>2014-12-30T08:51:36Z</time>
      </trkpt>
      <trkpt lat="47.51182" lon="6.75772">
        <ele>359</ele>
        <time>2014-12-30T08:51:38Z</time>
      </trkpt>
      <trkpt lat="47.51181" lon="6.75769">
        <ele>359</ele>
        <time>2014-12-30T08:51:39Z</time>
      </trkpt>
      <trkpt lat="47.51179" lon="6.75764">
        <ele>359</ele>
        <time>2014-12-30T08:51:41Z</time>
      </trkpt>
      <trkpt lat="47.51178" lon="6.75762">
        <ele>358</ele>
        <time>2014-12-30T08:51:42Z</time>
      </trkpt>
      <trkpt lat="47.51176" lon="6.75758">
        <ele>358</ele>
        <time>2014-12-30T08:51:44Z</time>
      </trkpt>
      <trkpt lat="47.51175" lon="6.75755">
        <ele>358</ele>
        <time>2014-12-30T08:51:45Z</time>
      </trkpt>
      <trkpt lat="47.51174" lon="6.75751">
        <ele>358</ele>
        <time>2014-12-30T08:51:46Z</time>
      </trkpt>
      <trkpt lat="47.51172" lon="6.75748">
        <ele>358</ele>
        <time>2014-12-30T08:51:47Z</time>
      </trkpt>
      <trkpt lat="47.51171" lon="6.75744">
        <ele>358</ele>
        <time>2014-12-30T08:51:48Z</time>
      </trkpt>
      <trkpt lat="47.5117" lon="6.75741">
        <ele>358</ele>
        <time>2014-12-30T08:51:49Z</time>
      </trkpt>
      <trkpt lat="47.51169" lon="6.75738">
        <ele>358</ele>
        <time>2014-12-30T08:51:50Z</time>
      </trkpt>
      <trkpt lat="47.51167" lon="6.75735">
        <ele>358</ele>
        <time>2014-12-30T08:51:51Z</time>
      </trkpt>
      <trkpt lat="47.51166" lon="6.75731">
        <ele>358</ele>
        <time>2014-12-30T08:51:52Z</time>
      </trkpt>
      <trkpt lat="47.51165" lon="6.75727">
        <ele>358</ele>
        <time>2014-12-30T08:51:53Z</time>
      </trkpt>
      <trkpt lat="47.51164" lon="6.75723">
        <ele>358</ele>
        <time>2014-12-30T08:51:54Z</time>
      </trkpt>
      <trkpt lat="47.51162" lon="6.7572">
        <ele>359</ele>
        <time>2014-12-30T08:51:55Z</time>
      </trkpt>
      <trkpt lat="47.51161" lon="6.75716">
        <ele>359</ele>
        <time>2014-12-30T08:51:56Z</time>
      </trkpt>
      <trkpt lat="47.51159" lon="6.75712">
        <ele>359</ele>
        <time>2014-12-30T08:51:57Z</time>
      </trkpt>
      <trkpt lat="47.51158" lon="6.75709">
        <ele>359</ele>
        <time>2014-12-30T08:51:58Z</time>
      </trkpt>
      <trkpt lat="47.51157" lon="6.75705">
        <ele>359</ele>
        <time>2014-12-30T08:51:59Z</time>
      </trkpt>
      <trkpt lat="47.51156" lon="6.75702">
        <ele>360</ele>
        <time>2014-12-30T08:52:00Z</time>
      </trkpt>
      <trkpt lat="47.51154" lon="6.75698">
        <ele>360</ele>
        <time>2014-12-30T08:52:01Z</time>
      </trkpt>
      <trkpt lat="47.51153" lon="6.75695">
        <ele>360</ele>
        <time>2014-12-30T08:52:02Z</time>
      </trkpt>
      <trkpt lat="47.51152" lon="6.75692">
        <ele>360</ele>
        <time>2014-12-30T08:52:03Z</time>
      </trkpt>
      <trkpt lat="47.51151" lon="6.75686">
        <ele>360</ele>
        <time>2014-12-30T08:52:05Z</time>
      </trkpt>
      <trkpt lat="47.5115" lon="6.75683">
        <ele>360</ele>
        <time>2014-12-30T08:52:06Z</time>
      </trkpt>
      <trkpt lat="47.51149" lon="6.75678">
        <ele>360</ele>
        <time>2014-12-30T08:52:08Z</time>
      </trkpt>
      <trkpt lat="47.51148" lon="6.75675">
        <ele>360</ele>
        <time>2014-12-30T08:52:09Z</time>
      </trkpt>
      <trkpt lat="47.51147" lon="6.75672">
        <ele>360</ele>
        <time>2014-12-30T08:52:10Z</time>
      </trkpt>
      <trkpt lat="47.51146" lon="6.75669">
        <ele>360</ele>
        <time>2014-12-30T08:52:11Z</time>
      </trkpt>
      <trkpt lat="47.51144" lon="6.75663">
        <ele>360</ele>
        <time>2014-12-30T08:52:13Z</time>
      </trkpt>
      <trkpt lat="47.51143" lon="6.7566">
        <ele>360</ele>
        <time>2014-12-30T08:52:14Z</time>
      </trkpt>
      <trkpt lat="47.51142" lon="6.75657">
        <ele>360</ele>
        <time>2014-12-30T08:52:15Z</time>
      </trkpt>
      <trkpt lat="47.51141" lon="6.75654">
        <ele>360</ele>
        <time>2014-12-30T08:52:16Z</time>
      </trkpt>
      <trkpt lat="47.5114" lon="6.75649">
        <ele>360</ele>
        <time>2014-12-30T08:52:18Z</time>
      </trkpt>
      <trkpt lat="47.51139" lon="6.75646">
        <ele>360</ele>
        <time>2014-12-30T08:52:19Z</time>
      </trkpt>
      <trkpt lat="47.51138" lon="6.75643">
        <ele>360</ele>
        <time>2014-12-30T08:52:20Z</time>
      </trkpt>
      <trkpt lat="47.51137" lon="6.7564">
        <ele>360</ele>
        <time>2014-12-30T08:52:21Z</time>
      </trkpt>
      <trkpt lat="47.51136" lon="6.75637">
        <ele>360</ele>
        <time>2014-12-30T08:52:22Z</time>
      </trkpt>
      <trkpt lat="47.51134" lon="6.75634">
        <ele>360</ele>
        <time>2014-12-30T08:52:23Z</time>
      </trkpt>
      <trkpt lat="47.51133" lon="6.75631">
        <ele>361</ele>
        <time>2014-12-30T08:52:24Z</time>
      </trkpt>
      <trkpt lat="47.51132" lon="6.75628">
        <ele>360</ele>
        <time>2014-12-30T08:52:25Z</time>
      </trkpt>
      <trkpt lat="47.5113" lon="6.75625">
        <ele>360</ele>
        <time>2014-12-30T08:52:26Z</time>
      </trkpt>
      <trkpt lat="47.51125" lon="6.75608">
        <ele>360</ele>
        <time>2014-12-30T08:52:34Z</time>
      </trkpt>
      <trkpt lat="47.51125" lon="6.75603">
        <ele>360</ele>
        <time>2014-12-30T08:52:38Z</time>
      </trkpt>
      <trkpt lat="47.51124" lon="6.756">
        <ele>360</ele>
        <time>2014-12-30T08:52:39Z</time>
      </trkpt>
      <trkpt lat="47.51122" lon="6.75595">
        <ele>360</ele>
        <time>2014-12-30T08:52:41Z</time>
      </trkpt>
      <trkpt lat="47.5112" lon="6.75591">
        <ele>360</ele>
        <time>2014-12-30T08:52:42Z</time>
      </trkpt>
      <trkpt lat="47.51119" lon="6.75588">
        <ele>359</ele>
        <time>2014-12-30T08:52:43Z</time>
      </trkpt>
      <trkpt lat="47.51117" lon="6.75585">
        <ele>359</ele>
        <time>2014-12-30T08:52:44Z</time>
      </trkpt>
      <trkpt lat="47.51116" lon="6.75582">
        <ele>358</ele>
        <time>2014-12-30T08:52:45Z</time>
      </trkpt>
      <trkpt lat="47.51114" lon="6.75579">
        <ele>358</ele>
        <time>2014-12-30T08:52:46Z</time>
      </trkpt>
      <trkpt lat="47.51113" lon="6.75576">
        <ele>358</ele>
        <time>2014-12-30T08:52:47Z</time>
      </trkpt>
      <trkpt lat="47.51111" lon="6.75573">
        <ele>358</ele>
        <time>2014-12-30T08:52:48Z</time>
      </trkpt>
      <trkpt lat="47.51109" lon="6.7557">
        <ele>358</ele>
        <time>2014-12-30T08:52:49Z</time>
      </trkpt>
      <trkpt lat="47.51108" lon="6.75567">
        <ele>357</ele>
        <time>2014-12-30T08:52:50Z</time>
      </trkpt>
      <trkpt lat="47.51106" lon="6.75562">
        <ele>357</ele>
        <time>2014-12-30T08:52:52Z</time>
      </trkpt>
      <trkpt lat="47.51104" lon="6.75559">
        <ele>357</ele>
        <time>2014-12-30T08:52:53Z</time>
      </trkpt>
      <trkpt lat="47.51103" lon="6.75556">
        <ele>357</ele>
        <time>2014-12-30T08:52:54Z</time>
      </trkpt>
      <trkpt lat="47.51102" lon="6.75553">
        <ele>357</ele>
        <time>2014-12-30T08:52:55Z</time>
      </trkpt>
      <trkpt lat="47.511" lon="6.75548">
        <ele>356</ele>
        <time>2014-12-30T08:52:57Z</time>
      </trkpt>
      <trkpt lat="47.51099" lon="6.75545">
        <ele>356</ele>
        <time>2014-12-30T08:52:58Z</time>
      </trkpt>
      <trkpt lat="47.51097" lon="6.7554">
        <ele>356</ele>
        <time>2014-12-30T08:53:00Z</time>
      </trkpt>
      <trkpt lat="47.51096" lon="6.75537">
        <ele>356</ele>
        <time>2014-12-30T08:53:01Z</time>
      </trkpt>
      <trkpt lat="47.51096" lon="6.75533">
        <ele>355</ele>
        <time>2014-12-30T08:53:02Z</time>
      </trkpt>
      <trkpt lat="47.51095" lon="6.75529">
        <ele>355</ele>
        <time>2014-12-30T08:53:03Z</time>
      </trkpt>
      <trkpt lat="47.51093" lon="6.75526">
        <ele>354</ele>
        <time>2014-12-30T08:53:04Z</time>
      </trkpt>
      <trkpt lat="47.51092" lon="6.75522">
        <ele>354</ele>
        <time>2014-12-30T08:53:05Z</time>
      </trkpt>
      <trkpt lat="47.51091" lon="6.75519">
        <ele>354</ele>
        <time>2014-12-30T08:53:06Z</time>
      </trkpt>
      <trkpt lat="47.51089" lon="6.75516">
        <ele>353</ele>
        <time>2014-12-30T08:53:07Z</time>
      </trkpt>
      <trkpt lat="47.51088" lon="6.75512">
        <ele>353</ele>
        <time>2014-12-30T08:53:08Z</time>
      </trkpt>
      <trkpt lat="47.51086" lon="6.75509">
        <ele>353</ele>
        <time>2014-12-30T08:53:09Z</time>
      </trkpt>
      <trkpt lat="47.51085" lon="6.75505">
        <ele>353</ele>
        <time>2014-12-30T08:53:10Z</time>
      </trkpt>
      <trkpt lat="47.51084" lon="6.75502">
        <ele>353</ele>
        <time>2014-12-30T08:53:11Z</time>
      </trkpt>
      <trkpt lat="47.51083" lon="6.75496">
        <ele>352</ele>
        <time>2014-12-30T08:53:13Z</time>
      </trkpt>
      <trkpt lat="47.51082" lon="6.75493">
        <ele>352</ele>
        <time>2014-12-30T08:53:14Z</time>
      </trkpt>
      <trkpt lat="47.5108" lon="6.75487">
        <ele>352</ele>
        <time>2014-12-30T08:53:16Z</time>
      </trkpt>
      <trkpt lat="47.51079" lon="6.75484">
        <ele>352</ele>
        <time>2014-12-30T08:53:17Z</time>
      </trkpt>
      <trkpt lat="47.51076" lon="6.7548">
        <ele>352</ele>
        <time>2014-12-30T08:53:19Z</time>
      </trkpt>
      <trkpt lat="47.51074" lon="6.75478">
        <ele>352</ele>
        <time>2014-12-30T08:53:20Z</time>
      </trkpt>
      <trkpt lat="47.51072" lon="6.75476">
        <ele>352</ele>
        <time>2014-12-30T08:53:22Z</time>
      </trkpt>
      <trkpt lat="47.51071" lon="6.75474">
        <ele>352</ele>
        <time>2014-12-30T08:53:23Z</time>
      </trkpt>
      <trkpt lat="47.5107" lon="6.75471">
        <ele>352</ele>
        <time>2014-12-30T08:53:24Z</time>
      </trkpt>
      <trkpt lat="47.51068" lon="6.75467">
        <ele>351</ele>
        <time>2014-12-30T08:53:25Z</time>
      </trkpt>
      <trkpt lat="47.51067" lon="6.75463">
        <ele>351</ele>
        <time>2014-12-30T08:53:26Z</time>
      </trkpt>
      <trkpt lat="47.51065" lon="6.75456">
        <ele>351</ele>
        <time>2014-12-30T08:53:29Z</time>
      </trkpt>
      <trkpt lat="47.51063" lon="6.75451">
        <ele>351</ele>
        <time>2014-12-30T08:53:31Z</time>
      </trkpt>
      <trkpt lat="47.51062" lon="6.75448">
        <ele>351</ele>
        <time>2014-12-30T08:53:32Z</time>
      </trkpt>
      <trkpt lat="47.51061" lon="6.75445">
        <ele>350</ele>
        <time>2014-12-30T08:53:33Z</time>
      </trkpt>
      <trkpt lat="47.51061" lon="6.75441">
        <ele>350</ele>
        <time>2014-12-30T08:53:34Z</time>
      </trkpt>
      <trkpt lat="47.51059" lon="6.75435">
        <ele>350</ele>
        <time>2014-12-30T08:53:36Z</time>
      </trkpt>
      <trkpt lat="47.51058" lon="6.75433">
        <ele>350</ele>
        <time>2014-12-30T08:53:37Z</time>
      </trkpt>
      <trkpt lat="47.51056" lon="6.75428">
        <ele>350</ele>
        <time>2014-12-30T08:53:39Z</time>
      </trkpt>
      <trkpt lat="47.51054" lon="6.75427">
        <ele>350</ele>
        <time>2014-12-30T08:53:40Z</time>
      </trkpt>
      <trkpt lat="47.51051" lon="6.75426">
        <ele>350</ele>
        <time>2014-12-30T08:53:43Z</time>
      </trkpt>
      <trkpt lat="47.51049" lon="6.75425">
        <ele>350</ele>
        <time>2014-12-30T08:53:44Z</time>
      </trkpt>
      <trkpt lat="47.51044" lon="6.75424">
        <ele>350</ele>
        <time>2014-12-30T08:53:46Z</time>
      </trkpt>
      <trkpt lat="47.51042" lon="6.75423">
        <ele>350</ele>
        <time>2014-12-30T08:53:46Z</time>
      </trkpt>
      <trkpt lat="47.51039" lon="6.75423">
        <ele>349</ele>
        <time>2014-12-30T08:53:48Z</time>
      </trkpt>
      <trkpt lat="47.51037" lon="6.75422">
        <ele>349</ele>
        <time>2014-12-30T08:53:49Z</time>
      </trkpt>
      <trkpt lat="47.51035" lon="6.75421">
        <ele>349</ele>
        <time>2014-12-30T08:53:50Z</time>
      </trkpt>
      <trkpt lat="47.51033" lon="6.7542">
        <ele>349</ele>
        <time>2014-12-30T08:53:51Z</time>
      </trkpt>
      <trkpt lat="47.51031" lon="6.75418">
        <ele>348</ele>
        <time>2014-12-30T08:53:52Z</time>
      </trkpt>
      <trkpt lat="47.51029" lon="6.75416">
        <ele>344</ele>
        <time>2014-12-30T08:53:53Z</time>
      </trkpt>
      <trkpt lat="47.51025" lon="6.75414">
        <ele>344</ele>
        <time>2014-12-30T08:53:55Z</time>
      </trkpt>
      <trkpt lat="47.51023" lon="6.75413">
        <ele>344</ele>
        <time>2014-12-30T08:53:56Z</time>
      </trkpt>
      <trkpt lat="47.5102" lon="6.75414">
        <ele>345</ele>
        <time>2014-12-30T08:53:58Z</time>
      </trkpt>
      <trkpt lat="47.51018" lon="6.75413">
        <ele>345</ele>
        <time>2014-12-30T08:53:59Z</time>
      </trkpt>
      <trkpt lat="47.51015" lon="6.75412">
        <ele>345</ele>
        <time>2014-12-30T08:54:00Z</time>
      </trkpt>
      <trkpt lat="47.51012" lon="6.75409">
        <ele>345</ele>
        <time>2014-12-30T08:54:01Z</time>
      </trkpt>
      <trkpt lat="47.5101" lon="6.75408">
        <ele>345</ele>
        <time>2014-12-30T08:54:02Z</time>
      </trkpt>
      <trkpt lat="47.51008" lon="6.75406">
        <ele>345</ele>
        <time>2014-12-30T08:54:03Z</time>
      </trkpt>
      <trkpt lat="47.51006" lon="6.75405">
        <ele>345</ele>
        <time>2014-12-30T08:54:04Z</time>
      </trkpt>
      <trkpt lat="47.51003" lon="6.75404">
        <ele>345</ele>
        <time>2014-12-30T08:54:05Z</time>
      </trkpt>
      <trkpt lat="47.51001" lon="6.75403">
        <ele>345</ele>
        <time>2014-12-30T08:54:06Z</time>
      </trkpt>
      <trkpt lat="47.50998" lon="6.75402">
        <ele>345</ele>
        <time>2014-12-30T08:54:07Z</time>
      </trkpt>
      <trkpt lat="47.50995" lon="6.75401">
        <ele>345</ele>
        <time>2014-12-30T08:54:08Z</time>
      </trkpt>
      <trkpt lat="47.50993" lon="6.75401">
        <ele>345</ele>
        <time>2014-12-30T08:54:09Z</time>
      </trkpt>
      <trkpt lat="47.50989" lon="6.75401">
        <ele>344</ele>
        <time>2014-12-30T08:54:11Z</time>
      </trkpt>
      <trkpt lat="47.50987" lon="6.754">
        <ele>344</ele>
        <time>2014-12-30T08:54:12Z</time>
      </trkpt>
      <trkpt lat="47.50985" lon="6.75399">
        <ele>344</ele>
        <time>2014-12-30T08:54:13Z</time>
      </trkpt>
      <trkpt lat="47.50982" lon="6.75399">
        <ele>343</ele>
        <time>2014-12-30T08:54:13Z</time>
      </trkpt>
      <trkpt lat="47.5098" lon="6.75398">
        <ele>343</ele>
        <time>2014-12-30T08:54:15Z</time>
      </trkpt>
      <trkpt lat="47.50977" lon="6.75398">
        <ele>343</ele>
        <time>2014-12-30T08:54:16Z</time>
      </trkpt>
      <trkpt lat="47.50974" lon="6.75397">
        <ele>343</ele>
        <time>2014-12-30T08:54:17Z</time>
      </trkpt>
      <trkpt lat="47.50972" lon="6.75397">
        <ele>342</ele>
        <time>2014-12-30T08:54:18Z</time>
      </trkpt>
      <trkpt lat="47.50969" lon="6.75397">
        <ele>342</ele>
        <time>2014-12-30T08:54:19Z</time>
      </trkpt>
      <trkpt lat="47.50967" lon="6.75397">
        <ele>342</ele>
        <time>2014-12-30T08:54:20Z</time>
      </trkpt>
      <trkpt lat="47.50964" lon="6.75396">
        <ele>342</ele>
        <time>2014-12-30T08:54:21Z</time>
      </trkpt>
      <trkpt lat="47.50962" lon="6.75396">
        <ele>343</ele>
        <time>2014-12-30T08:54:22Z</time>
      </trkpt>
      <trkpt lat="47.5096" lon="6.75396">
        <ele>343</ele>
        <time>2014-12-30T08:54:23Z</time>
      </trkpt>
      <trkpt lat="47.50957" lon="6.75396">
        <ele>343</ele>
        <time>2014-12-30T08:54:24Z</time>
      </trkpt>
      <trkpt lat="47.50955" lon="6.75396">
        <ele>343</ele>
        <time>2014-12-30T08:54:25Z</time>
      </trkpt>
      <trkpt lat="47.50953" lon="6.75396">
        <ele>344</ele>
        <time>2014-12-30T08:54:26Z</time>
      </trkpt>
      <trkpt lat="47.5095" lon="6.75395">
        <ele>344</ele>
        <time>2014-12-30T08:54:27Z</time>
      </trkpt>
      <trkpt lat="47.50931" lon="6.75394">
        <ele>347</ele>
        <time>2014-12-30T08:54:35Z</time>
      </trkpt>
      <trkpt lat="47.50929" lon="6.75393">
        <ele>347</ele>
        <time>2014-12-30T08:54:36Z</time>
      </trkpt>
      <trkpt lat="47.50926" lon="6.75392">
        <ele>348</ele>
        <time>2014-12-30T08:54:37Z</time>
      </trkpt>
      <trkpt lat="47.50923" lon="6.75391">
        <ele>348</ele>
        <time>2014-12-30T08:54:38Z</time>
      </trkpt>
      <trkpt lat="47.50921" lon="6.7539">
        <ele>348</ele>
        <time>2014-12-30T08:54:39Z</time>
      </trkpt>
      <trkpt lat="47.50918" lon="6.75388">
        <ele>347</ele>
        <time>2014-12-30T08:54:40Z</time>
      </trkpt>
      <trkpt lat="47.50915" lon="6.75387">
        <ele>347</ele>
        <time>2014-12-30T08:54:41Z</time>
      </trkpt>
      <trkpt lat="47.50913" lon="6.75387">
        <ele>347</ele>
        <time>2014-12-30T08:54:41Z</time>
      </trkpt>
      <trkpt lat="47.5091" lon="6.75385">
        <ele>346</ele>
        <time>2014-12-30T08:54:43Z</time>
      </trkpt>
      <trkpt lat="47.50907" lon="6.75385">
        <ele>346</ele>
        <time>2014-12-30T08:54:44Z</time>
      </trkpt>
      <trkpt lat="47.50905" lon="6.75384">
        <ele>346</ele>
        <time>2014-12-30T08:54:45Z</time>
      </trkpt>
      <trkpt lat="47.50902" lon="6.75384">
        <ele>345</ele>
        <time>2014-12-30T08:54:46Z</time>
      </trkpt>
      <trkpt lat="47.509" lon="6.75384">
        <ele>345</ele>
        <time>2014-12-30T08:54:47Z</time>
      </trkpt>
      <trkpt lat="47.50897" lon="6.75383">
        <ele>345</ele>
        <time>2014-12-30T08:54:48Z</time>
      </trkpt>
      <trkpt lat="47.50894" lon="6.75381">
        <ele>344</ele>
        <time>2014-12-30T08:54:49Z</time>
      </trkpt>
      <trkpt lat="47.50891" lon="6.75378">
        <ele>343</ele>
        <time>2014-12-30T08:54:50Z</time>
      </trkpt>
      <trkpt lat="47.50889" lon="6.75376">
        <ele>343</ele>
        <time>2014-12-30T08:54:51Z</time>
      </trkpt>
      <trkpt lat="47.50886" lon="6.75375">
        <ele>343</ele>
        <time>2014-12-30T08:54:52Z</time>
      </trkpt>
      <trkpt lat="47.50884" lon="6.75375">
        <ele>343</ele>
        <time>2014-12-30T08:54:53Z</time>
      </trkpt>
      <trkpt lat="47.50881" lon="6.75374">
        <ele>343</ele>
        <time>2014-12-30T08:54:55Z</time>
      </trkpt>
      <trkpt lat="47.50879" lon="6.75374">
        <ele>343</ele>
        <time>2014-12-30T08:54:56Z</time>
      </trkpt>
      <trkpt lat="47.50875" lon="6.75374">
        <ele>343</ele>
        <time>2014-12-30T08:54:58Z</time>
      </trkpt>
      <trkpt lat="47.50872" lon="6.75373">
        <ele>342</ele>
        <time>2014-12-30T08:54:59Z</time>
      </trkpt>
      <trkpt lat="47.50869" lon="6.75372">
        <ele>342</ele>
        <time>2014-12-30T08:55:00Z</time>
      </trkpt>
      <trkpt lat="47.50866" lon="6.75371">
        <ele>342</ele>
        <time>2014-12-30T08:55:01Z</time>
      </trkpt>
      <trkpt lat="47.50863" lon="6.7537">
        <ele>342</ele>
        <time>2014-12-30T08:55:02Z</time>
      </trkpt>
      <trkpt lat="47.50861" lon="6.75369">
        <ele>342</ele>
        <time>2014-12-30T08:55:03Z</time>
      </trkpt>
      <trkpt lat="47.50858" lon="6.75367">
        <ele>342</ele>
        <time>2014-12-30T08:55:04Z</time>
      </trkpt>
      <trkpt lat="47.50855" lon="6.75366">
        <ele>341</ele>
        <time>2014-12-30T08:55:05Z</time>
      </trkpt>
      <trkpt lat="47.50852" lon="6.75365">
        <ele>341</ele>
        <time>2014-12-30T08:55:06Z</time>
      </trkpt>
      <trkpt lat="47.5085" lon="6.75363">
        <ele>340</ele>
        <time>2014-12-30T08:55:07Z</time>
      </trkpt>
      <trkpt lat="47.50847" lon="6.75361">
        <ele>339</ele>
        <time>2014-12-30T08:55:08Z</time>
      </trkpt>
      <trkpt lat="47.50845" lon="6.75359">
        <ele>339</ele>
        <time>2014-12-30T08:55:09Z</time>
      </trkpt>
      <trkpt lat="47.50842" lon="6.75358">
        <ele>338</ele>
        <time>2014-12-30T08:55:10Z</time>
      </trkpt>
      <trkpt lat="47.5084" lon="6.75356">
        <ele>338</ele>
        <time>2014-12-30T08:55:11Z</time>
      </trkpt>
      <trkpt lat="47.50837" lon="6.75355">
        <ele>337</ele>
        <time>2014-12-30T08:55:12Z</time>
      </trkpt>
      <trkpt lat="47.50834" lon="6.75353">
        <ele>337</ele>
        <time>2014-12-30T08:55:13Z</time>
      </trkpt>
      <trkpt lat="47.50832" lon="6.75352">
        <ele>336</ele>
        <time>2014-12-30T08:55:14Z</time>
      </trkpt>
      <trkpt lat="47.5083" lon="6.7535">
        <ele>336</ele>
        <time>2014-12-30T08:55:15Z</time>
      </trkpt>
      <trkpt lat="47.50828" lon="6.75348">
        <ele>336</ele>
        <time>2014-12-30T08:55:16Z</time>
      </trkpt>
      <trkpt lat="47.50826" lon="6.75346">
        <ele>336</ele>
        <time>2014-12-30T08:55:17Z</time>
      </trkpt>
      <trkpt lat="47.50824" lon="6.75343">
        <ele>336</ele>
        <time>2014-12-30T08:55:18Z</time>
      </trkpt>
      <trkpt lat="47.50822" lon="6.7534">
        <ele>336</ele>
        <time>2014-12-30T08:55:19Z</time>
      </trkpt>
      <trkpt lat="47.50819" lon="6.75338">
        <ele>336</ele>
        <time>2014-12-30T08:55:20Z</time>
      </trkpt>
      <trkpt lat="47.50817" lon="6.75336">
        <ele>336</ele>
        <time>2014-12-30T08:55:21Z</time>
      </trkpt>
      <trkpt lat="47.50815" lon="6.75335">
        <ele>336</ele>
        <time>2014-12-30T08:55:22Z</time>
      </trkpt>
      <trkpt lat="47.50813" lon="6.75334">
        <ele>336</ele>
        <time>2014-12-30T08:55:22Z</time>
      </trkpt>
      <trkpt lat="47.50809" lon="6.75332">
        <ele>333</ele>
        <time>2014-12-30T08:55:25Z</time>
      </trkpt>
      <trkpt lat="47.50807" lon="6.75331">
        <ele>332</ele>
        <time>2014-12-30T08:55:26Z</time>
      </trkpt>
      <trkpt lat="47.50789" lon="6.75305">
        <ele>329</ele>
        <time>2014-12-30T08:55:33Z</time>
      </trkpt>
      <trkpt lat="47.50786" lon="6.75302">
        <ele>328</ele>
        <time>2014-12-30T08:55:35Z</time>
      </trkpt>
      <trkpt lat="47.50783" lon="6.75302">
        <ele>328</ele>
        <time>2014-12-30T08:55:36Z</time>
      </trkpt>
      <trkpt lat="47.5078" lon="6.75303">
        <ele>328</ele>
        <time>2014-12-30T08:55:37Z</time>
      </trkpt>
      <trkpt lat="47.50778" lon="6.75308">
        <ele>328</ele>
        <time>2014-12-30T08:55:38Z</time>
      </trkpt>
      <trkpt lat="47.50775" lon="6.7531">
        <ele>328</ele>
        <time>2014-12-30T08:55:39Z</time>
      </trkpt>
      <trkpt lat="47.50771" lon="6.75313">
        <ele>328</ele>
        <time>2014-12-30T08:55:40Z</time>
      </trkpt>
      <trkpt lat="47.50768" lon="6.75315">
        <ele>328</ele>
        <time>2014-12-30T08:55:41Z</time>
      </trkpt>
      <trkpt lat="47.50764" lon="6.75318">
        <ele>328</ele>
        <time>2014-12-30T08:55:42Z</time>
      </trkpt>
      <trkpt lat="47.5076" lon="6.7532">
        <ele>328</ele>
        <time>2014-12-30T08:55:43Z</time>
      </trkpt>
      <trkpt lat="47.50757" lon="6.75321">
        <ele>328</ele>
        <time>2014-12-30T08:55:44Z</time>
      </trkpt>
      <trkpt lat="47.50754" lon="6.75323">
        <ele>328</ele>
        <time>2014-12-30T08:55:45Z</time>
      </trkpt>
      <trkpt lat="47.50752" lon="6.75324">
        <ele>328</ele>
        <time>2014-12-30T08:55:46Z</time>
      </trkpt>
      <trkpt lat="47.5075" lon="6.75326">
        <ele>328</ele>
        <time>2014-12-30T08:55:47Z</time>
      </trkpt>
      <trkpt lat="47.50747" lon="6.75328">
        <ele>328</ele>
        <time>2014-12-30T08:55:48Z</time>
      </trkpt>
      <trkpt lat="47.50745" lon="6.7533">
        <ele>328</ele>
        <time>2014-12-30T08:55:49Z</time>
      </trkpt>
      <trkpt lat="47.50743" lon="6.75332">
        <ele>328</ele>
        <time>2014-12-30T08:55:50Z</time>
      </trkpt>
      <trkpt lat="47.50741" lon="6.75334">
        <ele>329</ele>
        <time>2014-12-30T08:55:51Z</time>
      </trkpt>
      <trkpt lat="47.50739" lon="6.75336">
        <ele>329</ele>
        <time>2014-12-30T08:55:52Z</time>
      </trkpt>
      <trkpt lat="47.50738" lon="6.75342">
        <ele>329</ele>
        <time>2014-12-30T08:55:55Z</time>
      </trkpt>
      <trkpt lat="47.50738" lon="6.75344">
        <ele>329</ele>
        <time>2014-12-30T08:55:56Z</time>
      </trkpt>
      <trkpt lat="47.50737" lon="6.75351">
        <ele>329</ele>
        <time>2014-12-30T08:55:59Z</time>
      </trkpt>
      <trkpt lat="47.50737" lon="6.75353">
        <ele>330</ele>
        <time>2014-12-30T08:56:00Z</time>
      </trkpt>
      <trkpt lat="47.50733" lon="6.75357">
        <ele>330</ele>
        <time>2014-12-30T08:56:02Z</time>
      </trkpt>
      <trkpt lat="47.50731" lon="6.75358">
        <ele>330</ele>
        <time>2014-12-30T08:56:03Z</time>
      </trkpt>
      <trkpt lat="47.50729" lon="6.7536">
        <ele>331</ele>
        <time>2014-12-30T08:56:04Z</time>
      </trkpt>
      <trkpt lat="47.50727" lon="6.75361">
        <ele>331</ele>
        <time>2014-12-30T08:56:05Z</time>
      </trkpt>
      <trkpt lat="47.50724" lon="6.75362">
        <ele>331</ele>
        <time>2014-12-30T08:56:06Z</time>
      </trkpt>
      <trkpt lat="47.50722" lon="6.75363">
        <ele>331</ele>
        <time>2014-12-30T08:56:07Z</time>
      </trkpt>
      <trkpt lat="47.50718" lon="6.75364">
        <ele>331</ele>
        <time>2014-12-30T08:56:08Z</time>
      </trkpt>
      <trkpt lat="47.50715" lon="6.75366">
        <ele>331</ele>
        <time>2014-12-30T08:56:09Z</time>
      </trkpt>
      <trkpt lat="47.50712" lon="6.75367">
        <ele>331</ele>
        <time>2014-12-30T08:56:10Z</time>
      </trkpt>
      <trkpt lat="47.50709" lon="6.75368">
        <ele>331</ele>
        <time>2014-12-30T08:56:11Z</time>
      </trkpt>
      <trkpt lat="47.50706" lon="6.75371">
        <ele>331</ele>
        <time>2014-12-30T08:56:13Z</time>
      </trkpt>
      <trkpt lat="47.50705" lon="6.75373">
        <ele>331</ele>
        <time>2014-12-30T08:56:14Z</time>
      </trkpt>
      <trkpt lat="47.50704" lon="6.75379">
        <ele>331</ele>
        <time>2014-12-30T08:56:16Z</time>
      </trkpt>
      <trkpt lat="47.50705" lon="6.75382">
        <ele>332</ele>
        <time>2014-12-30T08:56:17Z</time>
      </trkpt>
      <trkpt lat="47.50706" lon="6.75388">
        <ele>332</ele>
        <time>2014-12-30T08:56:19Z</time>
      </trkpt>
      <trkpt lat="47.50707" lon="6.7539">
        <ele>332</ele>
        <time>2014-12-30T08:56:20Z</time>
      </trkpt>
      <trkpt lat="47.50707" lon="6.75396">
        <ele>332</ele>
        <time>2014-12-30T08:56:22Z</time>
      </trkpt>
      <trkpt lat="47.50707" lon="6.75399">
        <ele>332</ele>
        <time>2014-12-30T08:56:22Z</time>
      </trkpt>
      <trkpt lat="47.50706" lon="6.75405">
        <ele>333</ele>
        <time>2014-12-30T08:56:25Z</time>
      </trkpt>
      <trkpt lat="47.50706" lon="6.75408">
        <ele>333</ele>
        <time>2014-12-30T08:56:26Z</time>
      </trkpt>
      <trkpt lat="47.50707" lon="6.75426">
        <ele>337</ele>
        <time>2014-12-30T08:56:34Z</time>
      </trkpt>
      <trkpt lat="47.50709" lon="6.75431">
        <ele>338</ele>
        <time>2014-12-30T08:56:38Z</time>
      </trkpt>
      <trkpt lat="47.5071" lon="6.75432">
        <ele>338</ele>
        <time>2014-12-30T08:56:39Z</time>
      </trkpt>
      <trkpt lat="47.50712" lon="6.75436">
        <ele>338</ele>
        <time>2014-12-30T08:56:44Z</time>
      </trkpt>
      <trkpt lat="47.50712" lon="6.75439">
        <ele>338</ele>
        <time>2014-12-30T08:56:44Z</time>
      </trkpt>
      <trkpt lat="47.50711" lon="6.75444">
        <ele>338</ele>
        <time>2014-12-30T08:56:47Z</time>
      </trkpt>
      <trkpt lat="47.50711" lon="6.75446">
        <ele>339</ele>
        <time>2014-12-30T08:56:48Z</time>
      </trkpt>
      <trkpt lat="47.50711" lon="6.75449">
        <ele>339</ele>
        <time>2014-12-30T08:56:49Z</time>
      </trkpt>
      <trkpt lat="47.50711" lon="6.75453">
        <ele>339</ele>
        <time>2014-12-30T08:56:50Z</time>
      </trkpt>
      <trkpt lat="47.50711" lon="6.75459">
        <ele>339</ele>
        <time>2014-12-30T08:56:52Z</time>
      </trkpt>
      <trkpt lat="47.50712" lon="6.75461">
        <ele>340</ele>
        <time>2014-12-30T08:56:53Z</time>
      </trkpt>
      <trkpt lat="47.50713" lon="6.75467">
        <ele>340</ele>
        <time>2014-12-30T08:56:55Z</time>
      </trkpt>
      <trkpt lat="47.50713" lon="6.75469">
        <ele>340</ele>
        <time>2014-12-30T08:56:56Z</time>
      </trkpt>
      <trkpt lat="47.50713" lon="6.75474">
        <ele>340</ele>
        <time>2014-12-30T08:56:58Z</time>
      </trkpt>
      <trkpt lat="47.50713" lon="6.75476">
        <ele>341</ele>
        <time>2014-12-30T08:56:59Z</time>
      </trkpt>
      <trkpt lat="47.50712" lon="6.75481">
        <ele>341</ele>
        <time>2014-12-30T08:57:02Z</time>
      </trkpt>
      <trkpt lat="47.5071" lon="6.75482">
        <ele>341</ele>
        <time>2014-12-30T08:57:03Z</time>
      </trkpt>
      <trkpt lat="47.50708" lon="6.75483">
        <ele>341</ele>
        <time>2014-12-30T08:57:04Z</time>
      </trkpt>
      <trkpt lat="47.50705" lon="6.75484">
        <ele>341</ele>
        <time>2014-12-30T08:57:05Z</time>
      </trkpt>
      <trkpt lat="47.50703" lon="6.75485">
        <ele>341</ele>
        <time>2014-12-30T08:57:06Z</time>
      </trkpt>
      <trkpt lat="47.507" lon="6.75484">
        <ele>341</ele>
        <time>2014-12-30T08:57:07Z</time>
      </trkpt>
      <trkpt lat="47.50698" lon="6.75484">
        <ele>341</ele>
        <time>2014-12-30T08:57:08Z</time>
      </trkpt>
      <trkpt lat="47.50696" lon="6.75483">
        <ele>341</ele>
        <time>2014-12-30T08:57:09Z</time>
      </trkpt>
      <trkpt lat="47.50693" lon="6.75482">
        <ele>341</ele>
        <time>2014-12-30T08:57:10Z</time>
      </trkpt>
      <trkpt lat="47.50691" lon="6.75482">
        <ele>341</ele>
        <time>2014-12-30T08:57:11Z</time>
      </trkpt>
      <trkpt lat="47.50688" lon="6.75481">
        <ele>341</ele>
        <time>2014-12-30T08:57:12Z</time>
      </trkpt>
      <trkpt lat="47.50686" lon="6.75481">
        <ele>341</ele>
        <time>2014-12-30T08:57:13Z</time>
      </trkpt>
      <trkpt lat="47.50683" lon="6.75482">
        <ele>341</ele>
        <time>2014-12-30T08:57:15Z</time>
      </trkpt>
      <trkpt lat="47.50681" lon="6.75482">
        <ele>341</ele>
        <time>2014-12-30T08:57:16Z</time>
      </trkpt>
      <trkpt lat="47.50678" lon="6.75482">
        <ele>341</ele>
        <time>2014-12-30T08:57:18Z</time>
      </trkpt>
      <trkpt lat="47.50676" lon="6.75482">
        <ele>342</ele>
        <time>2014-12-30T08:57:19Z</time>
      </trkpt>
      <trkpt lat="47.50672" lon="6.75482">
        <ele>342</ele>
        <time>2014-12-30T08:57:21Z</time>
      </trkpt>
      <trkpt lat="47.50671" lon="6.75482">
        <ele>342</ele>
        <time>2014-12-30T08:57:22Z</time>
      </trkpt>
      <trkpt lat="47.50667" lon="6.75482">
        <ele>342</ele>
        <time>2014-12-30T08:57:25Z</time>
      </trkpt>
      <trkpt lat="47.50666" lon="6.75482">
        <ele>342</ele>
        <time>2014-12-30T08:57:26Z</time>
      </trkpt>
      <trkpt lat="47.50654" lon="6.75477">
        <ele>341</ele>
        <time>2014-12-30T08:57:33Z</time>
      </trkpt>
      <trkpt lat="47.50652" lon="6.75476">
        <ele>341</ele>
        <time>2014-12-30T08:57:35Z</time>
      </trkpt>
      <trkpt lat="47.50649" lon="6.75475">
        <ele>341</ele>
        <time>2014-12-30T08:57:36Z</time>
      </trkpt>
      <trkpt lat="47.50645" lon="6.75475">
        <ele>341</ele>
        <time>2014-12-30T08:57:38Z</time>
      </trkpt>
      <trkpt lat="47.50643" lon="6.75475">
        <ele>341</ele>
        <time>2014-12-30T08:57:39Z</time>
      </trkpt>
      <trkpt lat="47.50641" lon="6.75474">
        <ele>341</ele>
        <time>2014-12-30T08:57:40Z</time>
      </trkpt>
      <trkpt lat="47.50639" lon="6.75474">
        <ele>341</ele>
        <time>2014-12-30T08:57:41Z</time>
      </trkpt>
      <trkpt lat="47.50637" lon="6.75474">
        <ele>341</ele>
        <time>2014-12-30T08:57:42Z</time>
      </trkpt>
      <trkpt lat="47.50634" lon="6.75475">
        <ele>341</ele>
        <time>2014-12-30T08:57:43Z</time>
      </trkpt>
      <trkpt lat="47.50632" lon="6.75477">
        <ele>341</ele>
        <time>2014-12-30T08:57:44Z</time>
      </trkpt>
      <trkpt lat="47.5063" lon="6.75479">
        <ele>341</ele>
        <time>2014-12-30T08:57:45Z</time>
      </trkpt>
      <trkpt lat="47.50628" lon="6.75484">
        <ele>342</ele>
        <time>2014-12-30T08:57:49Z</time>
      </trkpt>
      <trkpt lat="47.50628" lon="6.75485">
        <ele>342</ele>
        <time>2014-12-30T08:57:50Z</time>
      </trkpt>
      <trkpt lat="47.5063" lon="6.75491">
        <ele>342</ele>
        <time>2014-12-30T08:57:53Z</time>
      </trkpt>
      <trkpt lat="47.50631" lon="6.75492">
        <ele>342</ele>
        <time>2014-12-30T08:57:54Z</time>
      </trkpt>
      <trkpt lat="47.50633" lon="6.75496">
        <ele>342</ele>
        <time>2014-12-30T08:57:56Z</time>
      </trkpt>
      <trkpt lat="47.50634" lon="6.75498">
        <ele>342</ele>
        <time>2014-12-30T08:57:57Z</time>
      </trkpt>
      <trkpt lat="47.50636" lon="6.75502">
        <ele>347</ele>
        <time>2014-12-30T08:57:59Z</time>
      </trkpt>
      <trkpt lat="47.50637" lon="6.75504">
        <ele>347</ele>
        <time>2014-12-30T08:58:00Z</time>
      </trkpt>
      <trkpt lat="47.50639" lon="6.75507">
        <ele>346</ele>
        <time>2014-12-30T08:58:02Z</time>
      </trkpt>
      <trkpt lat="47.5064" lon="6.75509">
        <ele>347</ele>
        <time>2014-12-30T08:58:03Z</time>
      </trkpt>
      <trkpt lat="47.50641" lon="6.75513">
        <ele>347</ele>
        <time>2014-12-30T08:58:05Z</time>
      </trkpt>
      <trkpt lat="47.50641" lon="6.75516">
        <ele>347</ele>
        <time>2014-12-30T08:58:06Z</time>
      </trkpt>
      <trkpt lat="47.50642" lon="6.75521">
        <ele>347</ele>
        <time>2014-12-30T08:58:08Z</time>
      </trkpt>
      <trkpt lat="47.50644" lon="6.75523">
        <ele>347</ele>
        <time>2014-12-30T08:58:09Z</time>
      </trkpt>
      <trkpt lat="47.50647" lon="6.75527">
        <ele>347</ele>
        <time>2014-12-30T08:58:11Z</time>
      </trkpt>
      <trkpt lat="47.5065" lon="6.75529">
        <ele>347</ele>
        <time>2014-12-30T08:58:12Z</time>
      </trkpt>
      <trkpt lat="47.50651" lon="6.75531">
        <ele>347</ele>
        <time>2014-12-30T08:58:12Z</time>
      </trkpt>
      <trkpt lat="47.50653" lon="6.75534">
        <ele>347</ele>
        <time>2014-12-30T08:58:14Z</time>
      </trkpt>
      <trkpt lat="47.50655" lon="6.75539">
        <ele>347</ele>
        <time>2014-12-30T08:58:16Z</time>
      </trkpt>
      <trkpt lat="47.50656" lon="6.75541">
        <ele>348</ele>
        <time>2014-12-30T08:58:17Z</time>
      </trkpt>
      <trkpt lat="47.50658" lon="6.75546">
        <ele>349</ele>
        <time>2014-12-30T08:58:19Z</time>
      </trkpt>
      <trkpt lat="47.50658" lon="6.75548">
        <ele>349</ele>
        <time>2014-12-30T08:58:20Z</time>
      </trkpt>
      <trkpt lat="47.5066" lon="6.75553">
        <ele>349</ele>
        <time>2014-12-30T08:58:22Z</time>
      </trkpt>
      <trkpt lat="47.50661" lon="6.75555">
        <ele>349</ele>
        <time>2014-12-30T08:58:23Z</time>
      </trkpt>
      <trkpt lat="47.50663" lon="6.75559">
        <ele>350</ele>
        <time>2014-12-30T08:58:25Z</time>
      </trkpt>
      <trkpt lat="47.50663" lon="6.75561">
        <ele>350</ele>
        <time>2014-12-30T08:58:26Z</time>
      </trkpt>
      <trkpt lat="47.50664" lon="6.75568">
        <ele>350</ele>
        <time>2014-12-30T08:58:29Z</time>
      </trkpt>
      <trkpt lat="47.50664" lon="6.75573">
        <ele>350</ele>
        <time>2014-12-30T08:58:31Z</time>
      </trkpt>
      <trkpt lat="47.50663" lon="6.75577">
        <ele>350</ele>
        <time>2014-12-30T08:58:32Z</time>
      </trkpt>
      <trkpt lat="47.50663" lon="6.7558">
        <ele>350</ele>
        <time>2014-12-30T08:58:33Z</time>
      </trkpt>
      <trkpt lat="47.50662" lon="6.75585">
        <ele>351</ele>
        <time>2014-12-30T08:58:34Z</time>
      </trkpt>
      <trkpt lat="47.50662" lon="6.75589">
        <ele>351</ele>
        <time>2014-12-30T08:58:35Z</time>
      </trkpt>
      <trkpt lat="47.5066" lon="6.75596">
        <ele>351</ele>
        <time>2014-12-30T08:58:36Z</time>
      </trkpt>
      <trkpt lat="47.50658" lon="6.75598">
        <ele>352</ele>
        <time>2014-12-30T08:58:37Z</time>
      </trkpt>
      <trkpt lat="47.50656" lon="6.756">
        <ele>353</ele>
        <time>2014-12-30T08:58:38Z</time>
      </trkpt>
      <trkpt lat="47.50652" lon="6.75601">
        <ele>354</ele>
        <time>2014-12-30T08:58:40Z</time>
      </trkpt>
      <trkpt lat="47.50651" lon="6.75599">
        <ele>354</ele>
        <time>2014-12-30T08:58:41Z</time>
      </trkpt>
      <trkpt lat="47.50648" lon="6.75594">
        <ele>354</ele>
        <time>2014-12-30T08:58:43Z</time>
      </trkpt>
      <trkpt lat="47.50646" lon="6.75592">
        <ele>354</ele>
        <time>2014-12-30T08:58:44Z</time>
      </trkpt>
      <trkpt lat="47.50643" lon="6.7559">
        <ele>355</ele>
        <time>2014-12-30T08:58:46Z</time>
      </trkpt>
      <trkpt lat="47.50641" lon="6.75589">
        <ele>356</ele>
        <time>2014-12-30T08:58:47Z</time>
      </trkpt>
      <trkpt lat="47.50638" lon="6.75586">
        <ele>357</ele>
        <time>2014-12-30T08:58:49Z</time>
      </trkpt>
      <trkpt lat="47.50637" lon="6.75584">
        <ele>357</ele>
        <time>2014-12-30T08:58:50Z</time>
      </trkpt>
      <trkpt lat="47.50633" lon="6.75582">
        <ele>353</ele>
        <time>2014-12-30T08:58:52Z</time>
      </trkpt>
      <trkpt lat="47.50631" lon="6.75582">
        <ele>353</ele>
        <time>2014-12-30T08:58:53Z</time>
      </trkpt>
      <trkpt lat="47.50626" lon="6.75581">
        <ele>355</ele>
        <time>2014-12-30T08:58:55Z</time>
      </trkpt>
      <trkpt lat="47.50624" lon="6.75581">
        <ele>355</ele>
        <time>2014-12-30T08:58:56Z</time>
      </trkpt>
      <trkpt lat="47.50621" lon="6.75578">
        <ele>356</ele>
        <time>2014-12-30T08:58:58Z</time>
      </trkpt>
      <trkpt lat="47.50619" lon="6.75577">
        <ele>357</ele>
        <time>2014-12-30T08:58:59Z</time>
      </trkpt>
      <trkpt lat="47.50616" lon="6.75574">
        <ele>357</ele>
        <time>2014-12-30T08:59:01Z</time>
      </trkpt>
      <trkpt lat="47.50614" lon="6.75573">
        <ele>358</ele>
        <time>2014-12-30T08:59:02Z</time>
      </trkpt>
      <trkpt lat="47.5061" lon="6.75571">
        <ele>359</ele>
        <time>2014-12-30T08:59:04Z</time>
      </trkpt>
      <trkpt lat="47.50608" lon="6.75571">
        <ele>360</ele>
        <time>2014-12-30T08:59:05Z</time>
      </trkpt>
      <trkpt lat="47.50604" lon="6.7557">
        <ele>361</ele>
        <time>2014-12-30T08:59:07Z</time>
      </trkpt>
      <trkpt lat="47.50602" lon="6.75569">
        <ele>361</ele>
        <time>2014-12-30T08:59:08Z</time>
      </trkpt>
      <trkpt lat="47.50598" lon="6.75569">
        <ele>362</ele>
        <time>2014-12-30T08:59:10Z</time>
      </trkpt>
      <trkpt lat="47.50596" lon="6.75568">
        <ele>363</ele>
        <time>2014-12-30T08:59:11Z</time>
      </trkpt>
      <trkpt lat="47.50592" lon="6.75568">
        <ele>363</ele>
        <time>2014-12-30T08:59:13Z</time>
      </trkpt>
      <trkpt lat="47.50591" lon="6.75567">
        <ele>364</ele>
        <time>2014-12-30T08:59:14Z</time>
      </trkpt>
      <trkpt lat="47.50587" lon="6.75565">
        <ele>364</ele>
        <time>2014-12-30T08:59:16Z</time>
      </trkpt>
      <trkpt lat="47.50585" lon="6.75565">
        <ele>364</ele>
        <time>2014-12-30T08:59:17Z</time>
      </trkpt>
      <trkpt lat="47.50581" lon="6.75564">
        <ele>364</ele>
        <time>2014-12-30T08:59:19Z</time>
      </trkpt>
      <trkpt lat="47.50578" lon="6.75564">
        <ele>364</ele>
        <time>2014-12-30T08:59:20Z</time>
      </trkpt>
      <trkpt lat="47.50574" lon="6.75565">
        <ele>364</ele>
        <time>2014-12-30T08:59:22Z</time>
      </trkpt>
      <trkpt lat="47.50572" lon="6.75565">
        <ele>364</ele>
        <time>2014-12-30T08:59:23Z</time>
      </trkpt>
      <trkpt lat="47.50568" lon="6.75566">
        <ele>363</ele>
        <time>2014-12-30T08:59:25Z</time>
      </trkpt>
      <trkpt lat="47.50565" lon="6.75566">
        <ele>363</ele>
        <time>2014-12-30T08:59:26Z</time>
      </trkpt>
      <trkpt lat="47.50547" lon="6.75568">
        <ele>362</ele>
        <time>2014-12-30T08:59:34Z</time>
      </trkpt>
      <trkpt lat="47.50544" lon="6.75567">
        <ele>362</ele>
        <time>2014-12-30T08:59:35Z</time>
      </trkpt>
      <trkpt lat="47.50542" lon="6.75567">
        <ele>362</ele>
        <time>2014-12-30T08:59:36Z</time>
      </trkpt>
      <trkpt lat="47.50539" lon="6.75566">
        <ele>362</ele>
        <time>2014-12-30T08:59:38Z</time>
      </trkpt>
      <trkpt lat="47.50537" lon="6.75566">
        <ele>362</ele>
        <time>2014-12-30T08:59:39Z</time>
      </trkpt>
      <trkpt lat="47.50534" lon="6.75566">
        <ele>363</ele>
        <time>2014-12-30T08:59:40Z</time>
      </trkpt>
      <trkpt lat="47.50531" lon="6.75566">
        <ele>363</ele>
        <time>2014-12-30T08:59:41Z</time>
      </trkpt>
      <trkpt lat="47.50529" lon="6.75566">
        <ele>363</ele>
        <time>2014-12-30T08:59:42Z</time>
      </trkpt>
      <trkpt lat="47.50526" lon="6.75566">
        <ele>364</ele>
        <time>2014-12-30T08:59:43Z</time>
      </trkpt>
      <trkpt lat="47.50522" lon="6.75566">
        <ele>364</ele>
        <time>2014-12-30T08:59:45Z</time>
      </trkpt>
      <trkpt lat="47.5052" lon="6.75565">
        <ele>365</ele>
        <time>2014-12-30T08:59:46Z</time>
      </trkpt>
      <trkpt lat="47.50515" lon="6.75565">
        <ele>366</ele>
        <time>2014-12-30T08:59:48Z</time>
      </trkpt>
      <trkpt lat="47.50513" lon="6.75565">
        <ele>366</ele>
        <time>2014-12-30T08:59:49Z</time>
      </trkpt>
      <trkpt lat="47.50511" lon="6.75565">
        <ele>366</ele>
        <time>2014-12-30T08:59:50Z</time>
      </trkpt>
      <trkpt lat="47.50509" lon="6.75565">
        <ele>367</ele>
        <time>2014-12-30T08:59:51Z</time>
      </trkpt>
      <trkpt lat="47.50506" lon="6.75565">
        <ele>367</ele>
        <time>2014-12-30T08:59:52Z</time>
      </trkpt>
      <trkpt lat="47.50503" lon="6.75565">
        <ele>367</ele>
        <time>2014-12-30T08:59:53Z</time>
      </trkpt>
      <trkpt lat="47.50501" lon="6.75565">
        <ele>367</ele>
        <time>2014-12-30T08:59:54Z</time>
      </trkpt>
      <trkpt lat="47.50498" lon="6.75565">
        <ele>367</ele>
        <time>2014-12-30T08:59:55Z</time>
      </trkpt>
      <trkpt lat="47.50496" lon="6.75565">
        <ele>367</ele>
        <time>2014-12-30T08:59:56Z</time>
      </trkpt>
      <trkpt lat="47.50494" lon="6.75565">
        <ele>367</ele>
        <time>2014-12-30T08:59:57Z</time>
      </trkpt>
      <trkpt lat="47.50491" lon="6.75566">
        <ele>367</ele>
        <time>2014-12-30T08:59:58Z</time>
      </trkpt>
      <trkpt lat="47.50489" lon="6.75567">
        <ele>367</ele>
        <time>2014-12-30T08:59:59Z</time>
      </trkpt>
      <trkpt lat="47.50486" lon="6.75568">
        <ele>366</ele>
        <time>2014-12-30T09:00:00Z</time>
      </trkpt>
      <trkpt lat="47.50485" lon="6.7557">
        <ele>366</ele>
        <time>2014-12-30T09:00:01Z</time>
      </trkpt>
      <trkpt lat="47.50483" lon="6.75572">
        <ele>366</ele>
        <time>2014-12-30T09:00:02Z</time>
      </trkpt>
      <trkpt lat="47.50481" lon="6.75574">
        <ele>366</ele>
        <time>2014-12-30T09:00:03Z</time>
      </trkpt>
      <trkpt lat="47.50478" lon="6.75575">
        <ele>366</ele>
        <time>2014-12-30T09:00:04Z</time>
      </trkpt>
      <trkpt lat="47.50476" lon="6.75575">
        <ele>365</ele>
        <time>2014-12-30T09:00:05Z</time>
      </trkpt>
      <trkpt lat="47.50474" lon="6.75576">
        <ele>365</ele>
        <time>2014-12-30T09:00:06Z</time>
      </trkpt>
      <trkpt lat="47.50471" lon="6.75576">
        <ele>365</ele>
        <time>2014-12-30T09:00:07Z</time>
      </trkpt>
      <trkpt lat="47.50467" lon="6.75578">
        <ele>364</ele>
        <time>2014-12-30T09:00:09Z</time>
      </trkpt>
      <trkpt lat="47.50465" lon="6.75578">
        <ele>364</ele>
        <time>2014-12-30T09:00:10Z</time>
      </trkpt>
      <trkpt lat="47.50462" lon="6.75579">
        <ele>364</ele>
        <time>2014-12-30T09:00:12Z</time>
      </trkpt>
      <trkpt lat="47.5046" lon="6.7558">
        <ele>364</ele>
        <time>2014-12-30T09:00:13Z</time>
      </trkpt>
      <trkpt lat="47.50456" lon="6.75581">
        <ele>364</ele>
        <time>2014-12-30T09:00:15Z</time>
      </trkpt>
      <trkpt lat="47.50454" lon="6.75581">
        <ele>364</ele>
        <time>2014-12-30T09:00:16Z</time>
      </trkpt>
      <trkpt lat="47.50451" lon="6.7558">
        <ele>364</ele>
        <time>2014-12-30T09:00:18Z</time>
      </trkpt>
      <trkpt lat="47.50449" lon="6.7558">
        <ele>364</ele>
        <time>2014-12-30T09:00:19Z</time>
      </trkpt>
      <trkpt lat="47.50445" lon="6.7558">
        <ele>365</ele>
        <time>2014-12-30T09:00:21Z</time>
      </trkpt>
      <trkpt lat="47.50443" lon="6.7558">
        <ele>365</ele>
        <time>2014-12-30T09:00:22Z</time>
      </trkpt>
      <trkpt lat="47.50441" lon="6.7558">
        <ele>365</ele>
        <time>2014-12-30T09:00:23Z</time>
      </trkpt>
      <trkpt lat="47.50439" lon="6.75579">
        <ele>366</ele>
        <time>2014-12-30T09:00:24Z</time>
      </trkpt>
      <trkpt lat="47.50436" lon="6.75579">
        <ele>366</ele>
        <time>2014-12-30T09:00:25Z</time>
      </trkpt>
      <trkpt lat="47.50434" lon="6.75579">
        <ele>367</ele>
        <time>2014-12-30T09:00:25Z</time>
      </trkpt>
      <trkpt lat="47.50417" lon="6.75584">
        <ele>369</ele>
        <time>2014-12-30T09:00:34Z</time>
      </trkpt>
      <trkpt lat="47.50415" lon="6.7559">
        <ele>369</ele>
        <time>2014-12-30T09:00:37Z</time>
      </trkpt>
      <trkpt lat="47.50416" lon="6.75592">
        <ele>369</ele>
        <time>2014-12-30T09:00:38Z</time>
      </trkpt>
      <trkpt lat="47.50418" lon="6.75597">
        <ele>369</ele>
        <time>2014-12-30T09:00:41Z</time>
      </trkpt>
      <trkpt lat="47.50419" lon="6.75599">
        <ele>369</ele>
        <time>2014-12-30T09:00:42Z</time>
      </trkpt>
      <trkpt lat="47.50421" lon="6.75604">
        <ele>370</ele>
        <time>2014-12-30T09:00:48Z</time>
      </trkpt>
      <trkpt lat="47.50422" lon="6.75604">
        <ele>370</ele>
        <time>2014-12-30T09:00:49Z</time>
      </trkpt>
      <trkpt lat="47.50422" lon="6.75609">
        <ele>371</ele>
        <time>2014-12-30T09:00:52Z</time>
      </trkpt>
      <trkpt lat="47.50422" lon="6.75611">
        <ele>371</ele>
        <time>2014-12-30T09:00:53Z</time>
      </trkpt>
      <trkpt lat="47.5042" lon="6.75616">
        <ele>372</ele>
        <time>2014-12-30T09:00:56Z</time>
      </trkpt>
      <trkpt lat="47.5042" lon="6.75617">
        <ele>372</ele>
        <time>2014-12-30T09:00:57Z</time>
      </trkpt>
      <trkpt lat="47.5042" lon="6.75621">
        <ele>373</ele>
        <time>2014-12-30T09:00:58Z</time>
      </trkpt>
      <trkpt lat="47.5042" lon="6.75625">
        <ele>374</ele>
        <time>2014-12-30T09:00:59Z</time>
      </trkpt>
      <trkpt lat="47.5042" lon="6.7563">
        <ele>375</ele>
        <time>2014-12-30T09:01:01Z</time>
      </trkpt>
      <trkpt lat="47.5042" lon="6.75632">
        <ele>376</ele>
        <time>2014-12-30T09:01:02Z</time>
      </trkpt>
      <trkpt lat="47.5042" lon="6.75638">
        <ele>377</ele>
        <time>2014-12-30T09:01:05Z</time>
      </trkpt>
      <trkpt lat="47.5042" lon="6.7564">
        <ele>377</ele>
        <time>2014-12-30T09:01:06Z</time>
      </trkpt>
      <trkpt lat="47.50421" lon="6.75645">
        <ele>378</ele>
        <time>2014-12-30T09:01:09Z</time>
      </trkpt>
      <trkpt lat="47.50421" lon="6.75647">
        <ele>378</ele>
        <time>2014-12-30T09:01:10Z</time>
      </trkpt>
      <trkpt lat="47.50422" lon="6.75651">
        <ele>379</ele>
        <time>2014-12-30T09:01:12Z</time>
      </trkpt>
      <trkpt lat="47.50422" lon="6.75653">
        <ele>379</ele>
        <time>2014-12-30T09:01:13Z</time>
      </trkpt>
      <trkpt lat="47.50423" lon="6.75659">
        <ele>379</ele>
        <time>2014-12-30T09:01:15Z</time>
      </trkpt>
      <trkpt lat="47.50423" lon="6.75662">
        <ele>379</ele>
        <time>2014-12-30T09:01:16Z</time>
      </trkpt>
      <trkpt lat="47.50423" lon="6.75667">
        <ele>380</ele>
        <time>2014-12-30T09:01:18Z</time>
      </trkpt>
      <trkpt lat="47.50423" lon="6.75669">
        <ele>380</ele>
        <time>2014-12-30T09:01:19Z</time>
      </trkpt>
      <trkpt lat="47.50423" lon="6.75675">
        <ele>380</ele>
        <time>2014-12-30T09:01:21Z</time>
      </trkpt>
      <trkpt lat="47.50423" lon="6.75677">
        <ele>380</ele>
        <time>2014-12-30T09:01:22Z</time>
      </trkpt>
      <trkpt lat="47.50426" lon="6.7568">
        <ele>380</ele>
        <time>2014-12-30T09:01:25Z</time>
      </trkpt>
      <trkpt lat="47.50426" lon="6.75682">
        <ele>380</ele>
        <time>2014-12-30T09:01:26Z</time>
      </trkpt>
      <trkpt lat="47.50427" lon="6.7569">
        <ele>381</ele>
        <time>2014-12-30T09:01:29Z</time>
      </trkpt>
      <trkpt lat="47.50428" lon="6.75695">
        <ele>382</ele>
        <time>2014-12-30T09:01:31Z</time>
      </trkpt>
      <trkpt lat="47.50428" lon="6.75697">
        <ele>382</ele>
        <time>2014-12-30T09:01:32Z</time>
      </trkpt>
      <trkpt lat="47.5043" lon="6.75702">
        <ele>383</ele>
        <time>2014-12-30T09:01:35Z</time>
      </trkpt>
      <trkpt lat="47.50431" lon="6.75704">
        <ele>384</ele>
        <time>2014-12-30T09:01:36Z</time>
      </trkpt>
      <trkpt lat="47.50433" lon="6.75707">
        <ele>384</ele>
        <time>2014-12-30T09:01:38Z</time>
      </trkpt>
      <trkpt lat="47.50434" lon="6.75709">
        <ele>384</ele>
        <time>2014-12-30T09:01:39Z</time>
      </trkpt>
      <trkpt lat="47.50434" lon="6.75715">
        <ele>385</ele>
        <time>2014-12-30T09:01:42Z</time>
      </trkpt>
      <trkpt lat="47.50434" lon="6.75718">
        <ele>386</ele>
        <time>2014-12-30T09:01:43Z</time>
      </trkpt>
      <trkpt lat="47.50433" lon="6.75724">
        <ele>387</ele>
        <time>2014-12-30T09:01:46Z</time>
      </trkpt>
      <trkpt lat="47.50432" lon="6.75725">
        <ele>387</ele>
        <time>2014-12-30T09:01:47Z</time>
      </trkpt>
      <trkpt lat="47.50432" lon="6.7573">
        <ele>387</ele>
        <time>2014-12-30T09:01:50Z</time>
      </trkpt>
      <trkpt lat="47.50431" lon="6.75733">
        <ele>388</ele>
        <time>2014-12-30T09:01:51Z</time>
      </trkpt>
      <trkpt lat="47.50431" lon="6.75738">
        <ele>388</ele>
        <time>2014-12-30T09:01:53Z</time>
      </trkpt>
      <trkpt lat="47.50431" lon="6.75741">
        <ele>388</ele>
        <time>2014-12-30T09:01:54Z</time>
      </trkpt>
      <trkpt lat="47.5043" lon="6.75747">
        <ele>389</ele>
        <time>2014-12-30T09:01:56Z</time>
      </trkpt>
      <trkpt lat="47.50429" lon="6.75749">
        <ele>389</ele>
        <time>2014-12-30T09:01:57Z</time>
      </trkpt>
      <trkpt lat="47.50426" lon="6.75753">
        <ele>389</ele>
        <time>2014-12-30T09:02:01Z</time>
      </trkpt>
      <trkpt lat="47.50426" lon="6.75755">
        <ele>389</ele>
        <time>2014-12-30T09:02:02Z</time>
      </trkpt>
      <trkpt lat="47.50425" lon="6.7576">
        <ele>389</ele>
        <time>2014-12-30T09:02:04Z</time>
      </trkpt>
      <trkpt lat="47.50425" lon="6.75762">
        <ele>389</ele>
        <time>2014-12-30T09:02:05Z</time>
      </trkpt>
      <trkpt lat="47.50424" lon="6.75767">
        <ele>389</ele>
        <time>2014-12-30T09:02:07Z</time>
      </trkpt>
      <trkpt lat="47.50422" lon="6.75769">
        <ele>389</ele>
        <time>2014-12-30T09:02:09Z</time>
      </trkpt>
      <trkpt lat="47.50419" lon="6.75772">
        <ele>389</ele>
        <time>2014-12-30T09:02:11Z</time>
      </trkpt>
      <trkpt lat="47.50418" lon="6.75773">
        <ele>389</ele>
        <time>2014-12-30T09:02:12Z</time>
      </trkpt>
      <trkpt lat="47.50416" lon="6.75777">
        <ele>389</ele>
        <time>2014-12-30T09:02:13Z</time>
      </trkpt>
      <trkpt lat="47.50414" lon="6.75778">
        <ele>389</ele>
        <time>2014-12-30T09:02:15Z</time>
      </trkpt>
      <trkpt lat="47.5041" lon="6.75783">
        <ele>388</ele>
        <time>2014-12-30T09:02:18Z</time>
      </trkpt>
      <trkpt lat="47.5041" lon="6.75785">
        <ele>388</ele>
        <time>2014-12-30T09:02:19Z</time>
      </trkpt>
      <trkpt lat="47.50408" lon="6.7579">
        <ele>388</ele>
        <time>2014-12-30T09:02:21Z</time>
      </trkpt>
      <trkpt lat="47.50408" lon="6.75793">
        <ele>388</ele>
        <time>2014-12-30T09:02:22Z</time>
      </trkpt>
      <trkpt lat="47.50408" lon="6.75798">
        <ele>388</ele>
        <time>2014-12-30T09:02:24Z</time>
      </trkpt>
      <trkpt lat="47.50408" lon="6.75801">
        <ele>388</ele>
        <time>2014-12-30T09:02:25Z</time>
      </trkpt>
      <trkpt lat="47.50408" lon="6.75803">
        <ele>388</ele>
        <time>2014-12-30T09:02:26Z</time>
      </trkpt>
      <trkpt lat="47.50408" lon="6.75809">
        <ele>388</ele>
        <time>2014-12-30T09:02:29Z</time>
      </trkpt>
      <trkpt lat="47.50407" lon="6.75814">
        <ele>388</ele>
        <time>2014-12-30T09:02:34Z</time>
      </trkpt>
      <trkpt lat="47.50407" lon="6.75816">
        <ele>388</ele>
        <time>2014-12-30T09:02:35Z</time>
      </trkpt>
      <trkpt lat="47.50408" lon="6.75822">
        <ele>388</ele>
        <time>2014-12-30T09:02:38Z</time>
      </trkpt>
      <trkpt lat="47.50408" lon="6.75824">
        <ele>388</ele>
        <time>2014-12-30T09:02:39Z</time>
      </trkpt>
      <trkpt lat="47.50409" lon="6.7583">
        <ele>388</ele>
        <time>2014-12-30T09:02:41Z</time>
      </trkpt>
      <trkpt lat="47.50409" lon="6.75834">
        <ele>388</ele>
        <time>2014-12-30T09:02:43Z</time>
      </trkpt>
      <trkpt lat="47.5041" lon="6.7584">
        <ele>388</ele>
        <time>2014-12-30T09:02:47Z</time>
      </trkpt>
      <trkpt lat="47.50409" lon="6.75842">
        <ele>388</ele>
        <time>2014-12-30T09:02:48Z</time>
      </trkpt>
      <trkpt lat="47.50409" lon="6.75846">
        <ele>388</ele>
        <time>2014-12-30T09:02:51Z</time>
      </trkpt>
      <trkpt lat="47.50409" lon="6.75849">
        <ele>388</ele>
        <time>2014-12-30T09:02:52Z</time>
      </trkpt>
      <trkpt lat="47.50409" lon="6.75854">
        <ele>388</ele>
        <time>2014-12-30T09:02:54Z</time>
      </trkpt>
      <trkpt lat="47.5041" lon="6.75858">
        <ele>388</ele>
        <time>2014-12-30T09:02:55Z</time>
      </trkpt>
      <trkpt lat="47.5041" lon="6.75861">
        <ele>388</ele>
        <time>2014-12-30T09:02:56Z</time>
      </trkpt>
      <trkpt lat="47.50411" lon="6.75864">
        <ele>388</ele>
        <time>2014-12-30T09:02:57Z</time>
      </trkpt>
      <trkpt lat="47.50412" lon="6.7587">
        <ele>388</ele>
        <time>2014-12-30T09:02:59Z</time>
      </trkpt>
      <trkpt lat="47.50413" lon="6.75871">
        <ele>388</ele>
        <time>2014-12-30T09:02:59Z</time>
      </trkpt>
      <trkpt lat="47.50414" lon="6.75876">
        <ele>388</ele>
        <time>2014-12-30T09:03:01Z</time>
      </trkpt>
      <trkpt lat="47.50415" lon="6.75881">
        <ele>388</ele>
        <time>2014-12-30T09:03:03Z</time>
      </trkpt>
      <trkpt lat="47.50415" lon="6.75887">
        <ele>389</ele>
        <time>2014-12-30T09:03:05Z</time>
      </trkpt>
      <trkpt lat="47.50415" lon="6.7589">
        <ele>389</ele>
        <time>2014-12-30T09:03:06Z</time>
      </trkpt>
      <trkpt lat="47.50415" lon="6.75896">
        <ele>389</ele>
        <time>2014-12-30T09:03:08Z</time>
      </trkpt>
      <trkpt lat="47.50415" lon="6.75899">
        <ele>389</ele>
        <time>2014-12-30T09:03:10Z</time>
      </trkpt>
      <trkpt lat="47.50416" lon="6.75906">
        <ele>389</ele>
        <time>2014-12-30T09:03:12Z</time>
      </trkpt>
      <trkpt lat="47.50416" lon="6.75909">
        <ele>389</ele>
        <time>2014-12-30T09:03:13Z</time>
      </trkpt>
      <trkpt lat="47.50417" lon="6.75915">
        <ele>390</ele>
        <time>2014-12-30T09:03:15Z</time>
      </trkpt>
      <trkpt lat="47.50417" lon="6.75916">
        <ele>390</ele>
        <time>2014-12-30T09:03:15Z</time>
      </trkpt>
      <trkpt lat="47.50418" lon="6.75921">
        <ele>390</ele>
        <time>2014-12-30T09:03:17Z</time>
      </trkpt>
      <trkpt lat="47.50418" lon="6.75925">
        <ele>390</ele>
        <time>2014-12-30T09:03:19Z</time>
      </trkpt>
      <trkpt lat="47.5042" lon="6.75931">
        <ele>390</ele>
        <time>2014-12-30T09:03:21Z</time>
      </trkpt>
      <trkpt lat="47.5042" lon="6.75934">
        <ele>390</ele>
        <time>2014-12-30T09:03:22Z</time>
      </trkpt>
      <trkpt lat="47.50421" lon="6.75939">
        <ele>391</ele>
        <time>2014-12-30T09:03:24Z</time>
      </trkpt>
      <trkpt lat="47.50421" lon="6.7594">
        <ele>391</ele>
        <time>2014-12-30T09:03:25Z</time>
      </trkpt>
      <trkpt lat="47.50422" lon="6.75944">
        <ele>391</ele>
        <time>2014-12-30T09:03:26Z</time>
      </trkpt>
      <trkpt lat="47.50425" lon="6.75966">
        <ele>393</ele>
        <time>2014-12-30T09:03:34Z</time>
      </trkpt>
      <trkpt lat="47.50425" lon="6.75972">
        <ele>394</ele>
        <time>2014-12-30T09:03:37Z</time>
      </trkpt>
      <trkpt lat="47.50425" lon="6.75975">
        <ele>394</ele>
        <time>2014-12-30T09:03:38Z</time>
      </trkpt>
      <trkpt lat="47.50426" lon="6.75981">
        <ele>394</ele>
        <time>2014-12-30T09:03:40Z</time>
      </trkpt>
      <trkpt lat="47.50426" lon="6.75984">
        <ele>394</ele>
        <time>2014-12-30T09:03:41Z</time>
      </trkpt>
      <trkpt lat="47.50427" lon="6.7599">
        <ele>394</ele>
        <time>2014-12-30T09:03:43Z</time>
      </trkpt>
      <trkpt lat="47.50427" lon="6.75993">
        <ele>394</ele>
        <time>2014-12-30T09:03:44Z</time>
      </trkpt>
      <trkpt lat="47.50425" lon="6.75999">
        <ele>394</ele>
        <time>2014-12-30T09:03:50Z</time>
      </trkpt>
      <trkpt lat="47.50425" lon="6.75999">
        <ele>394</ele>
        <time>2014-12-30T09:03:51Z</time>
      </trkpt>
      <trkpt lat="47.50426" lon="6.76005">
        <ele>395</ele>
        <time>2014-12-30T09:03:54Z</time>
      </trkpt>
      <trkpt lat="47.50427" lon="6.76007">
        <ele>395</ele>
        <time>2014-12-30T09:03:55Z</time>
      </trkpt>
      <trkpt lat="47.50427" lon="6.76012">
        <ele>395</ele>
        <time>2014-12-30T09:03:57Z</time>
      </trkpt>
      <trkpt lat="47.50427" lon="6.76015">
        <ele>395</ele>
        <time>2014-12-30T09:03:58Z</time>
      </trkpt>
      <trkpt lat="47.50426" lon="6.76021">
        <ele>396</ele>
        <time>2014-12-30T09:04:00Z</time>
      </trkpt>
      <trkpt lat="47.50426" lon="6.76024">
        <ele>396</ele>
        <time>2014-12-30T09:04:01Z</time>
      </trkpt>
      <trkpt lat="47.50426" lon="6.76028">
        <ele>396</ele>
        <time>2014-12-30T09:04:02Z</time>
      </trkpt>
      <trkpt lat="47.50427" lon="6.76031">
        <ele>397</ele>
        <time>2014-12-30T09:04:03Z</time>
      </trkpt>
      <trkpt lat="47.50428" lon="6.76038">
        <ele>398</ele>
        <time>2014-12-30T09:04:05Z</time>
      </trkpt>
      <trkpt lat="47.50428" lon="6.76041">
        <ele>398</ele>
        <time>2014-12-30T09:04:06Z</time>
      </trkpt>
      <trkpt lat="47.50429" lon="6.76044">
        <ele>398</ele>
        <time>2014-12-30T09:04:07Z</time>
      </trkpt>
      <trkpt lat="47.50428" lon="6.76047">
        <ele>398</ele>
        <time>2014-12-30T09:04:08Z</time>
      </trkpt>
      <trkpt lat="47.50428" lon="6.76051">
        <ele>399</ele>
        <time>2014-12-30T09:04:09Z</time>
      </trkpt>
      <trkpt lat="47.50428" lon="6.76055">
        <ele>399</ele>
        <time>2014-12-30T09:04:10Z</time>
      </trkpt>
      <trkpt lat="47.50427" lon="6.7606">
        <ele>399</ele>
        <time>2014-12-30T09:04:11Z</time>
      </trkpt>
      <trkpt lat="47.50428" lon="6.76064">
        <ele>399</ele>
        <time>2014-12-30T09:04:12Z</time>
      </trkpt>
      <trkpt lat="47.50428" lon="6.76067">
        <ele>399</ele>
        <time>2014-12-30T09:04:13Z</time>
      </trkpt>
      <trkpt lat="47.50428" lon="6.7607">
        <ele>399</ele>
        <time>2014-12-30T09:04:14Z</time>
      </trkpt>
      <trkpt lat="47.50429" lon="6.76074">
        <ele>399</ele>
        <time>2014-12-30T09:04:15Z</time>
      </trkpt>
      <trkpt lat="47.50429" lon="6.76077">
        <ele>400</ele>
        <time>2014-12-30T09:04:16Z</time>
      </trkpt>
      <trkpt lat="47.50431" lon="6.76083">
        <ele>400</ele>
        <time>2014-12-30T09:04:18Z</time>
      </trkpt>
      <trkpt lat="47.50432" lon="6.76086">
        <ele>400</ele>
        <time>2014-12-30T09:04:19Z</time>
      </trkpt>
      <trkpt lat="47.50433" lon="6.7609">
        <ele>400</ele>
        <time>2014-12-30T09:04:20Z</time>
      </trkpt>
      <trkpt lat="47.50434" lon="6.76094">
        <ele>401</ele>
        <time>2014-12-30T09:04:21Z</time>
      </trkpt>
      <trkpt lat="47.50435" lon="6.76101">
        <ele>401</ele>
        <time>2014-12-30T09:04:23Z</time>
      </trkpt>
      <trkpt lat="47.50435" lon="6.76104">
        <ele>401</ele>
        <time>2014-12-30T09:04:24Z</time>
      </trkpt>
      <trkpt lat="47.50435" lon="6.76107">
        <ele>401</ele>
        <time>2014-12-30T09:04:25Z</time>
      </trkpt>
      <trkpt lat="47.50435" lon="6.7611">
        <ele>402</ele>
        <time>2014-12-30T09:04:26Z</time>
      </trkpt>
      <trkpt lat="47.50435" lon="6.76113">
        <ele>402</ele>
        <time>2014-12-30T09:04:27Z</time>
      </trkpt>
      <trkpt lat="47.50435" lon="6.7612">
        <ele>402</ele>
        <time>2014-12-30T09:04:30Z</time>
      </trkpt>
      <trkpt lat="47.50433" lon="6.76126">
        <ele>402</ele>
        <time>2014-12-30T09:04:32Z</time>
      </trkpt>
      <trkpt lat="47.50433" lon="6.7613">
        <ele>402</ele>
        <time>2014-12-30T09:04:33Z</time>
      </trkpt>
      <trkpt lat="47.50431" lon="6.76133">
        <ele>402</ele>
        <time>2014-12-30T09:04:34Z</time>
      </trkpt>
      <trkpt lat="47.50431" lon="6.76137">
        <ele>402</ele>
        <time>2014-12-30T09:04:35Z</time>
      </trkpt>
      <trkpt lat="47.50431" lon="6.7614">
        <ele>403</ele>
        <time>2014-12-30T09:04:36Z</time>
      </trkpt>
      <trkpt lat="47.50431" lon="6.76144">
        <ele>403</ele>
        <time>2014-12-30T09:04:37Z</time>
      </trkpt>
      <trkpt lat="47.50432" lon="6.76148">
        <ele>403</ele>
        <time>2014-12-30T09:04:38Z</time>
      </trkpt>
      <trkpt lat="47.50431" lon="6.76151">
        <ele>403</ele>
        <time>2014-12-30T09:04:39Z</time>
      </trkpt>
      <trkpt lat="47.5043" lon="6.76155">
        <ele>403</ele>
        <time>2014-12-30T09:04:40Z</time>
      </trkpt>
      <trkpt lat="47.5043" lon="6.76159">
        <ele>403</ele>
        <time>2014-12-30T09:04:41Z</time>
      </trkpt>
      <trkpt lat="47.50429" lon="6.76162">
        <ele>403</ele>
        <time>2014-12-30T09:04:42Z</time>
      </trkpt>
      <trkpt lat="47.50429" lon="6.76165">
        <ele>403</ele>
        <time>2014-12-30T09:04:43Z</time>
      </trkpt>
      <trkpt lat="47.50428" lon="6.7617">
        <ele>403</ele>
        <time>2014-12-30T09:04:45Z</time>
      </trkpt>
      <trkpt lat="47.50428" lon="6.76173">
        <ele>403</ele>
        <time>2014-12-30T09:04:46Z</time>
      </trkpt>
      <trkpt lat="47.50428" lon="6.76178">
        <ele>403</ele>
        <time>2014-12-30T09:04:48Z</time>
      </trkpt>
      <trkpt lat="47.50428" lon="6.7618">
        <ele>403</ele>
        <time>2014-12-30T09:04:49Z</time>
      </trkpt>
      <trkpt lat="47.5043" lon="6.76184">
        <ele>403</ele>
        <time>2014-12-30T09:04:52Z</time>
      </trkpt>
      <trkpt lat="47.50431" lon="6.76186">
        <ele>403</ele>
        <time>2014-12-30T09:04:53Z</time>
      </trkpt>
      <trkpt lat="47.5043" lon="6.76192">
        <ele>403</ele>
        <time>2014-12-30T09:04:55Z</time>
      </trkpt>
      <trkpt lat="47.5043" lon="6.76194">
        <ele>403</ele>
        <time>2014-12-30T09:04:56Z</time>
      </trkpt>
      <trkpt lat="47.5043" lon="6.76199">
        <ele>403</ele>
        <time>2014-12-30T09:04:58Z</time>
      </trkpt>
      <trkpt lat="47.50429" lon="6.76201">
        <ele>403</ele>
        <time>2014-12-30T09:04:59Z</time>
      </trkpt>
      <trkpt lat="47.50428" lon="6.76208">
        <ele>402</ele>
        <time>2014-12-30T09:05:02Z</time>
      </trkpt>
      <trkpt lat="47.50427" lon="6.7621">
        <ele>402</ele>
        <time>2014-12-30T09:05:03Z</time>
      </trkpt>
      <trkpt lat="47.50426" lon="6.76215">
        <ele>402</ele>
        <time>2014-12-30T09:05:05Z</time>
      </trkpt>
      <trkpt lat="47.50426" lon="6.76218">
        <ele>402</ele>
        <time>2014-12-30T09:05:06Z</time>
      </trkpt>
      <trkpt lat="47.50425" lon="6.76222">
        <ele>402</ele>
        <time>2014-12-30T09:05:07Z</time>
      </trkpt>
      <trkpt lat="47.50425" lon="6.76225">
        <ele>401</ele>
        <time>2014-12-30T09:05:08Z</time>
      </trkpt>
      <trkpt lat="47.50424" lon="6.76228">
        <ele>401</ele>
        <time>2014-12-30T09:05:09Z</time>
      </trkpt>
      <trkpt lat="47.50424" lon="6.76231">
        <ele>401</ele>
        <time>2014-12-30T09:05:10Z</time>
      </trkpt>
      <trkpt lat="47.50424" lon="6.76235">
        <ele>401</ele>
        <time>2014-12-30T09:05:11Z</time>
      </trkpt>
      <trkpt lat="47.50424" lon="6.76239">
        <ele>401</ele>
        <time>2014-12-30T09:05:12Z</time>
      </trkpt>
      <trkpt lat="47.50424" lon="6.76243">
        <ele>401</ele>
        <time>2014-12-30T09:05:13Z</time>
      </trkpt>
      <trkpt lat="47.50424" lon="6.76246">
        <ele>401</ele>
        <time>2014-12-30T09:05:14Z</time>
      </trkpt>
      <trkpt lat="47.50423" lon="6.76252">
        <ele>401</ele>
        <time>2014-12-30T09:05:16Z</time>
      </trkpt>
      <trkpt lat="47.50423" lon="6.76255">
        <ele>400</ele>
        <time>2014-12-30T09:05:17Z</time>
      </trkpt>
      <trkpt lat="47.50421" lon="6.76261">
        <ele>400</ele>
        <time>2014-12-30T09:05:19Z</time>
      </trkpt>
      <trkpt lat="47.5042" lon="6.76264">
        <ele>400</ele>
        <time>2014-12-30T09:05:20Z</time>
      </trkpt>
      <trkpt lat="47.50419" lon="6.76268">
        <ele>400</ele>
        <time>2014-12-30T09:05:21Z</time>
      </trkpt>
      <trkpt lat="47.50417" lon="6.76272">
        <ele>400</ele>
        <time>2014-12-30T09:05:22Z</time>
      </trkpt>
      <trkpt lat="47.50416" lon="6.76276">
        <ele>399</ele>
        <time>2014-12-30T09:05:23Z</time>
      </trkpt>
      <trkpt lat="47.50414" lon="6.7628">
        <ele>399</ele>
        <time>2014-12-30T09:05:24Z</time>
      </trkpt>
      <trkpt lat="47.50413" lon="6.76283">
        <ele>399</ele>
        <time>2014-12-30T09:05:25Z</time>
      </trkpt>
      <trkpt lat="47.50411" lon="6.76287">
        <ele>398</ele>
        <time>2014-12-30T09:05:26Z</time>
      </trkpt>
      <trkpt lat="47.5041" lon="6.76289">
        <ele>398</ele>
        <time>2014-12-30T09:05:27Z</time>
      </trkpt>
      <trkpt lat="47.50398" lon="6.76313">
        <ele>397</ele>
        <time>2014-12-30T09:05:35Z</time>
      </trkpt>
      <trkpt lat="47.50396" lon="6.76315">
        <ele>397</ele>
        <time>2014-12-30T09:05:36Z</time>
      </trkpt>
      <trkpt lat="47.50396" lon="6.76319">
        <ele>397</ele>
        <time>2014-12-30T09:05:37Z</time>
      </trkpt>
      <trkpt lat="47.50395" lon="6.76324">
        <ele>397</ele>
        <time>2014-12-30T09:05:39Z</time>
      </trkpt>
      <trkpt lat="47.50395" lon="6.76326">
        <ele>397</ele>
        <time>2014-12-30T09:05:40Z</time>
      </trkpt>
      <trkpt lat="47.50393" lon="6.76332">
        <ele>396</ele>
        <time>2014-12-30T09:05:43Z</time>
      </trkpt>
      <trkpt lat="47.50391" lon="6.76336">
        <ele>396</ele>
        <time>2014-12-30T09:05:44Z</time>
      </trkpt>
      <trkpt lat="47.5039" lon="6.76338">
        <ele>396</ele>
        <time>2014-12-30T09:05:45Z</time>
      </trkpt>
      <trkpt lat="47.50387" lon="6.76345">
        <ele>395</ele>
        <time>2014-12-30T09:05:46Z</time>
      </trkpt>
      <trkpt lat="47.50385" lon="6.76349">
        <ele>395</ele>
        <time>2014-12-30T09:05:47Z</time>
      </trkpt>
      <trkpt lat="47.50384" lon="6.76353">
        <ele>395</ele>
        <time>2014-12-30T09:05:47Z</time>
      </trkpt>
      <trkpt lat="47.50381" lon="6.76357">
        <ele>395</ele>
        <time>2014-12-30T09:05:49Z</time>
      </trkpt>
      <trkpt lat="47.5038" lon="6.7636">
        <ele>394</ele>
        <time>2014-12-30T09:05:49Z</time>
      </trkpt>
      <trkpt lat="47.50377" lon="6.76364">
        <ele>394</ele>
        <time>2014-12-30T09:05:51Z</time>
      </trkpt>
      <trkpt lat="47.50376" lon="6.76367">
        <ele>394</ele>
        <time>2014-12-30T09:05:52Z</time>
      </trkpt>
      <trkpt lat="47.50374" lon="6.76369">
        <ele>394</ele>
        <time>2014-12-30T09:05:53Z</time>
      </trkpt>
      <trkpt lat="47.50373" lon="6.76374">
        <ele>394</ele>
        <time>2014-12-30T09:05:54Z</time>
      </trkpt>
      <trkpt lat="47.50372" lon="6.76378">
        <ele>394</ele>
        <time>2014-12-30T09:05:55Z</time>
      </trkpt>
      <trkpt lat="47.50372" lon="6.76382">
        <ele>394</ele>
        <time>2014-12-30T09:05:56Z</time>
      </trkpt>
      <trkpt lat="47.50371" lon="6.76385">
        <ele>394</ele>
        <time>2014-12-30T09:05:57Z</time>
      </trkpt>
      <trkpt lat="47.50372" lon="6.7639">
        <ele>394</ele>
        <time>2014-12-30T09:05:58Z</time>
      </trkpt>
      <trkpt lat="47.50372" lon="6.76394">
        <ele>394</ele>
        <time>2014-12-30T09:05:59Z</time>
      </trkpt>
      <trkpt lat="47.50371" lon="6.76397">
        <ele>394</ele>
        <time>2014-12-30T09:06:00Z</time>
      </trkpt>
      <trkpt lat="47.5037" lon="6.76403">
        <ele>394</ele>
        <time>2014-12-30T09:06:02Z</time>
      </trkpt>
      <trkpt lat="47.50369" lon="6.76406">
        <ele>394</ele>
        <time>2014-12-30T09:06:03Z</time>
      </trkpt>
      <trkpt lat="47.50368" lon="6.7641">
        <ele>394</ele>
        <time>2014-12-30T09:06:05Z</time>
      </trkpt>
      <trkpt lat="47.50368" lon="6.76412">
        <ele>394</ele>
        <time>2014-12-30T09:06:06Z</time>
      </trkpt>
      <trkpt lat="47.50367" lon="6.76416">
        <ele>394</ele>
        <time>2014-12-30T09:06:08Z</time>
      </trkpt>
      <trkpt lat="47.50366" lon="6.7642">
        <ele>394</ele>
        <time>2014-12-30T09:06:10Z</time>
      </trkpt>
      <trkpt lat="47.50365" lon="6.76422">
        <ele>394</ele>
        <time>2014-12-30T09:06:11Z</time>
      </trkpt>
      <trkpt lat="47.50364" lon="6.76428">
        <ele>394</ele>
        <time>2014-12-30T09:06:12Z</time>
      </trkpt>
      <trkpt lat="47.50364" lon="6.76433">
        <ele>394</ele>
        <time>2014-12-30T09:06:13Z</time>
      </trkpt>
      <trkpt lat="47.50363" lon="6.76436">
        <ele>395</ele>
        <time>2014-12-30T09:06:13Z</time>
      </trkpt>
      <trkpt lat="47.50363" lon="6.7644">
        <ele>395</ele>
        <time>2014-12-30T09:06:16Z</time>
      </trkpt>
      <trkpt lat="47.50362" lon="6.76443">
        <ele>395</ele>
        <time>2014-12-30T09:06:17Z</time>
      </trkpt>
      <trkpt lat="47.50361" lon="6.76444">
        <ele>395</ele>
        <time>2014-12-30T09:06:18Z</time>
      </trkpt>
      <trkpt lat="47.50359" lon="6.76448">
        <ele>395</ele>
        <time>2014-12-30T09:06:19Z</time>
      </trkpt>
      <trkpt lat="47.50358" lon="6.76452">
        <ele>395</ele>
        <time>2014-12-30T09:06:21Z</time>
      </trkpt>
      <trkpt lat="47.50358" lon="6.76457">
        <ele>395</ele>
        <time>2014-12-30T09:06:22Z</time>
      </trkpt>
      <trkpt lat="47.50357" lon="6.76463">
        <ele>395</ele>
        <time>2014-12-30T09:06:24Z</time>
      </trkpt>
      <trkpt lat="47.50356" lon="6.76465">
        <ele>395</ele>
        <time>2014-12-30T09:06:25Z</time>
      </trkpt>
      <trkpt lat="47.50356" lon="6.76466">
        <ele>395</ele>
        <time>2014-12-30T09:06:26Z</time>
      </trkpt>
      <trkpt lat="47.5035" lon="6.76472">
        <ele>396</ele>
        <time>2014-12-30T09:06:29Z</time>
      </trkpt>
      <trkpt lat="47.50347" lon="6.76474">
        <ele>396</ele>
        <time>2014-12-30T09:06:30Z</time>
      </trkpt>
      <trkpt lat="47.50344" lon="6.76476">
        <ele>396</ele>
        <time>2014-12-30T09:06:31Z</time>
      </trkpt>
      <trkpt lat="47.50342" lon="6.76479">
        <ele>396</ele>
        <time>2014-12-30T09:06:32Z</time>
      </trkpt>
      <trkpt lat="47.5034" lon="6.7648">
        <ele>396</ele>
        <time>2014-12-30T09:06:33Z</time>
      </trkpt>
      <trkpt lat="47.50336" lon="6.76483">
        <ele>396</ele>
        <time>2014-12-30T09:06:34Z</time>
      </trkpt>
      <trkpt lat="47.50334" lon="6.76484">
        <ele>396</ele>
        <time>2014-12-30T09:06:35Z</time>
      </trkpt>
      <trkpt lat="47.5033" lon="6.76487">
        <ele>396</ele>
        <time>2014-12-30T09:06:37Z</time>
      </trkpt>
      <trkpt lat="47.50328" lon="6.76489">
        <ele>396</ele>
        <time>2014-12-30T09:06:38Z</time>
      </trkpt>
      <trkpt lat="47.50327" lon="6.76492">
        <ele>396</ele>
        <time>2014-12-30T09:06:39Z</time>
      </trkpt>
      <trkpt lat="47.50326" lon="6.76495">
        <ele>396</ele>
        <time>2014-12-30T09:06:40Z</time>
      </trkpt>
      <trkpt lat="47.50325" lon="6.76496">
        <ele>396</ele>
        <time>2014-12-30T09:06:41Z</time>
      </trkpt>
      <trkpt lat="47.50322" lon="6.765">
        <ele>396</ele>
        <time>2014-12-30T09:06:42Z</time>
      </trkpt>
      <trkpt lat="47.50321" lon="6.76501">
        <ele>396</ele>
        <time>2014-12-30T09:06:43Z</time>
      </trkpt>
      <trkpt lat="47.50318" lon="6.76504">
        <ele>396</ele>
        <time>2014-12-30T09:06:44Z</time>
      </trkpt>
      <trkpt lat="47.50315" lon="6.76507">
        <ele>396</ele>
        <time>2014-12-30T09:06:46Z</time>
      </trkpt>
      <trkpt lat="47.50313" lon="6.76509">
        <ele>396</ele>
        <time>2014-12-30T09:06:47Z</time>
      </trkpt>
      <trkpt lat="47.5031" lon="6.76513">
        <ele>396</ele>
        <time>2014-12-30T09:06:49Z</time>
      </trkpt>
      <trkpt lat="47.50308" lon="6.76514">
        <ele>396</ele>
        <time>2014-12-30T09:06:50Z</time>
      </trkpt>
      <trkpt lat="47.50306" lon="6.76516">
        <ele>396</ele>
        <time>2014-12-30T09:06:51Z</time>
      </trkpt>
      <trkpt lat="47.50304" lon="6.76518">
        <ele>396</ele>
        <time>2014-12-30T09:06:52Z</time>
      </trkpt>
      <trkpt lat="47.503" lon="6.76521">
        <ele>395</ele>
        <time>2014-12-30T09:06:54Z</time>
      </trkpt>
      <trkpt lat="47.50298" lon="6.76522">
        <ele>395</ele>
        <time>2014-12-30T09:06:55Z</time>
      </trkpt>
      <trkpt lat="47.50294" lon="6.76525">
        <ele>395</ele>
        <time>2014-12-30T09:06:57Z</time>
      </trkpt>
      <trkpt lat="47.50292" lon="6.76526">
        <ele>395</ele>
        <time>2014-12-30T09:06:58Z</time>
      </trkpt>
      <trkpt lat="47.50289" lon="6.76529">
        <ele>395</ele>
        <time>2014-12-30T09:07:00Z</time>
      </trkpt>
      <trkpt lat="47.50287" lon="6.76531">
        <ele>395</ele>
        <time>2014-12-30T09:07:01Z</time>
      </trkpt>
      <trkpt lat="47.50285" lon="6.76532">
        <ele>395</ele>
        <time>2014-12-30T09:07:02Z</time>
      </trkpt>
      <trkpt lat="47.50283" lon="6.76534">
        <ele>395</ele>
        <time>2014-12-30T09:07:03Z</time>
      </trkpt>
      <trkpt lat="47.5028" lon="6.76535">
        <ele>395</ele>
        <time>2014-12-30T09:07:04Z</time>
      </trkpt>
      <trkpt lat="47.50278" lon="6.76537">
        <ele>395</ele>
        <time>2014-12-30T09:07:05Z</time>
      </trkpt>
      <trkpt lat="47.50275" lon="6.76538">
        <ele>395</ele>
        <time>2014-12-30T09:07:06Z</time>
      </trkpt>
      <trkpt lat="47.50273" lon="6.76539">
        <ele>395</ele>
        <time>2014-12-30T09:07:07Z</time>
      </trkpt>
      <trkpt lat="47.5027" lon="6.76541">
        <ele>395</ele>
        <time>2014-12-30T09:07:08Z</time>
      </trkpt>
      <trkpt lat="47.50267" lon="6.76542">
        <ele>395</ele>
        <time>2014-12-30T09:07:09Z</time>
      </trkpt>
      <trkpt lat="47.50264" lon="6.76544">
        <ele>395</ele>
        <time>2014-12-30T09:07:10Z</time>
      </trkpt>
      <trkpt lat="47.50261" lon="6.76545">
        <ele>395</ele>
        <time>2014-12-30T09:07:11Z</time>
      </trkpt>
      <trkpt lat="47.50259" lon="6.76546">
        <ele>395</ele>
        <time>2014-12-30T09:07:12Z</time>
      </trkpt>
      <trkpt lat="47.50256" lon="6.76547">
        <ele>395</ele>
        <time>2014-12-30T09:07:13Z</time>
      </trkpt>
      <trkpt lat="47.50254" lon="6.76548">
        <ele>395</ele>
        <time>2014-12-30T09:07:14Z</time>
      </trkpt>
      <trkpt lat="47.50252" lon="6.76549">
        <ele>396</ele>
        <time>2014-12-30T09:07:15Z</time>
      </trkpt>
      <trkpt lat="47.50249" lon="6.7655">
        <ele>396</ele>
        <time>2014-12-30T09:07:16Z</time>
      </trkpt>
      <trkpt lat="47.50247" lon="6.76551">
        <ele>397</ele>
        <time>2014-12-30T09:07:17Z</time>
      </trkpt>
      <trkpt lat="47.50243" lon="6.76553">
        <ele>397</ele>
        <time>2014-12-30T09:07:19Z</time>
      </trkpt>
      <trkpt lat="47.50241" lon="6.76554">
        <ele>397</ele>
        <time>2014-12-30T09:07:20Z</time>
      </trkpt>
      <trkpt lat="47.50238" lon="6.76556">
        <ele>397</ele>
        <time>2014-12-30T09:07:21Z</time>
      </trkpt>
      <trkpt lat="47.50235" lon="6.76557">
        <ele>397</ele>
        <time>2014-12-30T09:07:22Z</time>
      </trkpt>
      <trkpt lat="47.50232" lon="6.76558">
        <ele>398</ele>
        <time>2014-12-30T09:07:23Z</time>
      </trkpt>
      <trkpt lat="47.50229" lon="6.76559">
        <ele>398</ele>
        <time>2014-12-30T09:07:24Z</time>
      </trkpt>
      <trkpt lat="47.50226" lon="6.7656">
        <ele>398</ele>
        <time>2014-12-30T09:07:25Z</time>
      </trkpt>
      <trkpt lat="47.50224" lon="6.76561">
        <ele>398</ele>
        <time>2014-12-30T09:07:26Z</time>
      </trkpt>
      <trkpt lat="47.50219" lon="6.76565">
        <ele>399</ele>
        <time>2014-12-30T09:07:29Z</time>
      </trkpt>
      <trkpt lat="47.50216" lon="6.76566">
        <ele>399</ele>
        <time>2014-12-30T09:07:30Z</time>
      </trkpt>
      <trkpt lat="47.50214" lon="6.76567">
        <ele>400</ele>
        <time>2014-12-30T09:07:31Z</time>
      </trkpt>
      <trkpt lat="47.50212" lon="6.76569">
        <ele>400</ele>
        <time>2014-12-30T09:07:32Z</time>
      </trkpt>
      <trkpt lat="47.50209" lon="6.76571">
        <ele>401</ele>
        <time>2014-12-30T09:07:33Z</time>
      </trkpt>
      <trkpt lat="47.50206" lon="6.76572">
        <ele>401</ele>
        <time>2014-12-30T09:07:34Z</time>
      </trkpt>
      <trkpt lat="47.50203" lon="6.76572">
        <ele>402</ele>
        <time>2014-12-30T09:07:35Z</time>
      </trkpt>
      <trkpt lat="47.502" lon="6.76572">
        <ele>403</ele>
        <time>2014-12-30T09:07:36Z</time>
      </trkpt>
      <trkpt lat="47.50197" lon="6.76572">
        <ele>403</ele>
        <time>2014-12-30T09:07:37Z</time>
      </trkpt>
      <trkpt lat="47.50195" lon="6.76572">
        <ele>404</ele>
        <time>2014-12-30T09:07:38Z</time>
      </trkpt>
      <trkpt lat="47.50192" lon="6.76573">
        <ele>404</ele>
        <time>2014-12-30T09:07:39Z</time>
      </trkpt>
      <trkpt lat="47.50188" lon="6.76573">
        <ele>405</ele>
        <time>2014-12-30T09:07:41Z</time>
      </trkpt>
      <trkpt lat="47.50186" lon="6.76573">
        <ele>405</ele>
        <time>2014-12-30T09:07:42Z</time>
      </trkpt>
      <trkpt lat="47.50183" lon="6.76574">
        <ele>405</ele>
        <time>2014-12-30T09:07:44Z</time>
      </trkpt>
      <trkpt lat="47.50181" lon="6.76574">
        <ele>406</ele>
        <time>2014-12-30T09:07:45Z</time>
      </trkpt>
      <trkpt lat="47.50177" lon="6.76575">
        <ele>406</ele>
        <time>2014-12-30T09:07:47Z</time>
      </trkpt>
      <trkpt lat="47.50173" lon="6.76574">
        <ele>406</ele>
        <time>2014-12-30T09:07:48Z</time>
      </trkpt>
      <trkpt lat="47.5017" lon="6.76574">
        <ele>406</ele>
        <time>2014-12-30T09:07:49Z</time>
      </trkpt>
      <trkpt lat="47.50168" lon="6.76574">
        <ele>406</ele>
        <time>2014-12-30T09:07:50Z</time>
      </trkpt>
      <trkpt lat="47.50163" lon="6.76575">
        <ele>407</ele>
        <time>2014-12-30T09:07:52Z</time>
      </trkpt>
      <trkpt lat="47.50162" lon="6.76575">
        <ele>407</ele>
        <time>2014-12-30T09:07:53Z</time>
      </trkpt>
      <trkpt lat="47.50158" lon="6.76574">
        <ele>407</ele>
        <time>2014-12-30T09:07:55Z</time>
      </trkpt>
      <trkpt lat="47.50156" lon="6.76573">
        <ele>407</ele>
        <time>2014-12-30T09:07:56Z</time>
      </trkpt>
      <trkpt lat="47.50153" lon="6.76572">
        <ele>407</ele>
        <time>2014-12-30T09:07:58Z</time>
      </trkpt>
      <trkpt lat="47.50151" lon="6.76572">
        <ele>407</ele>
        <time>2014-12-30T09:07:59Z</time>
      </trkpt>
      <trkpt lat="47.50147" lon="6.76573">
        <ele>407</ele>
        <time>2014-12-30T09:08:01Z</time>
      </trkpt>
      <trkpt lat="47.50145" lon="6.76574">
        <ele>407</ele>
        <time>2014-12-30T09:08:02Z</time>
      </trkpt>
      <trkpt lat="47.50142" lon="6.76575">
        <ele>407</ele>
        <time>2014-12-30T09:08:04Z</time>
      </trkpt>
      <trkpt lat="47.5014" lon="6.76576">
        <ele>408</ele>
        <time>2014-12-30T09:08:05Z</time>
      </trkpt>
      <trkpt lat="47.50136" lon="6.76577">
        <ele>408</ele>
        <time>2014-12-30T09:08:07Z</time>
      </trkpt>
      <trkpt lat="47.50135" lon="6.76578">
        <ele>408</ele>
        <time>2014-12-30T09:08:08Z</time>
      </trkpt>
      <trkpt lat="47.50133" lon="6.76583">
        <ele>408</ele>
        <time>2014-12-30T09:08:12Z</time>
      </trkpt>
      <trkpt lat="47.50133" lon="6.76585">
        <ele>408</ele>
        <time>2014-12-30T09:08:13Z</time>
      </trkpt>
      <trkpt lat="47.50135" lon="6.7659">
        <ele>408</ele>
        <time>2014-12-30T09:08:17Z</time>
      </trkpt>
      <trkpt lat="47.50136" lon="6.76591">
        <ele>408</ele>
        <time>2014-12-30T09:08:18Z</time>
      </trkpt>
      <trkpt lat="47.50138" lon="6.76596">
        <ele>407</ele>
        <time>2014-12-30T09:08:20Z</time>
      </trkpt>
      <trkpt lat="47.5014" lon="6.76597">
        <ele>407</ele>
        <time>2014-12-30T09:08:21Z</time>
      </trkpt>
      <trkpt lat="47.50143" lon="6.76594">
        <ele>407</ele>
        <time>2014-12-30T09:08:26Z</time>
      </trkpt>
      <trkpt lat="47.50147" lon="6.76593">
        <ele>407</ele>
        <time>2014-12-30T09:08:29Z</time>
      </trkpt>
      <trkpt lat="47.5015" lon="6.76594">
        <ele>407</ele>
        <time>2014-12-30T09:08:31Z</time>
      </trkpt>
      <trkpt lat="47.50152" lon="6.76594">
        <ele>407</ele>
        <time>2014-12-30T09:08:32Z</time>
      </trkpt>
      <trkpt lat="47.50154" lon="6.76595">
        <ele>407</ele>
        <time>2014-12-30T09:08:33Z</time>
      </trkpt>
      <trkpt lat="47.50157" lon="6.76596">
        <ele>407</ele>
        <time>2014-12-30T09:08:34Z</time>
      </trkpt>
      <trkpt lat="47.50158" lon="6.76596">
        <ele>407</ele>
        <time>2014-12-30T09:08:34Z</time>
      </trkpt>
      <trkpt lat="47.50161" lon="6.76596">
        <ele>407</ele>
        <time>2014-12-30T09:08:36Z</time>
      </trkpt>
      <trkpt lat="47.50163" lon="6.76595">
        <ele>407</ele>
        <time>2014-12-30T09:08:36Z</time>
      </trkpt>
      <trkpt lat="47.50166" lon="6.76595">
        <ele>406</ele>
        <time>2014-12-30T09:08:38Z</time>
      </trkpt>
      <trkpt lat="47.50169" lon="6.76595">
        <ele>406</ele>
        <time>2014-12-30T09:08:39Z</time>
      </trkpt>
      <trkpt lat="47.50172" lon="6.76596">
        <ele>406</ele>
        <time>2014-12-30T09:08:40Z</time>
      </trkpt>
      <trkpt lat="47.50175" lon="6.76596">
        <ele>406</ele>
        <time>2014-12-30T09:08:41Z</time>
      </trkpt>
      <trkpt lat="47.50177" lon="6.76597">
        <ele>406</ele>
        <time>2014-12-30T09:08:42Z</time>
      </trkpt>
      <trkpt lat="47.50181" lon="6.76597">
        <ele>406</ele>
        <time>2014-12-30T09:08:44Z</time>
      </trkpt>
      <trkpt lat="47.50183" lon="6.76597">
        <ele>405</ele>
        <time>2014-12-30T09:08:45Z</time>
      </trkpt>
      <trkpt lat="47.50187" lon="6.76598">
        <ele>405</ele>
        <time>2014-12-30T09:08:46Z</time>
      </trkpt>
      <trkpt lat="47.50189" lon="6.76601">
        <ele>405</ele>
        <time>2014-12-30T09:08:48Z</time>
      </trkpt>
      <trkpt lat="47.5019" lon="6.76603">
        <ele>404</ele>
        <time>2014-12-30T09:08:49Z</time>
      </trkpt>
      <trkpt lat="47.50192" lon="6.76606">
        <ele>404</ele>
        <time>2014-12-30T09:08:50Z</time>
      </trkpt>
      <trkpt lat="47.50193" lon="6.76608">
        <ele>404</ele>
        <time>2014-12-30T09:08:51Z</time>
      </trkpt>
      <trkpt lat="47.50195" lon="6.76611">
        <ele>403</ele>
        <time>2014-12-30T09:08:52Z</time>
      </trkpt>
      <trkpt lat="47.50197" lon="6.76614">
        <ele>403</ele>
        <time>2014-12-30T09:08:53Z</time>
      </trkpt>
      <trkpt lat="47.50198" lon="6.76617">
        <ele>403</ele>
        <time>2014-12-30T09:08:54Z</time>
      </trkpt>
      <trkpt lat="47.502" lon="6.7662">
        <ele>403</ele>
        <time>2014-12-30T09:08:55Z</time>
      </trkpt>
      <trkpt lat="47.50201" lon="6.76624">
        <ele>402</ele>
        <time>2014-12-30T09:08:56Z</time>
      </trkpt>
      <trkpt lat="47.50202" lon="6.76627">
        <ele>402</ele>
        <time>2014-12-30T09:08:57Z</time>
      </trkpt>
      <trkpt lat="47.50204" lon="6.76629">
        <ele>402</ele>
        <time>2014-12-30T09:08:58Z</time>
      </trkpt>
      <trkpt lat="47.50207" lon="6.76633">
        <ele>402</ele>
        <time>2014-12-30T09:09:00Z</time>
      </trkpt>
      <trkpt lat="47.50208" lon="6.76635">
        <ele>401</ele>
        <time>2014-12-30T09:09:01Z</time>
      </trkpt>
      <trkpt lat="47.50211" lon="6.76639">
        <ele>401</ele>
        <time>2014-12-30T09:09:03Z</time>
      </trkpt>
      <trkpt lat="47.50213" lon="6.76641">
        <ele>401</ele>
        <time>2014-12-30T09:09:04Z</time>
      </trkpt>
      <trkpt lat="47.50215" lon="6.76646">
        <ele>401</ele>
        <time>2014-12-30T09:09:06Z</time>
      </trkpt>
      <trkpt lat="47.50216" lon="6.76649">
        <ele>400</ele>
        <time>2014-12-30T09:09:07Z</time>
      </trkpt>
      <trkpt lat="47.50217" lon="6.76652">
        <ele>400</ele>
        <time>2014-12-30T09:09:08Z</time>
      </trkpt>
      <trkpt lat="47.50218" lon="6.76655">
        <ele>400</ele>
        <time>2014-12-30T09:09:09Z</time>
      </trkpt>
      <trkpt lat="47.5022" lon="6.76659">
        <ele>400</ele>
        <time>2014-12-30T09:09:10Z</time>
      </trkpt>
      <trkpt lat="47.50221" lon="6.76662">
        <ele>400</ele>
        <time>2014-12-30T09:09:11Z</time>
      </trkpt>
      <trkpt lat="47.50222" lon="6.76665">
        <ele>400</ele>
        <time>2014-12-30T09:09:12Z</time>
      </trkpt>
      <trkpt lat="47.50223" lon="6.7667">
        <ele>400</ele>
        <time>2014-12-30T09:09:13Z</time>
      </trkpt>
      <trkpt lat="47.50224" lon="6.76673">
        <ele>400</ele>
        <time>2014-12-30T09:09:14Z</time>
      </trkpt>
      <trkpt lat="47.50225" lon="6.76676">
        <ele>400</ele>
        <time>2014-12-30T09:09:15Z</time>
      </trkpt>
      <trkpt lat="47.50226" lon="6.76678">
        <ele>400</ele>
        <time>2014-12-30T09:09:16Z</time>
      </trkpt>
      <trkpt lat="47.50227" lon="6.76681">
        <ele>400</ele>
        <time>2014-12-30T09:09:17Z</time>
      </trkpt>
      <trkpt lat="47.50228" lon="6.76684">
        <ele>400</ele>
        <time>2014-12-30T09:09:18Z</time>
      </trkpt>
      <trkpt lat="47.5023" lon="6.76687">
        <ele>400</ele>
        <time>2014-12-30T09:09:18Z</time>
      </trkpt>
      <trkpt lat="47.50231" lon="6.7669">
        <ele>400</ele>
        <time>2014-12-30T09:09:20Z</time>
      </trkpt>
      <trkpt lat="47.50232" lon="6.76693">
        <ele>400</ele>
        <time>2014-12-30T09:09:21Z</time>
      </trkpt>
      <trkpt lat="47.50235" lon="6.76698">
        <ele>400</ele>
        <time>2014-12-30T09:09:22Z</time>
      </trkpt>
      <trkpt lat="47.50236" lon="6.767">
        <ele>400</ele>
        <time>2014-12-30T09:09:24Z</time>
      </trkpt>
      <trkpt lat="47.50238" lon="6.76705">
        <ele>400</ele>
        <time>2014-12-30T09:09:26Z</time>
      </trkpt>
      <trkpt lat="47.50242" lon="6.7671">
        <ele>400</ele>
        <time>2014-12-30T09:09:29Z</time>
      </trkpt>
      <trkpt lat="47.50245" lon="6.76712">
        <ele>400</ele>
        <time>2014-12-30T09:09:31Z</time>
      </trkpt>
      <trkpt lat="47.50246" lon="6.76715">
        <ele>400</ele>
        <time>2014-12-30T09:09:32Z</time>
      </trkpt>
      <trkpt lat="47.50248" lon="6.76718">
        <ele>400</ele>
        <time>2014-12-30T09:09:33Z</time>
      </trkpt>
      <trkpt lat="47.5025" lon="6.76721">
        <ele>399</ele>
        <time>2014-12-30T09:09:34Z</time>
      </trkpt>
      <trkpt lat="47.50252" lon="6.76724">
        <ele>399</ele>
        <time>2014-12-30T09:09:35Z</time>
      </trkpt>
      <trkpt lat="47.50254" lon="6.76727">
        <ele>399</ele>
        <time>2014-12-30T09:09:36Z</time>
      </trkpt>
      <trkpt lat="47.50256" lon="6.7673">
        <ele>399</ele>
        <time>2014-12-30T09:09:37Z</time>
      </trkpt>
      <trkpt lat="47.50259" lon="6.76732">
        <ele>399</ele>
        <time>2014-12-30T09:09:38Z</time>
      </trkpt>
      <trkpt lat="47.50261" lon="6.76733">
        <ele>399</ele>
        <time>2014-12-30T09:09:39Z</time>
      </trkpt>
      <trkpt lat="47.50263" lon="6.76734">
        <ele>399</ele>
        <time>2014-12-30T09:09:40Z</time>
      </trkpt>
      <trkpt lat="47.50267" lon="6.76735">
        <ele>399</ele>
        <time>2014-12-30T09:09:42Z</time>
      </trkpt>
      <trkpt lat="47.50269" lon="6.76735">
        <ele>399</ele>
        <time>2014-12-30T09:09:43Z</time>
      </trkpt>
      <trkpt lat="47.50273" lon="6.76735">
        <ele>399</ele>
        <time>2014-12-30T09:09:45Z</time>
      </trkpt>
      <trkpt lat="47.50275" lon="6.76735">
        <ele>399</ele>
        <time>2014-12-30T09:09:46Z</time>
      </trkpt>
      <trkpt lat="47.50279" lon="6.76735">
        <ele>399</ele>
        <time>2014-12-30T09:09:48Z</time>
      </trkpt>
      <trkpt lat="47.50281" lon="6.76735">
        <ele>399</ele>
        <time>2014-12-30T09:09:49Z</time>
      </trkpt>
      <trkpt lat="47.50283" lon="6.76735">
        <ele>399</ele>
        <time>2014-12-30T09:09:50Z</time>
      </trkpt>
      <trkpt lat="47.50286" lon="6.76735">
        <ele>398</ele>
        <time>2014-12-30T09:09:51Z</time>
      </trkpt>
      <trkpt lat="47.50289" lon="6.76735">
        <ele>398</ele>
        <time>2014-12-30T09:09:52Z</time>
      </trkpt>
      <trkpt lat="47.50291" lon="6.76734">
        <ele>398</ele>
        <time>2014-12-30T09:09:53Z</time>
      </trkpt>
      <trkpt lat="47.50294" lon="6.76734">
        <ele>398</ele>
        <time>2014-12-30T09:09:54Z</time>
      </trkpt>
      <trkpt lat="47.50297" lon="6.76734">
        <ele>398</ele>
        <time>2014-12-30T09:09:55Z</time>
      </trkpt>
      <trkpt lat="47.50301" lon="6.76733">
        <ele>398</ele>
        <time>2014-12-30T09:09:57Z</time>
      </trkpt>
      <trkpt lat="47.50303" lon="6.76733">
        <ele>398</ele>
        <time>2014-12-30T09:09:58Z</time>
      </trkpt>
      <trkpt lat="47.50308" lon="6.76732">
        <ele>398</ele>
        <time>2014-12-30T09:10:00Z</time>
      </trkpt>
      <trkpt lat="47.50309" lon="6.76732">
        <ele>398</ele>
        <time>2014-12-30T09:10:01Z</time>
      </trkpt>
      <trkpt lat="47.50313" lon="6.76732">
        <ele>398</ele>
        <time>2014-12-30T09:10:03Z</time>
      </trkpt>
      <trkpt lat="47.50314" lon="6.76732">
        <ele>398</ele>
        <time>2014-12-30T09:10:04Z</time>
      </trkpt>
      <trkpt lat="47.50319" lon="6.76731">
        <ele>398</ele>
        <time>2014-12-30T09:10:06Z</time>
      </trkpt>
      <trkpt lat="47.5032" lon="6.7673">
        <ele>398</ele>
        <time>2014-12-30T09:10:07Z</time>
      </trkpt>
      <trkpt lat="47.50324" lon="6.76729">
        <ele>397</ele>
        <time>2014-12-30T09:10:10Z</time>
      </trkpt>
      <trkpt lat="47.50325" lon="6.76728">
        <ele>397</ele>
        <time>2014-12-30T09:10:11Z</time>
      </trkpt>
      <trkpt lat="47.50328" lon="6.76726">
        <ele>397</ele>
        <time>2014-12-30T09:10:13Z</time>
      </trkpt>
      <trkpt lat="47.5033" lon="6.76725">
        <ele>397</ele>
        <time>2014-12-30T09:10:14Z</time>
      </trkpt>
      <trkpt lat="47.50333" lon="6.76723">
        <ele>397</ele>
        <time>2014-12-30T09:10:16Z</time>
      </trkpt>
      <trkpt lat="47.50335" lon="6.76722">
        <ele>397</ele>
        <time>2014-12-30T09:10:17Z</time>
      </trkpt>
      <trkpt lat="47.50339" lon="6.76721">
        <ele>397</ele>
        <time>2014-12-30T09:10:19Z</time>
      </trkpt>
      <trkpt lat="47.50341" lon="6.7672">
        <ele>397</ele>
        <time>2014-12-30T09:10:20Z</time>
      </trkpt>
      <trkpt lat="47.50346" lon="6.76718">
        <ele>397</ele>
        <time>2014-12-30T09:10:22Z</time>
      </trkpt>
      <trkpt lat="47.50348" lon="6.76718">
        <ele>397</ele>
        <time>2014-12-30T09:10:23Z</time>
      </trkpt>
      <trkpt lat="47.50351" lon="6.76717">
        <ele>397</ele>
        <time>2014-12-30T09:10:24Z</time>
      </trkpt>
      <trkpt lat="47.50353" lon="6.76716">
        <ele>397</ele>
        <time>2014-12-30T09:10:25Z</time>
      </trkpt>
      <trkpt lat="47.50356" lon="6.76716">
        <ele>397</ele>
        <time>2014-12-30T09:10:26Z</time>
      </trkpt>
      <trkpt lat="47.50362" lon="6.76713">
        <ele>397</ele>
        <time>2014-12-30T09:10:29Z</time>
      </trkpt>
      <trkpt lat="47.50366" lon="6.76711">
        <ele>397</ele>
        <time>2014-12-30T09:10:31Z</time>
      </trkpt>
      <trkpt lat="47.50368" lon="6.7671">
        <ele>397</ele>
        <time>2014-12-30T09:10:32Z</time>
      </trkpt>
      <trkpt lat="47.50372" lon="6.76708">
        <ele>397</ele>
        <time>2014-12-30T09:10:34Z</time>
      </trkpt>
      <trkpt lat="47.50373" lon="6.76707">
        <ele>397</ele>
        <time>2014-12-30T09:10:35Z</time>
      </trkpt>
      <trkpt lat="47.50377" lon="6.76704">
        <ele>397</ele>
        <time>2014-12-30T09:10:38Z</time>
      </trkpt>
      <trkpt lat="47.50378" lon="6.76703">
        <ele>397</ele>
        <time>2014-12-30T09:10:39Z</time>
      </trkpt>
      <trkpt lat="47.5038" lon="6.76702">
        <ele>397</ele>
        <time>2014-12-30T09:10:40Z</time>
      </trkpt>
      <trkpt lat="47.50383" lon="6.76701">
        <ele>397</ele>
        <time>2014-12-30T09:10:41Z</time>
      </trkpt>
      <trkpt lat="47.50385" lon="6.76699">
        <ele>397</ele>
        <time>2014-12-30T09:10:42Z</time>
      </trkpt>
      <trkpt lat="47.50389" lon="6.76697">
        <ele>397</ele>
        <time>2014-12-30T09:10:43Z</time>
      </trkpt>
      <trkpt lat="47.50392" lon="6.76695">
        <ele>397</ele>
        <time>2014-12-30T09:10:44Z</time>
      </trkpt>
      <trkpt lat="47.50395" lon="6.76694">
        <ele>397</ele>
        <time>2014-12-30T09:10:45Z</time>
      </trkpt>
      <trkpt lat="47.50397" lon="6.76692">
        <ele>397</ele>
        <time>2014-12-30T09:10:46Z</time>
      </trkpt>
      <trkpt lat="47.504" lon="6.76691">
        <ele>397</ele>
        <time>2014-12-30T09:10:47Z</time>
      </trkpt>
      <trkpt lat="47.50402" lon="6.7669">
        <ele>397</ele>
        <time>2014-12-30T09:10:48Z</time>
      </trkpt>
      <trkpt lat="47.50405" lon="6.7669">
        <ele>397</ele>
        <time>2014-12-30T09:10:49Z</time>
      </trkpt>
      <trkpt lat="47.50408" lon="6.76688">
        <ele>397</ele>
        <time>2014-12-30T09:10:50Z</time>
      </trkpt>
      <trkpt lat="47.5041" lon="6.76687">
        <ele>397</ele>
        <time>2014-12-30T09:10:51Z</time>
      </trkpt>
      <trkpt lat="47.50413" lon="6.76686">
        <ele>397</ele>
        <time>2014-12-30T09:10:52Z</time>
      </trkpt>
      <trkpt lat="47.50416" lon="6.76685">
        <ele>397</ele>
        <time>2014-12-30T09:10:53Z</time>
      </trkpt>
      <trkpt lat="47.50419" lon="6.76685">
        <ele>397</ele>
        <time>2014-12-30T09:10:54Z</time>
      </trkpt>
      <trkpt lat="47.50421" lon="6.76684">
        <ele>397</ele>
        <time>2014-12-30T09:10:55Z</time>
      </trkpt>
      <trkpt lat="47.50424" lon="6.76682">
        <ele>397</ele>
        <time>2014-12-30T09:10:56Z</time>
      </trkpt>
      <trkpt lat="47.50427" lon="6.76681">
        <ele>397</ele>
        <time>2014-12-30T09:10:57Z</time>
      </trkpt>
      <trkpt lat="47.5043" lon="6.7668">
        <ele>397</ele>
        <time>2014-12-30T09:10:58Z</time>
      </trkpt>
      <trkpt lat="47.50433" lon="6.76678">
        <ele>397</ele>
        <time>2014-12-30T09:10:59Z</time>
      </trkpt>
      <trkpt lat="47.50436" lon="6.76677">
        <ele>397</ele>
        <time>2014-12-30T09:11:00Z</time>
      </trkpt>
      <trkpt lat="47.50438" lon="6.76677">
        <ele>397</ele>
        <time>2014-12-30T09:11:01Z</time>
      </trkpt>
      <trkpt lat="47.50441" lon="6.76676">
        <ele>397</ele>
        <time>2014-12-30T09:11:02Z</time>
      </trkpt>
      <trkpt lat="47.50443" lon="6.76675">
        <ele>397</ele>
        <time>2014-12-30T09:11:03Z</time>
      </trkpt>
      <trkpt lat="47.50447" lon="6.76673">
        <ele>397</ele>
        <time>2014-12-30T09:11:05Z</time>
      </trkpt>
      <trkpt lat="47.50451" lon="6.76673">
        <ele>397</ele>
        <time>2014-12-30T09:11:06Z</time>
      </trkpt>
      <trkpt lat="47.50454" lon="6.76672">
        <ele>397</ele>
        <time>2014-12-30T09:11:07Z</time>
      </trkpt>
      <trkpt lat="47.50456" lon="6.76671">
        <ele>397</ele>
        <time>2014-12-30T09:11:08Z</time>
      </trkpt>
      <trkpt lat="47.50459" lon="6.7667">
        <ele>397</ele>
        <time>2014-12-30T09:11:09Z</time>
      </trkpt>
      <trkpt lat="47.50461" lon="6.7667">
        <ele>397</ele>
        <time>2014-12-30T09:11:10Z</time>
      </trkpt>
      <trkpt lat="47.50464" lon="6.76669">
        <ele>397</ele>
        <time>2014-12-30T09:11:11Z</time>
      </trkpt>
      <trkpt lat="47.50466" lon="6.76669">
        <ele>397</ele>
        <time>2014-12-30T09:11:12Z</time>
      </trkpt>
      <trkpt lat="47.50468" lon="6.76668">
        <ele>397</ele>
        <time>2014-12-30T09:11:13Z</time>
      </trkpt>
      <trkpt lat="47.5047" lon="6.76667">
        <ele>397</ele>
        <time>2014-12-30T09:11:14Z</time>
      </trkpt>
      <trkpt lat="47.50473" lon="6.76666">
        <ele>398</ele>
        <time>2014-12-30T09:11:15Z</time>
      </trkpt>
      <trkpt lat="47.50475" lon="6.76665">
        <ele>398</ele>
        <time>2014-12-30T09:11:16Z</time>
      </trkpt>
      <trkpt lat="47.50478" lon="6.76664">
        <ele>398</ele>
        <time>2014-12-30T09:11:17Z</time>
      </trkpt>
      <trkpt lat="47.5048" lon="6.76663">
        <ele>398</ele>
        <time>2014-12-30T09:11:18Z</time>
      </trkpt>
      <trkpt lat="47.50482" lon="6.76662">
        <ele>398</ele>
        <time>2014-12-30T09:11:19Z</time>
      </trkpt>
      <trkpt lat="47.50485" lon="6.76661">
        <ele>398</ele>
        <time>2014-12-30T09:11:20Z</time>
      </trkpt>
      <trkpt lat="47.50488" lon="6.7666">
        <ele>398</ele>
        <time>2014-12-30T09:11:21Z</time>
      </trkpt>
      <trkpt lat="47.50491" lon="6.76659">
        <ele>398</ele>
        <time>2014-12-30T09:11:22Z</time>
      </trkpt>
      <trkpt lat="47.50493" lon="6.76658">
        <ele>398</ele>
        <time>2014-12-30T09:11:23Z</time>
      </trkpt>
      <trkpt lat="47.50496" lon="6.76657">
        <ele>398</ele>
        <time>2014-12-30T09:11:24Z</time>
      </trkpt>
      <trkpt lat="47.50499" lon="6.76656">
        <ele>398</ele>
        <time>2014-12-30T09:11:25Z</time>
      </trkpt>
      <trkpt lat="47.50501" lon="6.76655">
        <ele>399</ele>
        <time>2014-12-30T09:11:26Z</time>
      </trkpt>
      <trkpt lat="47.50506" lon="6.76652">
        <ele>399</ele>
        <time>2014-12-30T09:11:29Z</time>
      </trkpt>
      <trkpt lat="47.50511" lon="6.76651">
        <ele>399</ele>
        <time>2014-12-30T09:11:31Z</time>
      </trkpt>
      <trkpt lat="47.50513" lon="6.76651">
        <ele>399</ele>
        <time>2014-12-30T09:11:32Z</time>
      </trkpt>
      <trkpt lat="47.50516" lon="6.7665">
        <ele>399</ele>
        <time>2014-12-30T09:11:34Z</time>
      </trkpt>
      <trkpt lat="47.50518" lon="6.76649">
        <ele>399</ele>
        <time>2014-12-30T09:11:35Z</time>
      </trkpt>
      <trkpt lat="47.5052" lon="6.76648">
        <ele>399</ele>
        <time>2014-12-30T09:11:36Z</time>
      </trkpt>
      <trkpt lat="47.50523" lon="6.76648">
        <ele>399</ele>
        <time>2014-12-30T09:11:37Z</time>
      </trkpt>
      <trkpt lat="47.50525" lon="6.76647">
        <ele>399</ele>
        <time>2014-12-30T09:11:38Z</time>
      </trkpt>
      <trkpt lat="47.50527" lon="6.76646">
        <ele>399</ele>
        <time>2014-12-30T09:11:39Z</time>
      </trkpt>
      <trkpt lat="47.50531" lon="6.76644">
        <ele>399</ele>
        <time>2014-12-30T09:11:41Z</time>
      </trkpt>
      <trkpt lat="47.50533" lon="6.76644">
        <ele>399</ele>
        <time>2014-12-30T09:11:42Z</time>
      </trkpt>
      <trkpt lat="47.50536" lon="6.76643">
        <ele>398</ele>
        <time>2014-12-30T09:11:43Z</time>
      </trkpt>
      <trkpt lat="47.50538" lon="6.76643">
        <ele>398</ele>
        <time>2014-12-30T09:11:44Z</time>
      </trkpt>
      <trkpt lat="47.50541" lon="6.76642">
        <ele>398</ele>
        <time>2014-12-30T09:11:45Z</time>
      </trkpt>
      <trkpt lat="47.50544" lon="6.76642">
        <ele>398</ele>
        <time>2014-12-30T09:11:46Z</time>
      </trkpt>
      <trkpt lat="47.50548" lon="6.76642">
        <ele>398</ele>
        <time>2014-12-30T09:11:48Z</time>
      </trkpt>
      <trkpt lat="47.5055" lon="6.76641">
        <ele>398</ele>
        <time>2014-12-30T09:11:49Z</time>
      </trkpt>
      <trkpt lat="47.50554" lon="6.7664">
        <ele>398</ele>
        <time>2014-12-30T09:11:51Z</time>
      </trkpt>
      <trkpt lat="47.50556" lon="6.76639">
        <ele>398</ele>
        <time>2014-12-30T09:11:52Z</time>
      </trkpt>
      <trkpt lat="47.50559" lon="6.76639">
        <ele>398</ele>
        <time>2014-12-30T09:11:53Z</time>
      </trkpt>
      <trkpt lat="47.50561" lon="6.76638">
        <ele>398</ele>
        <time>2014-12-30T09:11:54Z</time>
      </trkpt>
      <trkpt lat="47.50566" lon="6.76637">
        <ele>398</ele>
        <time>2014-12-30T09:11:56Z</time>
      </trkpt>
      <trkpt lat="47.50568" lon="6.76636">
        <ele>398</ele>
        <time>2014-12-30T09:11:57Z</time>
      </trkpt>
      <trkpt lat="47.50572" lon="6.76635">
        <ele>398</ele>
        <time>2014-12-30T09:11:59Z</time>
      </trkpt>
      <trkpt lat="47.50574" lon="6.76634">
        <ele>398</ele>
        <time>2014-12-30T09:12:00Z</time>
      </trkpt>
      <trkpt lat="47.50576" lon="6.76633">
        <ele>398</ele>
        <time>2014-12-30T09:12:01Z</time>
      </trkpt>
      <trkpt lat="47.50578" lon="6.76633">
        <ele>398</ele>
        <time>2014-12-30T09:12:02Z</time>
      </trkpt>
      <trkpt lat="47.50581" lon="6.76632">
        <ele>398</ele>
        <time>2014-12-30T09:12:03Z</time>
      </trkpt>
      <trkpt lat="47.50583" lon="6.76631">
        <ele>398</ele>
        <time>2014-12-30T09:12:04Z</time>
      </trkpt>
      <trkpt lat="47.50586" lon="6.7663">
        <ele>398</ele>
        <time>2014-12-30T09:12:05Z</time>
      </trkpt>
      <trkpt lat="47.50588" lon="6.7663">
        <ele>398</ele>
        <time>2014-12-30T09:12:06Z</time>
      </trkpt>
      <trkpt lat="47.50591" lon="6.76629">
        <ele>398</ele>
        <time>2014-12-30T09:12:07Z</time>
      </trkpt>
      <trkpt lat="47.50593" lon="6.76628">
        <ele>398</ele>
        <time>2014-12-30T09:12:08Z</time>
      </trkpt>
      <trkpt lat="47.50595" lon="6.76627">
        <ele>398</ele>
        <time>2014-12-30T09:12:09Z</time>
      </trkpt>
      <trkpt lat="47.50598" lon="6.76627">
        <ele>398</ele>
        <time>2014-12-30T09:12:10Z</time>
      </trkpt>
      <trkpt lat="47.50601" lon="6.76626">
        <ele>398</ele>
        <time>2014-12-30T09:12:11Z</time>
      </trkpt>
      <trkpt lat="47.50603" lon="6.76625">
        <ele>398</ele>
        <time>2014-12-30T09:12:12Z</time>
      </trkpt>
      <trkpt lat="47.50606" lon="6.76624">
        <ele>397</ele>
        <time>2014-12-30T09:12:13Z</time>
      </trkpt>
      <trkpt lat="47.50608" lon="6.76623">
        <ele>397</ele>
        <time>2014-12-30T09:12:14Z</time>
      </trkpt>
      <trkpt lat="47.50611" lon="6.76622">
        <ele>397</ele>
        <time>2014-12-30T09:12:15Z</time>
      </trkpt>
      <trkpt lat="47.50614" lon="6.76621">
        <ele>397</ele>
        <time>2014-12-30T09:12:16Z</time>
      </trkpt>
      <trkpt lat="47.50616" lon="6.7662">
        <ele>397</ele>
        <time>2014-12-30T09:12:17Z</time>
      </trkpt>
      <trkpt lat="47.50618" lon="6.76619">
        <ele>397</ele>
        <time>2014-12-30T09:12:18Z</time>
      </trkpt>
      <trkpt lat="47.50621" lon="6.76618">
        <ele>397</ele>
        <time>2014-12-30T09:12:19Z</time>
      </trkpt>
      <trkpt lat="47.50623" lon="6.76616">
        <ele>397</ele>
        <time>2014-12-30T09:12:20Z</time>
      </trkpt>
      <trkpt lat="47.50625" lon="6.76615">
        <ele>397</ele>
        <time>2014-12-30T09:12:21Z</time>
      </trkpt>
      <trkpt lat="47.50628" lon="6.76614">
        <ele>397</ele>
        <time>2014-12-30T09:12:22Z</time>
      </trkpt>
      <trkpt lat="47.5063" lon="6.76612">
        <ele>397</ele>
        <time>2014-12-30T09:12:23Z</time>
      </trkpt>
      <trkpt lat="47.50633" lon="6.76611">
        <ele>397</ele>
        <time>2014-12-30T09:12:24Z</time>
      </trkpt>
      <trkpt lat="47.50635" lon="6.76609">
        <ele>397</ele>
        <time>2014-12-30T09:12:25Z</time>
      </trkpt>
      <trkpt lat="47.50638" lon="6.76608">
        <ele>397</ele>
        <time>2014-12-30T09:12:26Z</time>
      </trkpt>
      <trkpt lat="47.50643" lon="6.76603">
        <ele>396</ele>
        <time>2014-12-30T09:12:29Z</time>
      </trkpt>
      <trkpt lat="47.50647" lon="6.76601">
        <ele>396</ele>
        <time>2014-12-30T09:12:31Z</time>
      </trkpt>
      <trkpt lat="47.5065" lon="6.766">
        <ele>396</ele>
        <time>2014-12-30T09:12:32Z</time>
      </trkpt>
      <trkpt lat="47.50652" lon="6.76599">
        <ele>396</ele>
        <time>2014-12-30T09:12:33Z</time>
      </trkpt>
      <trkpt lat="47.50654" lon="6.76599">
        <ele>396</ele>
        <time>2014-12-30T09:12:34Z</time>
      </trkpt>
      <trkpt lat="47.50658" lon="6.76597">
        <ele>396</ele>
        <time>2014-12-30T09:12:36Z</time>
      </trkpt>
      <trkpt lat="47.5066" lon="6.76596">
        <ele>396</ele>
        <time>2014-12-30T09:12:37Z</time>
      </trkpt>
      <trkpt lat="47.50664" lon="6.76594">
        <ele>396</ele>
        <time>2014-12-30T09:12:39Z</time>
      </trkpt>
      <trkpt lat="47.50667" lon="6.76594">
        <ele>396</ele>
        <time>2014-12-30T09:12:40Z</time>
      </trkpt>
      <trkpt lat="47.5067" lon="6.76594">
        <ele>396</ele>
        <time>2014-12-30T09:12:41Z</time>
      </trkpt>
      <trkpt lat="47.50673" lon="6.76594">
        <ele>396</ele>
        <time>2014-12-30T09:12:42Z</time>
      </trkpt>
      <trkpt lat="47.50676" lon="6.76594">
        <ele>396</ele>
        <time>2014-12-30T09:12:43Z</time>
      </trkpt>
      <trkpt lat="47.50678" lon="6.76594">
        <ele>396</ele>
        <time>2014-12-30T09:12:44Z</time>
      </trkpt>
      <trkpt lat="47.50682" lon="6.76594">
        <ele>396</ele>
        <time>2014-12-30T09:12:46Z</time>
      </trkpt>
      <trkpt lat="47.50684" lon="6.76594">
        <ele>396</ele>
        <time>2014-12-30T09:12:47Z</time>
      </trkpt>
      <trkpt lat="47.50688" lon="6.76594">
        <ele>396</ele>
        <time>2014-12-30T09:12:48Z</time>
      </trkpt>
      <trkpt lat="47.50691" lon="6.76594">
        <ele>395</ele>
        <time>2014-12-30T09:12:49Z</time>
      </trkpt>
      <trkpt lat="47.50693" lon="6.76594">
        <ele>395</ele>
        <time>2014-12-30T09:12:50Z</time>
      </trkpt>
      <trkpt lat="47.50696" lon="6.76594">
        <ele>395</ele>
        <time>2014-12-30T09:12:51Z</time>
      </trkpt>
      <trkpt lat="47.50699" lon="6.76594">
        <ele>395</ele>
        <time>2014-12-30T09:12:52Z</time>
      </trkpt>
      <trkpt lat="47.50702" lon="6.76595">
        <ele>395</ele>
        <time>2014-12-30T09:12:53Z</time>
      </trkpt>
      <trkpt lat="47.50705" lon="6.76595">
        <ele>394</ele>
        <time>2014-12-30T09:12:54Z</time>
      </trkpt>
      <trkpt lat="47.50708" lon="6.76596">
        <ele>394</ele>
        <time>2014-12-30T09:12:55Z</time>
      </trkpt>
      <trkpt lat="47.50714" lon="6.76596">
        <ele>394</ele>
        <time>2014-12-30T09:12:56Z</time>
      </trkpt>
      <trkpt lat="47.50717" lon="6.76595">
        <ele>394</ele>
        <time>2014-12-30T09:12:57Z</time>
      </trkpt>
      <trkpt lat="47.50722" lon="6.76595">
        <ele>394</ele>
        <time>2014-12-30T09:12:58Z</time>
      </trkpt>
      <trkpt lat="47.50726" lon="6.76596">
        <ele>393</ele>
        <time>2014-12-30T09:13:00Z</time>
      </trkpt>
      <trkpt lat="47.50728" lon="6.76596">
        <ele>393</ele>
        <time>2014-12-30T09:13:01Z</time>
      </trkpt>
      <trkpt lat="47.50731" lon="6.76595">
        <ele>393</ele>
        <time>2014-12-30T09:13:02Z</time>
      </trkpt>
      <trkpt lat="47.50733" lon="6.76595">
        <ele>393</ele>
        <time>2014-12-30T09:13:03Z</time>
      </trkpt>
      <trkpt lat="47.50736" lon="6.76595">
        <ele>393</ele>
        <time>2014-12-30T09:13:04Z</time>
      </trkpt>
      <trkpt lat="47.50739" lon="6.76596">
        <ele>393</ele>
        <time>2014-12-30T09:13:05Z</time>
      </trkpt>
      <trkpt lat="47.50741" lon="6.76596">
        <ele>393</ele>
        <time>2014-12-30T09:13:06Z</time>
      </trkpt>
      <trkpt lat="47.50743" lon="6.76596">
        <ele>393</ele>
        <time>2014-12-30T09:13:07Z</time>
      </trkpt>
      <trkpt lat="47.50746" lon="6.76596">
        <ele>393</ele>
        <time>2014-12-30T09:13:08Z</time>
      </trkpt>
      <trkpt lat="47.50748" lon="6.76595">
        <ele>393</ele>
        <time>2014-12-30T09:13:09Z</time>
      </trkpt>
      <trkpt lat="47.50753" lon="6.76596">
        <ele>393</ele>
        <time>2014-12-30T09:13:11Z</time>
      </trkpt>
      <trkpt lat="47.50755" lon="6.76596">
        <ele>393</ele>
        <time>2014-12-30T09:13:12Z</time>
      </trkpt>
      <trkpt lat="47.50759" lon="6.76597">
        <ele>393</ele>
        <time>2014-12-30T09:13:14Z</time>
      </trkpt>
      <trkpt lat="47.50761" lon="6.76597">
        <ele>393</ele>
        <time>2014-12-30T09:13:15Z</time>
      </trkpt>
      <trkpt lat="47.50764" lon="6.76598">
        <ele>393</ele>
        <time>2014-12-30T09:13:17Z</time>
      </trkpt>
      <trkpt lat="47.50766" lon="6.76598">
        <ele>393</ele>
        <time>2014-12-30T09:13:18Z</time>
      </trkpt>
      <trkpt lat="47.50769" lon="6.76597">
        <ele>392</ele>
        <time>2014-12-30T09:13:20Z</time>
      </trkpt>
      <trkpt lat="47.5077" lon="6.76597">
        <ele>392</ele>
        <time>2014-12-30T09:13:21Z</time>
      </trkpt>
      <trkpt lat="47.50774" lon="6.76596">
        <ele>392</ele>
        <time>2014-12-30T09:13:23Z</time>
      </trkpt>
      <trkpt lat="47.50776" lon="6.76595">
        <ele>392</ele>
        <time>2014-12-30T09:13:24Z</time>
      </trkpt>
      <trkpt lat="47.50778" lon="6.76595">
        <ele>392</ele>
        <time>2014-12-30T09:13:25Z</time>
      </trkpt>
      <trkpt lat="47.5078" lon="6.76594">
        <ele>392</ele>
        <time>2014-12-30T09:13:26Z</time>
      </trkpt>
      <trkpt lat="47.50783" lon="6.76593">
        <ele>391</ele>
        <time>2014-12-30T09:13:27Z</time>
      </trkpt>
      <trkpt lat="47.508" lon="6.76587">
        <ele>390</ele>
        <time>2014-12-30T09:13:35Z</time>
      </trkpt>
      <trkpt lat="47.50804" lon="6.76589">
        <ele>390</ele>
        <time>2014-12-30T09:13:38Z</time>
      </trkpt>
      <trkpt lat="47.50805" lon="6.76591">
        <ele>389</ele>
        <time>2014-12-30T09:13:39Z</time>
      </trkpt>
      <trkpt lat="47.50806" lon="6.76595">
        <ele>389</ele>
        <time>2014-12-30T09:13:40Z</time>
      </trkpt>
      <trkpt lat="47.50808" lon="6.76598">
        <ele>389</ele>
        <time>2014-12-30T09:13:41Z</time>
      </trkpt>
      <trkpt lat="47.5081" lon="6.76602">
        <ele>389</ele>
        <time>2014-12-30T09:13:43Z</time>
      </trkpt>
      <trkpt lat="47.50811" lon="6.76603">
        <ele>389</ele>
        <time>2014-12-30T09:13:43Z</time>
      </trkpt>
      <trkpt lat="47.50814" lon="6.76602">
        <ele>389</ele>
        <time>2014-12-30T09:13:52Z</time>
      </trkpt>
      <trkpt lat="47.50815" lon="6.76601">
        <ele>389</ele>
        <time>2014-12-30T09:13:53Z</time>
      </trkpt>
      <trkpt lat="47.50818" lon="6.766">
        <ele>389</ele>
        <time>2014-12-30T09:13:55Z</time>
      </trkpt>
      <trkpt lat="47.5082" lon="6.76601">
        <ele>389</ele>
        <time>2014-12-30T09:13:56Z</time>
      </trkpt>
      <trkpt lat="47.50821" lon="6.76604">
        <ele>389</ele>
        <time>2014-12-30T09:13:57Z</time>
      </trkpt>
      <trkpt lat="47.50823" lon="6.76607">
        <ele>389</ele>
        <time>2014-12-30T09:13:58Z</time>
      </trkpt>
      <trkpt lat="47.50824" lon="6.76611">
        <ele>389</ele>
        <time>2014-12-30T09:13:59Z</time>
      </trkpt>
      <trkpt lat="47.50825" lon="6.76615">
        <ele>389</ele>
        <time>2014-12-30T09:14:00Z</time>
      </trkpt>
      <trkpt lat="47.50826" lon="6.7662">
        <ele>389</ele>
        <time>2014-12-30T09:14:01Z</time>
      </trkpt>
      <trkpt lat="47.50827" lon="6.76624">
        <ele>389</ele>
        <time>2014-12-30T09:14:02Z</time>
      </trkpt>
      <trkpt lat="47.50828" lon="6.76629">
        <ele>389</ele>
        <time>2014-12-30T09:14:03Z</time>
      </trkpt>
      <trkpt lat="47.50829" lon="6.76633">
        <ele>389</ele>
        <time>2014-12-30T09:14:04Z</time>
      </trkpt>
      <trkpt lat="47.5083" lon="6.76636">
        <ele>389</ele>
        <time>2014-12-30T09:14:05Z</time>
      </trkpt>
      <trkpt lat="47.50832" lon="6.76639">
        <ele>389</ele>
        <time>2014-12-30T09:14:06Z</time>
      </trkpt>
      <trkpt lat="47.50834" lon="6.76644">
        <ele>388</ele>
        <time>2014-12-30T09:14:07Z</time>
      </trkpt>
      <trkpt lat="47.50836" lon="6.76646">
        <ele>388</ele>
        <time>2014-12-30T09:14:09Z</time>
      </trkpt>
      <trkpt lat="47.50839" lon="6.7665">
        <ele>388</ele>
        <time>2014-12-30T09:14:10Z</time>
      </trkpt>
      <trkpt lat="47.50842" lon="6.76652">
        <ele>388</ele>
        <time>2014-12-30T09:14:12Z</time>
      </trkpt>
      <trkpt lat="47.50844" lon="6.76653">
        <ele>388</ele>
        <time>2014-12-30T09:14:13Z</time>
      </trkpt>
      <trkpt lat="47.50845" lon="6.76655">
        <ele>388</ele>
        <time>2014-12-30T09:14:14Z</time>
      </trkpt>
      <trkpt lat="47.50847" lon="6.76657">
        <ele>388</ele>
        <time>2014-12-30T09:14:15Z</time>
      </trkpt>
      <trkpt lat="47.50849" lon="6.7666">
        <ele>388</ele>
        <time>2014-12-30T09:14:16Z</time>
      </trkpt>
      <trkpt lat="47.5085" lon="6.76663">
        <ele>388</ele>
        <time>2014-12-30T09:14:17Z</time>
      </trkpt>
      <trkpt lat="47.50851" lon="6.76666">
        <ele>388</ele>
        <time>2014-12-30T09:14:18Z</time>
      </trkpt>
      <trkpt lat="47.50852" lon="6.7667">
        <ele>387</ele>
        <time>2014-12-30T09:14:19Z</time>
      </trkpt>
      <trkpt lat="47.50854" lon="6.76674">
        <ele>387</ele>
        <time>2014-12-30T09:14:20Z</time>
      </trkpt>
      <trkpt lat="47.50854" lon="6.76681">
        <ele>387</ele>
        <time>2014-12-30T09:14:21Z</time>
      </trkpt>
      <trkpt lat="47.50855" lon="6.76686">
        <ele>386</ele>
        <time>2014-12-30T09:14:22Z</time>
      </trkpt>
      <trkpt lat="47.50855" lon="6.76691">
        <ele>386</ele>
        <time>2014-12-30T09:14:23Z</time>
      </trkpt>
      <trkpt lat="47.50856" lon="6.76696">
        <ele>386</ele>
        <time>2014-12-30T09:14:24Z</time>
      </trkpt>
      <trkpt lat="47.50857" lon="6.76699">
        <ele>385</ele>
        <time>2014-12-30T09:14:25Z</time>
      </trkpt>
      <trkpt lat="47.50858" lon="6.76702">
        <ele>385</ele>
        <time>2014-12-30T09:14:26Z</time>
      </trkpt>
      <trkpt lat="47.50862" lon="6.76711">
        <ele>384</ele>
        <time>2014-12-30T09:14:29Z</time>
      </trkpt>
      <trkpt lat="47.50863" lon="6.76713">
        <ele>384</ele>
        <time>2014-12-30T09:14:30Z</time>
      </trkpt>
      <trkpt lat="47.50865" lon="6.76716">
        <ele>384</ele>
        <time>2014-12-30T09:14:31Z</time>
      </trkpt>
      <trkpt lat="47.50866" lon="6.76719">
        <ele>384</ele>
        <time>2014-12-30T09:14:32Z</time>
      </trkpt>
      <trkpt lat="47.50868" lon="6.76722">
        <ele>384</ele>
        <time>2014-12-30T09:14:33Z</time>
      </trkpt>
      <trkpt lat="47.5087" lon="6.76727">
        <ele>383</ele>
        <time>2014-12-30T09:14:35Z</time>
      </trkpt>
      <trkpt lat="47.5087" lon="6.76729">
        <ele>383</ele>
        <time>2014-12-30T09:14:36Z</time>
      </trkpt>
      <trkpt lat="47.50869" lon="6.76723">
        <ele>383</ele>
        <time>2014-12-30T09:14:44Z</time>
      </trkpt>
      <trkpt lat="47.50868" lon="6.76722">
        <ele>383</ele>
        <time>2014-12-30T09:14:45Z</time>
      </trkpt>
      <trkpt lat="47.50871" lon="6.76726">
        <ele>383</ele>
        <time>2014-12-30T09:15:11Z</time>
      </trkpt>
      <trkpt lat="47.50872" lon="6.76731">
        <ele>383</ele>
        <time>2014-12-30T09:15:12Z</time>
      </trkpt>
      <trkpt lat="47.50873" lon="6.76736">
        <ele>383</ele>
        <time>2014-12-30T09:15:13Z</time>
      </trkpt>
      <trkpt lat="47.50874" lon="6.76741">
        <ele>382</ele>
        <time>2014-12-30T09:15:14Z</time>
      </trkpt>
      <trkpt lat="47.50875" lon="6.76745">
        <ele>382</ele>
        <time>2014-12-30T09:15:15Z</time>
      </trkpt>
      <trkpt lat="47.50876" lon="6.76749">
        <ele>382</ele>
        <time>2014-12-30T09:15:16Z</time>
      </trkpt>
      <trkpt lat="47.50878" lon="6.76752">
        <ele>381</ele>
        <time>2014-12-30T09:15:17Z</time>
      </trkpt>
      <trkpt lat="47.50879" lon="6.76756">
        <ele>381</ele>
        <time>2014-12-30T09:15:18Z</time>
      </trkpt>
      <trkpt lat="47.5088" lon="6.7676">
        <ele>381</ele>
        <time>2014-12-30T09:15:19Z</time>
      </trkpt>
      <trkpt lat="47.50882" lon="6.76763">
        <ele>380</ele>
        <time>2014-12-30T09:15:20Z</time>
      </trkpt>
      <trkpt lat="47.50883" lon="6.76767">
        <ele>380</ele>
        <time>2014-12-30T09:15:21Z</time>
      </trkpt>
      <trkpt lat="47.50884" lon="6.7677">
        <ele>380</ele>
        <time>2014-12-30T09:15:22Z</time>
      </trkpt>
      <trkpt lat="47.50885" lon="6.76774">
        <ele>380</ele>
        <time>2014-12-30T09:15:22Z</time>
      </trkpt>
      <trkpt lat="47.50887" lon="6.76778">
        <ele>380</ele>
        <time>2014-12-30T09:15:24Z</time>
      </trkpt>
      <trkpt lat="47.50887" lon="6.76783">
        <ele>380</ele>
        <time>2014-12-30T09:15:25Z</time>
      </trkpt>
      <trkpt lat="47.50888" lon="6.76788">
        <ele>380</ele>
        <time>2014-12-30T09:15:26Z</time>
      </trkpt>
      <trkpt lat="47.50892" lon="6.76802">
        <ele>380</ele>
        <time>2014-12-30T09:15:29Z</time>
      </trkpt>
      <trkpt lat="47.50893" lon="6.76805">
        <ele>380</ele>
        <time>2014-12-30T09:15:30Z</time>
      </trkpt>
      <trkpt lat="47.50894" lon="6.76808">
        <ele>380</ele>
        <time>2014-12-30T09:15:31Z</time>
      </trkpt>
      <trkpt lat="47.50896" lon="6.76811">
        <ele>380</ele>
        <time>2014-12-30T09:15:32Z</time>
      </trkpt>
      <trkpt lat="47.50897" lon="6.76814">
        <ele>380</ele>
        <time>2014-12-30T09:15:33Z</time>
      </trkpt>
      <trkpt lat="47.50898" lon="6.76818">
        <ele>380</ele>
        <time>2014-12-30T09:15:34Z</time>
      </trkpt>
      <trkpt lat="47.509" lon="6.76821">
        <ele>380</ele>
        <time>2014-12-30T09:15:35Z</time>
      </trkpt>
      <trkpt lat="47.50901" lon="6.76825">
        <ele>380</ele>
        <time>2014-12-30T09:15:36Z</time>
      </trkpt>
      <trkpt lat="47.50902" lon="6.76832">
        <ele>380</ele>
        <time>2014-12-30T09:15:37Z</time>
      </trkpt>
      <trkpt lat="47.50903" lon="6.76836">
        <ele>379</ele>
        <time>2014-12-30T09:15:38Z</time>
      </trkpt>
      <trkpt lat="47.50904" lon="6.76838">
        <ele>379</ele>
        <time>2014-12-30T09:15:39Z</time>
      </trkpt>
      <trkpt lat="47.50904" lon="6.76845">
        <ele>379</ele>
        <time>2014-12-30T09:15:40Z</time>
      </trkpt>
      <trkpt lat="47.50905" lon="6.76852">
        <ele>379</ele>
        <time>2014-12-30T09:15:40Z</time>
      </trkpt>
      <trkpt lat="47.50906" lon="6.76855">
        <ele>379</ele>
        <time>2014-12-30T09:15:42Z</time>
      </trkpt>
      <trkpt lat="47.50907" lon="6.76859">
        <ele>379</ele>
        <time>2014-12-30T09:15:42Z</time>
      </trkpt>
      <trkpt lat="47.50906" lon="6.76864">
        <ele>379</ele>
        <time>2014-12-30T09:15:44Z</time>
      </trkpt>
      <trkpt lat="47.50906" lon="6.76869">
        <ele>379</ele>
        <time>2014-12-30T09:15:45Z</time>
      </trkpt>
      <trkpt lat="47.50909" lon="6.76871">
        <ele>379</ele>
        <time>2014-12-30T09:15:46Z</time>
      </trkpt>
      <trkpt lat="47.5091" lon="6.76875">
        <ele>379</ele>
        <time>2014-12-30T09:15:47Z</time>
      </trkpt>
      <trkpt lat="47.50913" lon="6.76877">
        <ele>378</ele>
        <time>2014-12-30T09:15:49Z</time>
      </trkpt>
      <trkpt lat="47.50915" lon="6.7688">
        <ele>378</ele>
        <time>2014-12-30T09:15:50Z</time>
      </trkpt>
      <trkpt lat="47.50915" lon="6.76884">
        <ele>378</ele>
        <time>2014-12-30T09:15:51Z</time>
      </trkpt>
      <trkpt lat="47.50917" lon="6.76887">
        <ele>378</ele>
        <time>2014-12-30T09:15:52Z</time>
      </trkpt>
      <trkpt lat="47.50919" lon="6.76889">
        <ele>378</ele>
        <time>2014-12-30T09:15:53Z</time>
      </trkpt>
      <trkpt lat="47.50922" lon="6.76891">
        <ele>378</ele>
        <time>2014-12-30T09:15:54Z</time>
      </trkpt>
      <trkpt lat="47.50924" lon="6.76892">
        <ele>378</ele>
        <time>2014-12-30T09:15:55Z</time>
      </trkpt>
      <trkpt lat="47.50926" lon="6.76894">
        <ele>378</ele>
        <time>2014-12-30T09:15:56Z</time>
      </trkpt>
      <trkpt lat="47.50928" lon="6.76896">
        <ele>378</ele>
        <time>2014-12-30T09:15:57Z</time>
      </trkpt>
      <trkpt lat="47.5093" lon="6.769">
        <ele>378</ele>
        <time>2014-12-30T09:15:58Z</time>
      </trkpt>
      <trkpt lat="47.50931" lon="6.76904">
        <ele>378</ele>
        <time>2014-12-30T09:15:59Z</time>
      </trkpt>
      <trkpt lat="47.50934" lon="6.76904">
        <ele>378</ele>
        <time>2014-12-30T09:16:00Z</time>
      </trkpt>
      <trkpt lat="47.50936" lon="6.76907">
        <ele>377</ele>
        <time>2014-12-30T09:16:01Z</time>
      </trkpt>
      <trkpt lat="47.50939" lon="6.76906">
        <ele>377</ele>
        <time>2014-12-30T09:16:02Z</time>
      </trkpt>
      <trkpt lat="47.50941" lon="6.76907">
        <ele>377</ele>
        <time>2014-12-30T09:16:03Z</time>
      </trkpt>
      <trkpt lat="47.50944" lon="6.76908">
        <ele>377</ele>
        <time>2014-12-30T09:16:04Z</time>
      </trkpt>
      <trkpt lat="47.50946" lon="6.76909">
        <ele>377</ele>
        <time>2014-12-30T09:16:05Z</time>
      </trkpt>
      <trkpt lat="47.50949" lon="6.7691">
        <ele>377</ele>
        <time>2014-12-30T09:16:06Z</time>
      </trkpt>
      <trkpt lat="47.50952" lon="6.7691">
        <ele>377</ele>
        <time>2014-12-30T09:16:07Z</time>
      </trkpt>
      <trkpt lat="47.50954" lon="6.7691">
        <ele>377</ele>
        <time>2014-12-30T09:16:08Z</time>
      </trkpt>
      <trkpt lat="47.50956" lon="6.76911">
        <ele>377</ele>
        <time>2014-12-30T09:16:09Z</time>
      </trkpt>
      <trkpt lat="47.50959" lon="6.76912">
        <ele>377</ele>
        <time>2014-12-30T09:16:10Z</time>
      </trkpt>
      <trkpt lat="47.50963" lon="6.76913">
        <ele>377</ele>
        <time>2014-12-30T09:16:12Z</time>
      </trkpt>
      <trkpt lat="47.50965" lon="6.76913">
        <ele>376</ele>
        <time>2014-12-30T09:16:13Z</time>
      </trkpt>
      <trkpt lat="47.50969" lon="6.76913">
        <ele>376</ele>
        <time>2014-12-30T09:16:15Z</time>
      </trkpt>
      <trkpt lat="47.50971" lon="6.76912">
        <ele>376</ele>
        <time>2014-12-30T09:16:16Z</time>
      </trkpt>
      <trkpt lat="47.50974" lon="6.76911">
        <ele>376</ele>
        <time>2014-12-30T09:16:17Z</time>
      </trkpt>
      <trkpt lat="47.50976" lon="6.76909">
        <ele>376</ele>
        <time>2014-12-30T09:16:18Z</time>
      </trkpt>
      <trkpt lat="47.50979" lon="6.76907">
        <ele>376</ele>
        <time>2014-12-30T09:16:19Z</time>
      </trkpt>
      <trkpt lat="47.50981" lon="6.76906">
        <ele>376</ele>
        <time>2014-12-30T09:16:20Z</time>
      </trkpt>
      <trkpt lat="47.50983" lon="6.76906">
        <ele>376</ele>
        <time>2014-12-30T09:16:21Z</time>
      </trkpt>
      <trkpt lat="47.50986" lon="6.76907">
        <ele>376</ele>
        <time>2014-12-30T09:16:22Z</time>
      </trkpt>
      <trkpt lat="47.50988" lon="6.76908">
        <ele>376</ele>
        <time>2014-12-30T09:16:23Z</time>
      </trkpt>
      <trkpt lat="47.5099" lon="6.76909">
        <ele>376</ele>
        <time>2014-12-30T09:16:24Z</time>
      </trkpt>
      <trkpt lat="47.50992" lon="6.76911">
        <ele>376</ele>
        <time>2014-12-30T09:16:25Z</time>
      </trkpt>
      <trkpt lat="47.50994" lon="6.76913">
        <ele>376</ele>
        <time>2014-12-30T09:16:26Z</time>
      </trkpt>
      <trkpt lat="47.50999" lon="6.7692">
        <ele>375</ele>
        <time>2014-12-30T09:16:29Z</time>
      </trkpt>
      <trkpt lat="47.51003" lon="6.76919">
        <ele>375</ele>
        <time>2014-12-30T09:16:31Z</time>
      </trkpt>
      <trkpt lat="47.51005" lon="6.76919">
        <ele>375</ele>
        <time>2014-12-30T09:16:32Z</time>
      </trkpt>
      <trkpt lat="47.51009" lon="6.76919">
        <ele>375</ele>
        <time>2014-12-30T09:16:34Z</time>
      </trkpt>
      <trkpt lat="47.51011" lon="6.7692">
        <ele>375</ele>
        <time>2014-12-30T09:16:35Z</time>
      </trkpt>
      <trkpt lat="47.51012" lon="6.76922">
        <ele>375</ele>
        <time>2014-12-30T09:16:36Z</time>
      </trkpt>
      <trkpt lat="47.51014" lon="6.76924">
        <ele>375</ele>
        <time>2014-12-30T09:16:37Z</time>
      </trkpt>
      <trkpt lat="47.51016" lon="6.76926">
        <ele>375</ele>
        <time>2014-12-30T09:16:38Z</time>
      </trkpt>
      <trkpt lat="47.51018" lon="6.76928">
        <ele>375</ele>
        <time>2014-12-30T09:16:39Z</time>
      </trkpt>
      <trkpt lat="47.51021" lon="6.7693">
        <ele>375</ele>
        <time>2014-12-30T09:16:40Z</time>
      </trkpt>
      <trkpt lat="47.51022" lon="6.76932">
        <ele>375</ele>
        <time>2014-12-30T09:16:41Z</time>
      </trkpt>
      <trkpt lat="47.51024" lon="6.76935">
        <ele>375</ele>
        <time>2014-12-30T09:16:42Z</time>
      </trkpt>
      <trkpt lat="47.51026" lon="6.76936">
        <ele>375</ele>
        <time>2014-12-30T09:16:43Z</time>
      </trkpt>
      <trkpt lat="47.51028" lon="6.76938">
        <ele>375</ele>
        <time>2014-12-30T09:16:44Z</time>
      </trkpt>
      <trkpt lat="47.51031" lon="6.76941">
        <ele>375</ele>
        <time>2014-12-30T09:16:45Z</time>
      </trkpt>
      <trkpt lat="47.51033" lon="6.76943">
        <ele>374</ele>
        <time>2014-12-30T09:16:46Z</time>
      </trkpt>
      <trkpt lat="47.51034" lon="6.76944">
        <ele>374</ele>
        <time>2014-12-30T09:16:47Z</time>
      </trkpt>
      <trkpt lat="47.51038" lon="6.76947">
        <ele>374</ele>
        <time>2014-12-30T09:16:49Z</time>
      </trkpt>
      <trkpt lat="47.5104" lon="6.76949">
        <ele>374</ele>
        <time>2014-12-30T09:16:50Z</time>
      </trkpt>
      <trkpt lat="47.51042" lon="6.76951">
        <ele>374</ele>
        <time>2014-12-30T09:16:51Z</time>
      </trkpt>
      <trkpt lat="47.51044" lon="6.76953">
        <ele>374</ele>
        <time>2014-12-30T09:16:52Z</time>
      </trkpt>
      <trkpt lat="47.51046" lon="6.76955">
        <ele>374</ele>
        <time>2014-12-30T09:16:53Z</time>
      </trkpt>
      <trkpt lat="47.51048" lon="6.76958">
        <ele>374</ele>
        <time>2014-12-30T09:16:54Z</time>
      </trkpt>
      <trkpt lat="47.5105" lon="6.7696">
        <ele>374</ele>
        <time>2014-12-30T09:16:55Z</time>
      </trkpt>
      <trkpt lat="47.51051" lon="6.76962">
        <ele>374</ele>
        <time>2014-12-30T09:16:56Z</time>
      </trkpt>
      <trkpt lat="47.51053" lon="6.76965">
        <ele>374</ele>
        <time>2014-12-30T09:16:57Z</time>
      </trkpt>
      <trkpt lat="47.51054" lon="6.76967">
        <ele>374</ele>
        <time>2014-12-30T09:16:58Z</time>
      </trkpt>
      <trkpt lat="47.51056" lon="6.7697">
        <ele>374</ele>
        <time>2014-12-30T09:16:59Z</time>
      </trkpt>
      <trkpt lat="47.51059" lon="6.76972">
        <ele>374</ele>
        <time>2014-12-30T09:17:00Z</time>
      </trkpt>
      <trkpt lat="47.51061" lon="6.76974">
        <ele>374</ele>
        <time>2014-12-30T09:17:01Z</time>
      </trkpt>
      <trkpt lat="47.51063" lon="6.76976">
        <ele>374</ele>
        <time>2014-12-30T09:17:02Z</time>
      </trkpt>
      <trkpt lat="47.51065" lon="6.76978">
        <ele>374</ele>
        <time>2014-12-30T09:17:03Z</time>
      </trkpt>
      <trkpt lat="47.51067" lon="6.7698">
        <ele>374</ele>
        <time>2014-12-30T09:17:04Z</time>
      </trkpt>
      <trkpt lat="47.5107" lon="6.76982">
        <ele>374</ele>
        <time>2014-12-30T09:17:05Z</time>
      </trkpt>
      <trkpt lat="47.51072" lon="6.76984">
        <ele>374</ele>
        <time>2014-12-30T09:17:06Z</time>
      </trkpt>
      <trkpt lat="47.51074" lon="6.76986">
        <ele>374</ele>
        <time>2014-12-30T09:17:07Z</time>
      </trkpt>
      <trkpt lat="47.51076" lon="6.76988">
        <ele>374</ele>
        <time>2014-12-30T09:17:08Z</time>
      </trkpt>
      <trkpt lat="47.51078" lon="6.7699">
        <ele>374</ele>
        <time>2014-12-30T09:17:09Z</time>
      </trkpt>
      <trkpt lat="47.51081" lon="6.76993">
        <ele>374</ele>
        <time>2014-12-30T09:17:10Z</time>
      </trkpt>
      <trkpt lat="47.51083" lon="6.76995">
        <ele>374</ele>
        <time>2014-12-30T09:17:11Z</time>
      </trkpt>
      <trkpt lat="47.51086" lon="6.76997">
        <ele>374</ele>
        <time>2014-12-30T09:17:12Z</time>
      </trkpt>
      <trkpt lat="47.51088" lon="6.77">
        <ele>374</ele>
        <time>2014-12-30T09:17:13Z</time>
      </trkpt>
      <trkpt lat="47.5109" lon="6.77002">
        <ele>374</ele>
        <time>2014-12-30T09:17:14Z</time>
      </trkpt>
      <trkpt lat="47.51092" lon="6.77004">
        <ele>374</ele>
        <time>2014-12-30T09:17:15Z</time>
      </trkpt>
      <trkpt lat="47.51094" lon="6.77006">
        <ele>374</ele>
        <time>2014-12-30T09:17:16Z</time>
      </trkpt>
      <trkpt lat="47.51096" lon="6.77009">
        <ele>374</ele>
        <time>2014-12-30T09:17:17Z</time>
      </trkpt>
      <trkpt lat="47.51098" lon="6.77011">
        <ele>374</ele>
        <time>2014-12-30T09:17:18Z</time>
      </trkpt>
      <trkpt lat="47.511" lon="6.77014">
        <ele>374</ele>
        <time>2014-12-30T09:17:19Z</time>
      </trkpt>
      <trkpt lat="47.51102" lon="6.77016">
        <ele>374</ele>
        <time>2014-12-30T09:17:20Z</time>
      </trkpt>
      <trkpt lat="47.51106" lon="6.77017">
        <ele>374</ele>
        <time>2014-12-30T09:17:22Z</time>
      </trkpt>
      <trkpt lat="47.51108" lon="6.77016">
        <ele>374</ele>
        <time>2014-12-30T09:17:23Z</time>
      </trkpt>
      <trkpt lat="47.51111" lon="6.77016">
        <ele>374</ele>
        <time>2014-12-30T09:17:24Z</time>
      </trkpt>
      <trkpt lat="47.51113" lon="6.77016">
        <ele>374</ele>
        <time>2014-12-30T09:17:25Z</time>
      </trkpt>
      <trkpt lat="47.51116" lon="6.77018">
        <ele>374</ele>
        <time>2014-12-30T09:17:26Z</time>
      </trkpt>
      <trkpt lat="47.5113" lon="6.77037">
        <ele>375</ele>
        <time>2014-12-30T09:17:33Z</time>
      </trkpt>
      <trkpt lat="47.51132" lon="6.77039">
        <ele>375</ele>
        <time>2014-12-30T09:17:35Z</time>
      </trkpt>
      <trkpt lat="47.51134" lon="6.77041">
        <ele>375</ele>
        <time>2014-12-30T09:17:36Z</time>
      </trkpt>
      <trkpt lat="47.51137" lon="6.77042">
        <ele>375</ele>
        <time>2014-12-30T09:17:37Z</time>
      </trkpt>
      <trkpt lat="47.51139" lon="6.77044">
        <ele>375</ele>
        <time>2014-12-30T09:17:38Z</time>
      </trkpt>
      <trkpt lat="47.51141" lon="6.77046">
        <ele>375</ele>
        <time>2014-12-30T09:17:39Z</time>
      </trkpt>
      <trkpt lat="47.51144" lon="6.77047">
        <ele>376</ele>
        <time>2014-12-30T09:17:40Z</time>
      </trkpt>
      <trkpt lat="47.51147" lon="6.77049">
        <ele>376</ele>
        <time>2014-12-30T09:17:41Z</time>
      </trkpt>
      <trkpt lat="47.5115" lon="6.7705">
        <ele>376</ele>
        <time>2014-12-30T09:17:42Z</time>
      </trkpt>
      <trkpt lat="47.51153" lon="6.77053">
        <ele>376</ele>
        <time>2014-12-30T09:17:44Z</time>
      </trkpt>
      <trkpt lat="47.51154" lon="6.77055">
        <ele>376</ele>
        <time>2014-12-30T09:17:45Z</time>
      </trkpt>
      <trkpt lat="47.51154" lon="6.77061">
        <ele>377</ele>
        <time>2014-12-30T09:17:47Z</time>
      </trkpt>
      <trkpt lat="47.51154" lon="6.77065">
        <ele>377</ele>
        <time>2014-12-30T09:17:48Z</time>
      </trkpt>
      <trkpt lat="47.51155" lon="6.77068">
        <ele>377</ele>
        <time>2014-12-30T09:17:49Z</time>
      </trkpt>
      <trkpt lat="47.51157" lon="6.77071">
        <ele>377</ele>
        <time>2014-12-30T09:17:50Z</time>
      </trkpt>
      <trkpt lat="47.5116" lon="6.77074">
        <ele>377</ele>
        <time>2014-12-30T09:17:51Z</time>
      </trkpt>
      <trkpt lat="47.51162" lon="6.77076">
        <ele>377</ele>
        <time>2014-12-30T09:17:52Z</time>
      </trkpt>
      <trkpt lat="47.51164" lon="6.77079">
        <ele>377</ele>
        <time>2014-12-30T09:17:53Z</time>
      </trkpt>
      <trkpt lat="47.51166" lon="6.77082">
        <ele>377</ele>
        <time>2014-12-30T09:17:54Z</time>
      </trkpt>
      <trkpt lat="47.51167" lon="6.77085">
        <ele>377</ele>
        <time>2014-12-30T09:17:55Z</time>
      </trkpt>
      <trkpt lat="47.51169" lon="6.77088">
        <ele>377</ele>
        <time>2014-12-30T09:17:56Z</time>
      </trkpt>
      <trkpt lat="47.51171" lon="6.77092">
        <ele>377</ele>
        <time>2014-12-30T09:17:57Z</time>
      </trkpt>
      <trkpt lat="47.51173" lon="6.77095">
        <ele>377</ele>
        <time>2014-12-30T09:17:57Z</time>
      </trkpt>
      <trkpt lat="47.51174" lon="6.77099">
        <ele>377</ele>
        <time>2014-12-30T09:17:59Z</time>
      </trkpt>
      <trkpt lat="47.51176" lon="6.77103">
        <ele>377</ele>
        <time>2014-12-30T09:18:00Z</time>
      </trkpt>
      <trkpt lat="47.51177" lon="6.77105">
        <ele>377</ele>
        <time>2014-12-30T09:18:01Z</time>
      </trkpt>
      <trkpt lat="47.51179" lon="6.77108">
        <ele>377</ele>
        <time>2014-12-30T09:18:02Z</time>
      </trkpt>
      <trkpt lat="47.51181" lon="6.7711">
        <ele>377</ele>
        <time>2014-12-30T09:18:03Z</time>
      </trkpt>
      <trkpt lat="47.51183" lon="6.77112">
        <ele>377</ele>
        <time>2014-12-30T09:18:04Z</time>
      </trkpt>
      <trkpt lat="47.51186" lon="6.77117">
        <ele>377</ele>
        <time>2014-12-30T09:18:06Z</time>
      </trkpt>
      <trkpt lat="47.51188" lon="6.77119">
        <ele>377</ele>
        <time>2014-12-30T09:18:07Z</time>
      </trkpt>
      <trkpt lat="47.51189" lon="6.77122">
        <ele>377</ele>
        <time>2014-12-30T09:18:08Z</time>
      </trkpt>
      <trkpt lat="47.5119" lon="6.77125">
        <ele>377</ele>
        <time>2014-12-30T09:18:09Z</time>
      </trkpt>
      <trkpt lat="47.51192" lon="6.77129">
        <ele>377</ele>
        <time>2014-12-30T09:18:10Z</time>
      </trkpt>
      <trkpt lat="47.51194" lon="6.77132">
        <ele>377</ele>
        <time>2014-12-30T09:18:11Z</time>
      </trkpt>
      <trkpt lat="47.51195" lon="6.77135">
        <ele>377</ele>
        <time>2014-12-30T09:18:12Z</time>
      </trkpt>
      <trkpt lat="47.51197" lon="6.77138">
        <ele>377</ele>
        <time>2014-12-30T09:18:13Z</time>
      </trkpt>
      <trkpt lat="47.51199" lon="6.77141">
        <ele>377</ele>
        <time>2014-12-30T09:18:14Z</time>
      </trkpt>
      <trkpt lat="47.51201" lon="6.77145">
        <ele>377</ele>
        <time>2014-12-30T09:18:15Z</time>
      </trkpt>
      <trkpt lat="47.51203" lon="6.77148">
        <ele>377</ele>
        <time>2014-12-30T09:18:16Z</time>
      </trkpt>
      <trkpt lat="47.51204" lon="6.77151">
        <ele>377</ele>
        <time>2014-12-30T09:18:17Z</time>
      </trkpt>
      <trkpt lat="47.51206" lon="6.77155">
        <ele>377</ele>
        <time>2014-12-30T09:18:18Z</time>
      </trkpt>
      <trkpt lat="47.51207" lon="6.7716">
        <ele>377</ele>
        <time>2014-12-30T09:18:19Z</time>
      </trkpt>
      <trkpt lat="47.51208" lon="6.77164">
        <ele>377</ele>
        <time>2014-12-30T09:18:20Z</time>
      </trkpt>
      <trkpt lat="47.5121" lon="6.77168">
        <ele>376</ele>
        <time>2014-12-30T09:18:21Z</time>
      </trkpt>
      <trkpt lat="47.51211" lon="6.77172">
        <ele>376</ele>
        <time>2014-12-30T09:18:22Z</time>
      </trkpt>
      <trkpt lat="47.51213" lon="6.77175">
        <ele>376</ele>
        <time>2014-12-30T09:18:23Z</time>
      </trkpt>
      <trkpt lat="47.51214" lon="6.77178">
        <ele>376</ele>
        <time>2014-12-30T09:18:24Z</time>
      </trkpt>
      <trkpt lat="47.51216" lon="6.77181">
        <ele>376</ele>
        <time>2014-12-30T09:18:25Z</time>
      </trkpt>
      <trkpt lat="47.51218" lon="6.77184">
        <ele>376</ele>
        <time>2014-12-30T09:18:26Z</time>
      </trkpt>
      <trkpt lat="47.51221" lon="6.77187">
        <ele>377</ele>
        <time>2014-12-30T09:18:27Z</time>
      </trkpt>
      <trkpt lat="47.51227" lon="6.77197">
        <ele>377</ele>
        <time>2014-12-30T09:18:30Z</time>
      </trkpt>
      <trkpt lat="47.51228" lon="6.77201">
        <ele>377</ele>
        <time>2014-12-30T09:18:31Z</time>
      </trkpt>
      <trkpt lat="47.5123" lon="6.77207">
        <ele>377</ele>
        <time>2014-12-30T09:18:32Z</time>
      </trkpt>
      <trkpt lat="47.5123" lon="6.77213">
        <ele>377</ele>
        <time>2014-12-30T09:18:33Z</time>
      </trkpt>
      <trkpt lat="47.51231" lon="6.77216">
        <ele>377</ele>
        <time>2014-12-30T09:18:34Z</time>
      </trkpt>
      <trkpt lat="47.51231" lon="6.7722">
        <ele>377</ele>
        <time>2014-12-30T09:18:35Z</time>
      </trkpt>
      <trkpt lat="47.51234" lon="6.77222">
        <ele>377</ele>
        <time>2014-12-30T09:18:36Z</time>
      </trkpt>
      <trkpt lat="47.51234" lon="6.77227">
        <ele>377</ele>
        <time>2014-12-30T09:18:37Z</time>
      </trkpt>
      <trkpt lat="47.51236" lon="6.7723">
        <ele>378</ele>
        <time>2014-12-30T09:18:38Z</time>
      </trkpt>
      <trkpt lat="47.51238" lon="6.77233">
        <ele>378</ele>
        <time>2014-12-30T09:18:39Z</time>
      </trkpt>
      <trkpt lat="47.5124" lon="6.77235">
        <ele>378</ele>
        <time>2014-12-30T09:18:40Z</time>
      </trkpt>
      <trkpt lat="47.51241" lon="6.77238">
        <ele>378</ele>
        <time>2014-12-30T09:18:41Z</time>
      </trkpt>
      <trkpt lat="47.51243" lon="6.77241">
        <ele>378</ele>
        <time>2014-12-30T09:18:42Z</time>
      </trkpt>
      <trkpt lat="47.51245" lon="6.77243">
        <ele>378</ele>
        <time>2014-12-30T09:18:43Z</time>
      </trkpt>
      <trkpt lat="47.51247" lon="6.77246">
        <ele>378</ele>
        <time>2014-12-30T09:18:44Z</time>
      </trkpt>
      <trkpt lat="47.51249" lon="6.77249">
        <ele>378</ele>
        <time>2014-12-30T09:18:45Z</time>
      </trkpt>
      <trkpt lat="47.51252" lon="6.77252">
        <ele>378</ele>
        <time>2014-12-30T09:18:46Z</time>
      </trkpt>
      <trkpt lat="47.51254" lon="6.77255">
        <ele>378</ele>
        <time>2014-12-30T09:18:47Z</time>
      </trkpt>
      <trkpt lat="47.51256" lon="6.77257">
        <ele>378</ele>
        <time>2014-12-30T09:18:48Z</time>
      </trkpt>
      <trkpt lat="47.51257" lon="6.7726">
        <ele>378</ele>
        <time>2014-12-30T09:18:48Z</time>
      </trkpt>
      <trkpt lat="47.51259" lon="6.77261">
        <ele>378</ele>
        <time>2014-12-30T09:18:50Z</time>
      </trkpt>
      <trkpt lat="47.51263" lon="6.77264">
        <ele>378</ele>
        <time>2014-12-30T09:18:52Z</time>
      </trkpt>
      <trkpt lat="47.51265" lon="6.77266">
        <ele>377</ele>
        <time>2014-12-30T09:18:52Z</time>
      </trkpt>
      <trkpt lat="47.51269" lon="6.77268">
        <ele>377</ele>
        <time>2014-12-30T09:18:55Z</time>
      </trkpt>
      <trkpt lat="47.5127" lon="6.77269">
        <ele>377</ele>
        <time>2014-12-30T09:18:56Z</time>
      </trkpt>
      <trkpt lat="47.51273" lon="6.77271">
        <ele>377</ele>
        <time>2014-12-30T09:18:57Z</time>
      </trkpt>
      <trkpt lat="47.51276" lon="6.77272">
        <ele>376</ele>
        <time>2014-12-30T09:18:58Z</time>
      </trkpt>
      <trkpt lat="47.51278" lon="6.77274">
        <ele>376</ele>
        <time>2014-12-30T09:18:59Z</time>
      </trkpt>
      <trkpt lat="47.51282" lon="6.77274">
        <ele>376</ele>
        <time>2014-12-30T09:19:00Z</time>
      </trkpt>
      <trkpt lat="47.51285" lon="6.77275">
        <ele>376</ele>
        <time>2014-12-30T09:19:01Z</time>
      </trkpt>
      <trkpt lat="47.51287" lon="6.77275">
        <ele>376</ele>
        <time>2014-12-30T09:19:02Z</time>
      </trkpt>
      <trkpt lat="47.51291" lon="6.77276">
        <ele>377</ele>
        <time>2014-12-30T09:19:04Z</time>
      </trkpt>
      <trkpt lat="47.51294" lon="6.77277">
        <ele>377</ele>
        <time>2014-12-30T09:19:05Z</time>
      </trkpt>
      <trkpt lat="47.51297" lon="6.77278">
        <ele>377</ele>
        <time>2014-12-30T09:19:06Z</time>
      </trkpt>
      <trkpt lat="47.51299" lon="6.77279">
        <ele>377</ele>
        <time>2014-12-30T09:19:07Z</time>
      </trkpt>
      <trkpt lat="47.51302" lon="6.7728">
        <ele>377</ele>
        <time>2014-12-30T09:19:08Z</time>
      </trkpt>
      <trkpt lat="47.51304" lon="6.77281">
        <ele>377</ele>
        <time>2014-12-30T09:19:09Z</time>
      </trkpt>
      <trkpt lat="47.51308" lon="6.77285">
        <ele>377</ele>
        <time>2014-12-30T09:19:11Z</time>
      </trkpt>
      <trkpt lat="47.51309" lon="6.77287">
        <ele>377</ele>
        <time>2014-12-30T09:19:12Z</time>
      </trkpt>
      <trkpt lat="47.51311" lon="6.77288">
        <ele>378</ele>
        <time>2014-12-30T09:19:13Z</time>
      </trkpt>
      <trkpt lat="47.51313" lon="6.7729">
        <ele>378</ele>
        <time>2014-12-30T09:19:14Z</time>
      </trkpt>
      <trkpt lat="47.51315" lon="6.77291">
        <ele>378</ele>
        <time>2014-12-30T09:19:15Z</time>
      </trkpt>
      <trkpt lat="47.51318" lon="6.77291">
        <ele>378</ele>
        <time>2014-12-30T09:19:16Z</time>
      </trkpt>
      <trkpt lat="47.51321" lon="6.77292">
        <ele>378</ele>
        <time>2014-12-30T09:19:16Z</time>
      </trkpt>
      <trkpt lat="47.51324" lon="6.77292">
        <ele>378</ele>
        <time>2014-12-30T09:19:18Z</time>
      </trkpt>
      <trkpt lat="47.51327" lon="6.77291">
        <ele>378</ele>
        <time>2014-12-30T09:19:19Z</time>
      </trkpt>
      <trkpt lat="47.51334" lon="6.77287">
        <ele>378</ele>
        <time>2014-12-30T09:19:20Z</time>
      </trkpt>
      <trkpt lat="47.51337" lon="6.77285">
        <ele>378</ele>
        <time>2014-12-30T09:19:21Z</time>
      </trkpt>
      <trkpt lat="47.5134" lon="6.77284">
        <ele>378</ele>
        <time>2014-12-30T09:19:22Z</time>
      </trkpt>
      <trkpt lat="47.51341" lon="6.77282">
        <ele>378</ele>
        <time>2014-12-30T09:19:23Z</time>
      </trkpt>
      <trkpt lat="47.51344" lon="6.7728">
        <ele>378</ele>
        <time>2014-12-30T09:19:24Z</time>
      </trkpt>
      <trkpt lat="47.51346" lon="6.77277">
        <ele>377</ele>
        <time>2014-12-30T09:19:25Z</time>
      </trkpt>
      <trkpt lat="47.51348" lon="6.77275">
        <ele>377</ele>
        <time>2014-12-30T09:19:26Z</time>
      </trkpt>
      <trkpt lat="47.51355" lon="6.77267">
        <ele>377</ele>
        <time>2014-12-30T09:19:29Z</time>
      </trkpt>
      <trkpt lat="47.51357" lon="6.77264">
        <ele>377</ele>
        <time>2014-12-30T09:19:30Z</time>
      </trkpt>
      <trkpt lat="47.51359" lon="6.77262">
        <ele>377</ele>
        <time>2014-12-30T09:19:32Z</time>
      </trkpt>
      <trkpt lat="47.51361" lon="6.7726">
        <ele>377</ele>
        <time>2014-12-30T09:19:33Z</time>
      </trkpt>
      <trkpt lat="47.51364" lon="6.77257">
        <ele>377</ele>
        <time>2014-12-30T09:19:34Z</time>
      </trkpt>
      <trkpt lat="47.51366" lon="6.77254">
        <ele>377</ele>
        <time>2014-12-30T09:19:35Z</time>
      </trkpt>
      <trkpt lat="47.51368" lon="6.77251">
        <ele>377</ele>
        <time>2014-12-30T09:19:36Z</time>
      </trkpt>
      <trkpt lat="47.5137" lon="6.77249">
        <ele>376</ele>
        <time>2014-12-30T09:19:37Z</time>
      </trkpt>
      <trkpt lat="47.51373" lon="6.77247">
        <ele>376</ele>
        <time>2014-12-30T09:19:38Z</time>
      </trkpt>
      <trkpt lat="47.51375" lon="6.77246">
        <ele>375</ele>
        <time>2014-12-30T09:19:39Z</time>
      </trkpt>
      <trkpt lat="47.51378" lon="6.77244">
        <ele>375</ele>
        <time>2014-12-30T09:19:40Z</time>
      </trkpt>
      <trkpt lat="47.51381" lon="6.77243">
        <ele>375</ele>
        <time>2014-12-30T09:19:41Z</time>
      </trkpt>
      <trkpt lat="47.51384" lon="6.77242">
        <ele>375</ele>
        <time>2014-12-30T09:19:42Z</time>
      </trkpt>
      <trkpt lat="47.51386" lon="6.77241">
        <ele>375</ele>
        <time>2014-12-30T09:19:43Z</time>
      </trkpt>
      <trkpt lat="47.51389" lon="6.7724">
        <ele>375</ele>
        <time>2014-12-30T09:19:44Z</time>
      </trkpt>
      <trkpt lat="47.51392" lon="6.77239">
        <ele>375</ele>
        <time>2014-12-30T09:19:45Z</time>
      </trkpt>
      <trkpt lat="47.51394" lon="6.77238">
        <ele>375</ele>
        <time>2014-12-30T09:19:46Z</time>
      </trkpt>
      <trkpt lat="47.51397" lon="6.77238">
        <ele>375</ele>
        <time>2014-12-30T09:19:47Z</time>
      </trkpt>
      <trkpt lat="47.51399" lon="6.77237">
        <ele>375</ele>
        <time>2014-12-30T09:19:48Z</time>
      </trkpt>
      <trkpt lat="47.51402" lon="6.77236">
        <ele>375</ele>
        <time>2014-12-30T09:19:49Z</time>
      </trkpt>
      <trkpt lat="47.51405" lon="6.77235">
        <ele>375</ele>
        <time>2014-12-30T09:19:50Z</time>
      </trkpt>
      <trkpt lat="47.51407" lon="6.77233">
        <ele>375</ele>
        <time>2014-12-30T09:19:51Z</time>
      </trkpt>
      <trkpt lat="47.5141" lon="6.77232">
        <ele>375</ele>
        <time>2014-12-30T09:19:52Z</time>
      </trkpt>
      <trkpt lat="47.51412" lon="6.77231">
        <ele>375</ele>
        <time>2014-12-30T09:19:53Z</time>
      </trkpt>
      <trkpt lat="47.51415" lon="6.7723">
        <ele>375</ele>
        <time>2014-12-30T09:19:54Z</time>
      </trkpt>
      <trkpt lat="47.51417" lon="6.77229">
        <ele>375</ele>
        <time>2014-12-30T09:19:55Z</time>
      </trkpt>
      <trkpt lat="47.5142" lon="6.77228">
        <ele>375</ele>
        <time>2014-12-30T09:19:56Z</time>
      </trkpt>
      <trkpt lat="47.51423" lon="6.77227">
        <ele>375</ele>
        <time>2014-12-30T09:19:57Z</time>
      </trkpt>
      <trkpt lat="47.51426" lon="6.77226">
        <ele>375</ele>
        <time>2014-12-30T09:19:58Z</time>
      </trkpt>
      <trkpt lat="47.51429" lon="6.77224">
        <ele>375</ele>
        <time>2014-12-30T09:19:59Z</time>
      </trkpt>
      <trkpt lat="47.51432" lon="6.77223">
        <ele>375</ele>
        <time>2014-12-30T09:20:00Z</time>
      </trkpt>
      <trkpt lat="47.51434" lon="6.77222">
        <ele>375</ele>
        <time>2014-12-30T09:20:01Z</time>
      </trkpt>
      <trkpt lat="47.51437" lon="6.7722">
        <ele>375</ele>
        <time>2014-12-30T09:20:02Z</time>
      </trkpt>
      <trkpt lat="47.5144" lon="6.77219">
        <ele>375</ele>
        <time>2014-12-30T09:20:03Z</time>
      </trkpt>
      <trkpt lat="47.51443" lon="6.77218">
        <ele>375</ele>
        <time>2014-12-30T09:20:04Z</time>
      </trkpt>
      <trkpt lat="47.51446" lon="6.77217">
        <ele>375</ele>
        <time>2014-12-30T09:20:05Z</time>
      </trkpt>
      <trkpt lat="47.51449" lon="6.77215">
        <ele>375</ele>
        <time>2014-12-30T09:20:06Z</time>
      </trkpt>
      <trkpt lat="47.51452" lon="6.77214">
        <ele>375</ele>
        <time>2014-12-30T09:20:07Z</time>
      </trkpt>
      <trkpt lat="47.51454" lon="6.77212">
        <ele>375</ele>
        <time>2014-12-30T09:20:08Z</time>
      </trkpt>
      <trkpt lat="47.51457" lon="6.77211">
        <ele>375</ele>
        <time>2014-12-30T09:20:09Z</time>
      </trkpt>
      <trkpt lat="47.51459" lon="6.77209">
        <ele>375</ele>
        <time>2014-12-30T09:20:10Z</time>
      </trkpt>
      <trkpt lat="47.51464" lon="6.77207">
        <ele>374</ele>
        <time>2014-12-30T09:20:12Z</time>
      </trkpt>
      <trkpt lat="47.51466" lon="6.77206">
        <ele>374</ele>
        <time>2014-12-30T09:20:13Z</time>
      </trkpt>
      <trkpt lat="47.51468" lon="6.77204">
        <ele>374</ele>
        <time>2014-12-30T09:20:14Z</time>
      </trkpt>
      <trkpt lat="47.5147" lon="6.77202">
        <ele>374</ele>
        <time>2014-12-30T09:20:15Z</time>
      </trkpt>
      <trkpt lat="47.51472" lon="6.772">
        <ele>374</ele>
        <time>2014-12-30T09:20:16Z</time>
      </trkpt>
      <trkpt lat="47.51474" lon="6.77198">
        <ele>374</ele>
        <time>2014-12-30T09:20:17Z</time>
      </trkpt>
      <trkpt lat="47.51476" lon="6.77196">
        <ele>374</ele>
        <time>2014-12-30T09:20:18Z</time>
      </trkpt>
      <trkpt lat="47.51478" lon="6.77193">
        <ele>374</ele>
        <time>2014-12-30T09:20:19Z</time>
      </trkpt>
      <trkpt lat="47.5148" lon="6.77191">
        <ele>374</ele>
        <time>2014-12-30T09:20:20Z</time>
      </trkpt>
      <trkpt lat="47.5148" lon="6.77187">
        <ele>374</ele>
        <time>2014-12-30T09:20:21Z</time>
      </trkpt>
      <trkpt lat="47.5148" lon="6.77184">
        <ele>374</ele>
        <time>2014-12-30T09:20:22Z</time>
      </trkpt>
      <trkpt lat="47.51481" lon="6.7718">
        <ele>374</ele>
        <time>2014-12-30T09:20:23Z</time>
      </trkpt>
      <trkpt lat="47.51481" lon="6.77176">
        <ele>374</ele>
        <time>2014-12-30T09:20:24Z</time>
      </trkpt>
      <trkpt lat="47.51481" lon="6.77173">
        <ele>374</ele>
        <time>2014-12-30T09:20:25Z</time>
      </trkpt>
      <trkpt lat="47.51481" lon="6.77166">
        <ele>373</ele>
        <time>2014-12-30T09:20:27Z</time>
      </trkpt>
      <trkpt lat="47.51485" lon="6.77134">
        <ele>372</ele>
        <time>2014-12-30T09:20:35Z</time>
      </trkpt>
      <trkpt lat="47.51485" lon="6.7713">
        <ele>372</ele>
        <time>2014-12-30T09:20:36Z</time>
      </trkpt>
      <trkpt lat="47.51487" lon="6.77125">
        <ele>372</ele>
        <time>2014-12-30T09:20:37Z</time>
      </trkpt>
      <trkpt lat="47.51488" lon="6.7712">
        <ele>372</ele>
        <time>2014-12-30T09:20:38Z</time>
      </trkpt>
      <trkpt lat="47.51489" lon="6.77115">
        <ele>371</ele>
        <time>2014-12-30T09:20:39Z</time>
      </trkpt>
      <trkpt lat="47.51492" lon="6.77107">
        <ele>371</ele>
        <time>2014-12-30T09:20:40Z</time>
      </trkpt>
      <trkpt lat="47.51493" lon="6.77102">
        <ele>371</ele>
        <time>2014-12-30T09:20:41Z</time>
      </trkpt>
      <trkpt lat="47.51494" lon="6.77097">
        <ele>371</ele>
        <time>2014-12-30T09:20:42Z</time>
      </trkpt>
      <trkpt lat="47.51494" lon="6.77093">
        <ele>371</ele>
        <time>2014-12-30T09:20:43Z</time>
      </trkpt>
      <trkpt lat="47.51496" lon="6.7709">
        <ele>371</ele>
        <time>2014-12-30T09:20:44Z</time>
      </trkpt>
      <trkpt lat="47.51497" lon="6.77088">
        <ele>371</ele>
        <time>2014-12-30T09:20:45Z</time>
      </trkpt>
      <trkpt lat="47.51499" lon="6.77084">
        <ele>371</ele>
        <time>2014-12-30T09:20:46Z</time>
      </trkpt>
      <trkpt lat="47.515" lon="6.7708">
        <ele>371</ele>
        <time>2014-12-30T09:20:47Z</time>
      </trkpt>
      <trkpt lat="47.51502" lon="6.77077">
        <ele>371</ele>
        <time>2014-12-30T09:20:48Z</time>
      </trkpt>
      <trkpt lat="47.51503" lon="6.77074">
        <ele>371</ele>
        <time>2014-12-30T09:20:49Z</time>
      </trkpt>
      <trkpt lat="47.51505" lon="6.7707">
        <ele>371</ele>
        <time>2014-12-30T09:20:50Z</time>
      </trkpt>
      <trkpt lat="47.51506" lon="6.77067">
        <ele>371</ele>
        <time>2014-12-30T09:20:51Z</time>
      </trkpt>
      <trkpt lat="47.51507" lon="6.77064">
        <ele>371</ele>
        <time>2014-12-30T09:20:52Z</time>
      </trkpt>
      <trkpt lat="47.51508" lon="6.7706">
        <ele>371</ele>
        <time>2014-12-30T09:20:53Z</time>
      </trkpt>
      <trkpt lat="47.51509" lon="6.77057">
        <ele>371</ele>
        <time>2014-12-30T09:20:54Z</time>
      </trkpt>
      <trkpt lat="47.5151" lon="6.77053">
        <ele>371</ele>
        <time>2014-12-30T09:20:55Z</time>
      </trkpt>
      <trkpt lat="47.51511" lon="6.7705">
        <ele>371</ele>
        <time>2014-12-30T09:20:56Z</time>
      </trkpt>
      <trkpt lat="47.51512" lon="6.77047">
        <ele>371</ele>
        <time>2014-12-30T09:20:57Z</time>
      </trkpt>
      <trkpt lat="47.51514" lon="6.77044">
        <ele>371</ele>
        <time>2014-12-30T09:20:58Z</time>
      </trkpt>
      <trkpt lat="47.51515" lon="6.77041">
        <ele>371</ele>
        <time>2014-12-30T09:20:59Z</time>
      </trkpt>
      <trkpt lat="47.51516" lon="6.77038">
        <ele>371</ele>
        <time>2014-12-30T09:21:00Z</time>
      </trkpt>
      <trkpt lat="47.51518" lon="6.77035">
        <ele>371</ele>
        <time>2014-12-30T09:21:01Z</time>
      </trkpt>
      <trkpt lat="47.51519" lon="6.77032">
        <ele>371</ele>
        <time>2014-12-30T09:21:02Z</time>
      </trkpt>
      <trkpt lat="47.51521" lon="6.77028">
        <ele>371</ele>
        <time>2014-12-30T09:21:03Z</time>
      </trkpt>
      <trkpt lat="47.51522" lon="6.77025">
        <ele>371</ele>
        <time>2014-12-30T09:21:04Z</time>
      </trkpt>
      <trkpt lat="47.51524" lon="6.77021">
        <ele>371</ele>
        <time>2014-12-30T09:21:05Z</time>
      </trkpt>
      <trkpt lat="47.51525" lon="6.77018">
        <ele>371</ele>
        <time>2014-12-30T09:21:05Z</time>
      </trkpt>
      <trkpt lat="47.51527" lon="6.77015">
        <ele>371</ele>
        <time>2014-12-30T09:21:07Z</time>
      </trkpt>
      <trkpt lat="47.51528" lon="6.77011">
        <ele>371</ele>
        <time>2014-12-30T09:21:08Z</time>
      </trkpt>
      <trkpt lat="47.5153" lon="6.77008">
        <ele>371</ele>
        <time>2014-12-30T09:21:09Z</time>
      </trkpt>
      <trkpt lat="47.51531" lon="6.77004">
        <ele>371</ele>
        <time>2014-12-30T09:21:10Z</time>
      </trkpt>
      <trkpt lat="47.51532" lon="6.77001">
        <ele>371</ele>
        <time>2014-12-30T09:21:11Z</time>
      </trkpt>
      <trkpt lat="47.51534" lon="6.76997">
        <ele>370</ele>
        <time>2014-12-30T09:21:12Z</time>
      </trkpt>
      <trkpt lat="47.51535" lon="6.76993">
        <ele>370</ele>
        <time>2014-12-30T09:21:13Z</time>
      </trkpt>
      <trkpt lat="47.51537" lon="6.76989">
        <ele>370</ele>
        <time>2014-12-30T09:21:14Z</time>
      </trkpt>
      <trkpt lat="47.51538" lon="6.76986">
        <ele>370</ele>
        <time>2014-12-30T09:21:15Z</time>
      </trkpt>
      <trkpt lat="47.51539" lon="6.76982">
        <ele>370</ele>
        <time>2014-12-30T09:21:16Z</time>
      </trkpt>
      <trkpt lat="47.51541" lon="6.76979">
        <ele>370</ele>
        <time>2014-12-30T09:21:17Z</time>
      </trkpt>
      <trkpt lat="47.51542" lon="6.76975">
        <ele>370</ele>
        <time>2014-12-30T09:21:18Z</time>
      </trkpt>
      <trkpt lat="47.51544" lon="6.76972">
        <ele>370</ele>
        <time>2014-12-30T09:21:19Z</time>
      </trkpt>
      <trkpt lat="47.51545" lon="6.76968">
        <ele>370</ele>
        <time>2014-12-30T09:21:20Z</time>
      </trkpt>
      <trkpt lat="47.51547" lon="6.76964">
        <ele>370</ele>
        <time>2014-12-30T09:21:21Z</time>
      </trkpt>
      <trkpt lat="47.51548" lon="6.7696">
        <ele>370</ele>
        <time>2014-12-30T09:21:22Z</time>
      </trkpt>
      <trkpt lat="47.5155" lon="6.76956">
        <ele>370</ele>
        <time>2014-12-30T09:21:23Z</time>
      </trkpt>
      <trkpt lat="47.51551" lon="6.76953">
        <ele>370</ele>
        <time>2014-12-30T09:21:24Z</time>
      </trkpt>
      <trkpt lat="47.51554" lon="6.76948">
        <ele>370</ele>
        <time>2014-12-30T09:21:26Z</time>
      </trkpt>
      <trkpt lat="47.51556" lon="6.76944">
        <ele>370</ele>
        <time>2014-12-30T09:21:27Z</time>
      </trkpt>
      <trkpt lat="47.51557" lon="6.76941">
        <ele>370</ele>
        <time>2014-12-30T09:21:29Z</time>
      </trkpt>
      <trkpt lat="47.51558" lon="6.76938">
        <ele>370</ele>
        <time>2014-12-30T09:21:30Z</time>
      </trkpt>
      <trkpt lat="47.5156" lon="6.76934">
        <ele>370</ele>
        <time>2014-12-30T09:21:31Z</time>
      </trkpt>
      <trkpt lat="47.51561" lon="6.76931">
        <ele>370</ele>
        <time>2014-12-30T09:21:32Z</time>
      </trkpt>
      <trkpt lat="47.51563" lon="6.76927">
        <ele>370</ele>
        <time>2014-12-30T09:21:33Z</time>
      </trkpt>
      <trkpt lat="47.51565" lon="6.76923">
        <ele>370</ele>
        <time>2014-12-30T09:21:34Z</time>
      </trkpt>
      <trkpt lat="47.51566" lon="6.76918">
        <ele>370</ele>
        <time>2014-12-30T09:21:35Z</time>
      </trkpt>
      <trkpt lat="47.51568" lon="6.76914">
        <ele>369</ele>
        <time>2014-12-30T09:21:36Z</time>
      </trkpt>
      <trkpt lat="47.51569" lon="6.76909">
        <ele>369</ele>
        <time>2014-12-30T09:21:37Z</time>
      </trkpt>
      <trkpt lat="47.5157" lon="6.76905">
        <ele>369</ele>
        <time>2014-12-30T09:21:38Z</time>
      </trkpt>
      <trkpt lat="47.5157" lon="6.76902">
        <ele>369</ele>
        <time>2014-12-30T09:21:39Z</time>
      </trkpt>
      <trkpt lat="47.51571" lon="6.76898">
        <ele>369</ele>
        <time>2014-12-30T09:21:40Z</time>
      </trkpt>
      <trkpt lat="47.51573" lon="6.76892">
        <ele>369</ele>
        <time>2014-12-30T09:21:42Z</time>
      </trkpt>
      <trkpt lat="47.51574" lon="6.76889">
        <ele>369</ele>
        <time>2014-12-30T09:21:43Z</time>
      </trkpt>
      <trkpt lat="47.51575" lon="6.76886">
        <ele>369</ele>
        <time>2014-12-30T09:21:44Z</time>
      </trkpt>
      <trkpt lat="47.51577" lon="6.76883">
        <ele>369</ele>
        <time>2014-12-30T09:21:45Z</time>
      </trkpt>
      <trkpt lat="47.51579" lon="6.76878">
        <ele>369</ele>
        <time>2014-12-30T09:21:47Z</time>
      </trkpt>
      <trkpt lat="47.51581" lon="6.76876">
        <ele>369</ele>
        <time>2014-12-30T09:21:48Z</time>
      </trkpt>
      <trkpt lat="47.51583" lon="6.7687">
        <ele>369</ele>
        <time>2014-12-30T09:21:50Z</time>
      </trkpt>
      <trkpt lat="47.51584" lon="6.76866">
        <ele>369</ele>
        <time>2014-12-30T09:21:51Z</time>
      </trkpt>
      <trkpt lat="47.51584" lon="6.76862">
        <ele>369</ele>
        <time>2014-12-30T09:21:52Z</time>
      </trkpt>
      <trkpt lat="47.51585" lon="6.76857">
        <ele>369</ele>
        <time>2014-12-30T09:21:53Z</time>
      </trkpt>
      <trkpt lat="47.51585" lon="6.76852">
        <ele>369</ele>
        <time>2014-12-30T09:21:54Z</time>
      </trkpt>
      <trkpt lat="47.51586" lon="6.76847">
        <ele>369</ele>
        <time>2014-12-30T09:21:55Z</time>
      </trkpt>
      <trkpt lat="47.51587" lon="6.76843">
        <ele>369</ele>
        <time>2014-12-30T09:21:56Z</time>
      </trkpt>
      <trkpt lat="47.51589" lon="6.76839">
        <ele>369</ele>
        <time>2014-12-30T09:21:57Z</time>
      </trkpt>
      <trkpt lat="47.5159" lon="6.76836">
        <ele>369</ele>
        <time>2014-12-30T09:21:58Z</time>
      </trkpt>
      <trkpt lat="47.51592" lon="6.76832">
        <ele>368</ele>
        <time>2014-12-30T09:21:59Z</time>
      </trkpt>
      <trkpt lat="47.51594" lon="6.76828">
        <ele>368</ele>
        <time>2014-12-30T09:22:00Z</time>
      </trkpt>
      <trkpt lat="47.51596" lon="6.76824">
        <ele>368</ele>
        <time>2014-12-30T09:22:01Z</time>
      </trkpt>
      <trkpt lat="47.51598" lon="6.7682">
        <ele>368</ele>
        <time>2014-12-30T09:22:02Z</time>
      </trkpt>
      <trkpt lat="47.51599" lon="6.76816">
        <ele>368</ele>
        <time>2014-12-30T09:22:03Z</time>
      </trkpt>
      <trkpt lat="47.51601" lon="6.76811">
        <ele>368</ele>
        <time>2014-12-30T09:22:04Z</time>
      </trkpt>
      <trkpt lat="47.51602" lon="6.76808">
        <ele>368</ele>
        <time>2014-12-30T09:22:05Z</time>
      </trkpt>
      <trkpt lat="47.51604" lon="6.76802">
        <ele>368</ele>
        <time>2014-12-30T09:22:07Z</time>
      </trkpt>
      <trkpt lat="47.51605" lon="6.768">
        <ele>368</ele>
        <time>2014-12-30T09:22:08Z</time>
      </trkpt>
      <trkpt lat="47.51607" lon="6.76797">
        <ele>368</ele>
        <time>2014-12-30T09:22:09Z</time>
      </trkpt>
      <trkpt lat="47.51608" lon="6.76794">
        <ele>368</ele>
        <time>2014-12-30T09:22:10Z</time>
      </trkpt>
      <trkpt lat="47.5161" lon="6.76791">
        <ele>367</ele>
        <time>2014-12-30T09:22:11Z</time>
      </trkpt>
      <trkpt lat="47.51612" lon="6.76788">
        <ele>367</ele>
        <time>2014-12-30T09:22:12Z</time>
      </trkpt>
      <trkpt lat="47.51613" lon="6.76784">
        <ele>367</ele>
        <time>2014-12-30T09:22:13Z</time>
      </trkpt>
      <trkpt lat="47.51615" lon="6.76781">
        <ele>367</ele>
        <time>2014-12-30T09:22:14Z</time>
      </trkpt>
      <trkpt lat="47.51616" lon="6.76777">
        <ele>367</ele>
        <time>2014-12-30T09:22:15Z</time>
      </trkpt>
      <trkpt lat="47.51617" lon="6.76774">
        <ele>367</ele>
        <time>2014-12-30T09:22:16Z</time>
      </trkpt>
      <trkpt lat="47.51619" lon="6.76769">
        <ele>367</ele>
        <time>2014-12-30T09:22:18Z</time>
      </trkpt>
      <trkpt lat="47.51621" lon="6.76767">
        <ele>367</ele>
        <time>2014-12-30T09:22:19Z</time>
      </trkpt>
      <trkpt lat="47.51622" lon="6.76764">
        <ele>367</ele>
        <time>2014-12-30T09:22:20Z</time>
      </trkpt>
      <trkpt lat="47.51623" lon="6.76761">
        <ele>367</ele>
        <time>2014-12-30T09:22:21Z</time>
      </trkpt>
      <trkpt lat="47.51625" lon="6.76757">
        <ele>367</ele>
        <time>2014-12-30T09:22:22Z</time>
      </trkpt>
      <trkpt lat="47.51626" lon="6.76754">
        <ele>367</ele>
        <time>2014-12-30T09:22:23Z</time>
      </trkpt>
      <trkpt lat="47.51627" lon="6.76751">
        <ele>366</ele>
        <time>2014-12-30T09:22:24Z</time>
      </trkpt>
      <trkpt lat="47.51628" lon="6.76749">
        <ele>366</ele>
        <time>2014-12-30T09:22:25Z</time>
      </trkpt>
      <trkpt lat="47.5163" lon="6.76745">
        <ele>366</ele>
        <time>2014-12-30T09:22:26Z</time>
      </trkpt>
      <trkpt lat="47.51634" lon="6.76736">
        <ele>366</ele>
        <time>2014-12-30T09:22:29Z</time>
      </trkpt>
      <trkpt lat="47.51635" lon="6.76733">
        <ele>366</ele>
        <time>2014-12-30T09:22:30Z</time>
      </trkpt>
      <trkpt lat="47.51636" lon="6.76729">
        <ele>366</ele>
        <time>2014-12-30T09:22:31Z</time>
      </trkpt>
      <trkpt lat="47.51637" lon="6.76726">
        <ele>366</ele>
        <time>2014-12-30T09:22:32Z</time>
      </trkpt>
      <trkpt lat="47.51639" lon="6.76722">
        <ele>366</ele>
        <time>2014-12-30T09:22:33Z</time>
      </trkpt>
      <trkpt lat="47.5164" lon="6.76719">
        <ele>366</ele>
        <time>2014-12-30T09:22:34Z</time>
      </trkpt>
      <trkpt lat="47.51642" lon="6.76715">
        <ele>366</ele>
        <time>2014-12-30T09:22:35Z</time>
      </trkpt>
      <trkpt lat="47.51643" lon="6.76712">
        <ele>366</ele>
        <time>2014-12-30T09:22:36Z</time>
      </trkpt>
      <trkpt lat="47.51645" lon="6.76708">
        <ele>366</ele>
        <time>2014-12-30T09:22:37Z</time>
      </trkpt>
      <trkpt lat="47.51646" lon="6.76705">
        <ele>366</ele>
        <time>2014-12-30T09:22:38Z</time>
      </trkpt>
      <trkpt lat="47.51648" lon="6.76702">
        <ele>367</ele>
        <time>2014-12-30T09:22:39Z</time>
      </trkpt>
      <trkpt lat="47.5165" lon="6.76697">
        <ele>367</ele>
        <time>2014-12-30T09:22:41Z</time>
      </trkpt>
      <trkpt lat="47.51651" lon="6.76694">
        <ele>367</ele>
        <time>2014-12-30T09:22:42Z</time>
      </trkpt>
      <trkpt lat="47.51653" lon="6.76692">
        <ele>367</ele>
        <time>2014-12-30T09:22:43Z</time>
      </trkpt>
      <trkpt lat="47.51654" lon="6.76689">
        <ele>367</ele>
        <time>2014-12-30T09:22:44Z</time>
      </trkpt>
      <trkpt lat="47.51655" lon="6.76683">
        <ele>367</ele>
        <time>2014-12-30T09:22:46Z</time>
      </trkpt>
      <trkpt lat="47.51655" lon="6.76679">
        <ele>367</ele>
        <time>2014-12-30T09:22:47Z</time>
      </trkpt>
      <trkpt lat="47.51656" lon="6.76676">
        <ele>367</ele>
        <time>2014-12-30T09:22:48Z</time>
      </trkpt>
      <trkpt lat="47.51657" lon="6.76672">
        <ele>367</ele>
        <time>2014-12-30T09:22:49Z</time>
      </trkpt>
      <trkpt lat="47.51657" lon="6.76668">
        <ele>367</ele>
        <time>2014-12-30T09:22:50Z</time>
      </trkpt>
      <trkpt lat="47.51659" lon="6.76665">
        <ele>368</ele>
        <time>2014-12-30T09:22:51Z</time>
      </trkpt>
      <trkpt lat="47.5166" lon="6.76661">
        <ele>368</ele>
        <time>2014-12-30T09:22:52Z</time>
      </trkpt>
      <trkpt lat="47.51661" lon="6.76658">
        <ele>368</ele>
        <time>2014-12-30T09:22:53Z</time>
      </trkpt>
      <trkpt lat="47.51662" lon="6.76655">
        <ele>368</ele>
        <time>2014-12-30T09:22:54Z</time>
      </trkpt>
      <trkpt lat="47.51664" lon="6.76652">
        <ele>368</ele>
        <time>2014-12-30T09:22:55Z</time>
      </trkpt>
      <trkpt lat="47.51666" lon="6.76649">
        <ele>368</ele>
        <time>2014-12-30T09:22:56Z</time>
      </trkpt>
      <trkpt lat="47.51667" lon="6.76646">
        <ele>368</ele>
        <time>2014-12-30T09:22:57Z</time>
      </trkpt>
      <trkpt lat="47.51669" lon="6.76642">
        <ele>368</ele>
        <time>2014-12-30T09:22:58Z</time>
      </trkpt>
      <trkpt lat="47.5167" lon="6.76638">
        <ele>369</ele>
        <time>2014-12-30T09:22:59Z</time>
      </trkpt>
      <trkpt lat="47.51671" lon="6.76635">
        <ele>369</ele>
        <time>2014-12-30T09:23:00Z</time>
      </trkpt>
      <trkpt lat="47.51673" lon="6.76631">
        <ele>370</ele>
        <time>2014-12-30T09:23:01Z</time>
      </trkpt>
      <trkpt lat="47.51675" lon="6.76628">
        <ele>370</ele>
        <time>2014-12-30T09:23:02Z</time>
      </trkpt>
      <trkpt lat="47.51676" lon="6.76625">
        <ele>370</ele>
        <time>2014-12-30T09:23:03Z</time>
      </trkpt>
      <trkpt lat="47.51677" lon="6.76623">
        <ele>371</ele>
        <time>2014-12-30T09:23:03Z</time>
      </trkpt>
      <trkpt lat="47.51679" lon="6.76619">
        <ele>371</ele>
        <time>2014-12-30T09:23:05Z</time>
      </trkpt>
      <trkpt lat="47.5168" lon="6.76616">
        <ele>371</ele>
        <time>2014-12-30T09:23:06Z</time>
      </trkpt>
      <trkpt lat="47.51681" lon="6.76613">
        <ele>371</ele>
        <time>2014-12-30T09:23:07Z</time>
      </trkpt>
      <trkpt lat="47.51682" lon="6.76607">
        <ele>372</ele>
        <time>2014-12-30T09:23:09Z</time>
      </trkpt>
      <trkpt lat="47.51683" lon="6.76603">
        <ele>372</ele>
        <time>2014-12-30T09:23:10Z</time>
      </trkpt>
      <trkpt lat="47.51684" lon="6.76599">
        <ele>372</ele>
        <time>2014-12-30T09:23:11Z</time>
      </trkpt>
      <trkpt lat="47.51684" lon="6.76596">
        <ele>372</ele>
        <time>2014-12-30T09:23:12Z</time>
      </trkpt>
      <trkpt lat="47.51685" lon="6.76592">
        <ele>372</ele>
        <time>2014-12-30T09:23:13Z</time>
      </trkpt>
      <trkpt lat="47.51686" lon="6.76589">
        <ele>373</ele>
        <time>2014-12-30T09:23:14Z</time>
      </trkpt>
      <trkpt lat="47.51687" lon="6.76584">
        <ele>373</ele>
        <time>2014-12-30T09:23:15Z</time>
      </trkpt>
      <trkpt lat="47.51689" lon="6.7658">
        <ele>375</ele>
        <time>2014-12-30T09:23:16Z</time>
      </trkpt>
      <trkpt lat="47.51691" lon="6.76576">
        <ele>376</ele>
        <time>2014-12-30T09:23:17Z</time>
      </trkpt>
      <trkpt lat="47.51692" lon="6.76572">
        <ele>376</ele>
        <time>2014-12-30T09:23:18Z</time>
      </trkpt>
      <trkpt lat="47.51694" lon="6.76568">
        <ele>376</ele>
        <time>2014-12-30T09:23:19Z</time>
      </trkpt>
      <trkpt lat="47.51695" lon="6.76565">
        <ele>377</ele>
        <time>2014-12-30T09:23:20Z</time>
      </trkpt>
      <trkpt lat="47.51695" lon="6.76561">
        <ele>377</ele>
        <time>2014-12-30T09:23:21Z</time>
      </trkpt>
      <trkpt lat="47.51695" lon="6.76557">
        <ele>377</ele>
        <time>2014-12-30T09:23:22Z</time>
      </trkpt>
      <trkpt lat="47.51696" lon="6.76552">
        <ele>378</ele>
        <time>2014-12-30T09:23:23Z</time>
      </trkpt>
      <trkpt lat="47.51697" lon="6.76547">
        <ele>378</ele>
        <time>2014-12-30T09:23:24Z</time>
      </trkpt>
      <trkpt lat="47.51698" lon="6.76543">
        <ele>379</ele>
        <time>2014-12-30T09:23:25Z</time>
      </trkpt>
      <trkpt lat="47.517" lon="6.76538">
        <ele>379</ele>
        <time>2014-12-30T09:23:26Z</time>
      </trkpt>
      <trkpt lat="47.51703" lon="6.76529">
        <ele>380</ele>
        <time>2014-12-30T09:23:29Z</time>
      </trkpt>
      <trkpt lat="47.51705" lon="6.76523">
        <ele>381</ele>
        <time>2014-12-30T09:23:32Z</time>
      </trkpt>
      <trkpt lat="47.51705" lon="6.76521">
        <ele>381</ele>
        <time>2014-12-30T09:23:33Z</time>
      </trkpt>
      <trkpt lat="47.51707" lon="6.76518">
        <ele>381</ele>
        <time>2014-12-30T09:23:34Z</time>
      </trkpt>
      <trkpt lat="47.51708" lon="6.76515">
        <ele>381</ele>
        <time>2014-12-30T09:23:35Z</time>
      </trkpt>
      <trkpt lat="47.51711" lon="6.7651">
        <ele>381</ele>
        <time>2014-12-30T09:23:37Z</time>
      </trkpt>
      <trkpt lat="47.51711" lon="6.76507">
        <ele>381</ele>
        <time>2014-12-30T09:23:38Z</time>
      </trkpt>
      <trkpt lat="47.51713" lon="6.76501">
        <ele>382</ele>
        <time>2014-12-30T09:23:40Z</time>
      </trkpt>
      <trkpt lat="47.51713" lon="6.76498">
        <ele>387</ele>
        <time>2014-12-30T09:23:41Z</time>
      </trkpt>
      <trkpt lat="47.51715" lon="6.76493">
        <ele>387</ele>
        <time>2014-12-30T09:23:43Z</time>
      </trkpt>
      <trkpt lat="47.51716" lon="6.76491">
        <ele>387</ele>
        <time>2014-12-30T09:23:44Z</time>
      </trkpt>
      <trkpt lat="47.51717" lon="6.76488">
        <ele>387</ele>
        <time>2014-12-30T09:23:45Z</time>
      </trkpt>
      <trkpt lat="47.51719" lon="6.76484">
        <ele>387</ele>
        <time>2014-12-30T09:23:46Z</time>
      </trkpt>
      <trkpt lat="47.51721" lon="6.76481">
        <ele>387</ele>
        <time>2014-12-30T09:23:47Z</time>
      </trkpt>
      <trkpt lat="47.51722" lon="6.76477">
        <ele>387</ele>
        <time>2014-12-30T09:23:48Z</time>
      </trkpt>
      <trkpt lat="47.51724" lon="6.76474">
        <ele>387</ele>
        <time>2014-12-30T09:23:49Z</time>
      </trkpt>
      <trkpt lat="47.51726" lon="6.76471">
        <ele>387</ele>
        <time>2014-12-30T09:23:50Z</time>
      </trkpt>
      <trkpt lat="47.51727" lon="6.76469">
        <ele>387</ele>
        <time>2014-12-30T09:23:51Z</time>
      </trkpt>
      <trkpt lat="47.51729" lon="6.76465">
        <ele>387</ele>
        <time>2014-12-30T09:23:52Z</time>
      </trkpt>
      <trkpt lat="47.51731" lon="6.7646">
        <ele>387</ele>
        <time>2014-12-30T09:23:53Z</time>
      </trkpt>
      <trkpt lat="47.51735" lon="6.7645">
        <ele>388</ele>
        <time>2014-12-30T09:23:54Z</time>
      </trkpt>
      <trkpt lat="47.51738" lon="6.76445">
        <ele>388</ele>
        <time>2014-12-30T09:23:56Z</time>
      </trkpt>
      <trkpt lat="47.51737" lon="6.76442">
        <ele>389</ele>
        <time>2014-12-30T09:23:57Z</time>
      </trkpt>
      <trkpt lat="47.51739" lon="6.76438">
        <ele>389</ele>
        <time>2014-12-30T09:23:58Z</time>
      </trkpt>
      <trkpt lat="47.51741" lon="6.76436">
        <ele>389</ele>
        <time>2014-12-30T09:23:59Z</time>
      </trkpt>
      <trkpt lat="47.51743" lon="6.76434">
        <ele>389</ele>
        <time>2014-12-30T09:24:00Z</time>
      </trkpt>
      <trkpt lat="47.51744" lon="6.76427">
        <ele>389</ele>
        <time>2014-12-30T09:24:01Z</time>
      </trkpt>
      <trkpt lat="47.51747" lon="6.76423">
        <ele>389</ele>
        <time>2014-12-30T09:24:03Z</time>
      </trkpt>
      <trkpt lat="47.51747" lon="6.7642">
        <ele>389</ele>
        <time>2014-12-30T09:24:04Z</time>
      </trkpt>
      <trkpt lat="47.51748" lon="6.76416">
        <ele>390</ele>
        <time>2014-12-30T09:24:05Z</time>
      </trkpt>
      <trkpt lat="47.51749" lon="6.76413">
        <ele>390</ele>
        <time>2014-12-30T09:24:06Z</time>
      </trkpt>
      <trkpt lat="47.51751" lon="6.76407">
        <ele>390</ele>
        <time>2014-12-30T09:24:08Z</time>
      </trkpt>
      <trkpt lat="47.51751" lon="6.76405">
        <ele>390</ele>
        <time>2014-12-30T09:24:09Z</time>
      </trkpt>
      <trkpt lat="47.51752" lon="6.76402">
        <ele>390</ele>
        <time>2014-12-30T09:24:10Z</time>
      </trkpt>
      <trkpt lat="47.51754" lon="6.76399">
        <ele>390</ele>
        <time>2014-12-30T09:24:11Z</time>
      </trkpt>
      <trkpt lat="47.51757" lon="6.76396">
        <ele>390</ele>
        <time>2014-12-30T09:24:12Z</time>
      </trkpt>
      <trkpt lat="47.51758" lon="6.76393">
        <ele>390</ele>
        <time>2014-12-30T09:24:13Z</time>
      </trkpt>
      <trkpt lat="47.51762" lon="6.76389">
        <ele>390</ele>
        <time>2014-12-30T09:24:14Z</time>
      </trkpt>
      <trkpt lat="47.51764" lon="6.76385">
        <ele>390</ele>
        <time>2014-12-30T09:24:15Z</time>
      </trkpt>
      <trkpt lat="47.51765" lon="6.76382">
        <ele>390</ele>
        <time>2014-12-30T09:24:16Z</time>
      </trkpt>
      <trkpt lat="47.51766" lon="6.76379">
        <ele>391</ele>
        <time>2014-12-30T09:24:17Z</time>
      </trkpt>
      <trkpt lat="47.51767" lon="6.76375">
        <ele>391</ele>
        <time>2014-12-30T09:24:18Z</time>
      </trkpt>
      <trkpt lat="47.51769" lon="6.7637">
        <ele>391</ele>
        <time>2014-12-30T09:24:19Z</time>
      </trkpt>
      <trkpt lat="47.5177" lon="6.76367">
        <ele>391</ele>
        <time>2014-12-30T09:24:19Z</time>
      </trkpt>
      <trkpt lat="47.51772" lon="6.76362">
        <ele>391</ele>
        <time>2014-12-30T09:24:21Z</time>
      </trkpt>
      <trkpt lat="47.51774" lon="6.76359">
        <ele>391</ele>
        <time>2014-12-30T09:24:22Z</time>
      </trkpt>
      <trkpt lat="47.51776" lon="6.76356">
        <ele>391</ele>
        <time>2014-12-30T09:24:23Z</time>
      </trkpt>
      <trkpt lat="47.51778" lon="6.76354">
        <ele>391</ele>
        <time>2014-12-30T09:24:23Z</time>
      </trkpt>
      <trkpt lat="47.51779" lon="6.7635">
        <ele>391</ele>
        <time>2014-12-30T09:24:25Z</time>
      </trkpt>
      <trkpt lat="47.5178" lon="6.76348">
        <ele>391</ele>
        <time>2014-12-30T09:24:25Z</time>
      </trkpt>
      <trkpt lat="47.51782" lon="6.76343">
        <ele>391</ele>
        <time>2014-12-30T09:24:28Z</time>
      </trkpt>
      <trkpt lat="47.51791" lon="6.76349">
        <ele>391</ele>
        <time>2014-12-30T09:24:36Z</time>
      </trkpt>
      <trkpt lat="47.51795" lon="6.7635">
        <ele>390</ele>
        <time>2014-12-30T09:24:38Z</time>
      </trkpt>
      <trkpt lat="47.51798" lon="6.76351">
        <ele>390</ele>
        <time>2014-12-30T09:24:39Z</time>
      </trkpt>
      <trkpt lat="47.518" lon="6.76351">
        <ele>390</ele>
        <time>2014-12-30T09:24:40Z</time>
      </trkpt>
      <trkpt lat="47.51803" lon="6.76352">
        <ele>390</ele>
        <time>2014-12-30T09:24:41Z</time>
      </trkpt>
      <trkpt lat="47.51807" lon="6.76353">
        <ele>390</ele>
        <time>2014-12-30T09:24:43Z</time>
      </trkpt>
      <trkpt lat="47.51808" lon="6.76354">
        <ele>390</ele>
        <time>2014-12-30T09:24:44Z</time>
      </trkpt>
      <trkpt lat="47.51812" lon="6.76355">
        <ele>390</ele>
        <time>2014-12-30T09:24:47Z</time>
      </trkpt>
      <trkpt lat="47.51814" lon="6.76356">
        <ele>390</ele>
        <time>2014-12-30T09:24:48Z</time>
      </trkpt>
      <trkpt lat="47.51816" lon="6.76356">
        <ele>390</ele>
        <time>2014-12-30T09:24:49Z</time>
      </trkpt>
      <trkpt lat="47.51819" lon="6.76357">
        <ele>390</ele>
        <time>2014-12-30T09:24:50Z</time>
      </trkpt>
      <trkpt lat="47.51822" lon="6.76358">
        <ele>391</ele>
        <time>2014-12-30T09:24:51Z</time>
      </trkpt>
      <trkpt lat="47.51824" lon="6.76359">
        <ele>391</ele>
        <time>2014-12-30T09:24:52Z</time>
      </trkpt>
      <trkpt lat="47.51827" lon="6.76362">
        <ele>390</ele>
        <time>2014-12-30T09:24:55Z</time>
      </trkpt>
      <trkpt lat="47.51828" lon="6.76362">
        <ele>390</ele>
        <time>2014-12-30T09:24:56Z</time>
      </trkpt>
      <trkpt lat="47.51832" lon="6.76363">
        <ele>390</ele>
        <time>2014-12-30T09:25:01Z</time>
      </trkpt>
      <trkpt lat="47.51833" lon="6.76363">
        <ele>390</ele>
        <time>2014-12-30T09:25:02Z</time>
      </trkpt>
      <trkpt lat="47.51836" lon="6.76361">
        <ele>390</ele>
        <time>2014-12-30T09:25:04Z</time>
      </trkpt>
      <trkpt lat="47.51838" lon="6.76359">
        <ele>391</ele>
        <time>2014-12-30T09:25:05Z</time>
      </trkpt>
      <trkpt lat="47.51841" lon="6.76358">
        <ele>390</ele>
        <time>2014-12-30T09:25:06Z</time>
      </trkpt>
      <trkpt lat="47.51843" lon="6.76357">
        <ele>390</ele>
        <time>2014-12-30T09:25:07Z</time>
      </trkpt>
      <trkpt lat="47.51846" lon="6.76357">
        <ele>390</ele>
        <time>2014-12-30T09:25:08Z</time>
      </trkpt>
      <trkpt lat="47.51848" lon="6.76357">
        <ele>390</ele>
        <time>2014-12-30T09:25:09Z</time>
      </trkpt>
      <trkpt lat="47.51851" lon="6.76357">
        <ele>390</ele>
        <time>2014-12-30T09:25:10Z</time>
      </trkpt>
      <trkpt lat="47.51853" lon="6.76357">
        <ele>390</ele>
        <time>2014-12-30T09:25:11Z</time>
      </trkpt>
      <trkpt lat="47.51856" lon="6.76358">
        <ele>389</ele>
        <time>2014-12-30T09:25:13Z</time>
      </trkpt>
      <trkpt lat="47.51858" lon="6.76358">
        <ele>389</ele>
        <time>2014-12-30T09:25:14Z</time>
      </trkpt>
      <trkpt lat="47.51862" lon="6.76359">
        <ele>389</ele>
        <time>2014-12-30T09:25:17Z</time>
      </trkpt>
      <trkpt lat="47.51863" lon="6.7636">
        <ele>389</ele>
        <time>2014-12-30T09:25:18Z</time>
      </trkpt>
      <trkpt lat="47.51867" lon="6.76359">
        <ele>389</ele>
        <time>2014-12-30T09:25:21Z</time>
      </trkpt>
      <trkpt lat="47.51868" lon="6.76359">
        <ele>389</ele>
        <time>2014-12-30T09:25:22Z</time>
      </trkpt>
      <trkpt lat="47.51872" lon="6.76356">
        <ele>389</ele>
        <time>2014-12-30T09:25:25Z</time>
      </trkpt>
      <trkpt lat="47.51874" lon="6.76355">
        <ele>389</ele>
        <time>2014-12-30T09:25:26Z</time>
      </trkpt>
      <trkpt lat="47.51877" lon="6.76352">
        <ele>389</ele>
        <time>2014-12-30T09:25:29Z</time>
      </trkpt>
      <trkpt lat="47.51879" lon="6.76352">
        <ele>389</ele>
        <time>2014-12-30T09:25:30Z</time>
      </trkpt>
      <trkpt lat="47.51882" lon="6.76353">
        <ele>390</ele>
        <time>2014-12-30T09:25:32Z</time>
      </trkpt>
      <trkpt lat="47.51884" lon="6.76353">
        <ele>390</ele>
        <time>2014-12-30T09:25:33Z</time>
      </trkpt>
      <trkpt lat="47.51888" lon="6.76352">
        <ele>390</ele>
        <time>2014-12-30T09:25:35Z</time>
      </trkpt>
      <trkpt lat="47.51889" lon="6.76352">
        <ele>390</ele>
        <time>2014-12-30T09:25:36Z</time>
      </trkpt>
      <trkpt lat="47.51894" lon="6.76352">
        <ele>390</ele>
        <time>2014-12-30T09:25:39Z</time>
      </trkpt>
      <trkpt lat="47.51895" lon="6.76353">
        <ele>391</ele>
        <time>2014-12-30T09:25:40Z</time>
      </trkpt>
      <trkpt lat="47.51899" lon="6.76353">
        <ele>391</ele>
        <time>2014-12-30T09:25:42Z</time>
      </trkpt>
      <trkpt lat="47.51901" lon="6.76354">
        <ele>391</ele>
        <time>2014-12-30T09:25:43Z</time>
      </trkpt>
      <trkpt lat="47.51905" lon="6.76355">
        <ele>392</ele>
        <time>2014-12-30T09:25:45Z</time>
      </trkpt>
      <trkpt lat="47.51906" lon="6.76355">
        <ele>391</ele>
        <time>2014-12-30T09:25:46Z</time>
      </trkpt>
      <trkpt lat="47.5191" lon="6.76357">
        <ele>392</ele>
        <time>2014-12-30T09:25:48Z</time>
      </trkpt>
      <trkpt lat="47.51912" lon="6.76358">
        <ele>392</ele>
        <time>2014-12-30T09:25:49Z</time>
      </trkpt>
      <trkpt lat="47.51916" lon="6.76359">
        <ele>391</ele>
        <time>2014-12-30T09:25:51Z</time>
      </trkpt>
      <trkpt lat="47.51918" lon="6.7636">
        <ele>391</ele>
        <time>2014-12-30T09:25:52Z</time>
      </trkpt>
      <trkpt lat="47.51921" lon="6.7636">
        <ele>391</ele>
        <time>2014-12-30T09:25:53Z</time>
      </trkpt>
      <trkpt lat="47.51923" lon="6.76361">
        <ele>391</ele>
        <time>2014-12-30T09:25:54Z</time>
      </trkpt>
      <trkpt lat="47.51927" lon="6.76362">
        <ele>391</ele>
        <time>2014-12-30T09:25:56Z</time>
      </trkpt>
      <trkpt lat="47.51929" lon="6.76362">
        <ele>390</ele>
        <time>2014-12-30T09:25:57Z</time>
      </trkpt>
      <trkpt lat="47.51931" lon="6.7636">
        <ele>391</ele>
        <time>2014-12-30T09:25:58Z</time>
      </trkpt>
      <trkpt lat="47.51933" lon="6.76357">
        <ele>391</ele>
        <time>2014-12-30T09:25:59Z</time>
      </trkpt>
      <trkpt lat="47.51936" lon="6.76354">
        <ele>391</ele>
        <time>2014-12-30T09:26:01Z</time>
      </trkpt>
      <trkpt lat="47.51938" lon="6.76352">
        <ele>391</ele>
        <time>2014-12-30T09:26:02Z</time>
      </trkpt>
      <trkpt lat="47.5194" lon="6.76348">
        <ele>391</ele>
        <time>2014-12-30T09:26:04Z</time>
      </trkpt>
      <trkpt lat="47.51942" lon="6.76345">
        <ele>391</ele>
        <time>2014-12-30T09:26:05Z</time>
      </trkpt>
      <trkpt lat="47.51943" lon="6.76342">
        <ele>391</ele>
        <time>2014-12-30T09:26:06Z</time>
      </trkpt>
      <trkpt lat="47.51944" lon="6.76338">
        <ele>391</ele>
        <time>2014-12-30T09:26:07Z</time>
      </trkpt>
      <trkpt lat="47.51946" lon="6.76335">
        <ele>391</ele>
        <time>2014-12-30T09:26:08Z</time>
      </trkpt>
      <trkpt lat="47.51947" lon="6.76332">
        <ele>393</ele>
        <time>2014-12-30T09:26:09Z</time>
      </trkpt>
      <trkpt lat="47.51949" lon="6.76329">
        <ele>393</ele>
        <time>2014-12-30T09:26:10Z</time>
      </trkpt>
      <trkpt lat="47.51951" lon="6.76327">
        <ele>393</ele>
        <time>2014-12-30T09:26:11Z</time>
      </trkpt>
      <trkpt lat="47.51953" lon="6.76324">
        <ele>393</ele>
        <time>2014-12-30T09:26:12Z</time>
      </trkpt>
      <trkpt lat="47.51954" lon="6.76322">
        <ele>393</ele>
        <time>2014-12-30T09:26:13Z</time>
      </trkpt>
      <trkpt lat="47.51956" lon="6.76319">
        <ele>393</ele>
        <time>2014-12-30T09:26:14Z</time>
      </trkpt>
      <trkpt lat="47.51958" lon="6.76317">
        <ele>393</ele>
        <time>2014-12-30T09:26:15Z</time>
      </trkpt>
      <trkpt lat="47.5196" lon="6.76314">
        <ele>392</ele>
        <time>2014-12-30T09:26:16Z</time>
      </trkpt>
      <trkpt lat="47.51962" lon="6.76312">
        <ele>392</ele>
        <time>2014-12-30T09:26:17Z</time>
      </trkpt>
      <trkpt lat="47.51964" lon="6.76309">
        <ele>392</ele>
        <time>2014-12-30T09:26:18Z</time>
      </trkpt>
      <trkpt lat="47.51966" lon="6.76307">
        <ele>392</ele>
        <time>2014-12-30T09:26:19Z</time>
      </trkpt>
      <trkpt lat="47.51968" lon="6.76304">
        <ele>392</ele>
        <time>2014-12-30T09:26:20Z</time>
      </trkpt>
      <trkpt lat="47.51969" lon="6.76302">
        <ele>392</ele>
        <time>2014-12-30T09:26:21Z</time>
      </trkpt>
      <trkpt lat="47.51971" lon="6.76299">
        <ele>392</ele>
        <time>2014-12-30T09:26:22Z</time>
      </trkpt>
      <trkpt lat="47.51973" lon="6.76296">
        <ele>392</ele>
        <time>2014-12-30T09:26:23Z</time>
      </trkpt>
      <trkpt lat="47.51974" lon="6.76293">
        <ele>392</ele>
        <time>2014-12-30T09:26:24Z</time>
      </trkpt>
      <trkpt lat="47.51976" lon="6.7629">
        <ele>392</ele>
        <time>2014-12-30T09:26:25Z</time>
      </trkpt>
      <trkpt lat="47.51978" lon="6.76287">
        <ele>392</ele>
        <time>2014-12-30T09:26:26Z</time>
      </trkpt>
      <trkpt lat="47.51981" lon="6.76277">
        <ele>392</ele>
        <time>2014-12-30T09:26:29Z</time>
      </trkpt>
      <trkpt lat="47.51984" lon="6.76273">
        <ele>392</ele>
        <time>2014-12-30T09:26:31Z</time>
      </trkpt>
      <trkpt lat="47.51984" lon="6.76271">
        <ele>392</ele>
        <time>2014-12-30T09:26:32Z</time>
      </trkpt>
      <trkpt lat="47.51985" lon="6.76266">
        <ele>392</ele>
        <time>2014-12-30T09:26:35Z</time>
      </trkpt>
      <trkpt lat="47.51985" lon="6.76264">
        <ele>392</ele>
        <time>2014-12-30T09:26:36Z</time>
      </trkpt>
      <trkpt lat="47.51987" lon="6.76261">
        <ele>392</ele>
        <time>2014-12-30T09:26:38Z</time>
      </trkpt>
      <trkpt lat="47.51988" lon="6.76259">
        <ele>392</ele>
        <time>2014-12-30T09:26:39Z</time>
      </trkpt>
      <trkpt lat="47.5199" lon="6.76256">
        <ele>392</ele>
        <time>2014-12-30T09:26:40Z</time>
      </trkpt>
      <trkpt lat="47.51991" lon="6.76252">
        <ele>392</ele>
        <time>2014-12-30T09:26:41Z</time>
      </trkpt>
      <trkpt lat="47.51993" lon="6.76248">
        <ele>392</ele>
        <time>2014-12-30T09:26:42Z</time>
      </trkpt>
      <trkpt lat="47.51994" lon="6.76244">
        <ele>392</ele>
        <time>2014-12-30T09:26:43Z</time>
      </trkpt>
      <trkpt lat="47.51996" lon="6.7624">
        <ele>392</ele>
        <time>2014-12-30T09:26:44Z</time>
      </trkpt>
      <trkpt lat="47.51997" lon="6.76237">
        <ele>392</ele>
        <time>2014-12-30T09:26:45Z</time>
      </trkpt>
      <trkpt lat="47.51999" lon="6.76233">
        <ele>392</ele>
        <time>2014-12-30T09:26:46Z</time>
      </trkpt>
      <trkpt lat="47.52001" lon="6.7623">
        <ele>392</ele>
        <time>2014-12-30T09:26:47Z</time>
      </trkpt>
      <trkpt lat="47.52003" lon="6.76227">
        <ele>391</ele>
        <time>2014-12-30T09:26:48Z</time>
      </trkpt>
      <trkpt lat="47.52004" lon="6.76223">
        <ele>391</ele>
        <time>2014-12-30T09:26:49Z</time>
      </trkpt>
      <trkpt lat="47.52006" lon="6.7622">
        <ele>391</ele>
        <time>2014-12-30T09:26:50Z</time>
      </trkpt>
      <trkpt lat="47.52008" lon="6.76216">
        <ele>390</ele>
        <time>2014-12-30T09:26:51Z</time>
      </trkpt>
      <trkpt lat="47.52009" lon="6.76212">
        <ele>390</ele>
        <time>2014-12-30T09:26:52Z</time>
      </trkpt>
      <trkpt lat="47.5201" lon="6.76208">
        <ele>389</ele>
        <time>2014-12-30T09:26:53Z</time>
      </trkpt>
      <trkpt lat="47.52012" lon="6.76204">
        <ele>389</ele>
        <time>2014-12-30T09:26:54Z</time>
      </trkpt>
      <trkpt lat="47.52014" lon="6.762">
        <ele>389</ele>
        <time>2014-12-30T09:26:55Z</time>
      </trkpt>
      <trkpt lat="47.52016" lon="6.76196">
        <ele>388</ele>
        <time>2014-12-30T09:26:56Z</time>
      </trkpt>
      <trkpt lat="47.52018" lon="6.76192">
        <ele>388</ele>
        <time>2014-12-30T09:26:57Z</time>
      </trkpt>
      <trkpt lat="47.5202" lon="6.76188">
        <ele>388</ele>
        <time>2014-12-30T09:26:58Z</time>
      </trkpt>
      <trkpt lat="47.52021" lon="6.76185">
        <ele>388</ele>
        <time>2014-12-30T09:26:59Z</time>
      </trkpt>
      <trkpt lat="47.52022" lon="6.76181">
        <ele>388</ele>
        <time>2014-12-30T09:27:00Z</time>
      </trkpt>
      <trkpt lat="47.52023" lon="6.76178">
        <ele>388</ele>
        <time>2014-12-30T09:27:01Z</time>
      </trkpt>
      <trkpt lat="47.52024" lon="6.76174">
        <ele>388</ele>
        <time>2014-12-30T09:27:02Z</time>
      </trkpt>
      <trkpt lat="47.52025" lon="6.76171">
        <ele>388</ele>
        <time>2014-12-30T09:27:03Z</time>
      </trkpt>
      <trkpt lat="47.52026" lon="6.76167">
        <ele>387</ele>
        <time>2014-12-30T09:27:04Z</time>
      </trkpt>
      <trkpt lat="47.52028" lon="6.76163">
        <ele>387</ele>
        <time>2014-12-30T09:27:05Z</time>
      </trkpt>
      <trkpt lat="47.5203" lon="6.76159">
        <ele>387</ele>
        <time>2014-12-30T09:27:06Z</time>
      </trkpt>
      <trkpt lat="47.52033" lon="6.76155">
        <ele>387</ele>
        <time>2014-12-30T09:27:07Z</time>
      </trkpt>
      <trkpt lat="47.52035" lon="6.76152">
        <ele>387</ele>
        <time>2014-12-30T09:27:08Z</time>
      </trkpt>
      <trkpt lat="47.52036" lon="6.76149">
        <ele>386</ele>
        <time>2014-12-30T09:27:09Z</time>
      </trkpt>
      <trkpt lat="47.52037" lon="6.76146">
        <ele>386</ele>
        <time>2014-12-30T09:27:10Z</time>
      </trkpt>
      <trkpt lat="47.52039" lon="6.76144">
        <ele>386</ele>
        <time>2014-12-30T09:27:11Z</time>
      </trkpt>
      <trkpt lat="47.52041" lon="6.76139">
        <ele>386</ele>
        <time>2014-12-30T09:27:13Z</time>
      </trkpt>
      <trkpt lat="47.52043" lon="6.76137">
        <ele>386</ele>
        <time>2014-12-30T09:27:14Z</time>
      </trkpt>
      <trkpt lat="47.52047" lon="6.76137">
        <ele>385</ele>
        <time>2014-12-30T09:27:17Z</time>
      </trkpt>
      <trkpt lat="47.52048" lon="6.76139">
        <ele>385</ele>
        <time>2014-12-30T09:27:18Z</time>
      </trkpt>
      <trkpt lat="47.5205" lon="6.76143">
        <ele>385</ele>
        <time>2014-12-30T09:27:21Z</time>
      </trkpt>
      <trkpt lat="47.52052" lon="6.76144">
        <ele>384</ele>
        <time>2014-12-30T09:27:22Z</time>
      </trkpt>
      <trkpt lat="47.52055" lon="6.76146">
        <ele>384</ele>
        <time>2014-12-30T09:27:24Z</time>
      </trkpt>
      <trkpt lat="47.52056" lon="6.76148">
        <ele>384</ele>
        <time>2014-12-30T09:27:25Z</time>
      </trkpt>
      <trkpt lat="47.52058" lon="6.7615">
        <ele>384</ele>
        <time>2014-12-30T09:27:26Z</time>
      </trkpt>
      <trkpt lat="47.52062" lon="6.76155">
        <ele>383</ele>
        <time>2014-12-30T09:27:29Z</time>
      </trkpt>
      <trkpt lat="47.52063" lon="6.76154">
        <ele>383</ele>
        <time>2014-12-30T09:27:30Z</time>
      </trkpt>
      <trkpt lat="47.52066" lon="6.76152">
        <ele>383</ele>
        <time>2014-12-30T09:27:31Z</time>
      </trkpt>
      <trkpt lat="47.52068" lon="6.76149">
        <ele>383</ele>
        <time>2014-12-30T09:27:32Z</time>
      </trkpt>
      <trkpt lat="47.52071" lon="6.76145">
        <ele>383</ele>
        <time>2014-12-30T09:27:33Z</time>
      </trkpt>
      <trkpt lat="47.52074" lon="6.76142">
        <ele>383</ele>
        <time>2014-12-30T09:27:34Z</time>
      </trkpt>
      <trkpt lat="47.52076" lon="6.76139">
        <ele>383</ele>
        <time>2014-12-30T09:27:35Z</time>
      </trkpt>
      <trkpt lat="47.52078" lon="6.76136">
        <ele>383</ele>
        <time>2014-12-30T09:27:36Z</time>
      </trkpt>
      <trkpt lat="47.5208" lon="6.76133">
        <ele>383</ele>
        <time>2014-12-30T09:27:37Z</time>
      </trkpt>
      <trkpt lat="47.52082" lon="6.7613">
        <ele>383</ele>
        <time>2014-12-30T09:27:38Z</time>
      </trkpt>
      <trkpt lat="47.52084" lon="6.76126">
        <ele>382</ele>
        <time>2014-12-30T09:27:39Z</time>
      </trkpt>
      <trkpt lat="47.52086" lon="6.76123">
        <ele>382</ele>
        <time>2014-12-30T09:27:40Z</time>
      </trkpt>
      <trkpt lat="47.52088" lon="6.76121">
        <ele>382</ele>
        <time>2014-12-30T09:27:41Z</time>
      </trkpt>
      <trkpt lat="47.5209" lon="6.76119">
        <ele>382</ele>
        <time>2014-12-30T09:27:42Z</time>
      </trkpt>
      <trkpt lat="47.52092" lon="6.76116">
        <ele>382</ele>
        <time>2014-12-30T09:27:43Z</time>
      </trkpt>
      <trkpt lat="47.52094" lon="6.76114">
        <ele>382</ele>
        <time>2014-12-30T09:27:44Z</time>
      </trkpt>
      <trkpt lat="47.52095" lon="6.76112">
        <ele>383</ele>
        <time>2014-12-30T09:27:45Z</time>
      </trkpt>
      <trkpt lat="47.52098" lon="6.76107">
        <ele>383</ele>
        <time>2014-12-30T09:27:47Z</time>
      </trkpt>
      <trkpt lat="47.52099" lon="6.76104">
        <ele>383</ele>
        <time>2014-12-30T09:27:48Z</time>
      </trkpt>
      <trkpt lat="47.52101" lon="6.76102">
        <ele>383</ele>
        <time>2014-12-30T09:27:49Z</time>
      </trkpt>
      <trkpt lat="47.52103" lon="6.761">
        <ele>383</ele>
        <time>2014-12-30T09:27:50Z</time>
      </trkpt>
      <trkpt lat="47.52105" lon="6.76098">
        <ele>382</ele>
        <time>2014-12-30T09:27:51Z</time>
      </trkpt>
      <trkpt lat="47.52107" lon="6.76096">
        <ele>382</ele>
        <time>2014-12-30T09:27:52Z</time>
      </trkpt>
      <trkpt lat="47.52109" lon="6.76093">
        <ele>382</ele>
        <time>2014-12-30T09:27:53Z</time>
      </trkpt>
      <trkpt lat="47.52111" lon="6.76091">
        <ele>382</ele>
        <time>2014-12-30T09:27:54Z</time>
      </trkpt>
      <trkpt lat="47.52113" lon="6.76089">
        <ele>382</ele>
        <time>2014-12-30T09:27:55Z</time>
      </trkpt>
      <trkpt lat="47.52115" lon="6.76087">
        <ele>382</ele>
        <time>2014-12-30T09:27:56Z</time>
      </trkpt>
      <trkpt lat="47.52118" lon="6.76084">
        <ele>382</ele>
        <time>2014-12-30T09:27:58Z</time>
      </trkpt>
      <trkpt lat="47.5212" lon="6.76083">
        <ele>383</ele>
        <time>2014-12-30T09:27:59Z</time>
      </trkpt>
      <trkpt lat="47.52121" lon="6.76081">
        <ele>382</ele>
        <time>2014-12-30T09:28:00Z</time>
      </trkpt>
      <trkpt lat="47.52124" lon="6.7608">
        <ele>382</ele>
        <time>2014-12-30T09:28:01Z</time>
      </trkpt>
      <trkpt lat="47.52126" lon="6.76078">
        <ele>382</ele>
        <time>2014-12-30T09:28:02Z</time>
      </trkpt>
      <trkpt lat="47.52129" lon="6.76077">
        <ele>382</ele>
        <time>2014-12-30T09:28:03Z</time>
      </trkpt>
      <trkpt lat="47.52132" lon="6.76074">
        <ele>381</ele>
        <time>2014-12-30T09:28:05Z</time>
      </trkpt>
      <trkpt lat="47.52134" lon="6.76072">
        <ele>381</ele>
        <time>2014-12-30T09:28:06Z</time>
      </trkpt>
      <trkpt lat="47.52137" lon="6.76069">
        <ele>381</ele>
        <time>2014-12-30T09:28:08Z</time>
      </trkpt>
      <trkpt lat="47.52139" lon="6.76067">
        <ele>381</ele>
        <time>2014-12-30T09:28:09Z</time>
      </trkpt>
      <trkpt lat="47.5214" lon="6.76065">
        <ele>381</ele>
        <time>2014-12-30T09:28:10Z</time>
      </trkpt>
      <trkpt lat="47.52142" lon="6.76063">
        <ele>380</ele>
        <time>2014-12-30T09:28:11Z</time>
      </trkpt>
      <trkpt lat="47.52145" lon="6.76062">
        <ele>380</ele>
        <time>2014-12-30T09:28:12Z</time>
      </trkpt>
      <trkpt lat="47.52147" lon="6.7606">
        <ele>380</ele>
        <time>2014-12-30T09:28:13Z</time>
      </trkpt>
      <trkpt lat="47.5215" lon="6.76058">
        <ele>380</ele>
        <time>2014-12-30T09:28:14Z</time>
      </trkpt>
      <trkpt lat="47.52152" lon="6.76057">
        <ele>380</ele>
        <time>2014-12-30T09:28:15Z</time>
      </trkpt>
      <trkpt lat="47.52154" lon="6.76055">
        <ele>380</ele>
        <time>2014-12-30T09:28:16Z</time>
      </trkpt>
      <trkpt lat="47.52156" lon="6.76053">
        <ele>380</ele>
        <time>2014-12-30T09:28:17Z</time>
      </trkpt>
      <trkpt lat="47.5216" lon="6.76051">
        <ele>380</ele>
        <time>2014-12-30T09:28:19Z</time>
      </trkpt>
      <trkpt lat="47.52161" lon="6.76049">
        <ele>380</ele>
        <time>2014-12-30T09:28:20Z</time>
      </trkpt>
      <trkpt lat="47.52165" lon="6.76045">
        <ele>380</ele>
        <time>2014-12-30T09:28:22Z</time>
      </trkpt>
      <trkpt lat="47.52167" lon="6.76043">
        <ele>379</ele>
        <time>2014-12-30T09:28:23Z</time>
      </trkpt>
      <trkpt lat="47.52169" lon="6.76039">
        <ele>379</ele>
        <time>2014-12-30T09:28:25Z</time>
      </trkpt>
      <trkpt lat="47.52171" lon="6.76037">
        <ele>379</ele>
        <time>2014-12-30T09:28:26Z</time>
      </trkpt>
      <trkpt lat="47.52173" lon="6.76035">
        <ele>380</ele>
        <time>2014-12-30T09:28:27Z</time>
      </trkpt>
      <trkpt lat="47.52185" lon="6.76018">
        <ele>380</ele>
        <time>2014-12-30T09:28:35Z</time>
      </trkpt>
      <trkpt lat="47.52187" lon="6.76015">
        <ele>380</ele>
        <time>2014-12-30T09:28:36Z</time>
      </trkpt>
      <trkpt lat="47.52189" lon="6.76012">
        <ele>380</ele>
        <time>2014-12-30T09:28:37Z</time>
      </trkpt>
      <trkpt lat="47.52191" lon="6.76009">
        <ele>380</ele>
        <time>2014-12-30T09:28:38Z</time>
      </trkpt>
      <trkpt lat="47.52193" lon="6.76006">
        <ele>379</ele>
        <time>2014-12-30T09:28:38Z</time>
      </trkpt>
      <trkpt lat="47.52197" lon="6.76002">
        <ele>379</ele>
        <time>2014-12-30T09:28:40Z</time>
      </trkpt>
      <trkpt lat="47.52198" lon="6.76">
        <ele>379</ele>
        <time>2014-12-30T09:28:41Z</time>
      </trkpt>
      <trkpt lat="47.52201" lon="6.75997">
        <ele>379</ele>
        <time>2014-12-30T09:28:42Z</time>
      </trkpt>
      <trkpt lat="47.52203" lon="6.75995">
        <ele>379</ele>
        <time>2014-12-30T09:28:43Z</time>
      </trkpt>
      <trkpt lat="47.52206" lon="6.75993">
        <ele>379</ele>
        <time>2014-12-30T09:28:44Z</time>
      </trkpt>
      <trkpt lat="47.52208" lon="6.75991">
        <ele>378</ele>
        <time>2014-12-30T09:28:45Z</time>
      </trkpt>
      <trkpt lat="47.52209" lon="6.75988">
        <ele>378</ele>
        <time>2014-12-30T09:28:46Z</time>
      </trkpt>
      <trkpt lat="47.52211" lon="6.75985">
        <ele>378</ele>
        <time>2014-12-30T09:28:47Z</time>
      </trkpt>
      <trkpt lat="47.52213" lon="6.75983">
        <ele>378</ele>
        <time>2014-12-30T09:28:48Z</time>
      </trkpt>
      <trkpt lat="47.52215" lon="6.75982">
        <ele>377</ele>
        <time>2014-12-30T09:28:49Z</time>
      </trkpt>
      <trkpt lat="47.52219" lon="6.75978">
        <ele>377</ele>
        <time>2014-12-30T09:28:51Z</time>
      </trkpt>
      <trkpt lat="47.5222" lon="6.75976">
        <ele>377</ele>
        <time>2014-12-30T09:28:52Z</time>
      </trkpt>
      <trkpt lat="47.52222" lon="6.75973">
        <ele>377</ele>
        <time>2014-12-30T09:28:53Z</time>
      </trkpt>
      <trkpt lat="47.52223" lon="6.75971">
        <ele>376</ele>
        <time>2014-12-30T09:28:54Z</time>
      </trkpt>
      <trkpt lat="47.52225" lon="6.75968">
        <ele>376</ele>
        <time>2014-12-30T09:28:55Z</time>
      </trkpt>
      <trkpt lat="47.52228" lon="6.75966">
        <ele>376</ele>
        <time>2014-12-30T09:28:56Z</time>
      </trkpt>
      <trkpt lat="47.52231" lon="6.75966">
        <ele>376</ele>
        <time>2014-12-30T09:28:57Z</time>
      </trkpt>
      <trkpt lat="47.52233" lon="6.75966">
        <ele>376</ele>
        <time>2014-12-30T09:28:58Z</time>
      </trkpt>
      <trkpt lat="47.52236" lon="6.75967">
        <ele>375</ele>
        <time>2014-12-30T09:28:59Z</time>
      </trkpt>
      <trkpt lat="47.52239" lon="6.75968">
        <ele>375</ele>
        <time>2014-12-30T09:29:00Z</time>
      </trkpt>
      <trkpt lat="47.52241" lon="6.75969">
        <ele>375</ele>
        <time>2014-12-30T09:29:01Z</time>
      </trkpt>
      <trkpt lat="47.52243" lon="6.75971">
        <ele>375</ele>
        <time>2014-12-30T09:29:02Z</time>
      </trkpt>
      <trkpt lat="47.52247" lon="6.75973">
        <ele>375</ele>
        <time>2014-12-30T09:29:04Z</time>
      </trkpt>
      <trkpt lat="47.52249" lon="6.75974">
        <ele>375</ele>
        <time>2014-12-30T09:29:05Z</time>
      </trkpt>
      <trkpt lat="47.52253" lon="6.75977">
        <ele>375</ele>
        <time>2014-12-30T09:29:07Z</time>
      </trkpt>
      <trkpt lat="47.52256" lon="6.75978">
        <ele>375</ele>
        <time>2014-12-30T09:29:08Z</time>
      </trkpt>
      <trkpt lat="47.52258" lon="6.75979">
        <ele>375</ele>
        <time>2014-12-30T09:29:09Z</time>
      </trkpt>
      <trkpt lat="47.52261" lon="6.7598">
        <ele>375</ele>
        <time>2014-12-30T09:29:10Z</time>
      </trkpt>
      <trkpt lat="47.52263" lon="6.75981">
        <ele>375</ele>
        <time>2014-12-30T09:29:11Z</time>
      </trkpt>
      <trkpt lat="47.52266" lon="6.75982">
        <ele>375</ele>
        <time>2014-12-30T09:29:12Z</time>
      </trkpt>
      <trkpt lat="47.52268" lon="6.75984">
        <ele>375</ele>
        <time>2014-12-30T09:29:13Z</time>
      </trkpt>
      <trkpt lat="47.52271" lon="6.75985">
        <ele>375</ele>
        <time>2014-12-30T09:29:14Z</time>
      </trkpt>
      <trkpt lat="47.52273" lon="6.75986">
        <ele>375</ele>
        <time>2014-12-30T09:29:15Z</time>
      </trkpt>
      <trkpt lat="47.52275" lon="6.75987">
        <ele>375</ele>
        <time>2014-12-30T09:29:16Z</time>
      </trkpt>
      <trkpt lat="47.52277" lon="6.75988">
        <ele>375</ele>
        <time>2014-12-30T09:29:17Z</time>
      </trkpt>
      <trkpt lat="47.52279" lon="6.7599">
        <ele>375</ele>
        <time>2014-12-30T09:29:18Z</time>
      </trkpt>
      <trkpt lat="47.52282" lon="6.75991">
        <ele>375</ele>
        <time>2014-12-30T09:29:19Z</time>
      </trkpt>
      <trkpt lat="47.52284" lon="6.75992">
        <ele>375</ele>
        <time>2014-12-30T09:29:20Z</time>
      </trkpt>
      <trkpt lat="47.52287" lon="6.75994">
        <ele>375</ele>
        <time>2014-12-30T09:29:22Z</time>
      </trkpt>
      <trkpt lat="47.52288" lon="6.75995">
        <ele>375</ele>
        <time>2014-12-30T09:29:23Z</time>
      </trkpt>
      <trkpt lat="47.52292" lon="6.75997">
        <ele>375</ele>
        <time>2014-12-30T09:29:25Z</time>
      </trkpt>
      <trkpt lat="47.52294" lon="6.75998">
        <ele>375</ele>
        <time>2014-12-30T09:29:26Z</time>
      </trkpt>
      <trkpt lat="47.52299" lon="6.76002">
        <ele>377</ele>
        <time>2014-12-30T09:29:29Z</time>
      </trkpt>
      <trkpt lat="47.52302" lon="6.76005">
        <ele>377</ele>
        <time>2014-12-30T09:29:31Z</time>
      </trkpt>
      <trkpt lat="47.52304" lon="6.76006">
        <ele>377</ele>
        <time>2014-12-30T09:29:32Z</time>
      </trkpt>
      <trkpt lat="47.52307" lon="6.76008">
        <ele>377</ele>
        <time>2014-12-30T09:29:34Z</time>
      </trkpt>
      <trkpt lat="47.52309" lon="6.7601">
        <ele>377</ele>
        <time>2014-12-30T09:29:35Z</time>
      </trkpt>
      <trkpt lat="47.52311" lon="6.76011">
        <ele>377</ele>
        <time>2014-12-30T09:29:36Z</time>
      </trkpt>
      <trkpt lat="47.52313" lon="6.76013">
        <ele>377</ele>
        <time>2014-12-30T09:29:37Z</time>
      </trkpt>
      <trkpt lat="47.52315" lon="6.76014">
        <ele>377</ele>
        <time>2014-12-30T09:29:38Z</time>
      </trkpt>
      <trkpt lat="47.52317" lon="6.76016">
        <ele>377</ele>
        <time>2014-12-30T09:29:39Z</time>
      </trkpt>
      <trkpt lat="47.52321" lon="6.76018">
        <ele>377</ele>
        <time>2014-12-30T09:29:41Z</time>
      </trkpt>
      <trkpt lat="47.52323" lon="6.76019">
        <ele>377</ele>
        <time>2014-12-30T09:29:42Z</time>
      </trkpt>
      <trkpt lat="47.52327" lon="6.76022">
        <ele>377</ele>
        <time>2014-12-30T09:29:44Z</time>
      </trkpt>
      <trkpt lat="47.52329" lon="6.76023">
        <ele>377</ele>
        <time>2014-12-30T09:29:45Z</time>
      </trkpt>
      <trkpt lat="47.52333" lon="6.76026">
        <ele>377</ele>
        <time>2014-12-30T09:29:47Z</time>
      </trkpt>
      <trkpt lat="47.52335" lon="6.76027">
        <ele>378</ele>
        <time>2014-12-30T09:29:48Z</time>
      </trkpt>
      <trkpt lat="47.52339" lon="6.7603">
        <ele>378</ele>
        <time>2014-12-30T09:29:50Z</time>
      </trkpt>
      <trkpt lat="47.52341" lon="6.76031">
        <ele>378</ele>
        <time>2014-12-30T09:29:51Z</time>
      </trkpt>
      <trkpt lat="47.52345" lon="6.76033">
        <ele>378</ele>
        <time>2014-12-30T09:29:53Z</time>
      </trkpt>
      <trkpt lat="47.52346" lon="6.76034">
        <ele>378</ele>
        <time>2014-12-30T09:29:54Z</time>
      </trkpt>
      <trkpt lat="47.5235" lon="6.76036">
        <ele>379</ele>
        <time>2014-12-30T09:29:56Z</time>
      </trkpt>
      <trkpt lat="47.52352" lon="6.76038">
        <ele>379</ele>
        <time>2014-12-30T09:29:57Z</time>
      </trkpt>
      <trkpt lat="47.52354" lon="6.76039">
        <ele>379</ele>
        <time>2014-12-30T09:29:58Z</time>
      </trkpt>
      <trkpt lat="47.52356" lon="6.76041">
        <ele>379</ele>
        <time>2014-12-30T09:29:59Z</time>
      </trkpt>
      <trkpt lat="47.52359" lon="6.76043">
        <ele>379</ele>
        <time>2014-12-30T09:30:00Z</time>
      </trkpt>
      <trkpt lat="47.52361" lon="6.76045">
        <ele>379</ele>
        <time>2014-12-30T09:30:01Z</time>
      </trkpt>
      <trkpt lat="47.52364" lon="6.76046">
        <ele>379</ele>
        <time>2014-12-30T09:30:02Z</time>
      </trkpt>
      <trkpt lat="47.52366" lon="6.76048">
        <ele>379</ele>
        <time>2014-12-30T09:30:03Z</time>
      </trkpt>
      <trkpt lat="47.52369" lon="6.7605">
        <ele>379</ele>
        <time>2014-12-30T09:30:04Z</time>
      </trkpt>
      <trkpt lat="47.52372" lon="6.76051">
        <ele>379</ele>
        <time>2014-12-30T09:30:05Z</time>
      </trkpt>
      <trkpt lat="47.52375" lon="6.76053">
        <ele>379</ele>
        <time>2014-12-30T09:30:06Z</time>
      </trkpt>
      <trkpt lat="47.52378" lon="6.76055">
        <ele>379</ele>
        <time>2014-12-30T09:30:07Z</time>
      </trkpt>
      <trkpt lat="47.5238" lon="6.76056">
        <ele>380</ele>
        <time>2014-12-30T09:30:08Z</time>
      </trkpt>
      <trkpt lat="47.52382" lon="6.76059">
        <ele>380</ele>
        <time>2014-12-30T09:30:09Z</time>
      </trkpt>
      <trkpt lat="47.52384" lon="6.76061">
        <ele>380</ele>
        <time>2014-12-30T09:30:10Z</time>
      </trkpt>
      <trkpt lat="47.52386" lon="6.76064">
        <ele>380</ele>
        <time>2014-12-30T09:30:11Z</time>
      </trkpt>
      <trkpt lat="47.52388" lon="6.76066">
        <ele>380</ele>
        <time>2014-12-30T09:30:12Z</time>
      </trkpt>
      <trkpt lat="47.5239" lon="6.76069">
        <ele>380</ele>
        <time>2014-12-30T09:30:13Z</time>
      </trkpt>
      <trkpt lat="47.52392" lon="6.76071">
        <ele>380</ele>
        <time>2014-12-30T09:30:14Z</time>
      </trkpt>
      <trkpt lat="47.52393" lon="6.76073">
        <ele>381</ele>
        <time>2014-12-30T09:30:15Z</time>
      </trkpt>
      <trkpt lat="47.52395" lon="6.76076">
        <ele>381</ele>
        <time>2014-12-30T09:30:16Z</time>
      </trkpt>
      <trkpt lat="47.52397" lon="6.76079">
        <ele>381</ele>
        <time>2014-12-30T09:30:17Z</time>
      </trkpt>
      <trkpt lat="47.52399" lon="6.76081">
        <ele>381</ele>
        <time>2014-12-30T09:30:18Z</time>
      </trkpt>
      <trkpt lat="47.524" lon="6.76083">
        <ele>381</ele>
        <time>2014-12-30T09:30:19Z</time>
      </trkpt>
      <trkpt lat="47.52402" lon="6.76087">
        <ele>382</ele>
        <time>2014-12-30T09:30:21Z</time>
      </trkpt>
      <trkpt lat="47.52403" lon="6.76089">
        <ele>382</ele>
        <time>2014-12-30T09:30:22Z</time>
      </trkpt>
      <trkpt lat="47.52404" lon="6.76092">
        <ele>382</ele>
        <time>2014-12-30T09:30:23Z</time>
      </trkpt>
      <trkpt lat="47.52406" lon="6.76095">
        <ele>382</ele>
        <time>2014-12-30T09:30:24Z</time>
      </trkpt>
      <trkpt lat="47.52408" lon="6.76098">
        <ele>382</ele>
        <time>2014-12-30T09:30:25Z</time>
      </trkpt>
      <trkpt lat="47.52409" lon="6.76101">
        <ele>382</ele>
        <time>2014-12-30T09:30:26Z</time>
      </trkpt>
      <trkpt lat="47.52414" lon="6.76108">
        <ele>382</ele>
        <time>2014-12-30T09:30:29Z</time>
      </trkpt>
      <trkpt lat="47.52415" lon="6.76111">
        <ele>383</ele>
        <time>2014-12-30T09:30:30Z</time>
      </trkpt>
      <trkpt lat="47.52417" lon="6.76113">
        <ele>383</ele>
        <time>2014-12-30T09:30:31Z</time>
      </trkpt>
      <trkpt lat="47.52421" lon="6.76116">
        <ele>383</ele>
        <time>2014-12-30T09:30:33Z</time>
      </trkpt>
      <trkpt lat="47.52423" lon="6.76117">
        <ele>383</ele>
        <time>2014-12-30T09:30:34Z</time>
      </trkpt>
      <trkpt lat="47.52425" lon="6.7612">
        <ele>383</ele>
        <time>2014-12-30T09:30:36Z</time>
      </trkpt>
      <trkpt lat="47.52426" lon="6.76121">
        <ele>383</ele>
        <time>2014-12-30T09:30:37Z</time>
      </trkpt>
      <trkpt lat="47.52428" lon="6.76125">
        <ele>384</ele>
        <time>2014-12-30T09:30:39Z</time>
      </trkpt>
      <trkpt lat="47.5243" lon="6.76127">
        <ele>384</ele>
        <time>2014-12-30T09:30:40Z</time>
      </trkpt>
      <trkpt lat="47.52431" lon="6.76131">
        <ele>384</ele>
        <time>2014-12-30T09:30:42Z</time>
      </trkpt>
      <trkpt lat="47.52433" lon="6.76133">
        <ele>384</ele>
        <time>2014-12-30T09:30:43Z</time>
      </trkpt>
      <trkpt lat="47.52436" lon="6.76137">
        <ele>384</ele>
        <time>2014-12-30T09:30:45Z</time>
      </trkpt>
      <trkpt lat="47.52437" lon="6.7614">
        <ele>384</ele>
        <time>2014-12-30T09:30:46Z</time>
      </trkpt>
      <trkpt lat="47.52439" lon="6.76142">
        <ele>384</ele>
        <time>2014-12-30T09:30:47Z</time>
      </trkpt>
      <trkpt lat="47.5244" lon="6.76145">
        <ele>384</ele>
        <time>2014-12-30T09:30:48Z</time>
      </trkpt>
      <trkpt lat="47.52442" lon="6.76148">
        <ele>384</ele>
        <time>2014-12-30T09:30:49Z</time>
      </trkpt>
      <trkpt lat="47.52443" lon="6.76151">
        <ele>384</ele>
        <time>2014-12-30T09:30:50Z</time>
      </trkpt>
      <trkpt lat="47.52445" lon="6.76154">
        <ele>384</ele>
        <time>2014-12-30T09:30:51Z</time>
      </trkpt>
      <trkpt lat="47.52446" lon="6.76157">
        <ele>384</ele>
        <time>2014-12-30T09:30:52Z</time>
      </trkpt>
      <trkpt lat="47.52448" lon="6.7616">
        <ele>384</ele>
        <time>2014-12-30T09:30:53Z</time>
      </trkpt>
      <trkpt lat="47.5245" lon="6.76163">
        <ele>384</ele>
        <time>2014-12-30T09:30:54Z</time>
      </trkpt>
      <trkpt lat="47.52451" lon="6.76166">
        <ele>384</ele>
        <time>2014-12-30T09:30:55Z</time>
      </trkpt>
      <trkpt lat="47.52453" lon="6.76169">
        <ele>386</ele>
        <time>2014-12-30T09:30:56Z</time>
      </trkpt>
      <trkpt lat="47.52454" lon="6.76172">
        <ele>386</ele>
        <time>2014-12-30T09:30:57Z</time>
      </trkpt>
      <trkpt lat="47.52456" lon="6.76175">
        <ele>386</ele>
        <time>2014-12-30T09:30:58Z</time>
      </trkpt>
      <trkpt lat="47.52458" lon="6.76178">
        <ele>386</ele>
        <time>2014-12-30T09:30:59Z</time>
      </trkpt>
      <trkpt lat="47.52459" lon="6.7618">
        <ele>385</ele>
        <time>2014-12-30T09:31:00Z</time>
      </trkpt>
      <trkpt lat="47.52461" lon="6.76183">
        <ele>385</ele>
        <time>2014-12-30T09:31:01Z</time>
      </trkpt>
      <trkpt lat="47.52463" lon="6.76185">
        <ele>385</ele>
        <time>2014-12-30T09:31:02Z</time>
      </trkpt>
      <trkpt lat="47.52466" lon="6.76189">
        <ele>385</ele>
        <time>2014-12-30T09:31:04Z</time>
      </trkpt>
      <trkpt lat="47.52467" lon="6.76192">
        <ele>385</ele>
        <time>2014-12-30T09:31:05Z</time>
      </trkpt>
      <trkpt lat="47.52469" lon="6.76194">
        <ele>385</ele>
        <time>2014-12-30T09:31:06Z</time>
      </trkpt>
      <trkpt lat="47.52471" lon="6.76197">
        <ele>385</ele>
        <time>2014-12-30T09:31:07Z</time>
      </trkpt>
      <trkpt lat="47.52473" lon="6.76199">
        <ele>384</ele>
        <time>2014-12-30T09:31:08Z</time>
      </trkpt>
      <trkpt lat="47.52475" lon="6.76202">
        <ele>384</ele>
        <time>2014-12-30T09:31:09Z</time>
      </trkpt>
      <trkpt lat="47.52477" lon="6.76204">
        <ele>384</ele>
        <time>2014-12-30T09:31:10Z</time>
      </trkpt>
      <trkpt lat="47.52479" lon="6.76207">
        <ele>384</ele>
        <time>2014-12-30T09:31:11Z</time>
      </trkpt>
      <trkpt lat="47.52481" lon="6.7621">
        <ele>384</ele>
        <time>2014-12-30T09:31:12Z</time>
      </trkpt>
      <trkpt lat="47.52483" lon="6.76213">
        <ele>385</ele>
        <time>2014-12-30T09:31:13Z</time>
      </trkpt>
      <trkpt lat="47.52485" lon="6.76215">
        <ele>385</ele>
        <time>2014-12-30T09:31:14Z</time>
      </trkpt>
      <trkpt lat="47.52487" lon="6.76218">
        <ele>385</ele>
        <time>2014-12-30T09:31:15Z</time>
      </trkpt>
      <trkpt lat="47.52488" lon="6.76221">
        <ele>385</ele>
        <time>2014-12-30T09:31:16Z</time>
      </trkpt>
      <trkpt lat="47.5249" lon="6.76223">
        <ele>385</ele>
        <time>2014-12-30T09:31:17Z</time>
      </trkpt>
      <trkpt lat="47.52493" lon="6.76227">
        <ele>385</ele>
        <time>2014-12-30T09:31:19Z</time>
      </trkpt>
      <trkpt lat="47.52494" lon="6.76228">
        <ele>385</ele>
        <time>2014-12-30T09:31:20Z</time>
      </trkpt>
      <trkpt lat="47.52496" lon="6.76233">
        <ele>385</ele>
        <time>2014-12-30T09:31:22Z</time>
      </trkpt>
      <trkpt lat="47.52498" lon="6.76236">
        <ele>385</ele>
        <time>2014-12-30T09:31:23Z</time>
      </trkpt>
      <trkpt lat="47.52499" lon="6.76239">
        <ele>385</ele>
        <time>2014-12-30T09:31:24Z</time>
      </trkpt>
      <trkpt lat="47.52501" lon="6.76243">
        <ele>385</ele>
        <time>2014-12-30T09:31:25Z</time>
      </trkpt>
      <trkpt lat="47.52502" lon="6.76246">
        <ele>385</ele>
        <time>2014-12-30T09:31:26Z</time>
      </trkpt>
      <trkpt lat="47.52507" lon="6.76255">
        <ele>385</ele>
        <time>2014-12-30T09:31:29Z</time>
      </trkpt>
      <trkpt lat="47.52508" lon="6.76258">
        <ele>385</ele>
        <time>2014-12-30T09:31:30Z</time>
      </trkpt>
      <trkpt lat="47.5251" lon="6.76261">
        <ele>385</ele>
        <time>2014-12-30T09:31:31Z</time>
      </trkpt>
      <trkpt lat="47.52512" lon="6.76264">
        <ele>385</ele>
        <time>2014-12-30T09:31:32Z</time>
      </trkpt>
      <trkpt lat="47.52513" lon="6.76266">
        <ele>385</ele>
        <time>2014-12-30T09:31:33Z</time>
      </trkpt>
      <trkpt lat="47.52517" lon="6.76269">
        <ele>385</ele>
        <time>2014-12-30T09:31:35Z</time>
      </trkpt>
      <trkpt lat="47.52519" lon="6.76271">
        <ele>385</ele>
        <time>2014-12-30T09:31:36Z</time>
      </trkpt>
      <trkpt lat="47.5252" lon="6.76274">
        <ele>385</ele>
        <time>2014-12-30T09:31:37Z</time>
      </trkpt>
      <trkpt lat="47.52522" lon="6.76277">
        <ele>385</ele>
        <time>2014-12-30T09:31:38Z</time>
      </trkpt>
      <trkpt lat="47.52523" lon="6.7628">
        <ele>384</ele>
        <time>2014-12-30T09:31:39Z</time>
      </trkpt>
      <trkpt lat="47.52524" lon="6.76282">
        <ele>384</ele>
        <time>2014-12-30T09:31:40Z</time>
      </trkpt>
      <trkpt lat="47.52527" lon="6.76286">
        <ele>384</ele>
        <time>2014-12-30T09:31:41Z</time>
      </trkpt>
      <trkpt lat="47.52529" lon="6.76288">
        <ele>384</ele>
        <time>2014-12-30T09:31:42Z</time>
      </trkpt>
      <trkpt lat="47.52531" lon="6.76291">
        <ele>384</ele>
        <time>2014-12-30T09:31:43Z</time>
      </trkpt>
      <trkpt lat="47.52533" lon="6.76294">
        <ele>383</ele>
        <time>2014-12-30T09:31:44Z</time>
      </trkpt>
      <trkpt lat="47.52534" lon="6.76296">
        <ele>383</ele>
        <time>2014-12-30T09:31:45Z</time>
      </trkpt>
      <trkpt lat="47.52536" lon="6.76299">
        <ele>383</ele>
        <time>2014-12-30T09:31:46Z</time>
      </trkpt>
      <trkpt lat="47.52537" lon="6.76303">
        <ele>383</ele>
        <time>2014-12-30T09:31:47Z</time>
      </trkpt>
      <trkpt lat="47.52539" lon="6.76307">
        <ele>383</ele>
        <time>2014-12-30T09:31:48Z</time>
      </trkpt>
      <trkpt lat="47.5254" lon="6.7631">
        <ele>383</ele>
        <time>2014-12-30T09:31:49Z</time>
      </trkpt>
      <trkpt lat="47.52542" lon="6.76314">
        <ele>383</ele>
        <time>2014-12-30T09:31:50Z</time>
      </trkpt>
      <trkpt lat="47.52543" lon="6.76318">
        <ele>382</ele>
        <time>2014-12-30T09:31:51Z</time>
      </trkpt>
      <trkpt lat="47.52544" lon="6.76321">
        <ele>382</ele>
        <time>2014-12-30T09:31:51Z</time>
      </trkpt>
      <trkpt lat="47.52546" lon="6.76324">
        <ele>382</ele>
        <time>2014-12-30T09:31:53Z</time>
      </trkpt>
      <trkpt lat="47.52547" lon="6.76326">
        <ele>382</ele>
        <time>2014-12-30T09:31:54Z</time>
      </trkpt>
      <trkpt lat="47.52549" lon="6.76332">
        <ele>382</ele>
        <time>2014-12-30T09:31:56Z</time>
      </trkpt>
      <trkpt lat="47.5255" lon="6.76335">
        <ele>384</ele>
        <time>2014-12-30T09:31:57Z</time>
      </trkpt>
      <trkpt lat="47.52551" lon="6.76338">
        <ele>384</ele>
        <time>2014-12-30T09:31:58Z</time>
      </trkpt>
      <trkpt lat="47.52552" lon="6.76342">
        <ele>384</ele>
        <time>2014-12-30T09:31:59Z</time>
      </trkpt>
      <trkpt lat="47.52553" lon="6.76345">
        <ele>383</ele>
        <time>2014-12-30T09:32:00Z</time>
      </trkpt>
      <trkpt lat="47.52555" lon="6.76347">
        <ele>383</ele>
        <time>2014-12-30T09:32:01Z</time>
      </trkpt>
      <trkpt lat="47.52556" lon="6.7635">
        <ele>383</ele>
        <time>2014-12-30T09:32:02Z</time>
      </trkpt>
      <trkpt lat="47.52557" lon="6.76353">
        <ele>383</ele>
        <time>2014-12-30T09:32:03Z</time>
      </trkpt>
      <trkpt lat="47.52559" lon="6.76356">
        <ele>383</ele>
        <time>2014-12-30T09:32:04Z</time>
      </trkpt>
      <trkpt lat="47.5256" lon="6.7636">
        <ele>383</ele>
        <time>2014-12-30T09:32:05Z</time>
      </trkpt>
      <trkpt lat="47.52561" lon="6.76364">
        <ele>383</ele>
        <time>2014-12-30T09:32:06Z</time>
      </trkpt>
      <trkpt lat="47.52562" lon="6.76367">
        <ele>383</ele>
        <time>2014-12-30T09:32:07Z</time>
      </trkpt>
      <trkpt lat="47.52563" lon="6.76371">
        <ele>384</ele>
        <time>2014-12-30T09:32:08Z</time>
      </trkpt>
      <trkpt lat="47.52564" lon="6.76375">
        <ele>384</ele>
        <time>2014-12-30T09:32:09Z</time>
      </trkpt>
      <trkpt lat="47.52566" lon="6.76378">
        <ele>384</ele>
        <time>2014-12-30T09:32:10Z</time>
      </trkpt>
      <trkpt lat="47.52567" lon="6.76381">
        <ele>384</ele>
        <time>2014-12-30T09:32:11Z</time>
      </trkpt>
      <trkpt lat="47.52568" lon="6.76384">
        <ele>384</ele>
        <time>2014-12-30T09:32:12Z</time>
      </trkpt>
      <trkpt lat="47.5257" lon="6.76387">
        <ele>384</ele>
        <time>2014-12-30T09:32:13Z</time>
      </trkpt>
      <trkpt lat="47.52571" lon="6.7639">
        <ele>384</ele>
        <time>2014-12-30T09:32:14Z</time>
      </trkpt>
      <trkpt lat="47.52572" lon="6.76393">
        <ele>384</ele>
        <time>2014-12-30T09:32:15Z</time>
      </trkpt>
      <trkpt lat="47.52574" lon="6.76398">
        <ele>384</ele>
        <time>2014-12-30T09:32:17Z</time>
      </trkpt>
      <trkpt lat="47.52576" lon="6.76401">
        <ele>384</ele>
        <time>2014-12-30T09:32:18Z</time>
      </trkpt>
      <trkpt lat="47.52577" lon="6.76404">
        <ele>384</ele>
        <time>2014-12-30T09:32:19Z</time>
      </trkpt>
      <trkpt lat="47.52578" lon="6.76407">
        <ele>384</ele>
        <time>2014-12-30T09:32:20Z</time>
      </trkpt>
      <trkpt lat="47.5258" lon="6.7641">
        <ele>384</ele>
        <time>2014-12-30T09:32:21Z</time>
      </trkpt>
      <trkpt lat="47.52581" lon="6.76413">
        <ele>385</ele>
        <time>2014-12-30T09:32:22Z</time>
      </trkpt>
      <trkpt lat="47.52583" lon="6.76416">
        <ele>385</ele>
        <time>2014-12-30T09:32:23Z</time>
      </trkpt>
      <trkpt lat="47.52585" lon="6.7642">
        <ele>384</ele>
        <time>2014-12-30T09:32:24Z</time>
      </trkpt>
      <trkpt lat="47.52586" lon="6.76423">
        <ele>384</ele>
        <time>2014-12-30T09:32:25Z</time>
      </trkpt>
      <trkpt lat="47.52588" lon="6.76426">
        <ele>384</ele>
        <time>2014-12-30T09:32:26Z</time>
      </trkpt>
      <trkpt lat="47.52592" lon="6.76435">
        <ele>384</ele>
        <time>2014-12-30T09:32:29Z</time>
      </trkpt>
      <trkpt lat="47.52593" lon="6.76438">
        <ele>384</ele>
        <time>2014-12-30T09:32:30Z</time>
      </trkpt>
      <trkpt lat="47.52594" lon="6.76442">
        <ele>384</ele>
        <time>2014-12-30T09:32:31Z</time>
      </trkpt>
      <trkpt lat="47.52595" lon="6.76446">
        <ele>384</ele>
        <time>2014-12-30T09:32:32Z</time>
      </trkpt>
      <trkpt lat="47.52596" lon="6.76449">
        <ele>384</ele>
        <time>2014-12-30T09:32:33Z</time>
      </trkpt>
      <trkpt lat="47.52597" lon="6.76452">
        <ele>384</ele>
        <time>2014-12-30T09:32:34Z</time>
      </trkpt>
      <trkpt lat="47.52599" lon="6.76454">
        <ele>384</ele>
        <time>2014-12-30T09:32:35Z</time>
      </trkpt>
      <trkpt lat="47.526" lon="6.76457">
        <ele>384</ele>
        <time>2014-12-30T09:32:36Z</time>
      </trkpt>
      <trkpt lat="47.52602" lon="6.7646">
        <ele>384</ele>
        <time>2014-12-30T09:32:37Z</time>
      </trkpt>
      <trkpt lat="47.52604" lon="6.76463">
        <ele>384</ele>
        <time>2014-12-30T09:32:38Z</time>
      </trkpt>
      <trkpt lat="47.52605" lon="6.76465">
        <ele>384</ele>
        <time>2014-12-30T09:32:39Z</time>
      </trkpt>
      <trkpt lat="47.52607" lon="6.76467">
        <ele>384</ele>
        <time>2014-12-30T09:32:40Z</time>
      </trkpt>
      <trkpt lat="47.52609" lon="6.7647">
        <ele>384</ele>
        <time>2014-12-30T09:32:41Z</time>
      </trkpt>
      <trkpt lat="47.5261" lon="6.76473">
        <ele>384</ele>
        <time>2014-12-30T09:32:42Z</time>
      </trkpt>
      <trkpt lat="47.52612" lon="6.76475">
        <ele>384</ele>
        <time>2014-12-30T09:32:43Z</time>
      </trkpt>
      <trkpt lat="47.52614" lon="6.76478">
        <ele>383</ele>
        <time>2014-12-30T09:32:44Z</time>
      </trkpt>
      <trkpt lat="47.52616" lon="6.76482">
        <ele>383</ele>
        <time>2014-12-30T09:32:45Z</time>
      </trkpt>
      <trkpt lat="47.52618" lon="6.76485">
        <ele>383</ele>
        <time>2014-12-30T09:32:46Z</time>
      </trkpt>
      <trkpt lat="47.5262" lon="6.76487">
        <ele>382</ele>
        <time>2014-12-30T09:32:47Z</time>
      </trkpt>
      <trkpt lat="47.52623" lon="6.76489">
        <ele>382</ele>
        <time>2014-12-30T09:32:48Z</time>
      </trkpt>
      <trkpt lat="47.52624" lon="6.76491">
        <ele>382</ele>
        <time>2014-12-30T09:32:49Z</time>
      </trkpt>
      <trkpt lat="47.52626" lon="6.76494">
        <ele>381</ele>
        <time>2014-12-30T09:32:50Z</time>
      </trkpt>
      <trkpt lat="47.52627" lon="6.76497">
        <ele>381</ele>
        <time>2014-12-30T09:32:51Z</time>
      </trkpt>
      <trkpt lat="47.52628" lon="6.765">
        <ele>383</ele>
        <time>2014-12-30T09:32:52Z</time>
      </trkpt>
      <trkpt lat="47.52629" lon="6.76503">
        <ele>382</ele>
        <time>2014-12-30T09:32:53Z</time>
      </trkpt>
      <trkpt lat="47.52631" lon="6.76506">
        <ele>382</ele>
        <time>2014-12-30T09:32:54Z</time>
      </trkpt>
      <trkpt lat="47.52632" lon="6.76508">
        <ele>382</ele>
        <time>2014-12-30T09:32:55Z</time>
      </trkpt>
      <trkpt lat="47.52634" lon="6.76511">
        <ele>382</ele>
        <time>2014-12-30T09:32:56Z</time>
      </trkpt>
      <trkpt lat="47.52635" lon="6.76514">
        <ele>381</ele>
        <time>2014-12-30T09:32:57Z</time>
      </trkpt>
      <trkpt lat="47.52636" lon="6.76518">
        <ele>381</ele>
        <time>2014-12-30T09:32:58Z</time>
      </trkpt>
      <trkpt lat="47.52636" lon="6.76521">
        <ele>381</ele>
        <time>2014-12-30T09:32:59Z</time>
      </trkpt>
      <trkpt lat="47.52637" lon="6.76524">
        <ele>381</ele>
        <time>2014-12-30T09:33:00Z</time>
      </trkpt>
      <trkpt lat="47.52637" lon="6.76527">
        <ele>381</ele>
        <time>2014-12-30T09:33:01Z</time>
      </trkpt>
      <trkpt lat="47.52639" lon="6.76533">
        <ele>381</ele>
        <time>2014-12-30T09:33:03Z</time>
      </trkpt>
      <trkpt lat="47.52639" lon="6.76537">
        <ele>381</ele>
        <time>2014-12-30T09:33:04Z</time>
      </trkpt>
      <trkpt lat="47.5264" lon="6.7654">
        <ele>381</ele>
        <time>2014-12-30T09:33:05Z</time>
      </trkpt>
      <trkpt lat="47.52641" lon="6.76543">
        <ele>381</ele>
        <time>2014-12-30T09:33:06Z</time>
      </trkpt>
      <trkpt lat="47.5264" lon="6.76547">
        <ele>381</ele>
        <time>2014-12-30T09:33:07Z</time>
      </trkpt>
      <trkpt lat="47.5264" lon="6.7655">
        <ele>381</ele>
        <time>2014-12-30T09:33:08Z</time>
      </trkpt>
      <trkpt lat="47.52641" lon="6.76556">
        <ele>381</ele>
        <time>2014-12-30T09:33:09Z</time>
      </trkpt>
      <trkpt lat="47.52641" lon="6.76559">
        <ele>381</ele>
        <time>2014-12-30T09:33:11Z</time>
      </trkpt>
      <trkpt lat="47.52642" lon="6.76564">
        <ele>381</ele>
        <time>2014-12-30T09:33:13Z</time>
      </trkpt>
      <trkpt lat="47.52642" lon="6.76567">
        <ele>381</ele>
        <time>2014-12-30T09:33:14Z</time>
      </trkpt>
      <trkpt lat="47.52644" lon="6.76573">
        <ele>381</ele>
        <time>2014-12-30T09:33:16Z</time>
      </trkpt>
      <trkpt lat="47.52645" lon="6.76575">
        <ele>381</ele>
        <time>2014-12-30T09:33:17Z</time>
      </trkpt>
      <trkpt lat="47.52645" lon="6.76579">
        <ele>381</ele>
        <time>2014-12-30T09:33:18Z</time>
      </trkpt>
      <trkpt lat="47.52646" lon="6.76583">
        <ele>381</ele>
        <time>2014-12-30T09:33:19Z</time>
      </trkpt>
      <trkpt lat="47.52648" lon="6.76589">
        <ele>381</ele>
        <time>2014-12-30T09:33:21Z</time>
      </trkpt>
      <trkpt lat="47.52649" lon="6.76591">
        <ele>381</ele>
        <time>2014-12-30T09:33:22Z</time>
      </trkpt>
      <trkpt lat="47.52651" lon="6.76597">
        <ele>381</ele>
        <time>2014-12-30T09:33:24Z</time>
      </trkpt>
      <trkpt lat="47.52652" lon="6.766">
        <ele>381</ele>
        <time>2014-12-30T09:33:25Z</time>
      </trkpt>
      <trkpt lat="47.52653" lon="6.76603">
        <ele>381</ele>
        <time>2014-12-30T09:33:26Z</time>
      </trkpt>
      <trkpt lat="47.52655" lon="6.76612">
        <ele>381</ele>
        <time>2014-12-30T09:33:29Z</time>
      </trkpt>
      <trkpt lat="47.52656" lon="6.76617">
        <ele>381</ele>
        <time>2014-12-30T09:33:31Z</time>
      </trkpt>
      <trkpt lat="47.52658" lon="6.76621">
        <ele>381</ele>
        <time>2014-12-30T09:33:32Z</time>
      </trkpt>
      <trkpt lat="47.52658" lon="6.76624">
        <ele>381</ele>
        <time>2014-12-30T09:33:33Z</time>
      </trkpt>
      <trkpt lat="47.52659" lon="6.76627">
        <ele>381</ele>
        <time>2014-12-30T09:33:34Z</time>
      </trkpt>
      <trkpt lat="47.5266" lon="6.7663">
        <ele>381</ele>
        <time>2014-12-30T09:33:35Z</time>
      </trkpt>
      <trkpt lat="47.52661" lon="6.76634">
        <ele>381</ele>
        <time>2014-12-30T09:33:36Z</time>
      </trkpt>
      <trkpt lat="47.52662" lon="6.76638">
        <ele>381</ele>
        <time>2014-12-30T09:33:37Z</time>
      </trkpt>
      <trkpt lat="47.52663" lon="6.76641">
        <ele>381</ele>
        <time>2014-12-30T09:33:38Z</time>
      </trkpt>
      <trkpt lat="47.52664" lon="6.76644">
        <ele>381</ele>
        <time>2014-12-30T09:33:39Z</time>
      </trkpt>
      <trkpt lat="47.52665" lon="6.76648">
        <ele>381</ele>
        <time>2014-12-30T09:33:40Z</time>
      </trkpt>
      <trkpt lat="47.52666" lon="6.76651">
        <ele>381</ele>
        <time>2014-12-30T09:33:41Z</time>
      </trkpt>
      <trkpt lat="47.52667" lon="6.76654">
        <ele>380</ele>
        <time>2014-12-30T09:33:42Z</time>
      </trkpt>
      <trkpt lat="47.52668" lon="6.76658">
        <ele>380</ele>
        <time>2014-12-30T09:33:43Z</time>
      </trkpt>
      <trkpt lat="47.52669" lon="6.76661">
        <ele>380</ele>
        <time>2014-12-30T09:33:44Z</time>
      </trkpt>
      <trkpt lat="47.5267" lon="6.76664">
        <ele>380</ele>
        <time>2014-12-30T09:33:45Z</time>
      </trkpt>
      <trkpt lat="47.52671" lon="6.76667">
        <ele>380</ele>
        <time>2014-12-30T09:33:46Z</time>
      </trkpt>
      <trkpt lat="47.52672" lon="6.7667">
        <ele>380</ele>
        <time>2014-12-30T09:33:47Z</time>
      </trkpt>
      <trkpt lat="47.52673" lon="6.76673">
        <ele>380</ele>
        <time>2014-12-30T09:33:48Z</time>
      </trkpt>
      <trkpt lat="47.52674" lon="6.76676">
        <ele>380</ele>
        <time>2014-12-30T09:33:49Z</time>
      </trkpt>
      <trkpt lat="47.52675" lon="6.76679">
        <ele>380</ele>
        <time>2014-12-30T09:33:50Z</time>
      </trkpt>
      <trkpt lat="47.52675" lon="6.76682">
        <ele>380</ele>
        <time>2014-12-30T09:33:51Z</time>
      </trkpt>
      <trkpt lat="47.52676" lon="6.76685">
        <ele>380</ele>
        <time>2014-12-30T09:33:52Z</time>
      </trkpt>
      <trkpt lat="47.52677" lon="6.76688">
        <ele>380</ele>
        <time>2014-12-30T09:33:53Z</time>
      </trkpt>
      <trkpt lat="47.52678" lon="6.76692">
        <ele>380</ele>
        <time>2014-12-30T09:33:54Z</time>
      </trkpt>
      <trkpt lat="47.52679" lon="6.76695">
        <ele>380</ele>
        <time>2014-12-30T09:33:55Z</time>
      </trkpt>
      <trkpt lat="47.5268" lon="6.76698">
        <ele>380</ele>
        <time>2014-12-30T09:33:56Z</time>
      </trkpt>
      <trkpt lat="47.52681" lon="6.76702">
        <ele>380</ele>
        <time>2014-12-30T09:33:57Z</time>
      </trkpt>
      <trkpt lat="47.52682" lon="6.76705">
        <ele>381</ele>
        <time>2014-12-30T09:33:58Z</time>
      </trkpt>
      <trkpt lat="47.52683" lon="6.76708">
        <ele>381</ele>
        <time>2014-12-30T09:33:59Z</time>
      </trkpt>
      <trkpt lat="47.52683" lon="6.76712">
        <ele>381</ele>
        <time>2014-12-30T09:34:00Z</time>
      </trkpt>
      <trkpt lat="47.52684" lon="6.76715">
        <ele>381</ele>
        <time>2014-12-30T09:34:01Z</time>
      </trkpt>
      <trkpt lat="47.52686" lon="6.76718">
        <ele>381</ele>
        <time>2014-12-30T09:34:02Z</time>
      </trkpt>
      <trkpt lat="47.52687" lon="6.76721">
        <ele>381</ele>
        <time>2014-12-30T09:34:03Z</time>
      </trkpt>
      <trkpt lat="47.52688" lon="6.76723">
        <ele>381</ele>
        <time>2014-12-30T09:34:04Z</time>
      </trkpt>
      <trkpt lat="47.5269" lon="6.76726">
        <ele>381</ele>
        <time>2014-12-30T09:34:05Z</time>
      </trkpt>
      <trkpt lat="47.52691" lon="6.76729">
        <ele>381</ele>
        <time>2014-12-30T09:34:06Z</time>
      </trkpt>
      <trkpt lat="47.52692" lon="6.76732">
        <ele>381</ele>
        <time>2014-12-30T09:34:07Z</time>
      </trkpt>
      <trkpt lat="47.52693" lon="6.76735">
        <ele>381</ele>
        <time>2014-12-30T09:34:08Z</time>
      </trkpt>
      <trkpt lat="47.52695" lon="6.7674">
        <ele>381</ele>
        <time>2014-12-30T09:34:10Z</time>
      </trkpt>
      <trkpt lat="47.52696" lon="6.76743">
        <ele>380</ele>
        <time>2014-12-30T09:34:11Z</time>
      </trkpt>
      <trkpt lat="47.52698" lon="6.76746">
        <ele>380</ele>
        <time>2014-12-30T09:34:12Z</time>
      </trkpt>
      <trkpt lat="47.52699" lon="6.76749">
        <ele>380</ele>
        <time>2014-12-30T09:34:13Z</time>
      </trkpt>
      <trkpt lat="47.527" lon="6.76752">
        <ele>381</ele>
        <time>2014-12-30T09:34:14Z</time>
      </trkpt>
      <trkpt lat="47.52701" lon="6.76756">
        <ele>381</ele>
        <time>2014-12-30T09:34:15Z</time>
      </trkpt>
      <trkpt lat="47.52702" lon="6.76759">
        <ele>381</ele>
        <time>2014-12-30T09:34:16Z</time>
      </trkpt>
      <trkpt lat="47.52703" lon="6.76762">
        <ele>381</ele>
        <time>2014-12-30T09:34:17Z</time>
      </trkpt>
      <trkpt lat="47.52704" lon="6.76768">
        <ele>381</ele>
        <time>2014-12-30T09:34:19Z</time>
      </trkpt>
      <trkpt lat="47.52705" lon="6.76771">
        <ele>381</ele>
        <time>2014-12-30T09:34:20Z</time>
      </trkpt>
      <trkpt lat="47.52707" lon="6.76777">
        <ele>380</ele>
        <time>2014-12-30T09:34:22Z</time>
      </trkpt>
      <trkpt lat="47.52709" lon="6.76779">
        <ele>380</ele>
        <time>2014-12-30T09:34:23Z</time>
      </trkpt>
      <trkpt lat="47.5271" lon="6.76783">
        <ele>380</ele>
        <time>2014-12-30T09:34:24Z</time>
      </trkpt>
      <trkpt lat="47.52711" lon="6.76786">
        <ele>380</ele>
        <time>2014-12-30T09:34:25Z</time>
      </trkpt>
      <trkpt lat="47.52712" lon="6.76789">
        <ele>380</ele>
        <time>2014-12-30T09:34:26Z</time>
      </trkpt>
      <trkpt lat="47.52713" lon="6.76792">
        <ele>380</ele>
        <time>2014-12-30T09:34:27Z</time>
      </trkpt>
      <trkpt lat="47.52722" lon="6.76814">
        <ele>380</ele>
        <time>2014-12-30T09:34:35Z</time>
      </trkpt>
      <trkpt lat="47.52723" lon="6.7682">
        <ele>380</ele>
        <time>2014-12-30T09:34:37Z</time>
      </trkpt>
      <trkpt lat="47.52723" lon="6.76823">
        <ele>380</ele>
        <time>2014-12-30T09:34:38Z</time>
      </trkpt>
      <trkpt lat="47.52724" lon="6.76826">
        <ele>380</ele>
        <time>2014-12-30T09:34:39Z</time>
      </trkpt>
      <trkpt lat="47.52725" lon="6.76829">
        <ele>380</ele>
        <time>2014-12-30T09:34:40Z</time>
      </trkpt>
      <trkpt lat="47.52726" lon="6.76833">
        <ele>380</ele>
        <time>2014-12-30T09:34:41Z</time>
      </trkpt>
      <trkpt lat="47.52727" lon="6.76836">
        <ele>382</ele>
        <time>2014-12-30T09:34:42Z</time>
      </trkpt>
      <trkpt lat="47.52729" lon="6.76841">
        <ele>382</ele>
        <time>2014-12-30T09:34:44Z</time>
      </trkpt>
      <trkpt lat="47.52729" lon="6.76844">
        <ele>382</ele>
        <time>2014-12-30T09:34:45Z</time>
      </trkpt>
      <trkpt lat="47.5273" lon="6.76847">
        <ele>382</ele>
        <time>2014-12-30T09:34:46Z</time>
      </trkpt>
      <trkpt lat="47.52731" lon="6.7685">
        <ele>382</ele>
        <time>2014-12-30T09:34:47Z</time>
      </trkpt>
      <trkpt lat="47.52733" lon="6.76856">
        <ele>382</ele>
        <time>2014-12-30T09:34:49Z</time>
      </trkpt>
      <trkpt lat="47.52734" lon="6.76858">
        <ele>382</ele>
        <time>2014-12-30T09:34:50Z</time>
      </trkpt>
      <trkpt lat="47.52735" lon="6.76863">
        <ele>382</ele>
        <time>2014-12-30T09:34:55Z</time>
      </trkpt>
      <trkpt lat="47.52735" lon="6.76865">
        <ele>383</ele>
        <time>2014-12-30T09:34:56Z</time>
      </trkpt>
      <trkpt lat="47.52733" lon="6.7687">
        <ele>383</ele>
        <time>2014-12-30T09:34:59Z</time>
      </trkpt>
      <trkpt lat="47.52732" lon="6.76871">
        <ele>384</ele>
        <time>2014-12-30T09:35:00Z</time>
      </trkpt>
      <trkpt lat="47.52728" lon="6.76874">
        <ele>384</ele>
        <time>2014-12-30T09:35:02Z</time>
      </trkpt>
      <trkpt lat="47.52726" lon="6.76875">
        <ele>384</ele>
        <time>2014-12-30T09:35:03Z</time>
      </trkpt>
      <trkpt lat="47.52723" lon="6.76877">
        <ele>385</ele>
        <time>2014-12-30T09:35:05Z</time>
      </trkpt>
      <trkpt lat="47.52721" lon="6.76877">
        <ele>385</ele>
        <time>2014-12-30T09:35:06Z</time>
      </trkpt>
      <trkpt lat="47.52717" lon="6.76877">
        <ele>385</ele>
        <time>2014-12-30T09:35:08Z</time>
      </trkpt>
      <trkpt lat="47.52714" lon="6.76878">
        <ele>386</ele>
        <time>2014-12-30T09:35:09Z</time>
      </trkpt>
      <trkpt lat="47.52712" lon="6.76879">
        <ele>386</ele>
        <time>2014-12-30T09:35:10Z</time>
      </trkpt>
      <trkpt lat="47.52709" lon="6.7688">
        <ele>386</ele>
        <time>2014-12-30T09:35:11Z</time>
      </trkpt>
      <trkpt lat="47.52706" lon="6.76881">
        <ele>387</ele>
        <time>2014-12-30T09:35:12Z</time>
      </trkpt>
      <trkpt lat="47.52703" lon="6.76881">
        <ele>387</ele>
        <time>2014-12-30T09:35:13Z</time>
      </trkpt>
      <trkpt lat="47.52699" lon="6.76882">
        <ele>387</ele>
        <time>2014-12-30T09:35:15Z</time>
      </trkpt>
      <trkpt lat="47.52697" lon="6.76883">
        <ele>388</ele>
        <time>2014-12-30T09:35:16Z</time>
      </trkpt>
      <trkpt lat="47.52693" lon="6.76886">
        <ele>388</ele>
        <time>2014-12-30T09:35:19Z</time>
      </trkpt>
      <trkpt lat="47.52692" lon="6.76887">
        <ele>389</ele>
        <time>2014-12-30T09:35:20Z</time>
      </trkpt>
      <trkpt lat="47.52689" lon="6.76889">
        <ele>389</ele>
        <time>2014-12-30T09:35:24Z</time>
      </trkpt>
      <trkpt lat="47.52687" lon="6.76889">
        <ele>390</ele>
        <time>2014-12-30T09:35:25Z</time>
      </trkpt>
      <trkpt lat="47.52685" lon="6.7689">
        <ele>390</ele>
        <time>2014-12-30T09:35:26Z</time>
      </trkpt>
      <trkpt lat="47.52679" lon="6.76891">
        <ele>391</ele>
        <time>2014-12-30T09:35:29Z</time>
      </trkpt>
      <trkpt lat="47.52675" lon="6.76894">
        <ele>392</ele>
        <time>2014-12-30T09:35:31Z</time>
      </trkpt>
      <trkpt lat="47.52674" lon="6.76894">
        <ele>392</ele>
        <time>2014-12-30T09:35:32Z</time>
      </trkpt>
      <trkpt lat="47.5267" lon="6.76896">
        <ele>392</ele>
        <time>2014-12-30T09:35:35Z</time>
      </trkpt>
      <trkpt lat="47.52668" lon="6.76896">
        <ele>392</ele>
        <time>2014-12-30T09:35:36Z</time>
      </trkpt>
      <trkpt lat="47.52664" lon="6.76897">
        <ele>393</ele>
        <time>2014-12-30T09:35:40Z</time>
      </trkpt>
      <trkpt lat="47.52663" lon="6.76897">
        <ele>393</ele>
        <time>2014-12-30T09:35:41Z</time>
      </trkpt>
      <trkpt lat="47.5266" lon="6.76897">
        <ele>393</ele>
        <time>2014-12-30T09:35:43Z</time>
      </trkpt>
      <trkpt lat="47.52658" lon="6.76897">
        <ele>393</ele>
        <time>2014-12-30T09:35:44Z</time>
      </trkpt>
      <trkpt lat="47.52654" lon="6.76897">
        <ele>393</ele>
        <time>2014-12-30T09:35:46Z</time>
      </trkpt>
      <trkpt lat="47.52652" lon="6.76896">
        <ele>393</ele>
        <time>2014-12-30T09:35:47Z</time>
      </trkpt>
      <trkpt lat="47.52647" lon="6.76895">
        <ele>393</ele>
        <time>2014-12-30T09:35:49Z</time>
      </trkpt>
      <trkpt lat="47.52645" lon="6.76895">
        <ele>393</ele>
        <time>2014-12-30T09:35:50Z</time>
      </trkpt>
      <trkpt lat="47.52642" lon="6.76895">
        <ele>394</ele>
        <time>2014-12-30T09:35:52Z</time>
      </trkpt>
      <trkpt lat="47.5264" lon="6.76895">
        <ele>394</ele>
        <time>2014-12-30T09:35:53Z</time>
      </trkpt>
      <trkpt lat="47.52636" lon="6.76893">
        <ele>394</ele>
        <time>2014-12-30T09:35:55Z</time>
      </trkpt>
      <trkpt lat="47.52635" lon="6.76893">
        <ele>395</ele>
        <time>2014-12-30T09:35:56Z</time>
      </trkpt>
      <trkpt lat="47.5263" lon="6.76892">
        <ele>395</ele>
        <time>2014-12-30T09:35:59Z</time>
      </trkpt>
      <trkpt lat="47.52629" lon="6.76892">
        <ele>396</ele>
        <time>2014-12-30T09:36:00Z</time>
      </trkpt>
      <trkpt lat="47.52625" lon="6.76892">
        <ele>397</ele>
        <time>2014-12-30T09:36:02Z</time>
      </trkpt>
      <trkpt lat="47.52623" lon="6.76892">
        <ele>397</ele>
        <time>2014-12-30T09:36:03Z</time>
      </trkpt>
      <trkpt lat="47.5262" lon="6.76892">
        <ele>398</ele>
        <time>2014-12-30T09:36:04Z</time>
      </trkpt>
      <trkpt lat="47.52618" lon="6.76891">
        <ele>399</ele>
        <time>2014-12-30T09:36:05Z</time>
      </trkpt>
      <trkpt lat="47.52614" lon="6.76892">
        <ele>400</ele>
        <time>2014-12-30T09:36:07Z</time>
      </trkpt>
      <trkpt lat="47.52612" lon="6.76893">
        <ele>400</ele>
        <time>2014-12-30T09:36:08Z</time>
      </trkpt>
      <trkpt lat="47.52608" lon="6.76893">
        <ele>401</ele>
        <time>2014-12-30T09:36:10Z</time>
      </trkpt>
      <trkpt lat="47.52606" lon="6.76893">
        <ele>402</ele>
        <time>2014-12-30T09:36:11Z</time>
      </trkpt>
      <trkpt lat="47.52602" lon="6.76892">
        <ele>403</ele>
        <time>2014-12-30T09:36:13Z</time>
      </trkpt>
      <trkpt lat="47.526" lon="6.76892">
        <ele>403</ele>
        <time>2014-12-30T09:36:14Z</time>
      </trkpt>
      <trkpt lat="47.52596" lon="6.76891">
        <ele>403</ele>
        <time>2014-12-30T09:36:16Z</time>
      </trkpt>
      <trkpt lat="47.52594" lon="6.7689">
        <ele>404</ele>
        <time>2014-12-30T09:36:17Z</time>
      </trkpt>
      <trkpt lat="47.5259" lon="6.76889">
        <ele>404</ele>
        <time>2014-12-30T09:36:19Z</time>
      </trkpt>
      <trkpt lat="47.52589" lon="6.76889">
        <ele>404</ele>
        <time>2014-12-30T09:36:20Z</time>
      </trkpt>
      <trkpt lat="47.52586" lon="6.7689">
        <ele>404</ele>
        <time>2014-12-30T09:36:22Z</time>
      </trkpt>
      <trkpt lat="47.52584" lon="6.76889">
        <ele>404</ele>
        <time>2014-12-30T09:36:23Z</time>
      </trkpt>
      <trkpt lat="47.5258" lon="6.76889">
        <ele>406</ele>
        <time>2014-12-30T09:36:25Z</time>
      </trkpt>
      <trkpt lat="47.52579" lon="6.76888">
        <ele>406</ele>
        <time>2014-12-30T09:36:26Z</time>
      </trkpt>
      <trkpt lat="47.52577" lon="6.76888">
        <ele>405</ele>
        <time>2014-12-30T09:36:27Z</time>
      </trkpt>
      <trkpt lat="47.52572" lon="6.76887">
        <ele>405</ele>
        <time>2014-12-30T09:36:30Z</time>
      </trkpt>
      <trkpt lat="47.52568" lon="6.76885">
        <ele>405</ele>
        <time>2014-12-30T09:36:33Z</time>
      </trkpt>
      <trkpt lat="47.52567" lon="6.76884">
        <ele>405</ele>
        <time>2014-12-30T09:36:34Z</time>
      </trkpt>
      <trkpt lat="47.52562" lon="6.76885">
        <ele>405</ele>
        <time>2014-12-30T09:36:36Z</time>
      </trkpt>
      <trkpt lat="47.52561" lon="6.76885">
        <ele>405</ele>
        <time>2014-12-30T09:36:37Z</time>
      </trkpt>
      <trkpt lat="47.52557" lon="6.76886">
        <ele>406</ele>
        <time>2014-12-30T09:36:40Z</time>
      </trkpt>
      <trkpt lat="47.52556" lon="6.76886">
        <ele>406</ele>
        <time>2014-12-30T09:36:41Z</time>
      </trkpt>
      <trkpt lat="47.52553" lon="6.76886">
        <ele>406</ele>
        <time>2014-12-30T09:36:43Z</time>
      </trkpt>
      <trkpt lat="47.5255" lon="6.76887">
        <ele>406</ele>
        <time>2014-12-30T09:36:44Z</time>
      </trkpt>
      <trkpt lat="47.52548" lon="6.76888">
        <ele>407</ele>
        <time>2014-12-30T09:36:45Z</time>
      </trkpt>
      <trkpt lat="47.52545" lon="6.76889">
        <ele>407</ele>
        <time>2014-12-30T09:36:46Z</time>
      </trkpt>
      <trkpt lat="47.52542" lon="6.7689">
        <ele>407</ele>
        <time>2014-12-30T09:36:47Z</time>
      </trkpt>
      <trkpt lat="47.5254" lon="6.76891">
        <ele>408</ele>
        <time>2014-12-30T09:36:48Z</time>
      </trkpt>
      <trkpt lat="47.52537" lon="6.76892">
        <ele>408</ele>
        <time>2014-12-30T09:36:49Z</time>
      </trkpt>
      <trkpt lat="47.52534" lon="6.76893">
        <ele>409</ele>
        <time>2014-12-30T09:36:50Z</time>
      </trkpt>
      <trkpt lat="47.52531" lon="6.76893">
        <ele>409</ele>
        <time>2014-12-30T09:36:51Z</time>
      </trkpt>
      <trkpt lat="47.52528" lon="6.76893">
        <ele>410</ele>
        <time>2014-12-30T09:36:52Z</time>
      </trkpt>
      <trkpt lat="47.52526" lon="6.76893">
        <ele>410</ele>
        <time>2014-12-30T09:36:53Z</time>
      </trkpt>
      <trkpt lat="47.52523" lon="6.76894">
        <ele>411</ele>
        <time>2014-12-30T09:36:54Z</time>
      </trkpt>
      <trkpt lat="47.5252" lon="6.76894">
        <ele>411</ele>
        <time>2014-12-30T09:36:55Z</time>
      </trkpt>
      <trkpt lat="47.52518" lon="6.76894">
        <ele>412</ele>
        <time>2014-12-30T09:36:56Z</time>
      </trkpt>
      <trkpt lat="47.52514" lon="6.76895">
        <ele>412</ele>
        <time>2014-12-30T09:36:58Z</time>
      </trkpt>
      <trkpt lat="47.52513" lon="6.76896">
        <ele>412</ele>
        <time>2014-12-30T09:36:59Z</time>
      </trkpt>
      <trkpt lat="47.52508" lon="6.76896">
        <ele>413</ele>
        <time>2014-12-30T09:37:01Z</time>
      </trkpt>
      <trkpt lat="47.52507" lon="6.76897">
        <ele>413</ele>
        <time>2014-12-30T09:37:02Z</time>
      </trkpt>
      <trkpt lat="47.52503" lon="6.76897">
        <ele>413</ele>
        <time>2014-12-30T09:37:04Z</time>
      </trkpt>
      <trkpt lat="47.52502" lon="6.76897">
        <ele>414</ele>
        <time>2014-12-30T09:37:05Z</time>
      </trkpt>
      <trkpt lat="47.52498" lon="6.76898">
        <ele>414</ele>
        <time>2014-12-30T09:37:07Z</time>
      </trkpt>
      <trkpt lat="47.52496" lon="6.76899">
        <ele>414</ele>
        <time>2014-12-30T09:37:08Z</time>
      </trkpt>
      <trkpt lat="47.52493" lon="6.76902">
        <ele>414</ele>
        <time>2014-12-30T09:37:10Z</time>
      </trkpt>
      <trkpt lat="47.52491" lon="6.76904">
        <ele>414</ele>
        <time>2014-12-30T09:37:11Z</time>
      </trkpt>
      <trkpt lat="47.52489" lon="6.76907">
        <ele>414</ele>
        <time>2014-12-30T09:37:12Z</time>
      </trkpt>
      <trkpt lat="47.52488" lon="6.76909">
        <ele>414</ele>
        <time>2014-12-30T09:37:13Z</time>
      </trkpt>
      <trkpt lat="47.52485" lon="6.76914">
        <ele>414</ele>
        <time>2014-12-30T09:37:15Z</time>
      </trkpt>
      <trkpt lat="47.52483" lon="6.76916">
        <ele>414</ele>
        <time>2014-12-30T09:37:16Z</time>
      </trkpt>
      <trkpt lat="47.5248" lon="6.76919">
        <ele>414</ele>
        <time>2014-12-30T09:37:19Z</time>
      </trkpt>
      <trkpt lat="47.52479" lon="6.7692">
        <ele>414</ele>
        <time>2014-12-30T09:37:20Z</time>
      </trkpt>
      <trkpt lat="47.52476" lon="6.76924">
        <ele>414</ele>
        <time>2014-12-30T09:37:22Z</time>
      </trkpt>
      <trkpt lat="47.52475" lon="6.76926">
        <ele>414</ele>
        <time>2014-12-30T09:37:23Z</time>
      </trkpt>
      <trkpt lat="47.52473" lon="6.76931">
        <ele>414</ele>
        <time>2014-12-30T09:37:25Z</time>
      </trkpt>
      <trkpt lat="47.52472" lon="6.76933">
        <ele>414</ele>
        <time>2014-12-30T09:37:26Z</time>
      </trkpt>
      <trkpt lat="47.5247" lon="6.76937">
        <ele>414</ele>
        <time>2014-12-30T09:37:33Z</time>
      </trkpt>
      <trkpt lat="47.52422" lon="6.77024">
        <ele>410</ele>
        <time>2014-12-30T09:37:55Z</time>
      </trkpt>
      <trkpt lat="47.52421" lon="6.7703">
        <ele>409</ele>
        <time>2014-12-30T09:37:57Z</time>
      </trkpt>
      <trkpt lat="47.52421" lon="6.77032">
        <ele>409</ele>
        <time>2014-12-30T09:37:58Z</time>
      </trkpt>
      <trkpt lat="47.5242" lon="6.77036">
        <ele>408</ele>
        <time>2014-12-30T09:38:00Z</time>
      </trkpt>
      <trkpt lat="47.5242" lon="6.77038">
        <ele>408</ele>
        <time>2014-12-30T09:38:01Z</time>
      </trkpt>
      <trkpt lat="47.52419" lon="6.77043">
        <ele>407</ele>
        <time>2014-12-30T09:38:03Z</time>
      </trkpt>
      <trkpt lat="47.52418" lon="6.77045">
        <ele>407</ele>
        <time>2014-12-30T09:38:04Z</time>
      </trkpt>
      <trkpt lat="47.52415" lon="6.7705">
        <ele>406</ele>
        <time>2014-12-30T09:38:06Z</time>
      </trkpt>
      <trkpt lat="47.52414" lon="6.77053">
        <ele>406</ele>
        <time>2014-12-30T09:38:07Z</time>
      </trkpt>
      <trkpt lat="47.52413" lon="6.77058">
        <ele>405</ele>
        <time>2014-12-30T09:38:09Z</time>
      </trkpt>
      <trkpt lat="47.52413" lon="6.7706">
        <ele>405</ele>
        <time>2014-12-30T09:38:10Z</time>
      </trkpt>
      <trkpt lat="47.52412" lon="6.77064">
        <ele>405</ele>
        <time>2014-12-30T09:38:12Z</time>
      </trkpt>
      <trkpt lat="47.52411" lon="6.77066">
        <ele>405</ele>
        <time>2014-12-30T09:38:13Z</time>
      </trkpt>
      <trkpt lat="47.52409" lon="6.7707">
        <ele>405</ele>
        <time>2014-12-30T09:38:15Z</time>
      </trkpt>
      <trkpt lat="47.52408" lon="6.77072">
        <ele>405</ele>
        <time>2014-12-30T09:38:16Z</time>
      </trkpt>
      <trkpt lat="47.52406" lon="6.77075">
        <ele>405</ele>
        <time>2014-12-30T09:38:17Z</time>
      </trkpt>
      <trkpt lat="47.52405" lon="6.77078">
        <ele>405</ele>
        <time>2014-12-30T09:38:18Z</time>
      </trkpt>
      <trkpt lat="47.52403" lon="6.77081">
        <ele>405</ele>
        <time>2014-12-30T09:38:19Z</time>
      </trkpt>
      <trkpt lat="47.52402" lon="6.77085">
        <ele>404</ele>
        <time>2014-12-30T09:38:20Z</time>
      </trkpt>
      <trkpt lat="47.524" lon="6.77088">
        <ele>403</ele>
        <time>2014-12-30T09:38:21Z</time>
      </trkpt>
      <trkpt lat="47.52399" lon="6.77091">
        <ele>403</ele>
        <time>2014-12-30T09:38:22Z</time>
      </trkpt>
      <trkpt lat="47.52396" lon="6.77095">
        <ele>402</ele>
        <time>2014-12-30T09:38:24Z</time>
      </trkpt>
      <trkpt lat="47.52395" lon="6.77096">
        <ele>402</ele>
        <time>2014-12-30T09:38:25Z</time>
      </trkpt>
      <trkpt lat="47.52394" lon="6.77097">
        <ele>402</ele>
        <time>2014-12-30T09:38:26Z</time>
      </trkpt>
      <trkpt lat="47.5239" lon="6.771">
        <ele>401</ele>
        <time>2014-12-30T09:38:29Z</time>
      </trkpt>
      <trkpt lat="47.52358" lon="6.77195">
        <ele>396</ele>
        <time>2014-12-30T09:38:55Z</time>
      </trkpt>
      <trkpt lat="47.52356" lon="6.77198">
        <ele>396</ele>
        <time>2014-12-30T09:38:56Z</time>
      </trkpt>
      <trkpt lat="47.52354" lon="6.77201">
        <ele>396</ele>
        <time>2014-12-30T09:38:57Z</time>
      </trkpt>
      <trkpt lat="47.52353" lon="6.77205">
        <ele>396</ele>
        <time>2014-12-30T09:38:58Z</time>
      </trkpt>
      <trkpt lat="47.52352" lon="6.77208">
        <ele>396</ele>
        <time>2014-12-30T09:38:59Z</time>
      </trkpt>
      <trkpt lat="47.5235" lon="6.77211">
        <ele>396</ele>
        <time>2014-12-30T09:39:00Z</time>
      </trkpt>
      <trkpt lat="47.52349" lon="6.77215">
        <ele>396</ele>
        <time>2014-12-30T09:39:01Z</time>
      </trkpt>
      <trkpt lat="47.52348" lon="6.77218">
        <ele>397</ele>
        <time>2014-12-30T09:39:02Z</time>
      </trkpt>
      <trkpt lat="47.52347" lon="6.77221">
        <ele>397</ele>
        <time>2014-12-30T09:39:03Z</time>
      </trkpt>
      <trkpt lat="47.52345" lon="6.77227">
        <ele>397</ele>
        <time>2014-12-30T09:39:05Z</time>
      </trkpt>
      <trkpt lat="47.52344" lon="6.7723">
        <ele>397</ele>
        <time>2014-12-30T09:39:06Z</time>
      </trkpt>
      <trkpt lat="47.52343" lon="6.77234">
        <ele>397</ele>
        <time>2014-12-30T09:39:07Z</time>
      </trkpt>
      <trkpt lat="47.52341" lon="6.77237">
        <ele>397</ele>
        <time>2014-12-30T09:39:08Z</time>
      </trkpt>
      <trkpt lat="47.5234" lon="6.7724">
        <ele>397</ele>
        <time>2014-12-30T09:39:09Z</time>
      </trkpt>
      <trkpt lat="47.52338" lon="6.77243">
        <ele>397</ele>
        <time>2014-12-30T09:39:10Z</time>
      </trkpt>
      <trkpt lat="47.52336" lon="6.77246">
        <ele>397</ele>
        <time>2014-12-30T09:39:11Z</time>
      </trkpt>
      <trkpt lat="47.52334" lon="6.77249">
        <ele>397</ele>
        <time>2014-12-30T09:39:12Z</time>
      </trkpt>
      <trkpt lat="47.52333" lon="6.77253">
        <ele>397</ele>
        <time>2014-12-30T09:39:13Z</time>
      </trkpt>
      <trkpt lat="47.52332" lon="6.77256">
        <ele>397</ele>
        <time>2014-12-30T09:39:14Z</time>
      </trkpt>
      <trkpt lat="47.52332" lon="6.7726">
        <ele>397</ele>
        <time>2014-12-30T09:39:15Z</time>
      </trkpt>
      <trkpt lat="47.52332" lon="6.77263">
        <ele>397</ele>
        <time>2014-12-30T09:39:16Z</time>
      </trkpt>
      <trkpt lat="47.52333" lon="6.77268">
        <ele>397</ele>
        <time>2014-12-30T09:39:18Z</time>
      </trkpt>
      <trkpt lat="47.52333" lon="6.77271">
        <ele>397</ele>
        <time>2014-12-30T09:39:19Z</time>
      </trkpt>
      <trkpt lat="47.52332" lon="6.77274">
        <ele>397</ele>
        <time>2014-12-30T09:39:20Z</time>
      </trkpt>
      <trkpt lat="47.52331" lon="6.77277">
        <ele>396</ele>
        <time>2014-12-30T09:39:21Z</time>
      </trkpt>
      <trkpt lat="47.52331" lon="6.77281">
        <ele>396</ele>
        <time>2014-12-30T09:39:22Z</time>
      </trkpt>
      <trkpt lat="47.5233" lon="6.77284">
        <ele>396</ele>
        <time>2014-12-30T09:39:23Z</time>
      </trkpt>
      <trkpt lat="47.5233" lon="6.7729">
        <ele>395</ele>
        <time>2014-12-30T09:39:25Z</time>
      </trkpt>
      <trkpt lat="47.52329" lon="6.77293">
        <ele>395</ele>
        <time>2014-12-30T09:39:26Z</time>
      </trkpt>
      <trkpt lat="47.52329" lon="6.77296">
        <ele>395</ele>
        <time>2014-12-30T09:39:27Z</time>
      </trkpt>
      <trkpt lat="47.5233" lon="6.77302">
        <ele>395</ele>
        <time>2014-12-30T09:39:30Z</time>
      </trkpt>
      <trkpt lat="47.52338" lon="6.77371">
        <ele>393</ele>
        <time>2014-12-30T09:39:44Z</time>
      </trkpt>
      <trkpt lat="47.52339" lon="6.77375">
        <ele>393</ele>
        <time>2014-12-30T09:39:45Z</time>
      </trkpt>
      <trkpt lat="47.52341" lon="6.77378">
        <ele>393</ele>
        <time>2014-12-30T09:39:47Z</time>
      </trkpt>
      <trkpt lat="47.52343" lon="6.77382">
        <ele>392</ele>
        <time>2014-12-30T09:39:49Z</time>
      </trkpt>
      <trkpt lat="47.52344" lon="6.77384">
        <ele>392</ele>
        <time>2014-12-30T09:39:50Z</time>
      </trkpt>
      <trkpt lat="47.52346" lon="6.77388">
        <ele>392</ele>
        <time>2014-12-30T09:39:52Z</time>
      </trkpt>
      <trkpt lat="47.52346" lon="6.7739">
        <ele>392</ele>
        <time>2014-12-30T09:39:53Z</time>
      </trkpt>
      <trkpt lat="47.52348" lon="6.77395">
        <ele>392</ele>
        <time>2014-12-30T09:39:55Z</time>
      </trkpt>
      <trkpt lat="47.5235" lon="6.77397">
        <ele>392</ele>
        <time>2014-12-30T09:39:56Z</time>
      </trkpt>
      <trkpt lat="47.52352" lon="6.774">
        <ele>392</ele>
        <time>2014-12-30T09:39:58Z</time>
      </trkpt>
      <trkpt lat="47.52353" lon="6.77401">
        <ele>392</ele>
        <time>2014-12-30T09:39:59Z</time>
      </trkpt>
      <trkpt lat="47.52355" lon="6.77404">
        <ele>392</ele>
        <time>2014-12-30T09:40:01Z</time>
      </trkpt>
      <trkpt lat="47.52357" lon="6.77405">
        <ele>392</ele>
        <time>2014-12-30T09:40:02Z</time>
      </trkpt>
      <trkpt lat="47.5236" lon="6.77408">
        <ele>392</ele>
        <time>2014-12-30T09:40:04Z</time>
      </trkpt>
      <trkpt lat="47.52362" lon="6.77411">
        <ele>392</ele>
        <time>2014-12-30T09:40:05Z</time>
      </trkpt>
      <trkpt lat="47.52363" lon="6.77414">
        <ele>392</ele>
        <time>2014-12-30T09:40:06Z</time>
      </trkpt>
      <trkpt lat="47.52365" lon="6.77417">
        <ele>391</ele>
        <time>2014-12-30T09:40:07Z</time>
      </trkpt>
      <trkpt lat="47.52368" lon="6.77421">
        <ele>391</ele>
        <time>2014-12-30T09:40:08Z</time>
      </trkpt>
      <trkpt lat="47.5237" lon="6.77423">
        <ele>391</ele>
        <time>2014-12-30T09:40:10Z</time>
      </trkpt>
      <trkpt lat="47.52373" lon="6.77425">
        <ele>391</ele>
        <time>2014-12-30T09:40:12Z</time>
      </trkpt>
      <trkpt lat="47.52375" lon="6.77426">
        <ele>391</ele>
        <time>2014-12-30T09:40:13Z</time>
      </trkpt>
      <trkpt lat="47.52377" lon="6.77427">
        <ele>391</ele>
        <time>2014-12-30T09:40:14Z</time>
      </trkpt>
      <trkpt lat="47.52379" lon="6.77429">
        <ele>391</ele>
        <time>2014-12-30T09:40:15Z</time>
      </trkpt>
      <trkpt lat="47.52381" lon="6.77431">
        <ele>391</ele>
        <time>2014-12-30T09:40:16Z</time>
      </trkpt>
      <trkpt lat="47.52383" lon="6.77434">
        <ele>391</ele>
        <time>2014-12-30T09:40:17Z</time>
      </trkpt>
      <trkpt lat="47.52385" lon="6.77439">
        <ele>391</ele>
        <time>2014-12-30T09:40:19Z</time>
      </trkpt>
      <trkpt lat="47.52387" lon="6.7744">
        <ele>391</ele>
        <time>2014-12-30T09:40:20Z</time>
      </trkpt>
      <trkpt lat="47.52389" lon="6.77442">
        <ele>391</ele>
        <time>2014-12-30T09:40:21Z</time>
      </trkpt>
      <trkpt lat="47.52392" lon="6.77443">
        <ele>391</ele>
        <time>2014-12-30T09:40:22Z</time>
      </trkpt>
      <trkpt lat="47.52394" lon="6.77444">
        <ele>392</ele>
        <time>2014-12-30T09:40:23Z</time>
      </trkpt>
      <trkpt lat="47.52396" lon="6.77446">
        <ele>392</ele>
        <time>2014-12-30T09:40:24Z</time>
      </trkpt>
      <trkpt lat="47.52397" lon="6.77447">
        <ele>392</ele>
        <time>2014-12-30T09:40:24Z</time>
      </trkpt>
      <trkpt lat="47.524" lon="6.7745">
        <ele>391</ele>
        <time>2014-12-30T09:40:26Z</time>
      </trkpt>
      <trkpt lat="47.524" lon="6.77453">
        <ele>391</ele>
        <time>2014-12-30T09:40:27Z</time>
      </trkpt>
      <trkpt lat="47.524" lon="6.77458">
        <ele>391</ele>
        <time>2014-12-30T09:40:30Z</time>
      </trkpt>
      <trkpt lat="47.52397" lon="6.77466">
        <ele>391</ele>
        <time>2014-12-30T09:40:35Z</time>
      </trkpt>
      <trkpt lat="47.52395" lon="6.77469">
        <ele>391</ele>
        <time>2014-12-30T09:40:37Z</time>
      </trkpt>
      <trkpt lat="47.52392" lon="6.77472">
        <ele>391</ele>
        <time>2014-12-30T09:40:38Z</time>
      </trkpt>
      <trkpt lat="47.5239" lon="6.77476">
        <ele>391</ele>
        <time>2014-12-30T09:40:39Z</time>
      </trkpt>
      <trkpt lat="47.52388" lon="6.7748">
        <ele>391</ele>
        <time>2014-12-30T09:40:40Z</time>
      </trkpt>
      <trkpt lat="47.52387" lon="6.77484">
        <ele>391</ele>
        <time>2014-12-30T09:40:41Z</time>
      </trkpt>
      <trkpt lat="47.52384" lon="6.77486">
        <ele>391</ele>
        <time>2014-12-30T09:40:42Z</time>
      </trkpt>
      <trkpt lat="47.52382" lon="6.77488">
        <ele>390</ele>
        <time>2014-12-30T09:40:43Z</time>
      </trkpt>
      <trkpt lat="47.52379" lon="6.7749">
        <ele>390</ele>
        <time>2014-12-30T09:40:44Z</time>
      </trkpt>
      <trkpt lat="47.52376" lon="6.77492">
        <ele>390</ele>
        <time>2014-12-30T09:40:45Z</time>
      </trkpt>
      <trkpt lat="47.52374" lon="6.77493">
        <ele>390</ele>
        <time>2014-12-30T09:40:46Z</time>
      </trkpt>
      <trkpt lat="47.52371" lon="6.77495">
        <ele>390</ele>
        <time>2014-12-30T09:40:47Z</time>
      </trkpt>
      <trkpt lat="47.52369" lon="6.77497">
        <ele>390</ele>
        <time>2014-12-30T09:40:48Z</time>
      </trkpt>
      <trkpt lat="47.52366" lon="6.77498">
        <ele>390</ele>
        <time>2014-12-30T09:40:49Z</time>
      </trkpt>
      <trkpt lat="47.52364" lon="6.775">
        <ele>390</ele>
        <time>2014-12-30T09:40:50Z</time>
      </trkpt>
      <trkpt lat="47.52362" lon="6.77502">
        <ele>389</ele>
        <time>2014-12-30T09:40:51Z</time>
      </trkpt>
      <trkpt lat="47.52359" lon="6.77503">
        <ele>388</ele>
        <time>2014-12-30T09:40:52Z</time>
      </trkpt>
      <trkpt lat="47.52356" lon="6.77504">
        <ele>388</ele>
        <time>2014-12-30T09:40:53Z</time>
      </trkpt>
      <trkpt lat="47.52354" lon="6.77506">
        <ele>388</ele>
        <time>2014-12-30T09:40:54Z</time>
      </trkpt>
      <trkpt lat="47.52351" lon="6.77507">
        <ele>388</ele>
        <time>2014-12-30T09:40:55Z</time>
      </trkpt>
      <trkpt lat="47.52348" lon="6.77509">
        <ele>388</ele>
        <time>2014-12-30T09:40:56Z</time>
      </trkpt>
      <trkpt lat="47.52345" lon="6.7751">
        <ele>388</ele>
        <time>2014-12-30T09:40:57Z</time>
      </trkpt>
      <trkpt lat="47.52342" lon="6.77511">
        <ele>388</ele>
        <time>2014-12-30T09:40:58Z</time>
      </trkpt>
      <trkpt lat="47.52339" lon="6.77513">
        <ele>388</ele>
        <time>2014-12-30T09:40:59Z</time>
      </trkpt>
      <trkpt lat="47.52336" lon="6.77514">
        <ele>388</ele>
        <time>2014-12-30T09:41:00Z</time>
      </trkpt>
      <trkpt lat="47.52334" lon="6.77516">
        <ele>388</ele>
        <time>2014-12-30T09:41:01Z</time>
      </trkpt>
      <trkpt lat="47.52331" lon="6.77518">
        <ele>388</ele>
        <time>2014-12-30T09:41:02Z</time>
      </trkpt>
      <trkpt lat="47.52329" lon="6.7752">
        <ele>388</ele>
        <time>2014-12-30T09:41:03Z</time>
      </trkpt>
      <trkpt lat="47.52326" lon="6.77523">
        <ele>388</ele>
        <time>2014-12-30T09:41:04Z</time>
      </trkpt>
      <trkpt lat="47.52324" lon="6.77525">
        <ele>388</ele>
        <time>2014-12-30T09:41:05Z</time>
      </trkpt>
      <trkpt lat="47.52322" lon="6.77528">
        <ele>388</ele>
        <time>2014-12-30T09:41:06Z</time>
      </trkpt>
      <trkpt lat="47.5232" lon="6.7753">
        <ele>388</ele>
        <time>2014-12-30T09:41:07Z</time>
      </trkpt>
      <trkpt lat="47.52317" lon="6.77532">
        <ele>387</ele>
        <time>2014-12-30T09:41:08Z</time>
      </trkpt>
      <trkpt lat="47.52314" lon="6.77534">
        <ele>387</ele>
        <time>2014-12-30T09:41:09Z</time>
      </trkpt>
      <trkpt lat="47.52311" lon="6.77535">
        <ele>387</ele>
        <time>2014-12-30T09:41:10Z</time>
      </trkpt>
      <trkpt lat="47.52308" lon="6.77536">
        <ele>387</ele>
        <time>2014-12-30T09:41:11Z</time>
      </trkpt>
      <trkpt lat="47.52306" lon="6.77537">
        <ele>387</ele>
        <time>2014-12-30T09:41:12Z</time>
      </trkpt>
      <trkpt lat="47.52303" lon="6.77537">
        <ele>387</ele>
        <time>2014-12-30T09:41:13Z</time>
      </trkpt>
      <trkpt lat="47.52301" lon="6.77539">
        <ele>387</ele>
        <time>2014-12-30T09:41:14Z</time>
      </trkpt>
      <trkpt lat="47.52298" lon="6.7754">
        <ele>387</ele>
        <time>2014-12-30T09:41:15Z</time>
      </trkpt>
      <trkpt lat="47.52296" lon="6.77542">
        <ele>387</ele>
        <time>2014-12-30T09:41:16Z</time>
      </trkpt>
      <trkpt lat="47.52293" lon="6.77544">
        <ele>387</ele>
        <time>2014-12-30T09:41:17Z</time>
      </trkpt>
      <trkpt lat="47.5229" lon="6.77546">
        <ele>387</ele>
        <time>2014-12-30T09:41:18Z</time>
      </trkpt>
      <trkpt lat="47.52287" lon="6.77549">
        <ele>387</ele>
        <time>2014-12-30T09:41:19Z</time>
      </trkpt>
      <trkpt lat="47.52285" lon="6.77551">
        <ele>387</ele>
        <time>2014-12-30T09:41:20Z</time>
      </trkpt>
      <trkpt lat="47.52282" lon="6.77554">
        <ele>386</ele>
        <time>2014-12-30T09:41:21Z</time>
      </trkpt>
      <trkpt lat="47.5228" lon="6.77556">
        <ele>386</ele>
        <time>2014-12-30T09:41:22Z</time>
      </trkpt>
      <trkpt lat="47.52277" lon="6.77558">
        <ele>386</ele>
        <time>2014-12-30T09:41:23Z</time>
      </trkpt>
      <trkpt lat="47.52275" lon="6.7756">
        <ele>386</ele>
        <time>2014-12-30T09:41:24Z</time>
      </trkpt>
      <trkpt lat="47.52272" lon="6.77562">
        <ele>386</ele>
        <time>2014-12-30T09:41:25Z</time>
      </trkpt>
      <trkpt lat="47.52269" lon="6.77563">
        <ele>386</ele>
        <time>2014-12-30T09:41:26Z</time>
      </trkpt>
      <trkpt lat="47.52267" lon="6.77564">
        <ele>386</ele>
        <time>2014-12-30T09:41:27Z</time>
      </trkpt>
      <trkpt lat="47.52246" lon="6.7758">
        <ele>386</ele>
        <time>2014-12-30T09:41:35Z</time>
      </trkpt>
      <trkpt lat="47.52243" lon="6.77582">
        <ele>386</ele>
        <time>2014-12-30T09:41:36Z</time>
      </trkpt>
      <trkpt lat="47.5224" lon="6.77583">
        <ele>386</ele>
        <time>2014-12-30T09:41:37Z</time>
      </trkpt>
      <trkpt lat="47.52237" lon="6.77585">
        <ele>385</ele>
        <time>2014-12-30T09:41:38Z</time>
      </trkpt>
      <trkpt lat="47.52234" lon="6.77587">
        <ele>385</ele>
        <time>2014-12-30T09:41:39Z</time>
      </trkpt>
      <trkpt lat="47.52232" lon="6.77588">
        <ele>385</ele>
        <time>2014-12-30T09:41:40Z</time>
      </trkpt>
      <trkpt lat="47.52229" lon="6.7759">
        <ele>385</ele>
        <time>2014-12-30T09:41:41Z</time>
      </trkpt>
      <trkpt lat="47.52227" lon="6.77592">
        <ele>386</ele>
        <time>2014-12-30T09:41:42Z</time>
      </trkpt>
      <trkpt lat="47.52224" lon="6.77594">
        <ele>386</ele>
        <time>2014-12-30T09:41:43Z</time>
      </trkpt>
      <trkpt lat="47.52222" lon="6.77596">
        <ele>386</ele>
        <time>2014-12-30T09:41:44Z</time>
      </trkpt>
      <trkpt lat="47.5222" lon="6.77597">
        <ele>386</ele>
        <time>2014-12-30T09:41:45Z</time>
      </trkpt>
      <trkpt lat="47.52218" lon="6.77599">
        <ele>386</ele>
        <time>2014-12-30T09:41:46Z</time>
      </trkpt>
      <trkpt lat="47.52215" lon="6.776">
        <ele>386</ele>
        <time>2014-12-30T09:41:47Z</time>
      </trkpt>
      <trkpt lat="47.52213" lon="6.77602">
        <ele>386</ele>
        <time>2014-12-30T09:41:48Z</time>
      </trkpt>
      <trkpt lat="47.52211" lon="6.77604">
        <ele>386</ele>
        <time>2014-12-30T09:41:49Z</time>
      </trkpt>
      <trkpt lat="47.52208" lon="6.77605">
        <ele>386</ele>
        <time>2014-12-30T09:41:50Z</time>
      </trkpt>
      <trkpt lat="47.52206" lon="6.77607">
        <ele>386</ele>
        <time>2014-12-30T09:41:51Z</time>
      </trkpt>
      <trkpt lat="47.52203" lon="6.77609">
        <ele>386</ele>
        <time>2014-12-30T09:41:52Z</time>
      </trkpt>
      <trkpt lat="47.52201" lon="6.77611">
        <ele>387</ele>
        <time>2014-12-30T09:41:53Z</time>
      </trkpt>
      <trkpt lat="47.52198" lon="6.77613">
        <ele>387</ele>
        <time>2014-12-30T09:41:54Z</time>
      </trkpt>
      <trkpt lat="47.52196" lon="6.77615">
        <ele>387</ele>
        <time>2014-12-30T09:41:55Z</time>
      </trkpt>
      <trkpt lat="47.52193" lon="6.77618">
        <ele>387</ele>
        <time>2014-12-30T09:41:57Z</time>
      </trkpt>
      <trkpt lat="47.5219" lon="6.7762">
        <ele>387</ele>
        <time>2014-12-30T09:41:58Z</time>
      </trkpt>
      <trkpt lat="47.52188" lon="6.77622">
        <ele>387</ele>
        <time>2014-12-30T09:41:59Z</time>
      </trkpt>
      <trkpt lat="47.52186" lon="6.77624">
        <ele>387</ele>
        <time>2014-12-30T09:42:00Z</time>
      </trkpt>
      <trkpt lat="47.52184" lon="6.77626">
        <ele>387</ele>
        <time>2014-12-30T09:42:01Z</time>
      </trkpt>
      <trkpt lat="47.52182" lon="6.77628">
        <ele>387</ele>
        <time>2014-12-30T09:42:02Z</time>
      </trkpt>
      <trkpt lat="47.5218" lon="6.7763">
        <ele>388</ele>
        <time>2014-12-30T09:42:03Z</time>
      </trkpt>
      <trkpt lat="47.52177" lon="6.77632">
        <ele>388</ele>
        <time>2014-12-30T09:42:04Z</time>
      </trkpt>
      <trkpt lat="47.52174" lon="6.77636">
        <ele>388</ele>
        <time>2014-12-30T09:42:06Z</time>
      </trkpt>
      <trkpt lat="47.52173" lon="6.77637">
        <ele>388</ele>
        <time>2014-12-30T09:42:07Z</time>
      </trkpt>
      <trkpt lat="47.52169" lon="6.7764">
        <ele>388</ele>
        <time>2014-12-30T09:42:09Z</time>
      </trkpt>
      <trkpt lat="47.52167" lon="6.77641">
        <ele>388</ele>
        <time>2014-12-30T09:42:10Z</time>
      </trkpt>
      <trkpt lat="47.52164" lon="6.77642">
        <ele>389</ele>
        <time>2014-12-30T09:42:11Z</time>
      </trkpt>
      <trkpt lat="47.52162" lon="6.77644">
        <ele>389</ele>
        <time>2014-12-30T09:42:12Z</time>
      </trkpt>
      <trkpt lat="47.5216" lon="6.77645">
        <ele>389</ele>
        <time>2014-12-30T09:42:13Z</time>
      </trkpt>
      <trkpt lat="47.52157" lon="6.77646">
        <ele>389</ele>
        <time>2014-12-30T09:42:14Z</time>
      </trkpt>
      <trkpt lat="47.52155" lon="6.77647">
        <ele>389</ele>
        <time>2014-12-30T09:42:15Z</time>
      </trkpt>
      <trkpt lat="47.52152" lon="6.77649">
        <ele>389</ele>
        <time>2014-12-30T09:42:16Z</time>
      </trkpt>
      <trkpt lat="47.52149" lon="6.7765">
        <ele>389</ele>
        <time>2014-12-30T09:42:17Z</time>
      </trkpt>
      <trkpt lat="47.52147" lon="6.7765">
        <ele>389</ele>
        <time>2014-12-30T09:42:18Z</time>
      </trkpt>
      <trkpt lat="47.52144" lon="6.77651">
        <ele>389</ele>
        <time>2014-12-30T09:42:19Z</time>
      </trkpt>
      <trkpt lat="47.52142" lon="6.77652">
        <ele>389</ele>
        <time>2014-12-30T09:42:20Z</time>
      </trkpt>
      <trkpt lat="47.5214" lon="6.77653">
        <ele>389</ele>
        <time>2014-12-30T09:42:21Z</time>
      </trkpt>
      <trkpt lat="47.52137" lon="6.77654">
        <ele>389</ele>
        <time>2014-12-30T09:42:22Z</time>
      </trkpt>
      <trkpt lat="47.52134" lon="6.77654">
        <ele>390</ele>
        <time>2014-12-30T09:42:23Z</time>
      </trkpt>
      <trkpt lat="47.52131" lon="6.77655">
        <ele>390</ele>
        <time>2014-12-30T09:42:24Z</time>
      </trkpt>
      <trkpt lat="47.52128" lon="6.77656">
        <ele>390</ele>
        <time>2014-12-30T09:42:25Z</time>
      </trkpt>
      <trkpt lat="47.52125" lon="6.77656">
        <ele>390</ele>
        <time>2014-12-30T09:42:26Z</time>
      </trkpt>
      <trkpt lat="47.52119" lon="6.7766">
        <ele>391</ele>
        <time>2014-12-30T09:42:29Z</time>
      </trkpt>
      <trkpt lat="47.52117" lon="6.77662">
        <ele>391</ele>
        <time>2014-12-30T09:42:30Z</time>
      </trkpt>
      <trkpt lat="47.52115" lon="6.77664">
        <ele>391</ele>
        <time>2014-12-30T09:42:31Z</time>
      </trkpt>
      <trkpt lat="47.52112" lon="6.77666">
        <ele>391</ele>
        <time>2014-12-30T09:42:32Z</time>
      </trkpt>
      <trkpt lat="47.5211" lon="6.77667">
        <ele>391</ele>
        <time>2014-12-30T09:42:33Z</time>
      </trkpt>
      <trkpt lat="47.52107" lon="6.77668">
        <ele>392</ele>
        <time>2014-12-30T09:42:34Z</time>
      </trkpt>
      <trkpt lat="47.52104" lon="6.7767">
        <ele>392</ele>
        <time>2014-12-30T09:42:35Z</time>
      </trkpt>
      <trkpt lat="47.521" lon="6.77672">
        <ele>392</ele>
        <time>2014-12-30T09:42:37Z</time>
      </trkpt>
      <trkpt lat="47.52099" lon="6.77672">
        <ele>392</ele>
        <time>2014-12-30T09:42:38Z</time>
      </trkpt>
      <trkpt lat="47.52096" lon="6.77668">
        <ele>392</ele>
        <time>2014-12-30T09:42:40Z</time>
      </trkpt>
      <trkpt lat="47.52095" lon="6.77666">
        <ele>392</ele>
        <time>2014-12-30T09:42:41Z</time>
      </trkpt>
      <trkpt lat="47.52095" lon="6.77662">
        <ele>392</ele>
        <time>2014-12-30T09:42:42Z</time>
      </trkpt>
      <trkpt lat="47.52095" lon="6.77658">
        <ele>392</ele>
        <time>2014-12-30T09:42:43Z</time>
      </trkpt>
      <trkpt lat="47.52095" lon="6.77654">
        <ele>392</ele>
        <time>2014-12-30T09:42:44Z</time>
      </trkpt>
      <trkpt lat="47.52095" lon="6.7765">
        <ele>392</ele>
        <time>2014-12-30T09:42:45Z</time>
      </trkpt>
      <trkpt lat="47.52095" lon="6.77646">
        <ele>392</ele>
        <time>2014-12-30T09:42:46Z</time>
      </trkpt>
      <trkpt lat="47.52094" lon="6.77642">
        <ele>392</ele>
        <time>2014-12-30T09:42:47Z</time>
      </trkpt>
      <trkpt lat="47.52094" lon="6.77638">
        <ele>392</ele>
        <time>2014-12-30T09:42:48Z</time>
      </trkpt>
      <trkpt lat="47.52093" lon="6.77635">
        <ele>392</ele>
        <time>2014-12-30T09:42:49Z</time>
      </trkpt>
      <trkpt lat="47.52092" lon="6.77632">
        <ele>392</ele>
        <time>2014-12-30T09:42:50Z</time>
      </trkpt>
      <trkpt lat="47.52093" lon="6.77628">
        <ele>392</ele>
        <time>2014-12-30T09:42:51Z</time>
      </trkpt>
      <trkpt lat="47.52093" lon="6.77624">
        <ele>392</ele>
        <time>2014-12-30T09:42:52Z</time>
      </trkpt>
      <trkpt lat="47.52093" lon="6.7762">
        <ele>391</ele>
        <time>2014-12-30T09:42:53Z</time>
      </trkpt>
      <trkpt lat="47.52093" lon="6.77615">
        <ele>391</ele>
        <time>2014-12-30T09:42:54Z</time>
      </trkpt>
      <trkpt lat="47.52093" lon="6.77611">
        <ele>391</ele>
        <time>2014-12-30T09:42:55Z</time>
      </trkpt>
      <trkpt lat="47.52093" lon="6.77606">
        <ele>391</ele>
        <time>2014-12-30T09:42:56Z</time>
      </trkpt>
      <trkpt lat="47.52092" lon="6.77602">
        <ele>391</ele>
        <time>2014-12-30T09:42:57Z</time>
      </trkpt>
      <trkpt lat="47.52092" lon="6.77598">
        <ele>391</ele>
        <time>2014-12-30T09:42:58Z</time>
      </trkpt>
      <trkpt lat="47.52092" lon="6.77594">
        <ele>391</ele>
        <time>2014-12-30T09:42:59Z</time>
      </trkpt>
      <trkpt lat="47.52092" lon="6.77591">
        <ele>391</ele>
        <time>2014-12-30T09:43:00Z</time>
      </trkpt>
      <trkpt lat="47.52093" lon="6.77586">
        <ele>391</ele>
        <time>2014-12-30T09:43:01Z</time>
      </trkpt>
      <trkpt lat="47.52092" lon="6.77582">
        <ele>391</ele>
        <time>2014-12-30T09:43:02Z</time>
      </trkpt>
      <trkpt lat="47.52092" lon="6.77577">
        <ele>391</ele>
        <time>2014-12-30T09:43:03Z</time>
      </trkpt>
      <trkpt lat="47.52092" lon="6.77573">
        <ele>391</ele>
        <time>2014-12-30T09:43:04Z</time>
      </trkpt>
      <trkpt lat="47.52091" lon="6.77568">
        <ele>391</ele>
        <time>2014-12-30T09:43:05Z</time>
      </trkpt>
      <trkpt lat="47.52091" lon="6.77564">
        <ele>391</ele>
        <time>2014-12-30T09:43:06Z</time>
      </trkpt>
      <trkpt lat="47.52091" lon="6.77561">
        <ele>391</ele>
        <time>2014-12-30T09:43:07Z</time>
      </trkpt>
      <trkpt lat="47.52089" lon="6.77557">
        <ele>391</ele>
        <time>2014-12-30T09:43:09Z</time>
      </trkpt>
      <trkpt lat="47.52088" lon="6.77555">
        <ele>391</ele>
        <time>2014-12-30T09:43:10Z</time>
      </trkpt>
      <trkpt lat="47.52086" lon="6.77554">
        <ele>391</ele>
        <time>2014-12-30T09:43:11Z</time>
      </trkpt>
      <trkpt lat="47.52083" lon="6.77552">
        <ele>391</ele>
        <time>2014-12-30T09:43:12Z</time>
      </trkpt>
      <trkpt lat="47.52081" lon="6.77551">
        <ele>391</ele>
        <time>2014-12-30T09:43:13Z</time>
      </trkpt>
      <trkpt lat="47.52078" lon="6.7755">
        <ele>391</ele>
        <time>2014-12-30T09:43:14Z</time>
      </trkpt>
      <trkpt lat="47.52075" lon="6.77549">
        <ele>390</ele>
        <time>2014-12-30T09:43:15Z</time>
      </trkpt>
      <trkpt lat="47.52073" lon="6.77549">
        <ele>390</ele>
        <time>2014-12-30T09:43:16Z</time>
      </trkpt>
      <trkpt lat="47.5207" lon="6.77549">
        <ele>390</ele>
        <time>2014-12-30T09:43:17Z</time>
      </trkpt>
      <trkpt lat="47.52067" lon="6.77549">
        <ele>390</ele>
        <time>2014-12-30T09:43:18Z</time>
      </trkpt>
      <trkpt lat="47.52065" lon="6.77549">
        <ele>390</ele>
        <time>2014-12-30T09:43:19Z</time>
      </trkpt>
      <trkpt lat="47.52062" lon="6.7755">
        <ele>390</ele>
        <time>2014-12-30T09:43:20Z</time>
      </trkpt>
      <trkpt lat="47.52058" lon="6.77551">
        <ele>390</ele>
        <time>2014-12-30T09:43:22Z</time>
      </trkpt>
      <trkpt lat="47.52056" lon="6.77549">
        <ele>390</ele>
        <time>2014-12-30T09:43:23Z</time>
      </trkpt>
      <trkpt lat="47.52054" lon="6.77548">
        <ele>390</ele>
        <time>2014-12-30T09:43:24Z</time>
      </trkpt>
      <trkpt lat="47.52051" lon="6.77546">
        <ele>390</ele>
        <time>2014-12-30T09:43:25Z</time>
      </trkpt>
      <trkpt lat="47.52048" lon="6.77544">
        <ele>390</ele>
        <time>2014-12-30T09:43:26Z</time>
      </trkpt>
      <trkpt lat="47.52038" lon="6.77543">
        <ele>390</ele>
        <time>2014-12-30T09:43:29Z</time>
      </trkpt>
      <trkpt lat="47.52034" lon="6.77543">
        <ele>390</ele>
        <time>2014-12-30T09:43:30Z</time>
      </trkpt>
      <trkpt lat="47.52032" lon="6.77542">
        <ele>390</ele>
        <time>2014-12-30T09:43:31Z</time>
      </trkpt>
      <trkpt lat="47.52029" lon="6.77541">
        <ele>390</ele>
        <time>2014-12-30T09:43:32Z</time>
      </trkpt>
      <trkpt lat="47.52026" lon="6.77541">
        <ele>390</ele>
        <time>2014-12-30T09:43:33Z</time>
      </trkpt>
      <trkpt lat="47.52023" lon="6.7754">
        <ele>390</ele>
        <time>2014-12-30T09:43:34Z</time>
      </trkpt>
      <trkpt lat="47.52019" lon="6.77539">
        <ele>390</ele>
        <time>2014-12-30T09:43:35Z</time>
      </trkpt>
      <trkpt lat="47.52016" lon="6.77538">
        <ele>390</ele>
        <time>2014-12-30T09:43:36Z</time>
      </trkpt>
      <trkpt lat="47.52014" lon="6.77539">
        <ele>390</ele>
        <time>2014-12-30T09:43:37Z</time>
      </trkpt>
      <trkpt lat="47.5201" lon="6.77537">
        <ele>390</ele>
        <time>2014-12-30T09:43:38Z</time>
      </trkpt>
      <trkpt lat="47.52007" lon="6.77534">
        <ele>390</ele>
        <time>2014-12-30T09:43:39Z</time>
      </trkpt>
      <trkpt lat="47.52004" lon="6.77532">
        <ele>389</ele>
        <time>2014-12-30T09:43:40Z</time>
      </trkpt>
      <trkpt lat="47.52" lon="6.77533">
        <ele>389</ele>
        <time>2014-12-30T09:43:41Z</time>
      </trkpt>
      <trkpt lat="47.51996" lon="6.77532">
        <ele>389</ele>
        <time>2014-12-30T09:43:42Z</time>
      </trkpt>
      <trkpt lat="47.51994" lon="6.77531">
        <ele>389</ele>
        <time>2014-12-30T09:43:43Z</time>
      </trkpt>
      <trkpt lat="47.51993" lon="6.7753">
        <ele>389</ele>
        <time>2014-12-30T09:43:44Z</time>
      </trkpt>
      <trkpt lat="47.5199" lon="6.77529">
        <ele>389</ele>
        <time>2014-12-30T09:43:45Z</time>
      </trkpt>
      <trkpt lat="47.51988" lon="6.77528">
        <ele>389</ele>
        <time>2014-12-30T09:43:46Z</time>
      </trkpt>
      <trkpt lat="47.51985" lon="6.77528">
        <ele>389</ele>
        <time>2014-12-30T09:43:47Z</time>
      </trkpt>
      <trkpt lat="47.51982" lon="6.77527">
        <ele>389</ele>
        <time>2014-12-30T09:43:48Z</time>
      </trkpt>
      <trkpt lat="47.5198" lon="6.77527">
        <ele>389</ele>
        <time>2014-12-30T09:43:49Z</time>
      </trkpt>
      <trkpt lat="47.51977" lon="6.77528">
        <ele>389</ele>
        <time>2014-12-30T09:43:50Z</time>
      </trkpt>
      <trkpt lat="47.51975" lon="6.77528">
        <ele>389</ele>
        <time>2014-12-30T09:43:51Z</time>
      </trkpt>
      <trkpt lat="47.51972" lon="6.77528">
        <ele>389</ele>
        <time>2014-12-30T09:43:52Z</time>
      </trkpt>
      <trkpt lat="47.5197" lon="6.77527">
        <ele>389</ele>
        <time>2014-12-30T09:43:53Z</time>
      </trkpt>
      <trkpt lat="47.51967" lon="6.77526">
        <ele>389</ele>
        <time>2014-12-30T09:43:54Z</time>
      </trkpt>
      <trkpt lat="47.51965" lon="6.77524">
        <ele>389</ele>
        <time>2014-12-30T09:43:55Z</time>
      </trkpt>
      <trkpt lat="47.51962" lon="6.77523">
        <ele>389</ele>
        <time>2014-12-30T09:43:56Z</time>
      </trkpt>
      <trkpt lat="47.5196" lon="6.77522">
        <ele>389</ele>
        <time>2014-12-30T09:43:57Z</time>
      </trkpt>
      <trkpt lat="47.51957" lon="6.77521">
        <ele>389</ele>
        <time>2014-12-30T09:43:58Z</time>
      </trkpt>
      <trkpt lat="47.51955" lon="6.77521">
        <ele>389</ele>
        <time>2014-12-30T09:43:59Z</time>
      </trkpt>
      <trkpt lat="47.51952" lon="6.7752">
        <ele>389</ele>
        <time>2014-12-30T09:44:00Z</time>
      </trkpt>
      <trkpt lat="47.5195" lon="6.7752">
        <ele>389</ele>
        <time>2014-12-30T09:44:01Z</time>
      </trkpt>
      <trkpt lat="47.51947" lon="6.7752">
        <ele>389</ele>
        <time>2014-12-30T09:44:02Z</time>
      </trkpt>
      <trkpt lat="47.51945" lon="6.77521">
        <ele>389</ele>
        <time>2014-12-30T09:44:03Z</time>
      </trkpt>
      <trkpt lat="47.51941" lon="6.77522">
        <ele>389</ele>
        <time>2014-12-30T09:44:05Z</time>
      </trkpt>
      <trkpt lat="47.51939" lon="6.77523">
        <ele>389</ele>
        <time>2014-12-30T09:44:06Z</time>
      </trkpt>
      <trkpt lat="47.51936" lon="6.77524">
        <ele>388</ele>
        <time>2014-12-30T09:44:07Z</time>
      </trkpt>
      <trkpt lat="47.51934" lon="6.77525">
        <ele>388</ele>
        <time>2014-12-30T09:44:08Z</time>
      </trkpt>
      <trkpt lat="47.51932" lon="6.77525">
        <ele>388</ele>
        <time>2014-12-30T09:44:09Z</time>
      </trkpt>
      <trkpt lat="47.51929" lon="6.77524">
        <ele>388</ele>
        <time>2014-12-30T09:44:10Z</time>
      </trkpt>
      <trkpt lat="47.51926" lon="6.77523">
        <ele>388</ele>
        <time>2014-12-30T09:44:11Z</time>
      </trkpt>
      <trkpt lat="47.51924" lon="6.77522">
        <ele>388</ele>
        <time>2014-12-30T09:44:12Z</time>
      </trkpt>
      <trkpt lat="47.51921" lon="6.7752">
        <ele>388</ele>
        <time>2014-12-30T09:44:13Z</time>
      </trkpt>
      <trkpt lat="47.51919" lon="6.77518">
        <ele>388</ele>
        <time>2014-12-30T09:44:14Z</time>
      </trkpt>
      <trkpt lat="47.51916" lon="6.77517">
        <ele>388</ele>
        <time>2014-12-30T09:44:15Z</time>
      </trkpt>
      <trkpt lat="47.51913" lon="6.77515">
        <ele>388</ele>
        <time>2014-12-30T09:44:16Z</time>
      </trkpt>
      <trkpt lat="47.5191" lon="6.77513">
        <ele>388</ele>
        <time>2014-12-30T09:44:17Z</time>
      </trkpt>
      <trkpt lat="47.51908" lon="6.77512">
        <ele>388</ele>
        <time>2014-12-30T09:44:18Z</time>
      </trkpt>
      <trkpt lat="47.51905" lon="6.77512">
        <ele>388</ele>
        <time>2014-12-30T09:44:19Z</time>
      </trkpt>
      <trkpt lat="47.51902" lon="6.77511">
        <ele>388</ele>
        <time>2014-12-30T09:44:20Z</time>
      </trkpt>
      <trkpt lat="47.51899" lon="6.77512">
        <ele>388</ele>
        <time>2014-12-30T09:44:21Z</time>
      </trkpt>
      <trkpt lat="47.51896" lon="6.77512">
        <ele>388</ele>
        <time>2014-12-30T09:44:22Z</time>
      </trkpt>
      <trkpt lat="47.51893" lon="6.77512">
        <ele>388</ele>
        <time>2014-12-30T09:44:23Z</time>
      </trkpt>
      <trkpt lat="47.51891" lon="6.77511">
        <ele>388</ele>
        <time>2014-12-30T09:44:24Z</time>
      </trkpt>
      <trkpt lat="47.51889" lon="6.7751">
        <ele>388</ele>
        <time>2014-12-30T09:44:25Z</time>
      </trkpt>
      <trkpt lat="47.51886" lon="6.77509">
        <ele>388</ele>
        <time>2014-12-30T09:44:26Z</time>
      </trkpt>
      <trkpt lat="47.51865" lon="6.77502">
        <ele>387</ele>
        <time>2014-12-30T09:44:35Z</time>
      </trkpt>
      <trkpt lat="47.51861" lon="6.77501">
        <ele>387</ele>
        <time>2014-12-30T09:44:37Z</time>
      </trkpt>
      <trkpt lat="47.5186" lon="6.77499">
        <ele>386</ele>
        <time>2014-12-30T09:44:38Z</time>
      </trkpt>
      <trkpt lat="47.51856" lon="6.77497">
        <ele>386</ele>
        <time>2014-12-30T09:44:41Z</time>
      </trkpt>
      <trkpt lat="47.51855" lon="6.77497">
        <ele>386</ele>
        <time>2014-12-30T09:44:42Z</time>
      </trkpt>
      <trkpt lat="47.51852" lon="6.77494">
        <ele>386</ele>
        <time>2014-12-30T09:44:45Z</time>
      </trkpt>
      <trkpt lat="47.51851" lon="6.77493">
        <ele>386</ele>
        <time>2014-12-30T09:44:46Z</time>
      </trkpt>
      <trkpt lat="47.51852" lon="6.77499">
        <ele>386</ele>
        <time>2014-12-30T09:52:39Z</time>
      </trkpt>
      <trkpt lat="47.51853" lon="6.77499">
        <ele>386</ele>
        <time>2014-12-30T09:52:40Z</time>
      </trkpt>
      <trkpt lat="47.51855" lon="6.77495">
        <ele>386</ele>
        <time>2014-12-30T09:52:53Z</time>
      </trkpt>
      <trkpt lat="47.51856" lon="6.77493">
        <ele>386</ele>
        <time>2014-12-30T09:52:54Z</time>
      </trkpt>
      <trkpt lat="47.51858" lon="6.77488">
        <ele>386</ele>
        <time>2014-12-30T09:53:00Z</time>
      </trkpt>
      <trkpt lat="47.51858" lon="6.77487">
        <ele>386</ele>
        <time>2014-12-30T09:53:01Z</time>
      </trkpt>
      <trkpt lat="47.51858" lon="6.77482">
        <ele>386</ele>
        <time>2014-12-30T09:53:04Z</time>
      </trkpt>
      <trkpt lat="47.51858" lon="6.77479">
        <ele>386</ele>
        <time>2014-12-30T09:53:05Z</time>
      </trkpt>
      <trkpt lat="47.51862" lon="6.77477">
        <ele>386</ele>
        <time>2014-12-30T09:53:25Z</time>
      </trkpt>
      <trkpt lat="47.51862" lon="6.77476">
        <ele>386</ele>
        <time>2014-12-30T09:53:26Z</time>
      </trkpt>
      <trkpt lat="47.51862" lon="6.77475">
        <ele>386</ele>
        <time>2014-12-30T09:57:05Z</time>
      </trkpt>
    </trkseg>
  </trk>
</gpx>